<?xml version="1.0" encoding="UTF-8" standalone="no" ?>
<gpx xmlns="http://www.topografix.com/GPX/1/1" xmlns:xsi="http://www.w3.org/2001/XMLSchema-instance" xsi:schemaLocation="http://www.topografix.com/GPX/1/1 http://www.topografix.com/GPX/1/1/gpx.xsd" version="1.1" creator="VisuGPX - https://www.visugpx.com">
  <metadata>
    <name>Les étangs</name>
    <desc><![CDATA[Près de l\'étang Rompu, je tourne et retourne pour trouver le GR ! C\'est en fait un petit chemin qui monte bien, avec racines et pierres apparents !
Ensuite je préfère quitter le GR après avoir traverser la route (après le point 155), car le GR fait prendre un bout de la route mais qui est très dangereuse ! Peu de visibilité à cause de nombreux virages serrés et les voitures vont vite.
Le premier chemin à gauche est moins visible que sur la carte, étant au trot je l\'ai dépassé.. j\'ai donc récupéré le GR plus loin.
Étang rompu : 12h00 heure du rendez-vous... Nous déjeunerons plus tard à l\'étang Neuf et je rentrerais par les étangs de Hollande]]></desc>
  </metadata>
  <trk>
    <name><![CDATA[Saint-Léger-en-Yvelines Autre]]></name>
    <trkseg>
      <trkpt lat="48.70951" lon="1.74755">
        <ele>176</ele>
        <time>2015-06-25T08:24:36.000Z</time>
      </trkpt>
      <trkpt lat="48.70945" lon="1.74745">
        <ele>176</ele>
        <time>2015-06-25T08:24:41.000Z</time>
      </trkpt>
      <trkpt lat="48.70933" lon="1.74729">
        <ele>176</ele>
        <time>2015-06-25T08:24:53.000Z</time>
      </trkpt>
      <trkpt lat="48.70922" lon="1.74715">
        <ele>175.8</ele>
        <time>2015-06-25T08:25:02.000Z</time>
      </trkpt>
      <trkpt lat="48.70912" lon="1.74702">
        <ele>175.4</ele>
        <time>2015-06-25T08:25:11.000Z</time>
      </trkpt>
      <trkpt lat="48.70901" lon="1.74687">
        <ele>175.5</ele>
        <time>2015-06-25T08:25:22.000Z</time>
      </trkpt>
      <trkpt lat="48.70892" lon="1.74676">
        <ele>175.4</ele>
        <time>2015-06-25T08:25:31.000Z</time>
      </trkpt>
      <trkpt lat="48.70881" lon="1.74662">
        <ele>175.4</ele>
        <time>2015-06-25T08:25:41.000Z</time>
      </trkpt>
      <trkpt lat="48.70871" lon="1.7465">
        <ele>175.5</ele>
        <time>2015-06-25T08:25:50.000Z</time>
      </trkpt>
      <trkpt lat="48.70861" lon="1.74637">
        <ele>175.1</ele>
        <time>2015-06-25T08:25:59.000Z</time>
      </trkpt>
      <trkpt lat="48.70859" lon="1.74635">
        <ele>175.2</ele>
        <time>2015-06-25T08:26:03.000Z</time>
      </trkpt>
      <trkpt lat="48.70857" lon="1.74626">
        <ele>175.5</ele>
        <time>2015-06-25T08:27:14.000Z</time>
      </trkpt>
      <trkpt lat="48.70846" lon="1.74613">
        <ele>176</ele>
        <time>2015-06-25T08:27:22.000Z</time>
      </trkpt>
      <trkpt lat="48.70835" lon="1.74601">
        <ele>176</ele>
        <time>2015-06-25T08:27:31.000Z</time>
      </trkpt>
      <trkpt lat="48.70822" lon="1.74584">
        <ele>176</ele>
        <time>2015-06-25T08:27:43.000Z</time>
      </trkpt>
      <trkpt lat="48.70812" lon="1.74572">
        <ele>176</ele>
        <time>2015-06-25T08:27:52.000Z</time>
      </trkpt>
      <trkpt lat="48.70803" lon="1.7456">
        <ele>176.1</ele>
        <time>2015-06-25T08:28:01.000Z</time>
      </trkpt>
      <trkpt lat="48.70793" lon="1.74548">
        <ele>176.3</ele>
        <time>2015-06-25T08:28:10.000Z</time>
      </trkpt>
      <trkpt lat="48.70786" lon="1.74539">
        <ele>176.3</ele>
        <time>2015-06-25T08:28:17.000Z</time>
      </trkpt>
      <trkpt lat="48.70774" lon="1.74523">
        <ele>176</ele>
        <time>2015-06-25T08:28:28.000Z</time>
      </trkpt>
      <trkpt lat="48.70763" lon="1.7451">
        <ele>176</ele>
        <time>2015-06-25T08:28:38.000Z</time>
      </trkpt>
      <trkpt lat="48.70754" lon="1.745">
        <ele>176</ele>
        <time>2015-06-25T08:28:46.000Z</time>
      </trkpt>
      <trkpt lat="48.70745" lon="1.7449">
        <ele>176</ele>
        <time>2015-06-25T08:28:54.000Z</time>
      </trkpt>
      <trkpt lat="48.70735" lon="1.74478">
        <ele>176</ele>
        <time>2015-06-25T08:29:03.000Z</time>
      </trkpt>
      <trkpt lat="48.7073" lon="1.74466">
        <ele>176</ele>
        <time>2015-06-25T08:29:10.000Z</time>
      </trkpt>
      <trkpt lat="48.70735" lon="1.74455">
        <ele>176</ele>
        <time>2015-06-25T08:29:16.000Z</time>
      </trkpt>
      <trkpt lat="48.70749" lon="1.74445">
        <ele>176</ele>
        <time>2015-06-25T08:29:26.000Z</time>
      </trkpt>
      <trkpt lat="48.70765" lon="1.74436">
        <ele>176</ele>
        <time>2015-06-25T08:29:37.000Z</time>
      </trkpt>
      <trkpt lat="48.70781" lon="1.74426">
        <ele>176</ele>
        <time>2015-06-25T08:29:49.000Z</time>
      </trkpt>
      <trkpt lat="48.70793" lon="1.74417">
        <ele>176</ele>
        <time>2015-06-25T08:29:59.000Z</time>
      </trkpt>
      <trkpt lat="48.70806" lon="1.74409">
        <ele>176</ele>
        <time>2015-06-25T08:30:09.000Z</time>
      </trkpt>
      <trkpt lat="48.70816" lon="1.744">
        <ele>176</ele>
        <time>2015-06-25T08:30:18.000Z</time>
      </trkpt>
      <trkpt lat="48.70826" lon="1.74392">
        <ele>176</ele>
        <time>2015-06-25T08:30:26.000Z</time>
      </trkpt>
      <trkpt lat="48.70832" lon="1.74387">
        <ele>176</ele>
        <time>2015-06-25T08:30:32.000Z</time>
      </trkpt>
      <trkpt lat="48.7084" lon="1.74375">
        <ele>176</ele>
        <time>2015-06-25T08:30:40.000Z</time>
      </trkpt>
      <trkpt lat="48.70847" lon="1.74366">
        <ele>176</ele>
        <time>2015-06-25T08:30:47.000Z</time>
      </trkpt>
      <trkpt lat="48.70852" lon="1.74356">
        <ele>176</ele>
        <time>2015-06-25T08:30:53.000Z</time>
      </trkpt>
      <trkpt lat="48.70856" lon="1.74352">
        <ele>176</ele>
        <time>2015-06-25T08:30:58.000Z</time>
      </trkpt>
      <trkpt lat="48.70856" lon="1.74358">
        <ele>176</ele>
        <time>2015-06-25T08:31:03.000Z</time>
      </trkpt>
      <trkpt lat="48.70855" lon="1.74358">
        <ele>176</ele>
        <time>2015-06-25T08:31:05.000Z</time>
      </trkpt>
      <trkpt lat="48.7086" lon="1.74349">
        <ele>176</ele>
        <time>2015-06-25T08:31:33.000Z</time>
      </trkpt>
      <trkpt lat="48.70862" lon="1.74346">
        <ele>176</ele>
        <time>2015-06-25T08:31:36.000Z</time>
      </trkpt>
      <trkpt lat="48.70863" lon="1.74342">
        <ele>176</ele>
        <time>2015-06-25T08:31:38.000Z</time>
      </trkpt>
      <trkpt lat="48.70866" lon="1.74335">
        <ele>176</ele>
        <time>2015-06-25T08:31:43.000Z</time>
      </trkpt>
      <trkpt lat="48.70869" lon="1.74328">
        <ele>176</ele>
        <time>2015-06-25T08:31:47.000Z</time>
      </trkpt>
      <trkpt lat="48.70873" lon="1.74324">
        <ele>176</ele>
        <time>2015-06-25T08:31:51.000Z</time>
      </trkpt>
      <trkpt lat="48.70874" lon="1.74321">
        <ele>176</ele>
        <time>2015-06-25T08:31:53.000Z</time>
      </trkpt>
      <trkpt lat="48.70877" lon="1.74318">
        <ele>176</ele>
        <time>2015-06-25T08:31:57.000Z</time>
      </trkpt>
      <trkpt lat="48.70882" lon="1.74307">
        <ele>176</ele>
        <time>2015-06-25T08:32:03.000Z</time>
      </trkpt>
      <trkpt lat="48.70884" lon="1.743">
        <ele>176</ele>
        <time>2015-06-25T08:32:07.000Z</time>
      </trkpt>
      <trkpt lat="48.70886" lon="1.74296">
        <ele>176</ele>
        <time>2015-06-25T08:32:10.000Z</time>
      </trkpt>
      <trkpt lat="48.70894" lon="1.7428">
        <ele>176</ele>
        <time>2015-06-25T08:32:19.000Z</time>
      </trkpt>
      <trkpt lat="48.70896" lon="1.74277">
        <ele>176</ele>
        <time>2015-06-25T08:32:21.000Z</time>
      </trkpt>
      <trkpt lat="48.70902" lon="1.74267">
        <ele>176.2</ele>
        <time>2015-06-25T08:32:27.000Z</time>
      </trkpt>
      <trkpt lat="48.70903" lon="1.74263">
        <ele>176.3</ele>
        <time>2015-06-25T08:32:29.000Z</time>
      </trkpt>
      <trkpt lat="48.70904" lon="1.74254">
        <ele>176.4</ele>
        <time>2015-06-25T08:32:34.000Z</time>
      </trkpt>
      <trkpt lat="48.70906" lon="1.74246">
        <ele>176.5</ele>
        <time>2015-06-25T08:32:38.000Z</time>
      </trkpt>
      <trkpt lat="48.70906" lon="1.74243">
        <ele>176.5</ele>
        <time>2015-06-25T08:32:41.000Z</time>
      </trkpt>
      <trkpt lat="48.70905" lon="1.74237">
        <ele>176.7</ele>
        <time>2015-06-25T08:32:47.000Z</time>
      </trkpt>
      <trkpt lat="48.70904" lon="1.74235">
        <ele>176.8</ele>
        <time>2015-06-25T08:32:51.000Z</time>
      </trkpt>
      <trkpt lat="48.70908" lon="1.74229">
        <ele>176.8</ele>
        <time>2015-06-25T08:33:17.000Z</time>
      </trkpt>
      <trkpt lat="48.70911" lon="1.74222">
        <ele>177</ele>
        <time>2015-06-25T08:33:22.000Z</time>
      </trkpt>
      <trkpt lat="48.70914" lon="1.74213">
        <ele>177</ele>
        <time>2015-06-25T08:33:29.000Z</time>
      </trkpt>
      <trkpt lat="48.70914" lon="1.74199">
        <ele>177</ele>
        <time>2015-06-25T08:33:35.000Z</time>
      </trkpt>
      <trkpt lat="48.70918" lon="1.74192">
        <ele>177</ele>
        <time>2015-06-25T08:33:39.000Z</time>
      </trkpt>
      <trkpt lat="48.70921" lon="1.74184">
        <ele>177</ele>
        <time>2015-06-25T08:33:45.000Z</time>
      </trkpt>
      <trkpt lat="48.70923" lon="1.74177">
        <ele>177</ele>
        <time>2015-06-25T08:33:49.000Z</time>
      </trkpt>
      <trkpt lat="48.70926" lon="1.74163">
        <ele>177</ele>
        <time>2015-06-25T08:33:56.000Z</time>
      </trkpt>
      <trkpt lat="48.70929" lon="1.74153">
        <ele>177</ele>
        <time>2015-06-25T08:34:02.000Z</time>
      </trkpt>
      <trkpt lat="48.70931" lon="1.7414">
        <ele>177</ele>
        <time>2015-06-25T08:34:08.000Z</time>
      </trkpt>
      <trkpt lat="48.70933" lon="1.7413">
        <ele>177</ele>
        <time>2015-06-25T08:34:13.000Z</time>
      </trkpt>
      <trkpt lat="48.70935" lon="1.74125">
        <ele>177</ele>
        <time>2015-06-25T08:34:16.000Z</time>
      </trkpt>
      <trkpt lat="48.70936" lon="1.74121">
        <ele>177</ele>
        <time>2015-06-25T08:34:18.000Z</time>
      </trkpt>
      <trkpt lat="48.7094" lon="1.74107">
        <ele>177</ele>
        <time>2015-06-25T08:34:25.000Z</time>
      </trkpt>
      <trkpt lat="48.70941" lon="1.74104">
        <ele>177</ele>
        <time>2015-06-25T08:34:27.000Z</time>
      </trkpt>
      <trkpt lat="48.70942" lon="1.74086">
        <ele>177.1</ele>
        <time>2015-06-25T08:34:35.000Z</time>
      </trkpt>
      <trkpt lat="48.70944" lon="1.74072">
        <ele>177</ele>
        <time>2015-06-25T08:34:42.000Z</time>
      </trkpt>
      <trkpt lat="48.70946" lon="1.74068">
        <ele>177</ele>
        <time>2015-06-25T08:34:44.000Z</time>
      </trkpt>
      <trkpt lat="48.70949" lon="1.74055">
        <ele>177.2</ele>
        <time>2015-06-25T08:34:51.000Z</time>
      </trkpt>
      <trkpt lat="48.7095" lon="1.74048">
        <ele>177.4</ele>
        <time>2015-06-25T08:34:54.000Z</time>
      </trkpt>
      <trkpt lat="48.7095" lon="1.74043">
        <ele>177.6</ele>
        <time>2015-06-25T08:34:57.000Z</time>
      </trkpt>
      <trkpt lat="48.70951" lon="1.74039">
        <ele>177.7</ele>
        <time>2015-06-25T08:34:59.000Z</time>
      </trkpt>
      <trkpt lat="48.70955" lon="1.74026">
        <ele>178</ele>
        <time>2015-06-25T08:35:06.000Z</time>
      </trkpt>
      <trkpt lat="48.70957" lon="1.74023">
        <ele>178</ele>
        <time>2015-06-25T08:35:08.000Z</time>
      </trkpt>
      <trkpt lat="48.70961" lon="1.74011">
        <ele>178</ele>
        <time>2015-06-25T08:35:14.000Z</time>
      </trkpt>
      <trkpt lat="48.70964" lon="1.73998">
        <ele>178</ele>
        <time>2015-06-25T08:35:19.000Z</time>
      </trkpt>
      <trkpt lat="48.70967" lon="1.73985">
        <ele>178</ele>
        <time>2015-06-25T08:35:26.000Z</time>
      </trkpt>
      <trkpt lat="48.70969" lon="1.73979">
        <ele>178</ele>
        <time>2015-06-25T08:35:29.000Z</time>
      </trkpt>
      <trkpt lat="48.70972" lon="1.73977">
        <ele>178</ele>
        <time>2015-06-25T08:35:36.000Z</time>
      </trkpt>
      <trkpt lat="48.70974" lon="1.73968">
        <ele>177.8</ele>
        <time>2015-06-25T08:35:53.000Z</time>
      </trkpt>
      <trkpt lat="48.70977" lon="1.73956">
        <ele>177.5</ele>
        <time>2015-06-25T08:35:58.000Z</time>
      </trkpt>
      <trkpt lat="48.70978" lon="1.73953">
        <ele>177.4</ele>
        <time>2015-06-25T08:36:00.000Z</time>
      </trkpt>
      <trkpt lat="48.7098" lon="1.73942">
        <ele>177.3</ele>
        <time>2015-06-25T08:36:06.000Z</time>
      </trkpt>
      <trkpt lat="48.70982" lon="1.73928">
        <ele>177.7</ele>
        <time>2015-06-25T08:36:13.000Z</time>
      </trkpt>
      <trkpt lat="48.70983" lon="1.73921">
        <ele>177.9</ele>
        <time>2015-06-25T08:36:16.000Z</time>
      </trkpt>
      <trkpt lat="48.70986" lon="1.73907">
        <ele>178</ele>
        <time>2015-06-25T08:36:23.000Z</time>
      </trkpt>
      <trkpt lat="48.70987" lon="1.73899">
        <ele>178</ele>
        <time>2015-06-25T08:36:27.000Z</time>
      </trkpt>
      <trkpt lat="48.70989" lon="1.7389">
        <ele>178</ele>
        <time>2015-06-25T08:36:32.000Z</time>
      </trkpt>
      <trkpt lat="48.70992" lon="1.73872">
        <ele>178</ele>
        <time>2015-06-25T08:36:40.000Z</time>
      </trkpt>
      <trkpt lat="48.70995" lon="1.73861">
        <ele>178</ele>
        <time>2015-06-25T08:36:46.000Z</time>
      </trkpt>
      <trkpt lat="48.70995" lon="1.73859">
        <ele>178</ele>
        <time>2015-06-25T08:36:47.000Z</time>
      </trkpt>
      <trkpt lat="48.70996" lon="1.73852">
        <ele>178</ele>
        <time>2015-06-25T08:36:50.000Z</time>
      </trkpt>
      <trkpt lat="48.71" lon="1.73836">
        <ele>178</ele>
        <time>2015-06-25T08:36:58.000Z</time>
      </trkpt>
      <trkpt lat="48.71002" lon="1.73824">
        <ele>177.9</ele>
        <time>2015-06-25T08:37:04.000Z</time>
      </trkpt>
      <trkpt lat="48.71005" lon="1.7381">
        <ele>178</ele>
        <time>2015-06-25T08:37:11.000Z</time>
      </trkpt>
      <trkpt lat="48.7101" lon="1.738">
        <ele>178</ele>
        <time>2015-06-25T08:37:17.000Z</time>
      </trkpt>
      <trkpt lat="48.7101" lon="1.73796">
        <ele>178</ele>
        <time>2015-06-25T08:37:18.000Z</time>
      </trkpt>
      <trkpt lat="48.7102" lon="1.73786">
        <ele>178</ele>
        <time>2015-06-25T08:37:26.000Z</time>
      </trkpt>
      <trkpt lat="48.71022" lon="1.73782">
        <ele>178</ele>
        <time>2015-06-25T08:37:29.000Z</time>
      </trkpt>
      <trkpt lat="48.71029" lon="1.73776">
        <ele>178</ele>
        <time>2015-06-25T08:37:36.000Z</time>
      </trkpt>
      <trkpt lat="48.71031" lon="1.73774">
        <ele>177.9</ele>
        <time>2015-06-25T08:37:38.000Z</time>
      </trkpt>
      <trkpt lat="48.71039" lon="1.73764">
        <ele>177.6</ele>
        <time>2015-06-25T08:37:45.000Z</time>
      </trkpt>
      <trkpt lat="48.71041" lon="1.73762">
        <ele>177.5</ele>
        <time>2015-06-25T08:37:47.000Z</time>
      </trkpt>
      <trkpt lat="48.71044" lon="1.73756">
        <ele>177.4</ele>
        <time>2015-06-25T08:37:51.000Z</time>
      </trkpt>
      <trkpt lat="48.71053" lon="1.7375">
        <ele>177.1</ele>
        <time>2015-06-25T08:37:59.000Z</time>
      </trkpt>
      <trkpt lat="48.71055" lon="1.7375">
        <ele>177</ele>
        <time>2015-06-25T08:38:00.000Z</time>
      </trkpt>
      <trkpt lat="48.71063" lon="1.73741">
        <ele>177.2</ele>
        <time>2015-06-25T08:38:09.000Z</time>
      </trkpt>
      <trkpt lat="48.71066" lon="1.73738">
        <ele>177.3</ele>
        <time>2015-06-25T08:38:11.000Z</time>
      </trkpt>
      <trkpt lat="48.71073" lon="1.73732">
        <ele>177.2</ele>
        <time>2015-06-25T08:38:17.000Z</time>
      </trkpt>
      <trkpt lat="48.71081" lon="1.73724">
        <ele>177.1</ele>
        <time>2015-06-25T08:38:24.000Z</time>
      </trkpt>
      <trkpt lat="48.71085" lon="1.73722">
        <ele>177</ele>
        <time>2015-06-25T08:38:27.000Z</time>
      </trkpt>
      <trkpt lat="48.7109" lon="1.73714">
        <ele>177.3</ele>
        <time>2015-06-25T08:38:33.000Z</time>
      </trkpt>
      <trkpt lat="48.71099" lon="1.73707">
        <ele>177.6</ele>
        <time>2015-06-25T08:38:39.000Z</time>
      </trkpt>
      <trkpt lat="48.71107" lon="1.737">
        <ele>177.8</ele>
        <time>2015-06-25T08:38:46.000Z</time>
      </trkpt>
      <trkpt lat="48.71113" lon="1.73691">
        <ele>178</ele>
        <time>2015-06-25T08:38:52.000Z</time>
      </trkpt>
      <trkpt lat="48.71119" lon="1.73682">
        <ele>178</ele>
        <time>2015-06-25T08:38:58.000Z</time>
      </trkpt>
      <trkpt lat="48.71121" lon="1.73679">
        <ele>178</ele>
        <time>2015-06-25T08:39:00.000Z</time>
      </trkpt>
      <trkpt lat="48.71131" lon="1.73667">
        <ele>178</ele>
        <time>2015-06-25T08:39:09.000Z</time>
      </trkpt>
      <trkpt lat="48.71136" lon="1.73662">
        <ele>178</ele>
        <time>2015-06-25T08:39:13.000Z</time>
      </trkpt>
      <trkpt lat="48.71144" lon="1.73658">
        <ele>178</ele>
        <time>2015-06-25T08:39:19.000Z</time>
      </trkpt>
      <trkpt lat="48.71154" lon="1.73651">
        <ele>178</ele>
        <time>2015-06-25T08:39:26.000Z</time>
      </trkpt>
      <trkpt lat="48.71158" lon="1.73649">
        <ele>178</ele>
        <time>2015-06-25T08:39:29.000Z</time>
      </trkpt>
      <trkpt lat="48.71165" lon="1.73642">
        <ele>178</ele>
        <time>2015-06-25T08:39:36.000Z</time>
      </trkpt>
      <trkpt lat="48.71168" lon="1.73639">
        <ele>178</ele>
        <time>2015-06-25T08:39:39.000Z</time>
      </trkpt>
      <trkpt lat="48.71174" lon="1.73634">
        <ele>178</ele>
        <time>2015-06-25T08:39:45.000Z</time>
      </trkpt>
      <trkpt lat="48.71176" lon="1.7363">
        <ele>178</ele>
        <time>2015-06-25T08:39:48.000Z</time>
      </trkpt>
      <trkpt lat="48.7118" lon="1.73627">
        <ele>178</ele>
        <time>2015-06-25T08:39:51.000Z</time>
      </trkpt>
      <trkpt lat="48.71186" lon="1.73618">
        <ele>178</ele>
        <time>2015-06-25T08:39:57.000Z</time>
      </trkpt>
      <trkpt lat="48.71194" lon="1.73609">
        <ele>178</ele>
        <time>2015-06-25T08:40:04.000Z</time>
      </trkpt>
      <trkpt lat="48.71201" lon="1.73604">
        <ele>178</ele>
        <time>2015-06-25T08:40:11.000Z</time>
      </trkpt>
      <trkpt lat="48.71209" lon="1.7361">
        <ele>178</ele>
        <time>2015-06-25T08:40:16.000Z</time>
      </trkpt>
      <trkpt lat="48.71214" lon="1.73615">
        <ele>178</ele>
        <time>2015-06-25T08:40:20.000Z</time>
      </trkpt>
      <trkpt lat="48.71226" lon="1.73612">
        <ele>177.9</ele>
        <time>2015-06-25T08:40:28.000Z</time>
      </trkpt>
      <trkpt lat="48.71233" lon="1.73614">
        <ele>177.6</ele>
        <time>2015-06-25T08:40:34.000Z</time>
      </trkpt>
      <trkpt lat="48.71242" lon="1.73618">
        <ele>177.3</ele>
        <time>2015-06-25T08:40:42.000Z</time>
      </trkpt>
      <trkpt lat="48.71253" lon="1.73611">
        <ele>176.8</ele>
        <time>2015-06-25T08:40:50.000Z</time>
      </trkpt>
      <trkpt lat="48.71259" lon="1.73607">
        <ele>176.4</ele>
        <time>2015-06-25T08:40:54.000Z</time>
      </trkpt>
      <trkpt lat="48.71268" lon="1.73609">
        <ele>175.7</ele>
        <time>2015-06-25T08:41:00.000Z</time>
      </trkpt>
      <trkpt lat="48.71277" lon="1.73603">
        <ele>175.3</ele>
        <time>2015-06-25T08:41:07.000Z</time>
      </trkpt>
      <trkpt lat="48.71284" lon="1.73591">
        <ele>174.3</ele>
        <time>2015-06-25T08:41:15.000Z</time>
      </trkpt>
      <trkpt lat="48.7129" lon="1.73585">
        <ele>173.2</ele>
        <time>2015-06-25T08:41:20.000Z</time>
      </trkpt>
      <trkpt lat="48.71296" lon="1.73573">
        <ele>172.5</ele>
        <time>2015-06-25T08:41:27.000Z</time>
      </trkpt>
      <trkpt lat="48.71298" lon="1.7357">
        <ele>172.4</ele>
        <time>2015-06-25T08:41:29.000Z</time>
      </trkpt>
      <trkpt lat="48.713" lon="1.73556">
        <ele>172.8</ele>
        <time>2015-06-25T08:41:37.000Z</time>
      </trkpt>
      <trkpt lat="48.713" lon="1.73554">
        <ele>172.8</ele>
        <time>2015-06-25T08:41:38.000Z</time>
      </trkpt>
      <trkpt lat="48.71303" lon="1.73544">
        <ele>173.1</ele>
        <time>2015-06-25T08:41:44.000Z</time>
      </trkpt>
      <trkpt lat="48.71308" lon="1.73538">
        <ele>172.7</ele>
        <time>2015-06-25T08:41:49.000Z</time>
      </trkpt>
      <trkpt lat="48.71314" lon="1.73536">
        <ele>171.3</ele>
        <time>2015-06-25T08:41:54.000Z</time>
      </trkpt>
      <trkpt lat="48.71318" lon="1.7353">
        <ele>170.9</ele>
        <time>2015-06-25T08:41:59.000Z</time>
      </trkpt>
      <trkpt lat="48.71328" lon="1.73526">
        <ele>169.3</ele>
        <time>2015-06-25T08:42:07.000Z</time>
      </trkpt>
      <trkpt lat="48.71333" lon="1.73525">
        <ele>168.6</ele>
        <time>2015-06-25T08:42:11.000Z</time>
      </trkpt>
      <trkpt lat="48.7134" lon="1.73529">
        <ele>168.4</ele>
        <time>2015-06-25T08:42:17.000Z</time>
      </trkpt>
      <trkpt lat="48.71344" lon="1.73534">
        <ele>167.6</ele>
        <time>2015-06-25T08:42:22.000Z</time>
      </trkpt>
      <trkpt lat="48.71351" lon="1.73542">
        <ele>166.8</ele>
        <time>2015-06-25T08:42:28.000Z</time>
      </trkpt>
      <trkpt lat="48.71356" lon="1.73547">
        <ele>166.1</ele>
        <time>2015-06-25T08:42:33.000Z</time>
      </trkpt>
      <trkpt lat="48.71363" lon="1.73554">
        <ele>165.4</ele>
        <time>2015-06-25T08:42:39.000Z</time>
      </trkpt>
      <trkpt lat="48.71366" lon="1.73558">
        <ele>164.6</ele>
        <time>2015-06-25T08:42:41.000Z</time>
      </trkpt>
      <trkpt lat="48.71373" lon="1.73565">
        <ele>163.7</ele>
        <time>2015-06-25T08:42:47.000Z</time>
      </trkpt>
      <trkpt lat="48.71379" lon="1.73573">
        <ele>163.1</ele>
        <time>2015-06-25T08:42:53.000Z</time>
      </trkpt>
      <trkpt lat="48.71388" lon="1.73576">
        <ele>163.4</ele>
        <time>2015-06-25T08:43:00.000Z</time>
      </trkpt>
      <trkpt lat="48.71396" lon="1.73575">
        <ele>163</ele>
        <time>2015-06-25T08:43:06.000Z</time>
      </trkpt>
      <trkpt lat="48.71404" lon="1.73574">
        <ele>162.4</ele>
        <time>2015-06-25T08:43:13.000Z</time>
      </trkpt>
      <trkpt lat="48.71417" lon="1.73571">
        <ele>161.5</ele>
        <time>2015-06-25T08:43:22.000Z</time>
      </trkpt>
      <trkpt lat="48.71422" lon="1.73571">
        <ele>160.6</ele>
        <time>2015-06-25T08:43:26.000Z</time>
      </trkpt>
      <trkpt lat="48.71428" lon="1.73567">
        <ele>159.9</ele>
        <time>2015-06-25T08:43:32.000Z</time>
      </trkpt>
      <trkpt lat="48.71439" lon="1.73569">
        <ele>158.3</ele>
        <time>2015-06-25T08:43:39.000Z</time>
      </trkpt>
      <trkpt lat="48.71447" lon="1.73561">
        <ele>156.8</ele>
        <time>2015-06-25T08:43:46.000Z</time>
      </trkpt>
      <trkpt lat="48.71454" lon="1.7356">
        <ele>155.8</ele>
        <time>2015-06-25T08:43:51.000Z</time>
      </trkpt>
      <trkpt lat="48.71459" lon="1.73557">
        <ele>154.9</ele>
        <time>2015-06-25T08:43:56.000Z</time>
      </trkpt>
      <trkpt lat="48.7146" lon="1.73556">
        <ele>154.7</ele>
        <time>2015-06-25T08:43:57.000Z</time>
      </trkpt>
      <trkpt lat="48.71467" lon="1.73552">
        <ele>153.6</ele>
        <time>2015-06-25T08:44:02.000Z</time>
      </trkpt>
      <trkpt lat="48.71476" lon="1.73549">
        <ele>152.3</ele>
        <time>2015-06-25T08:44:09.000Z</time>
      </trkpt>
      <trkpt lat="48.71482" lon="1.73544">
        <ele>151.6</ele>
        <time>2015-06-25T08:44:14.000Z</time>
      </trkpt>
      <trkpt lat="48.71492" lon="1.73545">
        <ele>150.5</ele>
        <time>2015-06-25T08:44:21.000Z</time>
      </trkpt>
      <trkpt lat="48.71498" lon="1.73543">
        <ele>149.8</ele>
        <time>2015-06-25T08:44:26.000Z</time>
      </trkpt>
      <trkpt lat="48.7151" lon="1.73543">
        <ele>149</ele>
        <time>2015-06-25T08:44:35.000Z</time>
      </trkpt>
      <trkpt lat="48.71517" lon="1.73541">
        <ele>148.6</ele>
        <time>2015-06-25T08:44:41.000Z</time>
      </trkpt>
      <trkpt lat="48.71526" lon="1.7354">
        <ele>148.2</ele>
        <time>2015-06-25T08:44:48.000Z</time>
      </trkpt>
      <trkpt lat="48.71532" lon="1.73541">
        <ele>147.8</ele>
        <time>2015-06-25T08:44:52.000Z</time>
      </trkpt>
      <trkpt lat="48.71537" lon="1.7354">
        <ele>147.7</ele>
        <time>2015-06-25T08:44:56.000Z</time>
      </trkpt>
      <trkpt lat="48.71548" lon="1.73537">
        <ele>147.3</ele>
        <time>2015-06-25T08:45:04.000Z</time>
      </trkpt>
      <trkpt lat="48.71554" lon="1.73537">
        <ele>147.1</ele>
        <time>2015-06-25T08:45:09.000Z</time>
      </trkpt>
      <trkpt lat="48.71562" lon="1.73534">
        <ele>146.5</ele>
        <time>2015-06-25T08:45:15.000Z</time>
      </trkpt>
      <trkpt lat="48.71569" lon="1.73532">
        <ele>145.8</ele>
        <time>2015-06-25T08:45:20.000Z</time>
      </trkpt>
      <trkpt lat="48.71581" lon="1.73532">
        <ele>144.2</ele>
        <time>2015-06-25T08:45:28.000Z</time>
      </trkpt>
      <trkpt lat="48.7159" lon="1.73529">
        <ele>143.4</ele>
        <time>2015-06-25T08:45:35.000Z</time>
      </trkpt>
      <trkpt lat="48.716" lon="1.73527">
        <ele>142.8</ele>
        <time>2015-06-25T08:45:42.000Z</time>
      </trkpt>
      <trkpt lat="48.71609" lon="1.73525">
        <ele>142.2</ele>
        <time>2015-06-25T08:45:49.000Z</time>
      </trkpt>
      <trkpt lat="48.71613" lon="1.73524">
        <ele>142.1</ele>
        <time>2015-06-25T08:45:52.000Z</time>
      </trkpt>
      <trkpt lat="48.71622" lon="1.73522">
        <ele>141.8</ele>
        <time>2015-06-25T08:45:59.000Z</time>
      </trkpt>
      <trkpt lat="48.7163" lon="1.73518">
        <ele>141.7</ele>
        <time>2015-06-25T08:46:06.000Z</time>
      </trkpt>
      <trkpt lat="48.71635" lon="1.73515">
        <ele>141.6</ele>
        <time>2015-06-25T08:46:10.000Z</time>
      </trkpt>
      <trkpt lat="48.71641" lon="1.73518">
        <ele>141.3</ele>
        <time>2015-06-25T08:46:15.000Z</time>
      </trkpt>
      <trkpt lat="48.71651" lon="1.73517">
        <ele>140.8</ele>
        <time>2015-06-25T08:46:23.000Z</time>
      </trkpt>
      <trkpt lat="48.71654" lon="1.73517">
        <ele>140.6</ele>
        <time>2015-06-25T08:46:26.000Z</time>
      </trkpt>
      <trkpt lat="48.7166" lon="1.73513">
        <ele>140.4</ele>
        <time>2015-06-25T08:46:31.000Z</time>
      </trkpt>
      <trkpt lat="48.71664" lon="1.73514">
        <ele>140.1</ele>
        <time>2015-06-25T08:46:34.000Z</time>
      </trkpt>
      <trkpt lat="48.71668" lon="1.73512">
        <ele>139.9</ele>
        <time>2015-06-25T08:46:37.000Z</time>
      </trkpt>
      <trkpt lat="48.71675" lon="1.73509">
        <ele>139.4</ele>
        <time>2015-06-25T08:46:42.000Z</time>
      </trkpt>
      <trkpt lat="48.7168" lon="1.73508">
        <ele>139</ele>
        <time>2015-06-25T08:46:46.000Z</time>
      </trkpt>
      <trkpt lat="48.71687" lon="1.73506">
        <ele>138.5</ele>
        <time>2015-06-25T08:46:51.000Z</time>
      </trkpt>
      <trkpt lat="48.71696" lon="1.735">
        <ele>137.9</ele>
        <time>2015-06-25T08:46:58.000Z</time>
      </trkpt>
      <trkpt lat="48.71697" lon="1.73499">
        <ele>137.7</ele>
        <time>2015-06-25T08:46:59.000Z</time>
      </trkpt>
      <trkpt lat="48.71704" lon="1.73501">
        <ele>137</ele>
        <time>2015-06-25T08:47:03.000Z</time>
      </trkpt>
      <trkpt lat="48.71711" lon="1.735">
        <ele>136.3</ele>
        <time>2015-06-25T08:47:08.000Z</time>
      </trkpt>
      <trkpt lat="48.71719" lon="1.73495">
        <ele>135.4</ele>
        <time>2015-06-25T08:47:14.000Z</time>
      </trkpt>
      <trkpt lat="48.71728" lon="1.73494">
        <ele>134.8</ele>
        <time>2015-06-25T08:47:20.000Z</time>
      </trkpt>
      <trkpt lat="48.71741" lon="1.73491">
        <ele>134</ele>
        <time>2015-06-25T08:47:29.000Z</time>
      </trkpt>
      <trkpt lat="48.71749" lon="1.73493">
        <ele>133.3</ele>
        <time>2015-06-25T08:47:34.000Z</time>
      </trkpt>
      <trkpt lat="48.71757" lon="1.73493">
        <ele>132.9</ele>
        <time>2015-06-25T08:47:39.000Z</time>
      </trkpt>
      <trkpt lat="48.71761" lon="1.73492">
        <ele>132.8</ele>
        <time>2015-06-25T08:47:42.000Z</time>
      </trkpt>
      <trkpt lat="48.71768" lon="1.7349">
        <ele>132.5</ele>
        <time>2015-06-25T08:47:47.000Z</time>
      </trkpt>
      <trkpt lat="48.71775" lon="1.73484">
        <ele>132.1</ele>
        <time>2015-06-25T08:47:53.000Z</time>
      </trkpt>
      <trkpt lat="48.71779" lon="1.73481">
        <ele>132</ele>
        <time>2015-06-25T08:47:56.000Z</time>
      </trkpt>
      <trkpt lat="48.71788" lon="1.73478">
        <ele>131.7</ele>
        <time>2015-06-25T08:48:02.000Z</time>
      </trkpt>
      <trkpt lat="48.71789" lon="1.73477">
        <ele>131.7</ele>
        <time>2015-06-25T08:48:03.000Z</time>
      </trkpt>
      <trkpt lat="48.71796" lon="1.73474">
        <ele>131.4</ele>
        <time>2015-06-25T08:48:10.000Z</time>
      </trkpt>
      <trkpt lat="48.71804" lon="1.7347">
        <ele>131</ele>
        <time>2015-06-25T08:48:16.000Z</time>
      </trkpt>
      <trkpt lat="48.71818" lon="1.73471">
        <ele>131</ele>
        <time>2015-06-25T08:48:25.000Z</time>
      </trkpt>
      <trkpt lat="48.71829" lon="1.73468">
        <ele>130.8</ele>
        <time>2015-06-25T08:48:33.000Z</time>
      </trkpt>
      <trkpt lat="48.71836" lon="1.73464">
        <ele>130.7</ele>
        <time>2015-06-25T08:48:39.000Z</time>
      </trkpt>
      <trkpt lat="48.71844" lon="1.73465">
        <ele>130.7</ele>
        <time>2015-06-25T08:48:44.000Z</time>
      </trkpt>
      <trkpt lat="48.71853" lon="1.73463">
        <ele>130.7</ele>
        <time>2015-06-25T08:48:51.000Z</time>
      </trkpt>
      <trkpt lat="48.71856" lon="1.73463">
        <ele>130.7</ele>
        <time>2015-06-25T08:48:53.000Z</time>
      </trkpt>
      <trkpt lat="48.7186" lon="1.73463">
        <ele>130.7</ele>
        <time>2015-06-25T08:48:57.000Z</time>
      </trkpt>
      <trkpt lat="48.71867" lon="1.73464">
        <ele>130.7</ele>
        <time>2015-06-25T08:49:03.000Z</time>
      </trkpt>
      <trkpt lat="48.7187" lon="1.73465">
        <ele>130.7</ele>
        <time>2015-06-25T08:49:06.000Z</time>
      </trkpt>
      <trkpt lat="48.7188" lon="1.73463">
        <ele>130.7</ele>
        <time>2015-06-25T08:49:13.000Z</time>
      </trkpt>
      <trkpt lat="48.71882" lon="1.73462">
        <ele>130.6</ele>
        <time>2015-06-25T08:49:15.000Z</time>
      </trkpt>
      <trkpt lat="48.71891" lon="1.73458">
        <ele>130.4</ele>
        <time>2015-06-25T08:49:21.000Z</time>
      </trkpt>
      <trkpt lat="48.71898" lon="1.73458">
        <ele>130.2</ele>
        <time>2015-06-25T08:49:26.000Z</time>
      </trkpt>
      <trkpt lat="48.71906" lon="1.73457">
        <ele>129.8</ele>
        <time>2015-06-25T08:49:32.000Z</time>
      </trkpt>
      <trkpt lat="48.7191" lon="1.73455">
        <ele>129.6</ele>
        <time>2015-06-25T08:49:35.000Z</time>
      </trkpt>
      <trkpt lat="48.71918" lon="1.73455">
        <ele>129.4</ele>
        <time>2015-06-25T08:49:41.000Z</time>
      </trkpt>
      <trkpt lat="48.71922" lon="1.73456">
        <ele>129.2</ele>
        <time>2015-06-25T08:49:44.000Z</time>
      </trkpt>
      <trkpt lat="48.71933" lon="1.73452">
        <ele>128.7</ele>
        <time>2015-06-25T08:49:52.000Z</time>
      </trkpt>
      <trkpt lat="48.71936" lon="1.73451">
        <ele>128.5</ele>
        <time>2015-06-25T08:49:54.000Z</time>
      </trkpt>
      <trkpt lat="48.71948" lon="1.73446">
        <ele>127.9</ele>
        <time>2015-06-25T08:50:01.000Z</time>
      </trkpt>
      <trkpt lat="48.71952" lon="1.73447">
        <ele>127.8</ele>
        <time>2015-06-25T08:50:03.000Z</time>
      </trkpt>
      <trkpt lat="48.71956" lon="1.73447">
        <ele>127.7</ele>
        <time>2015-06-25T08:50:06.000Z</time>
      </trkpt>
      <trkpt lat="48.71964" lon="1.73446">
        <ele>127.4</ele>
        <time>2015-06-25T08:50:11.000Z</time>
      </trkpt>
      <trkpt lat="48.71971" lon="1.73443">
        <ele>127</ele>
        <time>2015-06-25T08:50:16.000Z</time>
      </trkpt>
      <trkpt lat="48.71973" lon="1.73442">
        <ele>127</ele>
        <time>2015-06-25T08:50:17.000Z</time>
      </trkpt>
      <trkpt lat="48.71985" lon="1.73437">
        <ele>126.5</ele>
        <time>2015-06-25T08:50:25.000Z</time>
      </trkpt>
      <trkpt lat="48.71998" lon="1.73429">
        <ele>126.1</ele>
        <time>2015-06-25T08:50:33.000Z</time>
      </trkpt>
      <trkpt lat="48.72006" lon="1.73425">
        <ele>125.8</ele>
        <time>2015-06-25T08:50:39.000Z</time>
      </trkpt>
      <trkpt lat="48.72018" lon="1.73423">
        <ele>125.4</ele>
        <time>2015-06-25T08:50:46.000Z</time>
      </trkpt>
      <trkpt lat="48.72022" lon="1.73422">
        <ele>125.2</ele>
        <time>2015-06-25T08:50:50.000Z</time>
      </trkpt>
      <trkpt lat="48.72027" lon="1.7342">
        <ele>125</ele>
        <time>2015-06-25T08:50:54.000Z</time>
      </trkpt>
      <trkpt lat="48.72037" lon="1.73416">
        <ele>124.7</ele>
        <time>2015-06-25T08:51:01.000Z</time>
      </trkpt>
      <trkpt lat="48.72042" lon="1.73415">
        <ele>124.5</ele>
        <time>2015-06-25T08:51:05.000Z</time>
      </trkpt>
      <trkpt lat="48.72047" lon="1.73414">
        <ele>124.3</ele>
        <time>2015-06-25T08:51:09.000Z</time>
      </trkpt>
      <trkpt lat="48.72058" lon="1.73413">
        <ele>124</ele>
        <time>2015-06-25T08:51:17.000Z</time>
      </trkpt>
      <trkpt lat="48.72065" lon="1.73411">
        <ele>124</ele>
        <time>2015-06-25T08:51:22.000Z</time>
      </trkpt>
      <trkpt lat="48.72075" lon="1.73408">
        <ele>124</ele>
        <time>2015-06-25T08:51:28.000Z</time>
      </trkpt>
      <trkpt lat="48.7208" lon="1.73405">
        <ele>124</ele>
        <time>2015-06-25T08:51:31.000Z</time>
      </trkpt>
      <trkpt lat="48.72085" lon="1.73404">
        <ele>123.9</ele>
        <time>2015-06-25T08:51:35.000Z</time>
      </trkpt>
      <trkpt lat="48.72092" lon="1.73406">
        <ele>123.7</ele>
        <time>2015-06-25T08:51:39.000Z</time>
      </trkpt>
      <trkpt lat="48.72101" lon="1.73404">
        <ele>123.4</ele>
        <time>2015-06-25T08:51:45.000Z</time>
      </trkpt>
      <trkpt lat="48.72107" lon="1.73401">
        <ele>123.2</ele>
        <time>2015-06-25T08:51:49.000Z</time>
      </trkpt>
      <trkpt lat="48.72115" lon="1.734">
        <ele>123</ele>
        <time>2015-06-25T08:51:55.000Z</time>
      </trkpt>
      <trkpt lat="48.72126" lon="1.734">
        <ele>123</ele>
        <time>2015-06-25T08:52:02.000Z</time>
      </trkpt>
      <trkpt lat="48.72131" lon="1.73401">
        <ele>123</ele>
        <time>2015-06-25T08:52:05.000Z</time>
      </trkpt>
      <trkpt lat="48.72141" lon="1.73396">
        <ele>122.9</ele>
        <time>2015-06-25T08:52:12.000Z</time>
      </trkpt>
      <trkpt lat="48.72151" lon="1.73393">
        <ele>122.6</ele>
        <time>2015-06-25T08:52:19.000Z</time>
      </trkpt>
      <trkpt lat="48.72158" lon="1.73396">
        <ele>122.3</ele>
        <time>2015-06-25T08:52:24.000Z</time>
      </trkpt>
      <trkpt lat="48.72166" lon="1.73397">
        <ele>122</ele>
        <time>2015-06-25T08:52:29.000Z</time>
      </trkpt>
      <trkpt lat="48.72172" lon="1.73396">
        <ele>121.9</ele>
        <time>2015-06-25T08:52:33.000Z</time>
      </trkpt>
      <trkpt lat="48.72176" lon="1.73397">
        <ele>121.8</ele>
        <time>2015-06-25T08:52:37.000Z</time>
      </trkpt>
      <trkpt lat="48.72184" lon="1.73398">
        <ele>121.6</ele>
        <time>2015-06-25T08:52:43.000Z</time>
      </trkpt>
      <trkpt lat="48.72185" lon="1.73397">
        <ele>121.5</ele>
        <time>2015-06-25T08:52:44.000Z</time>
      </trkpt>
      <trkpt lat="48.72189" lon="1.73396">
        <ele>121.4</ele>
        <time>2015-06-25T08:52:47.000Z</time>
      </trkpt>
      <trkpt lat="48.72192" lon="1.73394">
        <ele>121.3</ele>
        <time>2015-06-25T08:52:49.000Z</time>
      </trkpt>
      <trkpt lat="48.72196" lon="1.73389">
        <ele>121</ele>
        <time>2015-06-25T08:52:53.000Z</time>
      </trkpt>
      <trkpt lat="48.72203" lon="1.7339">
        <ele>121</ele>
        <time>2015-06-25T08:52:58.000Z</time>
      </trkpt>
      <trkpt lat="48.72211" lon="1.7339">
        <ele>121</ele>
        <time>2015-06-25T08:53:04.000Z</time>
      </trkpt>
      <trkpt lat="48.72212" lon="1.7339">
        <ele>121</ele>
        <time>2015-06-25T08:53:05.000Z</time>
      </trkpt>
      <trkpt lat="48.72222" lon="1.73387">
        <ele>121</ele>
        <time>2015-06-25T08:53:12.000Z</time>
      </trkpt>
      <trkpt lat="48.7223" lon="1.73377">
        <ele>120.7</ele>
        <time>2015-06-25T08:53:18.000Z</time>
      </trkpt>
      <trkpt lat="48.7224" lon="1.73378">
        <ele>120.4</ele>
        <time>2015-06-25T08:53:24.000Z</time>
      </trkpt>
      <trkpt lat="48.72247" lon="1.73383">
        <ele>120.1</ele>
        <time>2015-06-25T08:53:29.000Z</time>
      </trkpt>
      <trkpt lat="48.72251" lon="1.73386">
        <ele>120</ele>
        <time>2015-06-25T08:53:33.000Z</time>
      </trkpt>
      <trkpt lat="48.7226" lon="1.7339">
        <ele>120</ele>
        <time>2015-06-25T08:53:38.000Z</time>
      </trkpt>
      <trkpt lat="48.72271" lon="1.73395">
        <ele>120</ele>
        <time>2015-06-25T08:53:46.000Z</time>
      </trkpt>
      <trkpt lat="48.72272" lon="1.73393">
        <ele>120</ele>
        <time>2015-06-25T08:53:48.000Z</time>
      </trkpt>
      <trkpt lat="48.7228" lon="1.73391">
        <ele>120</ele>
        <time>2015-06-25T08:53:54.000Z</time>
      </trkpt>
      <trkpt lat="48.72292" lon="1.7339">
        <ele>120</ele>
        <time>2015-06-25T08:54:02.000Z</time>
      </trkpt>
      <trkpt lat="48.723" lon="1.73399">
        <ele>120</ele>
        <time>2015-06-25T08:54:08.000Z</time>
      </trkpt>
      <trkpt lat="48.72306" lon="1.73402">
        <ele>120</ele>
        <time>2015-06-25T08:54:12.000Z</time>
      </trkpt>
      <trkpt lat="48.72313" lon="1.73404">
        <ele>119.7</ele>
        <time>2015-06-25T08:54:17.000Z</time>
      </trkpt>
      <trkpt lat="48.72324" lon="1.73409">
        <ele>119.3</ele>
        <time>2015-06-25T08:54:24.000Z</time>
      </trkpt>
      <trkpt lat="48.72326" lon="1.7341">
        <ele>119.2</ele>
        <time>2015-06-25T08:54:26.000Z</time>
      </trkpt>
      <trkpt lat="48.72334" lon="1.73406">
        <ele>119</ele>
        <time>2015-06-25T08:54:32.000Z</time>
      </trkpt>
      <trkpt lat="48.72343" lon="1.73406">
        <ele>119.3</ele>
        <time>2015-06-25T08:54:39.000Z</time>
      </trkpt>
      <trkpt lat="48.72353" lon="1.73408">
        <ele>119.7</ele>
        <time>2015-06-25T08:54:46.000Z</time>
      </trkpt>
      <trkpt lat="48.72361" lon="1.73411">
        <ele>120</ele>
        <time>2015-06-25T08:54:52.000Z</time>
      </trkpt>
      <trkpt lat="48.72365" lon="1.73415">
        <ele>120</ele>
        <time>2015-06-25T08:54:55.000Z</time>
      </trkpt>
      <trkpt lat="48.72376" lon="1.73418">
        <ele>120</ele>
        <time>2015-06-25T08:55:02.000Z</time>
      </trkpt>
      <trkpt lat="48.72382" lon="1.73418">
        <ele>120</ele>
        <time>2015-06-25T08:55:06.000Z</time>
      </trkpt>
      <trkpt lat="48.72393" lon="1.73421">
        <ele>120.1</ele>
        <time>2015-06-25T08:55:14.000Z</time>
      </trkpt>
      <trkpt lat="48.72398" lon="1.73424">
        <ele>120.3</ele>
        <time>2015-06-25T08:55:19.000Z</time>
      </trkpt>
      <trkpt lat="48.72402" lon="1.73425">
        <ele>120.3</ele>
        <time>2015-06-25T08:55:23.000Z</time>
      </trkpt>
      <trkpt lat="48.72409" lon="1.73426">
        <ele>120.5</ele>
        <time>2015-06-25T08:55:28.000Z</time>
      </trkpt>
      <trkpt lat="48.72424" lon="1.73433">
        <ele>120.6</ele>
        <time>2015-06-25T08:55:35.000Z</time>
      </trkpt>
      <trkpt lat="48.72439" lon="1.73438">
        <ele>120.8</ele>
        <time>2015-06-25T08:55:40.000Z</time>
      </trkpt>
      <trkpt lat="48.72447" lon="1.7344">
        <ele>121.1</ele>
        <time>2015-06-25T08:55:43.000Z</time>
      </trkpt>
      <trkpt lat="48.72453" lon="1.73444">
        <ele>121.3</ele>
        <time>2015-06-25T08:55:46.000Z</time>
      </trkpt>
      <trkpt lat="48.7247" lon="1.73448">
        <ele>121.9</ele>
        <time>2015-06-25T08:55:52.000Z</time>
      </trkpt>
      <trkpt lat="48.72486" lon="1.73449">
        <ele>122</ele>
        <time>2015-06-25T08:55:57.000Z</time>
      </trkpt>
      <trkpt lat="48.72506" lon="1.73454">
        <ele>122.4</ele>
        <time>2015-06-25T08:56:03.000Z</time>
      </trkpt>
      <trkpt lat="48.72524" lon="1.73459">
        <ele>123.8</ele>
        <time>2015-06-25T08:56:09.000Z</time>
      </trkpt>
      <trkpt lat="48.72533" lon="1.73462">
        <ele>124.1</ele>
        <time>2015-06-25T08:56:12.000Z</time>
      </trkpt>
      <trkpt lat="48.72542" lon="1.73475">
        <ele>124.5</ele>
        <time>2015-06-25T08:56:17.000Z</time>
      </trkpt>
      <trkpt lat="48.72545" lon="1.73478">
        <ele>124.6</ele>
        <time>2015-06-25T08:56:18.000Z</time>
      </trkpt>
      <trkpt lat="48.72559" lon="1.73488">
        <ele>125.1</ele>
        <time>2015-06-25T08:56:23.000Z</time>
      </trkpt>
      <trkpt lat="48.72571" lon="1.73499">
        <ele>125.5</ele>
        <time>2015-06-25T08:56:27.000Z</time>
      </trkpt>
      <trkpt lat="48.7258" lon="1.73511">
        <ele>125.9</ele>
        <time>2015-06-25T08:56:32.000Z</time>
      </trkpt>
      <trkpt lat="48.72581" lon="1.73514">
        <ele>125.9</ele>
        <time>2015-06-25T08:56:33.000Z</time>
      </trkpt>
      <trkpt lat="48.72585" lon="1.73519">
        <ele>126</ele>
        <time>2015-06-25T08:56:35.000Z</time>
      </trkpt>
      <trkpt lat="48.72601" lon="1.73532">
        <ele>126</ele>
        <time>2015-06-25T08:56:40.000Z</time>
      </trkpt>
      <trkpt lat="48.72611" lon="1.73542">
        <ele>126</ele>
        <time>2015-06-25T08:56:44.000Z</time>
      </trkpt>
      <trkpt lat="48.72624" lon="1.73556">
        <ele>125.5</ele>
        <time>2015-06-25T08:56:49.000Z</time>
      </trkpt>
      <trkpt lat="48.7264" lon="1.73565">
        <ele>125.4</ele>
        <time>2015-06-25T08:56:54.000Z</time>
      </trkpt>
      <trkpt lat="48.72653" lon="1.7357">
        <ele>125.8</ele>
        <time>2015-06-25T08:56:58.000Z</time>
      </trkpt>
      <trkpt lat="48.72665" lon="1.73583">
        <ele>126</ele>
        <time>2015-06-25T08:57:04.000Z</time>
      </trkpt>
      <trkpt lat="48.72666" lon="1.73588">
        <ele>126.2</ele>
        <time>2015-06-25T08:57:06.000Z</time>
      </trkpt>
      <trkpt lat="48.72674" lon="1.73599">
        <ele>126.7</ele>
        <time>2015-06-25T08:57:13.000Z</time>
      </trkpt>
      <trkpt lat="48.72677" lon="1.73601">
        <ele>126.8</ele>
        <time>2015-06-25T08:57:16.000Z</time>
      </trkpt>
      <trkpt lat="48.7268" lon="1.73603">
        <ele>126.8</ele>
        <time>2015-06-25T08:57:18.000Z</time>
      </trkpt>
      <trkpt lat="48.72685" lon="1.73611">
        <ele>127</ele>
        <time>2015-06-25T08:57:24.000Z</time>
      </trkpt>
      <trkpt lat="48.72685" lon="1.73613">
        <ele>127.1</ele>
        <time>2015-06-25T08:57:25.000Z</time>
      </trkpt>
      <trkpt lat="48.72681" lon="1.73631">
        <ele>127.7</ele>
        <time>2015-06-25T08:57:31.000Z</time>
      </trkpt>
      <trkpt lat="48.72671" lon="1.73667">
        <ele>128.1</ele>
        <time>2015-06-25T08:57:38.000Z</time>
      </trkpt>
      <trkpt lat="48.72664" lon="1.73695">
        <ele>128.9</ele>
        <time>2015-06-25T08:57:44.000Z</time>
      </trkpt>
      <trkpt lat="48.72657" lon="1.73717">
        <ele>128.9</ele>
        <time>2015-06-25T08:57:49.000Z</time>
      </trkpt>
      <trkpt lat="48.72653" lon="1.73738">
        <ele>129.6</ele>
        <time>2015-06-25T08:57:54.000Z</time>
      </trkpt>
      <trkpt lat="48.72654" lon="1.73745">
        <ele>129.8</ele>
        <time>2015-06-25T08:57:57.000Z</time>
      </trkpt>
      <trkpt lat="48.72658" lon="1.73759">
        <ele>130</ele>
        <time>2015-06-25T08:58:01.000Z</time>
      </trkpt>
      <trkpt lat="48.72662" lon="1.73776">
        <ele>130</ele>
        <time>2015-06-25T08:58:06.000Z</time>
      </trkpt>
      <trkpt lat="48.72668" lon="1.73795">
        <ele>130</ele>
        <time>2015-06-25T08:58:11.000Z</time>
      </trkpt>
      <trkpt lat="48.72671" lon="1.73804">
        <ele>130.2</ele>
        <time>2015-06-25T08:58:13.000Z</time>
      </trkpt>
      <trkpt lat="48.7268" lon="1.73824">
        <ele>130.8</ele>
        <time>2015-06-25T08:58:18.000Z</time>
      </trkpt>
      <trkpt lat="48.72692" lon="1.73846">
        <ele>131.4</ele>
        <time>2015-06-25T08:58:23.000Z</time>
      </trkpt>
      <trkpt lat="48.72699" lon="1.73864">
        <ele>132</ele>
        <time>2015-06-25T08:58:27.000Z</time>
      </trkpt>
      <trkpt lat="48.727" lon="1.73868">
        <ele>132</ele>
        <time>2015-06-25T08:58:28.000Z</time>
      </trkpt>
      <trkpt lat="48.72709" lon="1.73894">
        <ele>132.6</ele>
        <time>2015-06-25T08:58:34.000Z</time>
      </trkpt>
      <trkpt lat="48.72715" lon="1.73907">
        <ele>132.9</ele>
        <time>2015-06-25T08:58:38.000Z</time>
      </trkpt>
      <trkpt lat="48.72716" lon="1.73909">
        <ele>132.9</ele>
        <time>2015-06-25T08:58:39.000Z</time>
      </trkpt>
      <trkpt lat="48.72725" lon="1.73938">
        <ele>133.9</ele>
        <time>2015-06-25T08:58:46.000Z</time>
      </trkpt>
      <trkpt lat="48.72728" lon="1.73953">
        <ele>134.2</ele>
        <time>2015-06-25T08:58:49.000Z</time>
      </trkpt>
      <trkpt lat="48.72738" lon="1.73974">
        <ele>134.6</ele>
        <time>2015-06-25T08:58:54.000Z</time>
      </trkpt>
      <trkpt lat="48.72744" lon="1.73989">
        <ele>134.8</ele>
        <time>2015-06-25T08:59:00.000Z</time>
      </trkpt>
      <trkpt lat="48.72747" lon="1.73999">
        <ele>134.9</ele>
        <time>2015-06-25T08:59:04.000Z</time>
      </trkpt>
      <trkpt lat="48.72749" lon="1.74007">
        <ele>135</ele>
        <time>2015-06-25T08:59:09.000Z</time>
      </trkpt>
      <trkpt lat="48.72755" lon="1.74025">
        <ele>135.4</ele>
        <time>2015-06-25T08:59:17.000Z</time>
      </trkpt>
      <trkpt lat="48.72756" lon="1.74028">
        <ele>135.4</ele>
        <time>2015-06-25T08:59:18.000Z</time>
      </trkpt>
      <trkpt lat="48.72758" lon="1.74035">
        <ele>135.7</ele>
        <time>2015-06-25T08:59:22.000Z</time>
      </trkpt>
      <trkpt lat="48.72759" lon="1.74043">
        <ele>136</ele>
        <time>2015-06-25T08:59:26.000Z</time>
      </trkpt>
      <trkpt lat="48.72761" lon="1.74055">
        <ele>136.4</ele>
        <time>2015-06-25T08:59:32.000Z</time>
      </trkpt>
      <trkpt lat="48.72763" lon="1.7406">
        <ele>136.5</ele>
        <time>2015-06-25T08:59:35.000Z</time>
      </trkpt>
      <trkpt lat="48.72767" lon="1.74077">
        <ele>136.6</ele>
        <time>2015-06-25T08:59:43.000Z</time>
      </trkpt>
      <trkpt lat="48.7277" lon="1.74089">
        <ele>136.7</ele>
        <time>2015-06-25T08:59:49.000Z</time>
      </trkpt>
      <trkpt lat="48.72776" lon="1.74104">
        <ele>136.9</ele>
        <time>2015-06-25T08:59:56.000Z</time>
      </trkpt>
      <trkpt lat="48.72778" lon="1.74113">
        <ele>137</ele>
        <time>2015-06-25T09:00:01.000Z</time>
      </trkpt>
      <trkpt lat="48.72779" lon="1.74117">
        <ele>137</ele>
        <time>2015-06-25T09:00:03.000Z</time>
      </trkpt>
      <trkpt lat="48.72783" lon="1.7413">
        <ele>137.1</ele>
        <time>2015-06-25T09:00:10.000Z</time>
      </trkpt>
      <trkpt lat="48.72783" lon="1.74132">
        <ele>137.1</ele>
        <time>2015-06-25T09:00:11.000Z</time>
      </trkpt>
      <trkpt lat="48.72785" lon="1.74134">
        <ele>137</ele>
        <time>2015-06-25T09:00:13.000Z</time>
      </trkpt>
      <trkpt lat="48.72789" lon="1.74148">
        <ele>137.1</ele>
        <time>2015-06-25T09:00:20.000Z</time>
      </trkpt>
      <trkpt lat="48.72792" lon="1.74167">
        <ele>137.5</ele>
        <time>2015-06-25T09:00:30.000Z</time>
      </trkpt>
      <trkpt lat="48.72794" lon="1.74183">
        <ele>137.8</ele>
        <time>2015-06-25T09:00:36.000Z</time>
      </trkpt>
      <trkpt lat="48.72796" lon="1.74194">
        <ele>138</ele>
        <time>2015-06-25T09:00:40.000Z</time>
      </trkpt>
      <trkpt lat="48.72796" lon="1.74201">
        <ele>138</ele>
        <time>2015-06-25T09:00:43.000Z</time>
      </trkpt>
      <trkpt lat="48.72803" lon="1.7421">
        <ele>138</ele>
        <time>2015-06-25T09:00:50.000Z</time>
      </trkpt>
      <trkpt lat="48.72804" lon="1.74225">
        <ele>138.1</ele>
        <time>2015-06-25T09:00:56.000Z</time>
      </trkpt>
      <trkpt lat="48.72806" lon="1.74229">
        <ele>138.3</ele>
        <time>2015-06-25T09:00:59.000Z</time>
      </trkpt>
      <trkpt lat="48.7281" lon="1.74242">
        <ele>138.8</ele>
        <time>2015-06-25T09:01:06.000Z</time>
      </trkpt>
      <trkpt lat="48.72811" lon="1.74249">
        <ele>139</ele>
        <time>2015-06-25T09:01:10.000Z</time>
      </trkpt>
      <trkpt lat="48.72814" lon="1.74261">
        <ele>139.1</ele>
        <time>2015-06-25T09:01:17.000Z</time>
      </trkpt>
      <trkpt lat="48.72816" lon="1.74267">
        <ele>139.2</ele>
        <time>2015-06-25T09:01:20.000Z</time>
      </trkpt>
      <trkpt lat="48.72818" lon="1.74278">
        <ele>139.4</ele>
        <time>2015-06-25T09:01:26.000Z</time>
      </trkpt>
      <trkpt lat="48.7282" lon="1.74284">
        <ele>139.5</ele>
        <time>2015-06-25T09:01:29.000Z</time>
      </trkpt>
      <trkpt lat="48.72821" lon="1.74292">
        <ele>139.6</ele>
        <time>2015-06-25T09:01:33.000Z</time>
      </trkpt>
      <trkpt lat="48.72822" lon="1.74299">
        <ele>139.6</ele>
        <time>2015-06-25T09:01:36.000Z</time>
      </trkpt>
      <trkpt lat="48.72823" lon="1.74307">
        <ele>139.6</ele>
        <time>2015-06-25T09:01:39.000Z</time>
      </trkpt>
      <trkpt lat="48.72824" lon="1.74311">
        <ele>139.5</ele>
        <time>2015-06-25T09:01:41.000Z</time>
      </trkpt>
      <trkpt lat="48.72825" lon="1.74322">
        <ele>139.3</ele>
        <time>2015-06-25T09:01:47.000Z</time>
      </trkpt>
      <trkpt lat="48.72826" lon="1.74329">
        <ele>139.1</ele>
        <time>2015-06-25T09:01:50.000Z</time>
      </trkpt>
      <trkpt lat="48.72827" lon="1.74332">
        <ele>139</ele>
        <time>2015-06-25T09:01:52.000Z</time>
      </trkpt>
      <trkpt lat="48.72829" lon="1.74341">
        <ele>138.7</ele>
        <time>2015-06-25T09:01:58.000Z</time>
      </trkpt>
      <trkpt lat="48.72832" lon="1.7436">
        <ele>138</ele>
        <time>2015-06-25T09:02:05.000Z</time>
      </trkpt>
      <trkpt lat="48.72836" lon="1.7437">
        <ele>138.1</ele>
        <time>2015-06-25T09:02:09.000Z</time>
      </trkpt>
      <trkpt lat="48.72838" lon="1.74373">
        <ele>138.3</ele>
        <time>2015-06-25T09:02:11.000Z</time>
      </trkpt>
      <trkpt lat="48.72843" lon="1.74386">
        <ele>138.4</ele>
        <time>2015-06-25T09:02:18.000Z</time>
      </trkpt>
      <trkpt lat="48.72849" lon="1.74395">
        <ele>138.4</ele>
        <time>2015-06-25T09:02:24.000Z</time>
      </trkpt>
      <trkpt lat="48.72856" lon="1.74404">
        <ele>138.3</ele>
        <time>2015-06-25T09:02:30.000Z</time>
      </trkpt>
      <trkpt lat="48.72857" lon="1.74405">
        <ele>138.3</ele>
        <time>2015-06-25T09:02:31.000Z</time>
      </trkpt>
      <trkpt lat="48.7286" lon="1.74417">
        <ele>137.9</ele>
        <time>2015-06-25T09:02:38.000Z</time>
      </trkpt>
      <trkpt lat="48.72865" lon="1.74428">
        <ele>137.9</ele>
        <time>2015-06-25T09:02:44.000Z</time>
      </trkpt>
      <trkpt lat="48.72866" lon="1.7444">
        <ele>137.7</ele>
        <time>2015-06-25T09:02:49.000Z</time>
      </trkpt>
      <trkpt lat="48.72867" lon="1.74445">
        <ele>137.6</ele>
        <time>2015-06-25T09:02:51.000Z</time>
      </trkpt>
      <trkpt lat="48.72869" lon="1.74452">
        <ele>137.9</ele>
        <time>2015-06-25T09:02:55.000Z</time>
      </trkpt>
      <trkpt lat="48.72873" lon="1.74461">
        <ele>138.3</ele>
        <time>2015-06-25T09:03:00.000Z</time>
      </trkpt>
      <trkpt lat="48.72878" lon="1.74472">
        <ele>138.8</ele>
        <time>2015-06-25T09:03:06.000Z</time>
      </trkpt>
      <trkpt lat="48.72881" lon="1.74481">
        <ele>138.9</ele>
        <time>2015-06-25T09:03:11.000Z</time>
      </trkpt>
      <trkpt lat="48.72881" lon="1.74497">
        <ele>138.5</ele>
        <time>2015-06-25T09:03:18.000Z</time>
      </trkpt>
      <trkpt lat="48.72885" lon="1.74508">
        <ele>138.4</ele>
        <time>2015-06-25T09:03:25.000Z</time>
      </trkpt>
      <trkpt lat="48.72886" lon="1.74512">
        <ele>138.3</ele>
        <time>2015-06-25T09:03:28.000Z</time>
      </trkpt>
      <trkpt lat="48.7289" lon="1.74524">
        <ele>138.2</ele>
        <time>2015-06-25T09:03:33.000Z</time>
      </trkpt>
      <trkpt lat="48.72896" lon="1.74537">
        <ele>137.7</ele>
        <time>2015-06-25T09:03:40.000Z</time>
      </trkpt>
      <trkpt lat="48.72898" lon="1.74544">
        <ele>137.4</ele>
        <time>2015-06-25T09:03:44.000Z</time>
      </trkpt>
      <trkpt lat="48.72897" lon="1.74548">
        <ele>137.1</ele>
        <time>2015-06-25T09:03:50.000Z</time>
      </trkpt>
      <trkpt lat="48.72899" lon="1.7455">
        <ele>137.1</ele>
        <time>2015-06-25T09:03:56.000Z</time>
      </trkpt>
      <trkpt lat="48.72906" lon="1.74556">
        <ele>137.2</ele>
        <time>2015-06-25T09:04:10.000Z</time>
      </trkpt>
      <trkpt lat="48.72916" lon="1.7456">
        <ele>137.9</ele>
        <time>2015-06-25T09:04:16.000Z</time>
      </trkpt>
      <trkpt lat="48.72927" lon="1.74563">
        <ele>138.5</ele>
        <time>2015-06-25T09:04:24.000Z</time>
      </trkpt>
      <trkpt lat="48.72937" lon="1.74566">
        <ele>139</ele>
        <time>2015-06-25T09:04:32.000Z</time>
      </trkpt>
      <trkpt lat="48.72938" lon="1.74566">
        <ele>139</ele>
        <time>2015-06-25T09:04:33.000Z</time>
      </trkpt>
      <trkpt lat="48.72948" lon="1.74572">
        <ele>139.8</ele>
        <time>2015-06-25T09:04:41.000Z</time>
      </trkpt>
      <trkpt lat="48.72957" lon="1.74578">
        <ele>140.3</ele>
        <time>2015-06-25T09:04:48.000Z</time>
      </trkpt>
      <trkpt lat="48.72963" lon="1.74583">
        <ele>140.7</ele>
        <time>2015-06-25T09:04:54.000Z</time>
      </trkpt>
      <trkpt lat="48.72965" lon="1.74585">
        <ele>140.9</ele>
        <time>2015-06-25T09:04:56.000Z</time>
      </trkpt>
      <trkpt lat="48.72973" lon="1.74593">
        <ele>141.7</ele>
        <time>2015-06-25T09:05:03.000Z</time>
      </trkpt>
      <trkpt lat="48.72976" lon="1.74598">
        <ele>142.1</ele>
        <time>2015-06-25T09:05:06.000Z</time>
      </trkpt>
      <trkpt lat="48.72981" lon="1.74606">
        <ele>142.6</ele>
        <time>2015-06-25T09:05:13.000Z</time>
      </trkpt>
      <trkpt lat="48.72985" lon="1.74609">
        <ele>142.9</ele>
        <time>2015-06-25T09:05:16.000Z</time>
      </trkpt>
      <trkpt lat="48.72989" lon="1.74614">
        <ele>143.1</ele>
        <time>2015-06-25T09:05:20.000Z</time>
      </trkpt>
      <trkpt lat="48.72999" lon="1.74624">
        <ele>143.9</ele>
        <time>2015-06-25T09:05:29.000Z</time>
      </trkpt>
      <trkpt lat="48.73003" lon="1.74628">
        <ele>144.1</ele>
        <time>2015-06-25T09:05:33.000Z</time>
      </trkpt>
      <trkpt lat="48.73009" lon="1.74639">
        <ele>144.4</ele>
        <time>2015-06-25T09:05:40.000Z</time>
      </trkpt>
      <trkpt lat="48.73009" lon="1.74641">
        <ele>144.5</ele>
        <time>2015-06-25T09:05:41.000Z</time>
      </trkpt>
      <trkpt lat="48.73014" lon="1.74646">
        <ele>144.5</ele>
        <time>2015-06-25T09:05:45.000Z</time>
      </trkpt>
      <trkpt lat="48.73024" lon="1.74659">
        <ele>144.7</ele>
        <time>2015-06-25T09:05:53.000Z</time>
      </trkpt>
      <trkpt lat="48.73029" lon="1.7467">
        <ele>145.1</ele>
        <time>2015-06-25T09:05:59.000Z</time>
      </trkpt>
      <trkpt lat="48.7303" lon="1.74674">
        <ele>145.1</ele>
        <time>2015-06-25T09:06:01.000Z</time>
      </trkpt>
      <trkpt lat="48.73034" lon="1.74683">
        <ele>145.1</ele>
        <time>2015-06-25T09:06:06.000Z</time>
      </trkpt>
      <trkpt lat="48.7304" lon="1.74699">
        <ele>145.1</ele>
        <time>2015-06-25T09:06:14.000Z</time>
      </trkpt>
      <trkpt lat="48.73042" lon="1.74712">
        <ele>144.6</ele>
        <time>2015-06-25T09:06:19.000Z</time>
      </trkpt>
      <trkpt lat="48.73047" lon="1.74726">
        <ele>143.9</ele>
        <time>2015-06-25T09:06:26.000Z</time>
      </trkpt>
      <trkpt lat="48.73052" lon="1.74742">
        <ele>143.3</ele>
        <time>2015-06-25T09:06:33.000Z</time>
      </trkpt>
      <trkpt lat="48.73053" lon="1.74753">
        <ele>143.1</ele>
        <time>2015-06-25T09:06:39.000Z</time>
      </trkpt>
      <trkpt lat="48.73053" lon="1.74754">
        <ele>143</ele>
        <time>2015-06-25T09:06:40.000Z</time>
      </trkpt>
      <trkpt lat="48.73057" lon="1.74768">
        <ele>142.3</ele>
        <time>2015-06-25T09:06:46.000Z</time>
      </trkpt>
      <trkpt lat="48.73061" lon="1.74781">
        <ele>141.7</ele>
        <time>2015-06-25T09:06:53.000Z</time>
      </trkpt>
      <trkpt lat="48.73062" lon="1.74794">
        <ele>141.7</ele>
        <time>2015-06-25T09:06:59.000Z</time>
      </trkpt>
      <trkpt lat="48.73064" lon="1.74801">
        <ele>141.7</ele>
        <time>2015-06-25T09:07:02.000Z</time>
      </trkpt>
      <trkpt lat="48.73065" lon="1.7482">
        <ele>142</ele>
        <time>2015-06-25T09:07:10.000Z</time>
      </trkpt>
      <trkpt lat="48.73064" lon="1.74826">
        <ele>142.2</ele>
        <time>2015-06-25T09:07:14.000Z</time>
      </trkpt>
      <trkpt lat="48.73065" lon="1.74835">
        <ele>142.4</ele>
        <time>2015-06-25T09:07:19.000Z</time>
      </trkpt>
      <trkpt lat="48.73066" lon="1.74846">
        <ele>143</ele>
        <time>2015-06-25T09:07:25.000Z</time>
      </trkpt>
      <trkpt lat="48.73066" lon="1.74848">
        <ele>143.1</ele>
        <time>2015-06-25T09:07:26.000Z</time>
      </trkpt>
      <trkpt lat="48.73066" lon="1.7486">
        <ele>143.7</ele>
        <time>2015-06-25T09:07:31.000Z</time>
      </trkpt>
      <trkpt lat="48.73066" lon="1.74872">
        <ele>144.1</ele>
        <time>2015-06-25T09:07:37.000Z</time>
      </trkpt>
      <trkpt lat="48.73064" lon="1.74876">
        <ele>144.1</ele>
        <time>2015-06-25T09:07:39.000Z</time>
      </trkpt>
      <trkpt lat="48.73062" lon="1.74886">
        <ele>144.4</ele>
        <time>2015-06-25T09:07:44.000Z</time>
      </trkpt>
      <trkpt lat="48.73058" lon="1.74899">
        <ele>144.9</ele>
        <time>2015-06-25T09:07:50.000Z</time>
      </trkpt>
      <trkpt lat="48.73055" lon="1.7491">
        <ele>145.5</ele>
        <time>2015-06-25T09:07:57.000Z</time>
      </trkpt>
      <trkpt lat="48.73058" lon="1.74916">
        <ele>146.1</ele>
        <time>2015-06-25T09:08:07.000Z</time>
      </trkpt>
      <trkpt lat="48.73061" lon="1.74923">
        <ele>146.6</ele>
        <time>2015-06-25T09:08:13.000Z</time>
      </trkpt>
      <trkpt lat="48.73064" lon="1.74929">
        <ele>147</ele>
        <time>2015-06-25T09:08:18.000Z</time>
      </trkpt>
      <trkpt lat="48.73064" lon="1.74934">
        <ele>147.3</ele>
        <time>2015-06-25T09:08:21.000Z</time>
      </trkpt>
      <trkpt lat="48.73064" lon="1.74937">
        <ele>147.5</ele>
        <time>2015-06-25T09:08:23.000Z</time>
      </trkpt>
      <trkpt lat="48.73067" lon="1.74947">
        <ele>148.1</ele>
        <time>2015-06-25T09:08:30.000Z</time>
      </trkpt>
      <trkpt lat="48.7307" lon="1.74953">
        <ele>148.3</ele>
        <time>2015-06-25T09:08:35.000Z</time>
      </trkpt>
      <trkpt lat="48.73071" lon="1.7496">
        <ele>148.5</ele>
        <time>2015-06-25T09:08:39.000Z</time>
      </trkpt>
      <trkpt lat="48.7307" lon="1.74971">
        <ele>149</ele>
        <time>2015-06-25T09:08:45.000Z</time>
      </trkpt>
      <trkpt lat="48.73069" lon="1.74982">
        <ele>149.4</ele>
        <time>2015-06-25T09:08:53.000Z</time>
      </trkpt>
      <trkpt lat="48.73069" lon="1.74994">
        <ele>149.8</ele>
        <time>2015-06-25T09:09:00.000Z</time>
      </trkpt>
      <trkpt lat="48.7307" lon="1.75">
        <ele>150</ele>
        <time>2015-06-25T09:09:04.000Z</time>
      </trkpt>
      <trkpt lat="48.73069" lon="1.75012">
        <ele>150.4</ele>
        <time>2015-06-25T09:09:09.000Z</time>
      </trkpt>
      <trkpt lat="48.73069" lon="1.75024">
        <ele>150.9</ele>
        <time>2015-06-25T09:09:15.000Z</time>
      </trkpt>
      <trkpt lat="48.7307" lon="1.75029">
        <ele>151.1</ele>
        <time>2015-06-25T09:09:18.000Z</time>
      </trkpt>
      <trkpt lat="48.73072" lon="1.75042">
        <ele>151.8</ele>
        <time>2015-06-25T09:09:24.000Z</time>
      </trkpt>
      <trkpt lat="48.73072" lon="1.75046">
        <ele>152</ele>
        <time>2015-06-25T09:09:26.000Z</time>
      </trkpt>
      <trkpt lat="48.73071" lon="1.75051">
        <ele>152.3</ele>
        <time>2015-06-25T09:09:28.000Z</time>
      </trkpt>
      <trkpt lat="48.73069" lon="1.75063">
        <ele>152.8</ele>
        <time>2015-06-25T09:09:34.000Z</time>
      </trkpt>
      <trkpt lat="48.7307" lon="1.75076">
        <ele>153.3</ele>
        <time>2015-06-25T09:09:40.000Z</time>
      </trkpt>
      <trkpt lat="48.73071" lon="1.75088">
        <ele>153.8</ele>
        <time>2015-06-25T09:09:46.000Z</time>
      </trkpt>
      <trkpt lat="48.73072" lon="1.751">
        <ele>154.6</ele>
        <time>2015-06-25T09:09:53.000Z</time>
      </trkpt>
      <trkpt lat="48.73071" lon="1.75109">
        <ele>155</ele>
        <time>2015-06-25T09:09:58.000Z</time>
      </trkpt>
      <trkpt lat="48.73071" lon="1.75123">
        <ele>155.8</ele>
        <time>2015-06-25T09:10:05.000Z</time>
      </trkpt>
      <trkpt lat="48.73071" lon="1.75125">
        <ele>155.8</ele>
        <time>2015-06-25T09:10:06.000Z</time>
      </trkpt>
      <trkpt lat="48.73073" lon="1.75139">
        <ele>156.6</ele>
        <time>2015-06-25T09:10:13.000Z</time>
      </trkpt>
      <trkpt lat="48.73073" lon="1.75153">
        <ele>157.5</ele>
        <time>2015-06-25T09:10:20.000Z</time>
      </trkpt>
      <trkpt lat="48.73073" lon="1.75158">
        <ele>157.7</ele>
        <time>2015-06-25T09:10:22.000Z</time>
      </trkpt>
      <trkpt lat="48.73073" lon="1.75172">
        <ele>158.5</ele>
        <time>2015-06-25T09:10:28.000Z</time>
      </trkpt>
      <trkpt lat="48.7307" lon="1.75183">
        <ele>158.9</ele>
        <time>2015-06-25T09:10:34.000Z</time>
      </trkpt>
      <trkpt lat="48.73067" lon="1.75196">
        <ele>159.3</ele>
        <time>2015-06-25T09:10:40.000Z</time>
      </trkpt>
      <trkpt lat="48.73067" lon="1.75198">
        <ele>159.4</ele>
        <time>2015-06-25T09:10:41.000Z</time>
      </trkpt>
      <trkpt lat="48.73065" lon="1.75214">
        <ele>160.4</ele>
        <time>2015-06-25T09:10:49.000Z</time>
      </trkpt>
      <trkpt lat="48.73064" lon="1.75216">
        <ele>160.5</ele>
        <time>2015-06-25T09:10:50.000Z</time>
      </trkpt>
      <trkpt lat="48.73064" lon="1.75233">
        <ele>161.5</ele>
        <time>2015-06-25T09:10:58.000Z</time>
      </trkpt>
      <trkpt lat="48.73062" lon="1.75243">
        <ele>161.8</ele>
        <time>2015-06-25T09:11:03.000Z</time>
      </trkpt>
      <trkpt lat="48.73063" lon="1.75258">
        <ele>162.9</ele>
        <time>2015-06-25T09:11:11.000Z</time>
      </trkpt>
      <trkpt lat="48.73067" lon="1.75267">
        <ele>164.3</ele>
        <time>2015-06-25T09:11:17.000Z</time>
      </trkpt>
      <trkpt lat="48.73069" lon="1.75271">
        <ele>165</ele>
        <time>2015-06-25T09:11:20.000Z</time>
      </trkpt>
      <trkpt lat="48.73071" lon="1.75283">
        <ele>166</ele>
        <time>2015-06-25T09:11:27.000Z</time>
      </trkpt>
      <trkpt lat="48.73069" lon="1.75289">
        <ele>166.1</ele>
        <time>2015-06-25T09:11:30.000Z</time>
      </trkpt>
      <trkpt lat="48.73072" lon="1.75297">
        <ele>166.9</ele>
        <time>2015-06-25T09:11:35.000Z</time>
      </trkpt>
      <trkpt lat="48.7307" lon="1.7531">
        <ele>167.2</ele>
        <time>2015-06-25T09:11:42.000Z</time>
      </trkpt>
      <trkpt lat="48.73069" lon="1.7532">
        <ele>167.5</ele>
        <time>2015-06-25T09:11:46.000Z</time>
      </trkpt>
      <trkpt lat="48.73067" lon="1.75327">
        <ele>167.5</ele>
        <time>2015-06-25T09:11:50.000Z</time>
      </trkpt>
      <trkpt lat="48.73065" lon="1.75342">
        <ele>167.6</ele>
        <time>2015-06-25T09:11:57.000Z</time>
      </trkpt>
      <trkpt lat="48.73065" lon="1.75346">
        <ele>167.9</ele>
        <time>2015-06-25T09:11:59.000Z</time>
      </trkpt>
      <trkpt lat="48.73067" lon="1.75359">
        <ele>168.6</ele>
        <time>2015-06-25T09:12:06.000Z</time>
      </trkpt>
      <trkpt lat="48.73067" lon="1.75375">
        <ele>169.7</ele>
        <time>2015-06-25T09:12:15.000Z</time>
      </trkpt>
      <trkpt lat="48.73066" lon="1.75384">
        <ele>170.4</ele>
        <time>2015-06-25T09:12:19.000Z</time>
      </trkpt>
      <trkpt lat="48.73066" lon="1.75398">
        <ele>171.6</ele>
        <time>2015-06-25T09:12:25.000Z</time>
      </trkpt>
      <trkpt lat="48.73066" lon="1.75403">
        <ele>172.1</ele>
        <time>2015-06-25T09:12:27.000Z</time>
      </trkpt>
      <trkpt lat="48.73064" lon="1.75413">
        <ele>173</ele>
        <time>2015-06-25T09:12:31.000Z</time>
      </trkpt>
      <trkpt lat="48.73064" lon="1.75427">
        <ele>173.6</ele>
        <time>2015-06-25T09:12:37.000Z</time>
      </trkpt>
      <trkpt lat="48.73063" lon="1.75438">
        <ele>173.8</ele>
        <time>2015-06-25T09:12:43.000Z</time>
      </trkpt>
      <trkpt lat="48.73067" lon="1.75447">
        <ele>174.1</ele>
        <time>2015-06-25T09:12:50.000Z</time>
      </trkpt>
      <trkpt lat="48.73067" lon="1.75453">
        <ele>174.3</ele>
        <time>2015-06-25T09:12:54.000Z</time>
      </trkpt>
      <trkpt lat="48.73067" lon="1.75456">
        <ele>174.4</ele>
        <time>2015-06-25T09:12:55.000Z</time>
      </trkpt>
      <trkpt lat="48.73062" lon="1.7547">
        <ele>174.9</ele>
        <time>2015-06-25T09:13:03.000Z</time>
      </trkpt>
      <trkpt lat="48.73061" lon="1.75488">
        <ele>175</ele>
        <time>2015-06-25T09:13:09.000Z</time>
      </trkpt>
      <trkpt lat="48.73059" lon="1.75508">
        <ele>175</ele>
        <time>2015-06-25T09:13:15.000Z</time>
      </trkpt>
      <trkpt lat="48.73058" lon="1.75532">
        <ele>175</ele>
        <time>2015-06-25T09:13:23.000Z</time>
      </trkpt>
      <trkpt lat="48.73059" lon="1.75535">
        <ele>175</ele>
        <time>2015-06-25T09:13:26.000Z</time>
      </trkpt>
      <trkpt lat="48.73062" lon="1.75544">
        <ele>175</ele>
        <time>2015-06-25T09:13:33.000Z</time>
      </trkpt>
      <trkpt lat="48.73062" lon="1.75553">
        <ele>175</ele>
        <time>2015-06-25T09:13:39.000Z</time>
      </trkpt>
      <trkpt lat="48.73063" lon="1.7556">
        <ele>175</ele>
        <time>2015-06-25T09:13:43.000Z</time>
      </trkpt>
      <trkpt lat="48.73063" lon="1.75567">
        <ele>175</ele>
        <time>2015-06-25T09:13:46.000Z</time>
      </trkpt>
      <trkpt lat="48.73062" lon="1.75577">
        <ele>175</ele>
        <time>2015-06-25T09:13:51.000Z</time>
      </trkpt>
      <trkpt lat="48.73062" lon="1.75585">
        <ele>175</ele>
        <time>2015-06-25T09:13:55.000Z</time>
      </trkpt>
      <trkpt lat="48.73062" lon="1.75591">
        <ele>175.2</ele>
        <time>2015-06-25T09:13:59.000Z</time>
      </trkpt>
      <trkpt lat="48.73062" lon="1.75595">
        <ele>175.3</ele>
        <time>2015-06-25T09:14:02.000Z</time>
      </trkpt>
      <trkpt lat="48.73063" lon="1.75607">
        <ele>175.6</ele>
        <time>2015-06-25T09:14:06.000Z</time>
      </trkpt>
      <trkpt lat="48.73063" lon="1.75611">
        <ele>175.7</ele>
        <time>2015-06-25T09:14:08.000Z</time>
      </trkpt>
      <trkpt lat="48.73063" lon="1.75626">
        <ele>175.7</ele>
        <time>2015-06-25T09:14:15.000Z</time>
      </trkpt>
      <trkpt lat="48.7306" lon="1.75631">
        <ele>175.9</ele>
        <time>2015-06-25T09:14:19.000Z</time>
      </trkpt>
      <trkpt lat="48.73057" lon="1.75649">
        <ele>176</ele>
        <time>2015-06-25T09:14:27.000Z</time>
      </trkpt>
      <trkpt lat="48.73057" lon="1.75651">
        <ele>176</ele>
        <time>2015-06-25T09:14:28.000Z</time>
      </trkpt>
      <trkpt lat="48.73052" lon="1.75667">
        <ele>176</ele>
        <time>2015-06-25T09:14:35.000Z</time>
      </trkpt>
      <trkpt lat="48.73051" lon="1.75682">
        <ele>176</ele>
        <time>2015-06-25T09:14:41.000Z</time>
      </trkpt>
      <trkpt lat="48.7305" lon="1.75694">
        <ele>176</ele>
        <time>2015-06-25T09:14:46.000Z</time>
      </trkpt>
      <trkpt lat="48.73049" lon="1.7571">
        <ele>176</ele>
        <time>2015-06-25T09:14:54.000Z</time>
      </trkpt>
      <trkpt lat="48.73051" lon="1.7572">
        <ele>176</ele>
        <time>2015-06-25T09:14:59.000Z</time>
      </trkpt>
      <trkpt lat="48.73049" lon="1.75727">
        <ele>176</ele>
        <time>2015-06-25T09:15:03.000Z</time>
      </trkpt>
      <trkpt lat="48.73049" lon="1.75741">
        <ele>176</ele>
        <time>2015-06-25T09:15:10.000Z</time>
      </trkpt>
      <trkpt lat="48.7305" lon="1.75747">
        <ele>176</ele>
        <time>2015-06-25T09:15:14.000Z</time>
      </trkpt>
      <trkpt lat="48.73052" lon="1.75752">
        <ele>176</ele>
        <time>2015-06-25T09:15:17.000Z</time>
      </trkpt>
      <trkpt lat="48.73052" lon="1.75766">
        <ele>176</ele>
        <time>2015-06-25T09:15:24.000Z</time>
      </trkpt>
      <trkpt lat="48.73054" lon="1.75781">
        <ele>176</ele>
        <time>2015-06-25T09:15:30.000Z</time>
      </trkpt>
      <trkpt lat="48.73052" lon="1.7579">
        <ele>175.9</ele>
        <time>2015-06-25T09:15:35.000Z</time>
      </trkpt>
      <trkpt lat="48.73051" lon="1.75798">
        <ele>175.9</ele>
        <time>2015-06-25T09:15:38.000Z</time>
      </trkpt>
      <trkpt lat="48.7305" lon="1.75808">
        <ele>175.8</ele>
        <time>2015-06-25T09:15:42.000Z</time>
      </trkpt>
      <trkpt lat="48.73051" lon="1.75824">
        <ele>175.8</ele>
        <time>2015-06-25T09:15:48.000Z</time>
      </trkpt>
      <trkpt lat="48.7305" lon="1.75829">
        <ele>175.8</ele>
        <time>2015-06-25T09:15:50.000Z</time>
      </trkpt>
      <trkpt lat="48.73049" lon="1.75833">
        <ele>175.8</ele>
        <time>2015-06-25T09:15:52.000Z</time>
      </trkpt>
      <trkpt lat="48.73045" lon="1.75854">
        <ele>175.6</ele>
        <time>2015-06-25T09:16:00.000Z</time>
      </trkpt>
      <trkpt lat="48.73045" lon="1.75856">
        <ele>175.6</ele>
        <time>2015-06-25T09:16:01.000Z</time>
      </trkpt>
      <trkpt lat="48.73041" lon="1.75869">
        <ele>175.5</ele>
        <time>2015-06-25T09:16:08.000Z</time>
      </trkpt>
      <trkpt lat="48.7304" lon="1.75884">
        <ele>175.4</ele>
        <time>2015-06-25T09:16:15.000Z</time>
      </trkpt>
      <trkpt lat="48.7304" lon="1.75894">
        <ele>175.3</ele>
        <time>2015-06-25T09:16:19.000Z</time>
      </trkpt>
      <trkpt lat="48.73039" lon="1.7591">
        <ele>175</ele>
        <time>2015-06-25T09:16:25.000Z</time>
      </trkpt>
      <trkpt lat="48.73038" lon="1.75926">
        <ele>174.6</ele>
        <time>2015-06-25T09:16:32.000Z</time>
      </trkpt>
      <trkpt lat="48.73036" lon="1.75931">
        <ele>174.5</ele>
        <time>2015-06-25T09:16:34.000Z</time>
      </trkpt>
      <trkpt lat="48.73033" lon="1.75946">
        <ele>174.2</ele>
        <time>2015-06-25T09:16:41.000Z</time>
      </trkpt>
      <trkpt lat="48.73035" lon="1.75955">
        <ele>174.3</ele>
        <time>2015-06-25T09:16:46.000Z</time>
      </trkpt>
      <trkpt lat="48.73039" lon="1.75953">
        <ele>174.5</ele>
        <time>2015-06-25T09:16:51.000Z</time>
      </trkpt>
      <trkpt lat="48.73042" lon="1.7595">
        <ele>174.6</ele>
        <time>2015-06-25T09:16:54.000Z</time>
      </trkpt>
      <trkpt lat="48.73052" lon="1.75944">
        <ele>174.9</ele>
        <time>2015-06-25T09:17:01.000Z</time>
      </trkpt>
      <trkpt lat="48.7306" lon="1.75936">
        <ele>175.4</ele>
        <time>2015-06-25T09:17:06.000Z</time>
      </trkpt>
      <trkpt lat="48.73068" lon="1.75928">
        <ele>175.8</ele>
        <time>2015-06-25T09:17:13.000Z</time>
      </trkpt>
      <trkpt lat="48.73075" lon="1.75922">
        <ele>175.9</ele>
        <time>2015-06-25T09:17:17.000Z</time>
      </trkpt>
      <trkpt lat="48.73083" lon="1.75918">
        <ele>176</ele>
        <time>2015-06-25T09:17:22.000Z</time>
      </trkpt>
      <trkpt lat="48.73095" lon="1.75908">
        <ele>176.4</ele>
        <time>2015-06-25T09:17:31.000Z</time>
      </trkpt>
      <trkpt lat="48.73105" lon="1.75902">
        <ele>176.8</ele>
        <time>2015-06-25T09:17:39.000Z</time>
      </trkpt>
      <trkpt lat="48.73113" lon="1.75894">
        <ele>177</ele>
        <time>2015-06-25T09:17:46.000Z</time>
      </trkpt>
      <trkpt lat="48.7312" lon="1.75887">
        <ele>176.9</ele>
        <time>2015-06-25T09:17:52.000Z</time>
      </trkpt>
      <trkpt lat="48.73129" lon="1.75879">
        <ele>176.9</ele>
        <time>2015-06-25T09:17:58.000Z</time>
      </trkpt>
      <trkpt lat="48.73139" lon="1.75871">
        <ele>177</ele>
        <time>2015-06-25T09:18:05.000Z</time>
      </trkpt>
      <trkpt lat="48.73143" lon="1.75869">
        <ele>177</ele>
        <time>2015-06-25T09:18:08.000Z</time>
      </trkpt>
      <trkpt lat="48.73148" lon="1.75866">
        <ele>177.1</ele>
        <time>2015-06-25T09:18:12.000Z</time>
      </trkpt>
      <trkpt lat="48.73152" lon="1.75863">
        <ele>177</ele>
        <time>2015-06-25T09:18:16.000Z</time>
      </trkpt>
      <trkpt lat="48.7316" lon="1.7586">
        <ele>177</ele>
        <time>2015-06-25T09:18:23.000Z</time>
      </trkpt>
      <trkpt lat="48.7317" lon="1.75853">
        <ele>177.1</ele>
        <time>2015-06-25T09:18:30.000Z</time>
      </trkpt>
      <trkpt lat="48.73178" lon="1.75848">
        <ele>177.2</ele>
        <time>2015-06-25T09:18:36.000Z</time>
      </trkpt>
      <trkpt lat="48.73183" lon="1.7584">
        <ele>177.1</ele>
        <time>2015-06-25T09:18:42.000Z</time>
      </trkpt>
      <trkpt lat="48.73186" lon="1.75838">
        <ele>177.1</ele>
        <time>2015-06-25T09:18:45.000Z</time>
      </trkpt>
      <trkpt lat="48.73189" lon="1.75834">
        <ele>177</ele>
        <time>2015-06-25T09:18:49.000Z</time>
      </trkpt>
      <trkpt lat="48.73197" lon="1.75822">
        <ele>177.1</ele>
        <time>2015-06-25T09:18:56.000Z</time>
      </trkpt>
      <trkpt lat="48.73202" lon="1.75816">
        <ele>177.1</ele>
        <time>2015-06-25T09:19:01.000Z</time>
      </trkpt>
      <trkpt lat="48.73205" lon="1.75814">
        <ele>177.1</ele>
        <time>2015-06-25T09:19:03.000Z</time>
      </trkpt>
      <trkpt lat="48.73214" lon="1.75811">
        <ele>177.1</ele>
        <time>2015-06-25T09:19:10.000Z</time>
      </trkpt>
      <trkpt lat="48.73219" lon="1.75809">
        <ele>177.1</ele>
        <time>2015-06-25T09:19:14.000Z</time>
      </trkpt>
      <trkpt lat="48.73223" lon="1.75808">
        <ele>177.1</ele>
        <time>2015-06-25T09:19:17.000Z</time>
      </trkpt>
      <trkpt lat="48.73226" lon="1.75808">
        <ele>177.2</ele>
        <time>2015-06-25T09:19:20.000Z</time>
      </trkpt>
      <trkpt lat="48.73232" lon="1.75804">
        <ele>177.3</ele>
        <time>2015-06-25T09:19:25.000Z</time>
      </trkpt>
      <trkpt lat="48.73242" lon="1.75797">
        <ele>177.5</ele>
        <time>2015-06-25T09:19:32.000Z</time>
      </trkpt>
      <trkpt lat="48.73248" lon="1.75791">
        <ele>177.4</ele>
        <time>2015-06-25T09:19:37.000Z</time>
      </trkpt>
      <trkpt lat="48.73251" lon="1.75789">
        <ele>177.4</ele>
        <time>2015-06-25T09:19:39.000Z</time>
      </trkpt>
      <trkpt lat="48.73258" lon="1.75789">
        <ele>177.7</ele>
        <time>2015-06-25T09:19:44.000Z</time>
      </trkpt>
      <trkpt lat="48.73264" lon="1.7578">
        <ele>177.6</ele>
        <time>2015-06-25T09:19:50.000Z</time>
      </trkpt>
      <trkpt lat="48.73272" lon="1.75772">
        <ele>178</ele>
        <time>2015-06-25T09:19:56.000Z</time>
      </trkpt>
      <trkpt lat="48.73275" lon="1.75769">
        <ele>178.2</ele>
        <time>2015-06-25T09:19:58.000Z</time>
      </trkpt>
      <trkpt lat="48.7328" lon="1.75758">
        <ele>178.7</ele>
        <time>2015-06-25T09:20:05.000Z</time>
      </trkpt>
      <trkpt lat="48.73286" lon="1.75748">
        <ele>178.7</ele>
        <time>2015-06-25T09:20:12.000Z</time>
      </trkpt>
      <trkpt lat="48.73296" lon="1.75743">
        <ele>178.3</ele>
        <time>2015-06-25T09:20:20.000Z</time>
      </trkpt>
      <trkpt lat="48.73306" lon="1.75739">
        <ele>178</ele>
        <time>2015-06-25T09:20:26.000Z</time>
      </trkpt>
      <trkpt lat="48.73317" lon="1.7574">
        <ele>178</ele>
        <time>2015-06-25T09:20:34.000Z</time>
      </trkpt>
      <trkpt lat="48.73328" lon="1.75738">
        <ele>178</ele>
        <time>2015-06-25T09:20:40.000Z</time>
      </trkpt>
      <trkpt lat="48.73334" lon="1.75731">
        <ele>178</ele>
        <time>2015-06-25T09:20:45.000Z</time>
      </trkpt>
      <trkpt lat="48.73341" lon="1.75723">
        <ele>178.3</ele>
        <time>2015-06-25T09:20:51.000Z</time>
      </trkpt>
      <trkpt lat="48.7335" lon="1.75719">
        <ele>178.6</ele>
        <time>2015-06-25T09:20:58.000Z</time>
      </trkpt>
      <trkpt lat="48.73357" lon="1.75717">
        <ele>178.8</ele>
        <time>2015-06-25T09:21:04.000Z</time>
      </trkpt>
      <trkpt lat="48.73363" lon="1.75714">
        <ele>179</ele>
        <time>2015-06-25T09:21:09.000Z</time>
      </trkpt>
      <trkpt lat="48.73367" lon="1.75709">
        <ele>179</ele>
        <time>2015-06-25T09:21:12.000Z</time>
      </trkpt>
      <trkpt lat="48.73373" lon="1.757">
        <ele>179</ele>
        <time>2015-06-25T09:21:17.000Z</time>
      </trkpt>
      <trkpt lat="48.73382" lon="1.75695">
        <ele>179</ele>
        <time>2015-06-25T09:21:24.000Z</time>
      </trkpt>
      <trkpt lat="48.73386" lon="1.75689">
        <ele>179.2</ele>
        <time>2015-06-25T09:21:28.000Z</time>
      </trkpt>
      <trkpt lat="48.73389" lon="1.7569">
        <ele>179.2</ele>
        <time>2015-06-25T09:21:31.000Z</time>
      </trkpt>
      <trkpt lat="48.73395" lon="1.75684">
        <ele>179.7</ele>
        <time>2015-06-25T09:21:36.000Z</time>
      </trkpt>
      <trkpt lat="48.73403" lon="1.75677">
        <ele>180</ele>
        <time>2015-06-25T09:21:42.000Z</time>
      </trkpt>
      <trkpt lat="48.73406" lon="1.75675">
        <ele>180.1</ele>
        <time>2015-06-25T09:21:44.000Z</time>
      </trkpt>
      <trkpt lat="48.73414" lon="1.75667">
        <ele>180</ele>
        <time>2015-06-25T09:21:49.000Z</time>
      </trkpt>
      <trkpt lat="48.73416" lon="1.75664">
        <ele>180</ele>
        <time>2015-06-25T09:21:51.000Z</time>
      </trkpt>
      <trkpt lat="48.7343" lon="1.75653">
        <ele>180</ele>
        <time>2015-06-25T09:22:00.000Z</time>
      </trkpt>
      <trkpt lat="48.73431" lon="1.75652">
        <ele>180</ele>
        <time>2015-06-25T09:22:01.000Z</time>
      </trkpt>
      <trkpt lat="48.73439" lon="1.7565">
        <ele>180</ele>
        <time>2015-06-25T09:22:08.000Z</time>
      </trkpt>
      <trkpt lat="48.73447" lon="1.75648">
        <ele>180</ele>
        <time>2015-06-25T09:22:13.000Z</time>
      </trkpt>
      <trkpt lat="48.73459" lon="1.75639">
        <ele>180</ele>
        <time>2015-06-25T09:22:22.000Z</time>
      </trkpt>
      <trkpt lat="48.73467" lon="1.75633">
        <ele>180</ele>
        <time>2015-06-25T09:22:28.000Z</time>
      </trkpt>
      <trkpt lat="48.73477" lon="1.75629">
        <ele>180.2</ele>
        <time>2015-06-25T09:22:36.000Z</time>
      </trkpt>
      <trkpt lat="48.7348" lon="1.75626">
        <ele>180.3</ele>
        <time>2015-06-25T09:22:38.000Z</time>
      </trkpt>
      <trkpt lat="48.73488" lon="1.75621">
        <ele>180.4</ele>
        <time>2015-06-25T09:22:45.000Z</time>
      </trkpt>
      <trkpt lat="48.73497" lon="1.75607">
        <ele>180</ele>
        <time>2015-06-25T09:22:53.000Z</time>
      </trkpt>
      <trkpt lat="48.73503" lon="1.75599">
        <ele>180.1</ele>
        <time>2015-06-25T09:23:01.000Z</time>
      </trkpt>
      <trkpt lat="48.73507" lon="1.75595">
        <ele>180.1</ele>
        <time>2015-06-25T09:23:06.000Z</time>
      </trkpt>
      <trkpt lat="48.73513" lon="1.75594">
        <ele>180.2</ele>
        <time>2015-06-25T09:23:11.000Z</time>
      </trkpt>
      <trkpt lat="48.73519" lon="1.75593">
        <ele>180.2</ele>
        <time>2015-06-25T09:23:17.000Z</time>
      </trkpt>
      <trkpt lat="48.73523" lon="1.75591">
        <ele>180.2</ele>
        <time>2015-06-25T09:23:20.000Z</time>
      </trkpt>
      <trkpt lat="48.73538" lon="1.75577">
        <ele>179.8</ele>
        <time>2015-06-25T09:23:28.000Z</time>
      </trkpt>
      <trkpt lat="48.73545" lon="1.75573">
        <ele>179.6</ele>
        <time>2015-06-25T09:23:34.000Z</time>
      </trkpt>
      <trkpt lat="48.73553" lon="1.75571">
        <ele>179.6</ele>
        <time>2015-06-25T09:23:40.000Z</time>
      </trkpt>
      <trkpt lat="48.73559" lon="1.75569">
        <ele>179.6</ele>
        <time>2015-06-25T09:23:44.000Z</time>
      </trkpt>
      <trkpt lat="48.73572" lon="1.75561">
        <ele>179.4</ele>
        <time>2015-06-25T09:23:51.000Z</time>
      </trkpt>
      <trkpt lat="48.73574" lon="1.75559">
        <ele>179.3</ele>
        <time>2015-06-25T09:23:52.000Z</time>
      </trkpt>
      <trkpt lat="48.7358" lon="1.75556">
        <ele>179</ele>
        <time>2015-06-25T09:23:57.000Z</time>
      </trkpt>
      <trkpt lat="48.73583" lon="1.75556">
        <ele>179</ele>
        <time>2015-06-25T09:23:59.000Z</time>
      </trkpt>
      <trkpt lat="48.73596" lon="1.75553">
        <ele>178.8</ele>
        <time>2015-06-25T09:24:07.000Z</time>
      </trkpt>
      <trkpt lat="48.73605" lon="1.75546">
        <ele>178.6</ele>
        <time>2015-06-25T09:24:14.000Z</time>
      </trkpt>
      <trkpt lat="48.73618" lon="1.7554">
        <ele>178.5</ele>
        <time>2015-06-25T09:24:22.000Z</time>
      </trkpt>
      <trkpt lat="48.7363" lon="1.75534">
        <ele>178.4</ele>
        <time>2015-06-25T09:24:29.000Z</time>
      </trkpt>
      <trkpt lat="48.73637" lon="1.75533">
        <ele>178.3</ele>
        <time>2015-06-25T09:24:35.000Z</time>
      </trkpt>
      <trkpt lat="48.73647" lon="1.75534">
        <ele>178.4</ele>
        <time>2015-06-25T09:24:41.000Z</time>
      </trkpt>
      <trkpt lat="48.73651" lon="1.75531">
        <ele>178.2</ele>
        <time>2015-06-25T09:24:44.000Z</time>
      </trkpt>
      <trkpt lat="48.7366" lon="1.7553">
        <ele>178.2</ele>
        <time>2015-06-25T09:24:51.000Z</time>
      </trkpt>
      <trkpt lat="48.73663" lon="1.75532">
        <ele>178.3</ele>
        <time>2015-06-25T09:24:53.000Z</time>
      </trkpt>
      <trkpt lat="48.73669" lon="1.75534">
        <ele>178.4</ele>
        <time>2015-06-25T09:24:57.000Z</time>
      </trkpt>
      <trkpt lat="48.73679" lon="1.75536">
        <ele>178.5</ele>
        <time>2015-06-25T09:25:04.000Z</time>
      </trkpt>
      <trkpt lat="48.73686" lon="1.75541">
        <ele>178.6</ele>
        <time>2015-06-25T09:25:10.000Z</time>
      </trkpt>
      <trkpt lat="48.7369" lon="1.75544">
        <ele>178.7</ele>
        <time>2015-06-25T09:25:13.000Z</time>
      </trkpt>
      <trkpt lat="48.73695" lon="1.75548">
        <ele>178.7</ele>
        <time>2015-06-25T09:25:17.000Z</time>
      </trkpt>
      <trkpt lat="48.737" lon="1.75552">
        <ele>178.9</ele>
        <time>2015-06-25T09:25:24.000Z</time>
      </trkpt>
      <trkpt lat="48.73706" lon="1.75554">
        <ele>178.9</ele>
        <time>2015-06-25T09:25:30.000Z</time>
      </trkpt>
      <trkpt lat="48.73713" lon="1.75554">
        <ele>179</ele>
        <time>2015-06-25T09:25:35.000Z</time>
      </trkpt>
      <trkpt lat="48.73723" lon="1.75549">
        <ele>178.8</ele>
        <time>2015-06-25T09:25:42.000Z</time>
      </trkpt>
      <trkpt lat="48.73731" lon="1.75552">
        <ele>178.9</ele>
        <time>2015-06-25T09:25:47.000Z</time>
      </trkpt>
      <trkpt lat="48.73741" lon="1.75558">
        <ele>179</ele>
        <time>2015-06-25T09:25:53.000Z</time>
      </trkpt>
      <trkpt lat="48.73746" lon="1.75562">
        <ele>179</ele>
        <time>2015-06-25T09:25:56.000Z</time>
      </trkpt>
      <trkpt lat="48.73768" lon="1.75567">
        <ele>179</ele>
        <time>2015-06-25T09:26:02.000Z</time>
      </trkpt>
      <trkpt lat="48.73784" lon="1.75572">
        <ele>179</ele>
        <time>2015-06-25T09:26:07.000Z</time>
      </trkpt>
      <trkpt lat="48.73806" lon="1.7558">
        <ele>179</ele>
        <time>2015-06-25T09:26:14.000Z</time>
      </trkpt>
      <trkpt lat="48.73827" lon="1.75588">
        <ele>179.8</ele>
        <time>2015-06-25T09:26:21.000Z</time>
      </trkpt>
      <trkpt lat="48.73849" lon="1.75596">
        <ele>180</ele>
        <time>2015-06-25T09:26:28.000Z</time>
      </trkpt>
      <trkpt lat="48.73866" lon="1.75602">
        <ele>180</ele>
        <time>2015-06-25T09:26:34.000Z</time>
      </trkpt>
      <trkpt lat="48.7388" lon="1.756">
        <ele>180</ele>
        <time>2015-06-25T09:26:40.000Z</time>
      </trkpt>
      <trkpt lat="48.73887" lon="1.75606">
        <ele>180</ele>
        <time>2015-06-25T09:26:45.000Z</time>
      </trkpt>
      <trkpt lat="48.73894" lon="1.75609">
        <ele>180</ele>
        <time>2015-06-25T09:26:50.000Z</time>
      </trkpt>
      <trkpt lat="48.73907" lon="1.75612">
        <ele>180</ele>
        <time>2015-06-25T09:26:57.000Z</time>
      </trkpt>
      <trkpt lat="48.73916" lon="1.75616">
        <ele>180</ele>
        <time>2015-06-25T09:27:04.000Z</time>
      </trkpt>
      <trkpt lat="48.73917" lon="1.75616">
        <ele>180</ele>
        <time>2015-06-25T09:27:05.000Z</time>
      </trkpt>
      <trkpt lat="48.73924" lon="1.7562">
        <ele>180</ele>
        <time>2015-06-25T09:27:11.000Z</time>
      </trkpt>
      <trkpt lat="48.7393" lon="1.75621">
        <ele>180</ele>
        <time>2015-06-25T09:27:16.000Z</time>
      </trkpt>
      <trkpt lat="48.73941" lon="1.75627">
        <ele>180</ele>
        <time>2015-06-25T09:27:23.000Z</time>
      </trkpt>
      <trkpt lat="48.73945" lon="1.75633">
        <ele>180</ele>
        <time>2015-06-25T09:27:27.000Z</time>
      </trkpt>
      <trkpt lat="48.73951" lon="1.75642">
        <ele>179.7</ele>
        <time>2015-06-25T09:27:33.000Z</time>
      </trkpt>
      <trkpt lat="48.73952" lon="1.75643">
        <ele>179.6</ele>
        <time>2015-06-25T09:27:34.000Z</time>
      </trkpt>
      <trkpt lat="48.73951" lon="1.7566">
        <ele>179.2</ele>
        <time>2015-06-25T09:27:41.000Z</time>
      </trkpt>
      <trkpt lat="48.73951" lon="1.75662">
        <ele>179.1</ele>
        <time>2015-06-25T09:27:42.000Z</time>
      </trkpt>
      <trkpt lat="48.73951" lon="1.75674">
        <ele>179</ele>
        <time>2015-06-25T09:27:48.000Z</time>
      </trkpt>
      <trkpt lat="48.73948" lon="1.75686">
        <ele>179</ele>
        <time>2015-06-25T09:27:54.000Z</time>
      </trkpt>
      <trkpt lat="48.73948" lon="1.75689">
        <ele>179</ele>
        <time>2015-06-25T09:27:58.000Z</time>
      </trkpt>
      <trkpt lat="48.73948" lon="1.75694">
        <ele>179</ele>
        <time>2015-06-25T09:28:17.000Z</time>
      </trkpt>
      <trkpt lat="48.73944" lon="1.75708">
        <ele>179</ele>
        <time>2015-06-25T09:28:22.000Z</time>
      </trkpt>
      <trkpt lat="48.73939" lon="1.75725">
        <ele>179.2</ele>
        <time>2015-06-25T09:28:29.000Z</time>
      </trkpt>
      <trkpt lat="48.73938" lon="1.75732">
        <ele>179.2</ele>
        <time>2015-06-25T09:28:32.000Z</time>
      </trkpt>
      <trkpt lat="48.73934" lon="1.7575">
        <ele>179.4</ele>
        <time>2015-06-25T09:28:39.000Z</time>
      </trkpt>
      <trkpt lat="48.73933" lon="1.75766">
        <ele>179.2</ele>
        <time>2015-06-25T09:28:44.000Z</time>
      </trkpt>
      <trkpt lat="48.73928" lon="1.75788">
        <ele>179</ele>
        <time>2015-06-25T09:28:48.000Z</time>
      </trkpt>
      <trkpt lat="48.73924" lon="1.75813">
        <ele>179</ele>
        <time>2015-06-25T09:28:53.000Z</time>
      </trkpt>
      <trkpt lat="48.73918" lon="1.75838">
        <ele>179</ele>
        <time>2015-06-25T09:28:58.000Z</time>
      </trkpt>
      <trkpt lat="48.73912" lon="1.7586">
        <ele>179.2</ele>
        <time>2015-06-25T09:29:03.000Z</time>
      </trkpt>
      <trkpt lat="48.73907" lon="1.75887">
        <ele>179.3</ele>
        <time>2015-06-25T09:29:08.000Z</time>
      </trkpt>
      <trkpt lat="48.73902" lon="1.75915">
        <ele>180</ele>
        <time>2015-06-25T09:29:14.000Z</time>
      </trkpt>
      <trkpt lat="48.73898" lon="1.75935">
        <ele>180</ele>
        <time>2015-06-25T09:29:18.000Z</time>
      </trkpt>
      <trkpt lat="48.73895" lon="1.75955">
        <ele>179.9</ele>
        <time>2015-06-25T09:29:22.000Z</time>
      </trkpt>
      <trkpt lat="48.73888" lon="1.75987">
        <ele>180</ele>
        <time>2015-06-25T09:29:28.000Z</time>
      </trkpt>
      <trkpt lat="48.73885" lon="1.76007">
        <ele>180</ele>
        <time>2015-06-25T09:29:32.000Z</time>
      </trkpt>
      <trkpt lat="48.73881" lon="1.76027">
        <ele>180</ele>
        <time>2015-06-25T09:29:37.000Z</time>
      </trkpt>
      <trkpt lat="48.73877" lon="1.76047">
        <ele>179.6</ele>
        <time>2015-06-25T09:29:41.000Z</time>
      </trkpt>
      <trkpt lat="48.73872" lon="1.76071">
        <ele>179.3</ele>
        <time>2015-06-25T09:29:46.000Z</time>
      </trkpt>
      <trkpt lat="48.73864" lon="1.76098">
        <ele>179</ele>
        <time>2015-06-25T09:29:51.000Z</time>
      </trkpt>
      <trkpt lat="48.73857" lon="1.7613">
        <ele>179</ele>
        <time>2015-06-25T09:29:57.000Z</time>
      </trkpt>
      <trkpt lat="48.73852" lon="1.76155">
        <ele>179</ele>
        <time>2015-06-25T09:30:02.000Z</time>
      </trkpt>
      <trkpt lat="48.73846" lon="1.7618">
        <ele>179</ele>
        <time>2015-06-25T09:30:07.000Z</time>
      </trkpt>
      <trkpt lat="48.73841" lon="1.76206">
        <ele>178.9</ele>
        <time>2015-06-25T09:30:12.000Z</time>
      </trkpt>
      <trkpt lat="48.73833" lon="1.76241">
        <ele>178.3</ele>
        <time>2015-06-25T09:30:19.000Z</time>
      </trkpt>
      <trkpt lat="48.7383" lon="1.76262">
        <ele>178.1</ele>
        <time>2015-06-25T09:30:24.000Z</time>
      </trkpt>
      <trkpt lat="48.73831" lon="1.76265">
        <ele>178</ele>
        <time>2015-06-25T09:30:25.000Z</time>
      </trkpt>
      <trkpt lat="48.73824" lon="1.76298">
        <ele>178</ele>
        <time>2015-06-25T09:30:30.000Z</time>
      </trkpt>
      <trkpt lat="48.73818" lon="1.76327">
        <ele>178</ele>
        <time>2015-06-25T09:30:36.000Z</time>
      </trkpt>
      <trkpt lat="48.73814" lon="1.76348">
        <ele>178</ele>
        <time>2015-06-25T09:30:41.000Z</time>
      </trkpt>
      <trkpt lat="48.7381" lon="1.76363">
        <ele>178</ele>
        <time>2015-06-25T09:30:47.000Z</time>
      </trkpt>
      <trkpt lat="48.73809" lon="1.76378">
        <ele>177.9</ele>
        <time>2015-06-25T09:30:54.000Z</time>
      </trkpt>
      <trkpt lat="48.73809" lon="1.76385">
        <ele>177.9</ele>
        <time>2015-06-25T09:30:59.000Z</time>
      </trkpt>
      <trkpt lat="48.73809" lon="1.76386">
        <ele>177.9</ele>
        <time>2015-06-25T09:31:00.000Z</time>
      </trkpt>
      <trkpt lat="48.73817" lon="1.76392">
        <ele>177.6</ele>
        <time>2015-06-25T09:31:12.000Z</time>
      </trkpt>
      <trkpt lat="48.73827" lon="1.76388">
        <ele>177.2</ele>
        <time>2015-06-25T09:31:19.000Z</time>
      </trkpt>
      <trkpt lat="48.73836" lon="1.76387">
        <ele>177</ele>
        <time>2015-06-25T09:31:25.000Z</time>
      </trkpt>
      <trkpt lat="48.73845" lon="1.76387">
        <ele>176.6</ele>
        <time>2015-06-25T09:31:31.000Z</time>
      </trkpt>
      <trkpt lat="48.73855" lon="1.76386">
        <ele>176.3</ele>
        <time>2015-06-25T09:31:39.000Z</time>
      </trkpt>
      <trkpt lat="48.73856" lon="1.76387">
        <ele>176.3</ele>
        <time>2015-06-25T09:31:41.000Z</time>
      </trkpt>
      <trkpt lat="48.73859" lon="1.76387">
        <ele>176.2</ele>
        <time>2015-06-25T09:31:47.000Z</time>
      </trkpt>
      <trkpt lat="48.7386" lon="1.76387">
        <ele>176.1</ele>
        <time>2015-06-25T09:31:48.000Z</time>
      </trkpt>
      <trkpt lat="48.73866" lon="1.76385">
        <ele>176.1</ele>
        <time>2015-06-25T09:31:52.000Z</time>
      </trkpt>
      <trkpt lat="48.73866" lon="1.76385">
        <ele>176.1</ele>
        <time>2015-06-25T09:31:53.000Z</time>
      </trkpt>
      <trkpt lat="48.73873" lon="1.76384">
        <ele>176.1</ele>
        <time>2015-06-25T09:32:12.000Z</time>
      </trkpt>
      <trkpt lat="48.73881" lon="1.7638">
        <ele>176.1</ele>
        <time>2015-06-25T09:32:16.000Z</time>
      </trkpt>
      <trkpt lat="48.73887" lon="1.76377">
        <ele>176</ele>
        <time>2015-06-25T09:32:21.000Z</time>
      </trkpt>
      <trkpt lat="48.73894" lon="1.76376">
        <ele>175.9</ele>
        <time>2015-06-25T09:32:26.000Z</time>
      </trkpt>
      <trkpt lat="48.739" lon="1.76377">
        <ele>175.8</ele>
        <time>2015-06-25T09:32:32.000Z</time>
      </trkpt>
      <trkpt lat="48.73901" lon="1.76376">
        <ele>175.8</ele>
        <time>2015-06-25T09:32:33.000Z</time>
      </trkpt>
      <trkpt lat="48.73911" lon="1.76375">
        <ele>175.6</ele>
        <time>2015-06-25T09:32:40.000Z</time>
      </trkpt>
      <trkpt lat="48.73914" lon="1.76374">
        <ele>175.6</ele>
        <time>2015-06-25T09:32:43.000Z</time>
      </trkpt>
      <trkpt lat="48.73929" lon="1.76372">
        <ele>175.2</ele>
        <time>2015-06-25T09:32:53.000Z</time>
      </trkpt>
      <trkpt lat="48.7394" lon="1.7637">
        <ele>174.8</ele>
        <time>2015-06-25T09:33:00.000Z</time>
      </trkpt>
      <trkpt lat="48.73951" lon="1.76365">
        <ele>174.6</ele>
        <time>2015-06-25T09:33:07.000Z</time>
      </trkpt>
      <trkpt lat="48.73959" lon="1.76363">
        <ele>174.4</ele>
        <time>2015-06-25T09:33:13.000Z</time>
      </trkpt>
      <trkpt lat="48.73971" lon="1.76362">
        <ele>174</ele>
        <time>2015-06-25T09:33:21.000Z</time>
      </trkpt>
      <trkpt lat="48.73982" lon="1.7636">
        <ele>173.6</ele>
        <time>2015-06-25T09:33:28.000Z</time>
      </trkpt>
      <trkpt lat="48.73993" lon="1.76359">
        <ele>173.3</ele>
        <time>2015-06-25T09:33:35.000Z</time>
      </trkpt>
      <trkpt lat="48.74003" lon="1.76357">
        <ele>172.8</ele>
        <time>2015-06-25T09:33:43.000Z</time>
      </trkpt>
      <trkpt lat="48.74009" lon="1.76356">
        <ele>172.4</ele>
        <time>2015-06-25T09:33:48.000Z</time>
      </trkpt>
      <trkpt lat="48.74015" lon="1.7635">
        <ele>172.2</ele>
        <time>2015-06-25T09:33:53.000Z</time>
      </trkpt>
      <trkpt lat="48.74026" lon="1.76344">
        <ele>171.7</ele>
        <time>2015-06-25T09:34:01.000Z</time>
      </trkpt>
      <trkpt lat="48.74029" lon="1.76347">
        <ele>171.4</ele>
        <time>2015-06-25T09:34:03.000Z</time>
      </trkpt>
      <trkpt lat="48.74043" lon="1.7635">
        <ele>170.9</ele>
        <time>2015-06-25T09:34:13.000Z</time>
      </trkpt>
      <trkpt lat="48.74046" lon="1.7635">
        <ele>170.7</ele>
        <time>2015-06-25T09:34:15.000Z</time>
      </trkpt>
      <trkpt lat="48.74056" lon="1.76348">
        <ele>170.4</ele>
        <time>2015-06-25T09:34:23.000Z</time>
      </trkpt>
      <trkpt lat="48.74066" lon="1.76343">
        <ele>169.9</ele>
        <time>2015-06-25T09:34:30.000Z</time>
      </trkpt>
      <trkpt lat="48.74075" lon="1.76345">
        <ele>169.2</ele>
        <time>2015-06-25T09:34:36.000Z</time>
      </trkpt>
      <trkpt lat="48.74085" lon="1.76344">
        <ele>168.5</ele>
        <time>2015-06-25T09:34:42.000Z</time>
      </trkpt>
      <trkpt lat="48.74095" lon="1.76343">
        <ele>167.9</ele>
        <time>2015-06-25T09:34:49.000Z</time>
      </trkpt>
      <trkpt lat="48.74104" lon="1.76345">
        <ele>167.1</ele>
        <time>2015-06-25T09:34:55.000Z</time>
      </trkpt>
      <trkpt lat="48.74106" lon="1.76345">
        <ele>167</ele>
        <time>2015-06-25T09:34:56.000Z</time>
      </trkpt>
      <trkpt lat="48.74113" lon="1.76349">
        <ele>166.2</ele>
        <time>2015-06-25T09:35:02.000Z</time>
      </trkpt>
      <trkpt lat="48.74118" lon="1.76349">
        <ele>165.8</ele>
        <time>2015-06-25T09:35:05.000Z</time>
      </trkpt>
      <trkpt lat="48.74125" lon="1.76352">
        <ele>165</ele>
        <time>2015-06-25T09:35:11.000Z</time>
      </trkpt>
      <trkpt lat="48.74126" lon="1.76352">
        <ele>164.9</ele>
        <time>2015-06-25T09:35:12.000Z</time>
      </trkpt>
      <trkpt lat="48.74136" lon="1.76355">
        <ele>163.8</ele>
        <time>2015-06-25T09:35:19.000Z</time>
      </trkpt>
      <trkpt lat="48.74147" lon="1.76354">
        <ele>162.2</ele>
        <time>2015-06-25T09:35:25.000Z</time>
      </trkpt>
      <trkpt lat="48.74152" lon="1.76357">
        <ele>161.1</ele>
        <time>2015-06-25T09:35:28.000Z</time>
      </trkpt>
      <trkpt lat="48.74158" lon="1.76362">
        <ele>159.5</ele>
        <time>2015-06-25T09:35:35.000Z</time>
      </trkpt>
      <trkpt lat="48.74161" lon="1.76361">
        <ele>159.1</ele>
        <time>2015-06-25T09:35:36.000Z</time>
      </trkpt>
      <trkpt lat="48.74167" lon="1.7636">
        <ele>158</ele>
        <time>2015-06-25T09:35:39.000Z</time>
      </trkpt>
      <trkpt lat="48.7417" lon="1.76362">
        <ele>157.4</ele>
        <time>2015-06-25T09:35:42.000Z</time>
      </trkpt>
      <trkpt lat="48.74177" lon="1.76365">
        <ele>155.8</ele>
        <time>2015-06-25T09:35:50.000Z</time>
      </trkpt>
      <trkpt lat="48.74181" lon="1.76365">
        <ele>155.1</ele>
        <time>2015-06-25T09:35:53.000Z</time>
      </trkpt>
      <trkpt lat="48.74189" lon="1.76365">
        <ele>153.7</ele>
        <time>2015-06-25T09:35:59.000Z</time>
      </trkpt>
      <trkpt lat="48.74191" lon="1.76367">
        <ele>153.3</ele>
        <time>2015-06-25T09:36:01.000Z</time>
      </trkpt>
      <trkpt lat="48.74199" lon="1.76369">
        <ele>152</ele>
        <time>2015-06-25T09:36:08.000Z</time>
      </trkpt>
      <trkpt lat="48.742" lon="1.7637">
        <ele>151.8</ele>
        <time>2015-06-25T09:36:10.000Z</time>
      </trkpt>
      <trkpt lat="48.74203" lon="1.76372">
        <ele>151.4</ele>
        <time>2015-06-25T09:36:13.000Z</time>
      </trkpt>
      <trkpt lat="48.74207" lon="1.76372">
        <ele>151</ele>
        <time>2015-06-25T09:36:16.000Z</time>
      </trkpt>
      <trkpt lat="48.74211" lon="1.76375">
        <ele>150.5</ele>
        <time>2015-06-25T09:36:20.000Z</time>
      </trkpt>
      <trkpt lat="48.74213" lon="1.76378">
        <ele>150.2</ele>
        <time>2015-06-25T09:36:23.000Z</time>
      </trkpt>
      <trkpt lat="48.74219" lon="1.76379">
        <ele>149.6</ele>
        <time>2015-06-25T09:36:30.000Z</time>
      </trkpt>
      <trkpt lat="48.74219" lon="1.76379">
        <ele>149.6</ele>
        <time>2015-06-25T09:36:31.000Z</time>
      </trkpt>
      <trkpt lat="48.74223" lon="1.76385">
        <ele>149.1</ele>
        <time>2015-06-25T09:36:44.000Z</time>
      </trkpt>
      <trkpt lat="48.74218" lon="1.76399">
        <ele>149</ele>
        <time>2015-06-25T09:36:49.000Z</time>
      </trkpt>
      <trkpt lat="48.74218" lon="1.76401">
        <ele>148.9</ele>
        <time>2015-06-25T09:36:51.000Z</time>
      </trkpt>
      <trkpt lat="48.74216" lon="1.76411">
        <ele>148.7</ele>
        <time>2015-06-25T09:36:55.000Z</time>
      </trkpt>
      <trkpt lat="48.74214" lon="1.76414">
        <ele>148.7</ele>
        <time>2015-06-25T09:36:57.000Z</time>
      </trkpt>
      <trkpt lat="48.74214" lon="1.76418">
        <ele>148.6</ele>
        <time>2015-06-25T09:37:01.000Z</time>
      </trkpt>
      <trkpt lat="48.74216" lon="1.76423">
        <ele>148.7</ele>
        <time>2015-06-25T09:37:04.000Z</time>
      </trkpt>
      <trkpt lat="48.74217" lon="1.76427">
        <ele>148.7</ele>
        <time>2015-06-25T09:37:06.000Z</time>
      </trkpt>
      <trkpt lat="48.74218" lon="1.76436">
        <ele>149</ele>
        <time>2015-06-25T09:37:12.000Z</time>
      </trkpt>
      <trkpt lat="48.74219" lon="1.7644">
        <ele>149.1</ele>
        <time>2015-06-25T09:37:16.000Z</time>
      </trkpt>
      <trkpt lat="48.74222" lon="1.76451">
        <ele>149.1</ele>
        <time>2015-06-25T09:37:21.000Z</time>
      </trkpt>
      <trkpt lat="48.74222" lon="1.76457">
        <ele>149</ele>
        <time>2015-06-25T09:37:24.000Z</time>
      </trkpt>
      <trkpt lat="48.74223" lon="1.76461">
        <ele>149</ele>
        <time>2015-06-25T09:37:26.000Z</time>
      </trkpt>
      <trkpt lat="48.74225" lon="1.76474">
        <ele>149</ele>
        <time>2015-06-25T09:37:32.000Z</time>
      </trkpt>
      <trkpt lat="48.7423" lon="1.76484">
        <ele>148.9</ele>
        <time>2015-06-25T09:37:37.000Z</time>
      </trkpt>
      <trkpt lat="48.74233" lon="1.76496">
        <ele>148.7</ele>
        <time>2015-06-25T09:37:43.000Z</time>
      </trkpt>
      <trkpt lat="48.74235" lon="1.76502">
        <ele>148.6</ele>
        <time>2015-06-25T09:37:46.000Z</time>
      </trkpt>
      <trkpt lat="48.74238" lon="1.76519">
        <ele>148.4</ele>
        <time>2015-06-25T09:37:54.000Z</time>
      </trkpt>
      <trkpt lat="48.74239" lon="1.76521">
        <ele>148.4</ele>
        <time>2015-06-25T09:37:55.000Z</time>
      </trkpt>
      <trkpt lat="48.74241" lon="1.76535">
        <ele>148.6</ele>
        <time>2015-06-25T09:38:01.000Z</time>
      </trkpt>
      <trkpt lat="48.74242" lon="1.76543">
        <ele>148.8</ele>
        <time>2015-06-25T09:38:04.000Z</time>
      </trkpt>
      <trkpt lat="48.74243" lon="1.76557">
        <ele>149.3</ele>
        <time>2015-06-25T09:38:10.000Z</time>
      </trkpt>
      <trkpt lat="48.74241" lon="1.76566">
        <ele>149.3</ele>
        <time>2015-06-25T09:38:15.000Z</time>
      </trkpt>
      <trkpt lat="48.7424" lon="1.76581">
        <ele>149.4</ele>
        <time>2015-06-25T09:38:23.000Z</time>
      </trkpt>
      <trkpt lat="48.74239" lon="1.76592">
        <ele>149.4</ele>
        <time>2015-06-25T09:38:28.000Z</time>
      </trkpt>
      <trkpt lat="48.74237" lon="1.76603">
        <ele>149.5</ele>
        <time>2015-06-25T09:38:34.000Z</time>
      </trkpt>
      <trkpt lat="48.74235" lon="1.76615">
        <ele>149.5</ele>
        <time>2015-06-25T09:38:40.000Z</time>
      </trkpt>
      <trkpt lat="48.74233" lon="1.76626">
        <ele>149.6</ele>
        <time>2015-06-25T09:38:46.000Z</time>
      </trkpt>
      <trkpt lat="48.74232" lon="1.76628">
        <ele>149.6</ele>
        <time>2015-06-25T09:38:47.000Z</time>
      </trkpt>
      <trkpt lat="48.74228" lon="1.76646">
        <ele>149.7</ele>
        <time>2015-06-25T09:38:55.000Z</time>
      </trkpt>
      <trkpt lat="48.74224" lon="1.7666">
        <ele>149.9</ele>
        <time>2015-06-25T09:39:01.000Z</time>
      </trkpt>
      <trkpt lat="48.7422" lon="1.76672">
        <ele>149.9</ele>
        <time>2015-06-25T09:39:07.000Z</time>
      </trkpt>
      <trkpt lat="48.74217" lon="1.7669">
        <ele>149.5</ele>
        <time>2015-06-25T09:39:14.000Z</time>
      </trkpt>
      <trkpt lat="48.74216" lon="1.76697">
        <ele>149.4</ele>
        <time>2015-06-25T09:39:17.000Z</time>
      </trkpt>
      <trkpt lat="48.74214" lon="1.76703">
        <ele>149.5</ele>
        <time>2015-06-25T09:39:20.000Z</time>
      </trkpt>
      <trkpt lat="48.74212" lon="1.76712">
        <ele>149.5</ele>
        <time>2015-06-25T09:39:24.000Z</time>
      </trkpt>
      <trkpt lat="48.74211" lon="1.76727">
        <ele>149.2</ele>
        <time>2015-06-25T09:39:30.000Z</time>
      </trkpt>
      <trkpt lat="48.74208" lon="1.76752">
        <ele>148.5</ele>
        <time>2015-06-25T09:39:40.000Z</time>
      </trkpt>
      <trkpt lat="48.74207" lon="1.76754">
        <ele>148.5</ele>
        <time>2015-06-25T09:39:41.000Z</time>
      </trkpt>
      <trkpt lat="48.74206" lon="1.76766">
        <ele>148.6</ele>
        <time>2015-06-25T09:39:47.000Z</time>
      </trkpt>
      <trkpt lat="48.74202" lon="1.76776">
        <ele>148.7</ele>
        <time>2015-06-25T09:39:54.000Z</time>
      </trkpt>
      <trkpt lat="48.74201" lon="1.76777">
        <ele>148.8</ele>
        <time>2015-06-25T09:39:55.000Z</time>
      </trkpt>
      <trkpt lat="48.74197" lon="1.76783">
        <ele>148.7</ele>
        <time>2015-06-25T09:40:00.000Z</time>
      </trkpt>
      <trkpt lat="48.74194" lon="1.76791">
        <ele>148.5</ele>
        <time>2015-06-25T09:40:04.000Z</time>
      </trkpt>
      <trkpt lat="48.74188" lon="1.76805">
        <ele>148.5</ele>
        <time>2015-06-25T09:40:11.000Z</time>
      </trkpt>
      <trkpt lat="48.74182" lon="1.76817">
        <ele>148.7</ele>
        <time>2015-06-25T09:40:18.000Z</time>
      </trkpt>
      <trkpt lat="48.74178" lon="1.76833">
        <ele>148.6</ele>
        <time>2015-06-25T09:40:25.000Z</time>
      </trkpt>
      <trkpt lat="48.7417" lon="1.76849">
        <ele>148.4</ele>
        <time>2015-06-25T09:40:33.000Z</time>
      </trkpt>
      <trkpt lat="48.74164" lon="1.76863">
        <ele>148.1</ele>
        <time>2015-06-25T09:40:40.000Z</time>
      </trkpt>
      <trkpt lat="48.74159" lon="1.76878">
        <ele>148.1</ele>
        <time>2015-06-25T09:40:48.000Z</time>
      </trkpt>
      <trkpt lat="48.74153" lon="1.76888">
        <ele>148</ele>
        <time>2015-06-25T09:40:54.000Z</time>
      </trkpt>
      <trkpt lat="48.74146" lon="1.76902">
        <ele>148</ele>
        <time>2015-06-25T09:41:02.000Z</time>
      </trkpt>
      <trkpt lat="48.74139" lon="1.76922">
        <ele>148</ele>
        <time>2015-06-25T09:41:12.000Z</time>
      </trkpt>
      <trkpt lat="48.74134" lon="1.76937">
        <ele>148.1</ele>
        <time>2015-06-25T09:41:19.000Z</time>
      </trkpt>
      <trkpt lat="48.7413" lon="1.76946">
        <ele>148</ele>
        <time>2015-06-25T09:41:24.000Z</time>
      </trkpt>
      <trkpt lat="48.74125" lon="1.76956">
        <ele>148</ele>
        <time>2015-06-25T09:41:30.000Z</time>
      </trkpt>
      <trkpt lat="48.7412" lon="1.76964">
        <ele>148</ele>
        <time>2015-06-25T09:41:36.000Z</time>
      </trkpt>
      <trkpt lat="48.74115" lon="1.76969">
        <ele>148</ele>
        <time>2015-06-25T09:41:40.000Z</time>
      </trkpt>
      <trkpt lat="48.74112" lon="1.76974">
        <ele>148</ele>
        <time>2015-06-25T09:41:44.000Z</time>
      </trkpt>
      <trkpt lat="48.74107" lon="1.76984">
        <ele>148.3</ele>
        <time>2015-06-25T09:41:50.000Z</time>
      </trkpt>
      <trkpt lat="48.74101" lon="1.76991">
        <ele>148.7</ele>
        <time>2015-06-25T09:41:56.000Z</time>
      </trkpt>
      <trkpt lat="48.74094" lon="1.77002">
        <ele>149.2</ele>
        <time>2015-06-25T09:42:04.000Z</time>
      </trkpt>
      <trkpt lat="48.74087" lon="1.7701">
        <ele>149.7</ele>
        <time>2015-06-25T09:42:10.000Z</time>
      </trkpt>
      <trkpt lat="48.74081" lon="1.77023">
        <ele>150.1</ele>
        <time>2015-06-25T09:42:17.000Z</time>
      </trkpt>
      <trkpt lat="48.74076" lon="1.77034">
        <ele>150.5</ele>
        <time>2015-06-25T09:42:23.000Z</time>
      </trkpt>
      <trkpt lat="48.74074" lon="1.7704">
        <ele>150.5</ele>
        <time>2015-06-25T09:42:27.000Z</time>
      </trkpt>
      <trkpt lat="48.74068" lon="1.77058">
        <ele>150.6</ele>
        <time>2015-06-25T09:42:35.000Z</time>
      </trkpt>
      <trkpt lat="48.74059" lon="1.77077">
        <ele>150.9</ele>
        <time>2015-06-25T09:42:43.000Z</time>
      </trkpt>
      <trkpt lat="48.74053" lon="1.77089">
        <ele>150.9</ele>
        <time>2015-06-25T09:42:49.000Z</time>
      </trkpt>
      <trkpt lat="48.74047" lon="1.77097">
        <ele>150.8</ele>
        <time>2015-06-25T09:42:54.000Z</time>
      </trkpt>
      <trkpt lat="48.74038" lon="1.77108">
        <ele>150.7</ele>
        <time>2015-06-25T09:43:01.000Z</time>
      </trkpt>
      <trkpt lat="48.74028" lon="1.7712">
        <ele>150.7</ele>
        <time>2015-06-25T09:43:09.000Z</time>
      </trkpt>
      <trkpt lat="48.74021" lon="1.77129">
        <ele>150.8</ele>
        <time>2015-06-25T09:43:15.000Z</time>
      </trkpt>
      <trkpt lat="48.74015" lon="1.77142">
        <ele>150.9</ele>
        <time>2015-06-25T09:43:22.000Z</time>
      </trkpt>
      <trkpt lat="48.7401" lon="1.77149">
        <ele>151.2</ele>
        <time>2015-06-25T09:43:27.000Z</time>
      </trkpt>
      <trkpt lat="48.74007" lon="1.77157">
        <ele>151.2</ele>
        <time>2015-06-25T09:43:31.000Z</time>
      </trkpt>
      <trkpt lat="48.73998" lon="1.77171">
        <ele>151.2</ele>
        <time>2015-06-25T09:43:39.000Z</time>
      </trkpt>
      <trkpt lat="48.73989" lon="1.77183">
        <ele>151.7</ele>
        <time>2015-06-25T09:43:46.000Z</time>
      </trkpt>
      <trkpt lat="48.73981" lon="1.77194">
        <ele>151.3</ele>
        <time>2015-06-25T09:43:53.000Z</time>
      </trkpt>
      <trkpt lat="48.73972" lon="1.77199">
        <ele>151.2</ele>
        <time>2015-06-25T09:44:00.000Z</time>
      </trkpt>
      <trkpt lat="48.73962" lon="1.77206">
        <ele>152.5</ele>
        <time>2015-06-25T09:44:07.000Z</time>
      </trkpt>
      <trkpt lat="48.73955" lon="1.77208">
        <ele>153.1</ele>
        <time>2015-06-25T09:44:10.000Z</time>
      </trkpt>
      <trkpt lat="48.73947" lon="1.77217">
        <ele>153.2</ele>
        <time>2015-06-25T09:44:16.000Z</time>
      </trkpt>
      <trkpt lat="48.73939" lon="1.77222">
        <ele>153.4</ele>
        <time>2015-06-25T09:44:21.000Z</time>
      </trkpt>
      <trkpt lat="48.73934" lon="1.77225">
        <ele>153.7</ele>
        <time>2015-06-25T09:44:24.000Z</time>
      </trkpt>
      <trkpt lat="48.73932" lon="1.77226">
        <ele>153.9</ele>
        <time>2015-06-25T09:44:26.000Z</time>
      </trkpt>
      <trkpt lat="48.73922" lon="1.77235">
        <ele>154.2</ele>
        <time>2015-06-25T09:44:34.000Z</time>
      </trkpt>
      <trkpt lat="48.73916" lon="1.77237">
        <ele>154.5</ele>
        <time>2015-06-25T09:44:41.000Z</time>
      </trkpt>
      <trkpt lat="48.73916" lon="1.77236">
        <ele>154.6</ele>
        <time>2015-06-25T09:44:42.000Z</time>
      </trkpt>
      <trkpt lat="48.73915" lon="1.77235">
        <ele>154.7</ele>
        <time>2015-06-25T09:44:48.000Z</time>
      </trkpt>
      <trkpt lat="48.73906" lon="1.77239">
        <ele>155</ele>
        <time>2015-06-25T09:44:55.000Z</time>
      </trkpt>
      <trkpt lat="48.73897" lon="1.77242">
        <ele>155.2</ele>
        <time>2015-06-25T09:45:14.000Z</time>
      </trkpt>
      <trkpt lat="48.73873" lon="1.77279">
        <ele>155.7</ele>
        <time>2015-06-25T10:24:15.000Z</time>
      </trkpt>
      <trkpt lat="48.73877" lon="1.77286">
        <ele>155.2</ele>
        <time>2015-06-25T10:24:16.000Z</time>
      </trkpt>
      <trkpt lat="48.73886" lon="1.77266">
        <ele>154.7</ele>
        <time>2015-06-25T10:24:24.000Z</time>
      </trkpt>
      <trkpt lat="48.73889" lon="1.77257">
        <ele>154.7</ele>
        <time>2015-06-25T10:24:30.000Z</time>
      </trkpt>
      <trkpt lat="48.73894" lon="1.77254">
        <ele>154.7</ele>
        <time>2015-06-25T10:24:34.000Z</time>
      </trkpt>
      <trkpt lat="48.73901" lon="1.7725">
        <ele>154.6</ele>
        <time>2015-06-25T10:24:38.000Z</time>
      </trkpt>
      <trkpt lat="48.73904" lon="1.77241">
        <ele>154.9</ele>
        <time>2015-06-25T10:24:44.000Z</time>
      </trkpt>
      <trkpt lat="48.73908" lon="1.77236">
        <ele>155</ele>
        <time>2015-06-25T10:24:48.000Z</time>
      </trkpt>
      <trkpt lat="48.73911" lon="1.77231">
        <ele>155</ele>
        <time>2015-06-25T10:24:53.000Z</time>
      </trkpt>
      <trkpt lat="48.73911" lon="1.77231">
        <ele>155</ele>
        <time>2015-06-25T10:24:55.000Z</time>
      </trkpt>
      <trkpt lat="48.73917" lon="1.7723">
        <ele>154.7</ele>
        <time>2015-06-25T10:25:01.000Z</time>
      </trkpt>
      <trkpt lat="48.73924" lon="1.7723">
        <ele>154.3</ele>
        <time>2015-06-25T10:25:05.000Z</time>
      </trkpt>
      <trkpt lat="48.7393" lon="1.77224">
        <ele>154</ele>
        <time>2015-06-25T10:25:10.000Z</time>
      </trkpt>
      <trkpt lat="48.73932" lon="1.77224">
        <ele>153.9</ele>
        <time>2015-06-25T10:25:11.000Z</time>
      </trkpt>
      <trkpt lat="48.73936" lon="1.77221">
        <ele>153.8</ele>
        <time>2015-06-25T10:25:15.000Z</time>
      </trkpt>
      <trkpt lat="48.73941" lon="1.77218">
        <ele>153.6</ele>
        <time>2015-06-25T10:25:19.000Z</time>
      </trkpt>
      <trkpt lat="48.73946" lon="1.77208">
        <ele>153.9</ele>
        <time>2015-06-25T10:25:25.000Z</time>
      </trkpt>
      <trkpt lat="48.73949" lon="1.77205">
        <ele>153.8</ele>
        <time>2015-06-25T10:25:29.000Z</time>
      </trkpt>
      <trkpt lat="48.73952" lon="1.77203">
        <ele>153.5</ele>
        <time>2015-06-25T10:25:34.000Z</time>
      </trkpt>
      <trkpt lat="48.73962" lon="1.77201">
        <ele>152.4</ele>
        <time>2015-06-25T10:25:39.000Z</time>
      </trkpt>
      <trkpt lat="48.73966" lon="1.77197">
        <ele>151.9</ele>
        <time>2015-06-25T10:25:44.000Z</time>
      </trkpt>
      <trkpt lat="48.73979" lon="1.77187">
        <ele>151.6</ele>
        <time>2015-06-25T10:25:50.000Z</time>
      </trkpt>
      <trkpt lat="48.7398" lon="1.77185">
        <ele>151.7</ele>
        <time>2015-06-25T10:25:51.000Z</time>
      </trkpt>
      <trkpt lat="48.73983" lon="1.7718">
        <ele>151.8</ele>
        <time>2015-06-25T10:25:54.000Z</time>
      </trkpt>
      <trkpt lat="48.73987" lon="1.77172">
        <ele>151.9</ele>
        <time>2015-06-25T10:25:59.000Z</time>
      </trkpt>
      <trkpt lat="48.7399" lon="1.77169">
        <ele>151.7</ele>
        <time>2015-06-25T10:26:03.000Z</time>
      </trkpt>
      <trkpt lat="48.73993" lon="1.77157">
        <ele>152</ele>
        <time>2015-06-25T10:26:08.000Z</time>
      </trkpt>
      <trkpt lat="48.73999" lon="1.7715">
        <ele>151.7</ele>
        <time>2015-06-25T10:26:13.000Z</time>
      </trkpt>
      <trkpt lat="48.74004" lon="1.77141">
        <ele>151.6</ele>
        <time>2015-06-25T10:26:19.000Z</time>
      </trkpt>
      <trkpt lat="48.74006" lon="1.7714">
        <ele>151.6</ele>
        <time>2015-06-25T10:26:20.000Z</time>
      </trkpt>
      <trkpt lat="48.74011" lon="1.77133">
        <ele>151.5</ele>
        <time>2015-06-25T10:26:26.000Z</time>
      </trkpt>
      <trkpt lat="48.74014" lon="1.77129">
        <ele>151.4</ele>
        <time>2015-06-25T10:26:29.000Z</time>
      </trkpt>
      <trkpt lat="48.74021" lon="1.77121">
        <ele>151.1</ele>
        <time>2015-06-25T10:26:36.000Z</time>
      </trkpt>
      <trkpt lat="48.74026" lon="1.77113">
        <ele>151</ele>
        <time>2015-06-25T10:26:41.000Z</time>
      </trkpt>
      <trkpt lat="48.74034" lon="1.77103">
        <ele>151.1</ele>
        <time>2015-06-25T10:26:48.000Z</time>
      </trkpt>
      <trkpt lat="48.74037" lon="1.77095">
        <ele>151.2</ele>
        <time>2015-06-25T10:26:52.000Z</time>
      </trkpt>
      <trkpt lat="48.74045" lon="1.77086">
        <ele>151.3</ele>
        <time>2015-06-25T10:26:57.000Z</time>
      </trkpt>
      <trkpt lat="48.74047" lon="1.77082">
        <ele>151.3</ele>
        <time>2015-06-25T10:27:00.000Z</time>
      </trkpt>
      <trkpt lat="48.74056" lon="1.77073">
        <ele>151</ele>
        <time>2015-06-25T10:27:07.000Z</time>
      </trkpt>
      <trkpt lat="48.74058" lon="1.77071">
        <ele>150.9</ele>
        <time>2015-06-25T10:27:08.000Z</time>
      </trkpt>
      <trkpt lat="48.74064" lon="1.7706">
        <ele>150.7</ele>
        <time>2015-06-25T10:27:15.000Z</time>
      </trkpt>
      <trkpt lat="48.74071" lon="1.7705">
        <ele>150.5</ele>
        <time>2015-06-25T10:27:22.000Z</time>
      </trkpt>
      <trkpt lat="48.74074" lon="1.77045">
        <ele>150.5</ele>
        <time>2015-06-25T10:27:26.000Z</time>
      </trkpt>
      <trkpt lat="48.74077" lon="1.77038">
        <ele>150.4</ele>
        <time>2015-06-25T10:27:30.000Z</time>
      </trkpt>
      <trkpt lat="48.74084" lon="1.77026">
        <ele>150</ele>
        <time>2015-06-25T10:27:37.000Z</time>
      </trkpt>
      <trkpt lat="48.74086" lon="1.77014">
        <ele>149.8</ele>
        <time>2015-06-25T10:27:43.000Z</time>
      </trkpt>
      <trkpt lat="48.74086" lon="1.77012">
        <ele>149.8</ele>
        <time>2015-06-25T10:27:44.000Z</time>
      </trkpt>
      <trkpt lat="48.74087" lon="1.77003">
        <ele>149.7</ele>
        <time>2015-06-25T10:27:49.000Z</time>
      </trkpt>
      <trkpt lat="48.74087" lon="1.77002">
        <ele>149.7</ele>
        <time>2015-06-25T10:27:50.000Z</time>
      </trkpt>
      <trkpt lat="48.74095" lon="1.76995">
        <ele>149.2</ele>
        <time>2015-06-25T10:27:56.000Z</time>
      </trkpt>
      <trkpt lat="48.74099" lon="1.76987">
        <ele>148.9</ele>
        <time>2015-06-25T10:28:01.000Z</time>
      </trkpt>
      <trkpt lat="48.74099" lon="1.76985">
        <ele>148.8</ele>
        <time>2015-06-25T10:28:02.000Z</time>
      </trkpt>
      <trkpt lat="48.74106" lon="1.76973">
        <ele>148.3</ele>
        <time>2015-06-25T10:28:10.000Z</time>
      </trkpt>
      <trkpt lat="48.74107" lon="1.76972">
        <ele>148.3</ele>
        <time>2015-06-25T10:28:11.000Z</time>
      </trkpt>
      <trkpt lat="48.7411" lon="1.76964">
        <ele>148.1</ele>
        <time>2015-06-25T10:28:15.000Z</time>
      </trkpt>
      <trkpt lat="48.74116" lon="1.76957">
        <ele>148</ele>
        <time>2015-06-25T10:28:21.000Z</time>
      </trkpt>
      <trkpt lat="48.7412" lon="1.76952">
        <ele>148</ele>
        <time>2015-06-25T10:28:25.000Z</time>
      </trkpt>
      <trkpt lat="48.74122" lon="1.76949">
        <ele>148</ele>
        <time>2015-06-25T10:28:28.000Z</time>
      </trkpt>
      <trkpt lat="48.74126" lon="1.76941">
        <ele>148.1</ele>
        <time>2015-06-25T10:28:33.000Z</time>
      </trkpt>
      <trkpt lat="48.74132" lon="1.76926">
        <ele>148.2</ele>
        <time>2015-06-25T10:28:41.000Z</time>
      </trkpt>
      <trkpt lat="48.74138" lon="1.76917">
        <ele>148</ele>
        <time>2015-06-25T10:28:47.000Z</time>
      </trkpt>
      <trkpt lat="48.74143" lon="1.76903">
        <ele>148</ele>
        <time>2015-06-25T10:28:55.000Z</time>
      </trkpt>
      <trkpt lat="48.74151" lon="1.76889">
        <ele>148</ele>
        <time>2015-06-25T10:29:03.000Z</time>
      </trkpt>
      <trkpt lat="48.74151" lon="1.76887">
        <ele>148</ele>
        <time>2015-06-25T10:29:04.000Z</time>
      </trkpt>
      <trkpt lat="48.74153" lon="1.76881">
        <ele>148.1</ele>
        <time>2015-06-25T10:29:08.000Z</time>
      </trkpt>
      <trkpt lat="48.74157" lon="1.76879">
        <ele>148.1</ele>
        <time>2015-06-25T10:29:11.000Z</time>
      </trkpt>
      <trkpt lat="48.74161" lon="1.76868">
        <ele>148.2</ele>
        <time>2015-06-25T10:29:16.000Z</time>
      </trkpt>
      <trkpt lat="48.74162" lon="1.76864">
        <ele>148.1</ele>
        <time>2015-06-25T10:29:18.000Z</time>
      </trkpt>
      <trkpt lat="48.74163" lon="1.7686">
        <ele>148.2</ele>
        <time>2015-06-25T10:29:20.000Z</time>
      </trkpt>
      <trkpt lat="48.74167" lon="1.76848">
        <ele>148.5</ele>
        <time>2015-06-25T10:29:27.000Z</time>
      </trkpt>
      <trkpt lat="48.74171" lon="1.76842">
        <ele>148.6</ele>
        <time>2015-06-25T10:29:31.000Z</time>
      </trkpt>
      <trkpt lat="48.74174" lon="1.76833">
        <ele>148.7</ele>
        <time>2015-06-25T10:29:36.000Z</time>
      </trkpt>
      <trkpt lat="48.74178" lon="1.76825">
        <ele>148.8</ele>
        <time>2015-06-25T10:29:41.000Z</time>
      </trkpt>
      <trkpt lat="48.7418" lon="1.76816">
        <ele>148.8</ele>
        <time>2015-06-25T10:29:45.000Z</time>
      </trkpt>
      <trkpt lat="48.74182" lon="1.76804">
        <ele>149</ele>
        <time>2015-06-25T10:29:50.000Z</time>
      </trkpt>
      <trkpt lat="48.74184" lon="1.76798">
        <ele>148.9</ele>
        <time>2015-06-25T10:29:53.000Z</time>
      </trkpt>
      <trkpt lat="48.74188" lon="1.76785">
        <ele>149</ele>
        <time>2015-06-25T10:30:00.000Z</time>
      </trkpt>
      <trkpt lat="48.7419" lon="1.76781">
        <ele>149</ele>
        <time>2015-06-25T10:30:02.000Z</time>
      </trkpt>
      <trkpt lat="48.74194" lon="1.7677">
        <ele>149</ele>
        <time>2015-06-25T10:30:08.000Z</time>
      </trkpt>
      <trkpt lat="48.742" lon="1.76764">
        <ele>148.8</ele>
        <time>2015-06-25T10:30:13.000Z</time>
      </trkpt>
      <trkpt lat="48.74202" lon="1.76756">
        <ele>148.7</ele>
        <time>2015-06-25T10:30:17.000Z</time>
      </trkpt>
      <trkpt lat="48.74202" lon="1.76747">
        <ele>148.9</ele>
        <time>2015-06-25T10:30:22.000Z</time>
      </trkpt>
      <trkpt lat="48.74202" lon="1.76742">
        <ele>149</ele>
        <time>2015-06-25T10:30:25.000Z</time>
      </trkpt>
      <trkpt lat="48.74206" lon="1.76731">
        <ele>149.3</ele>
        <time>2015-06-25T10:30:33.000Z</time>
      </trkpt>
      <trkpt lat="48.74208" lon="1.7672">
        <ele>149.5</ele>
        <time>2015-06-25T10:30:39.000Z</time>
      </trkpt>
      <trkpt lat="48.74209" lon="1.76712">
        <ele>149.7</ele>
        <time>2015-06-25T10:30:43.000Z</time>
      </trkpt>
      <trkpt lat="48.7421" lon="1.76704">
        <ele>149.7</ele>
        <time>2015-06-25T10:30:48.000Z</time>
      </trkpt>
      <trkpt lat="48.74212" lon="1.76696">
        <ele>149.7</ele>
        <time>2015-06-25T10:30:52.000Z</time>
      </trkpt>
      <trkpt lat="48.74214" lon="1.76686">
        <ele>149.8</ele>
        <time>2015-06-25T10:30:58.000Z</time>
      </trkpt>
      <trkpt lat="48.74218" lon="1.76673">
        <ele>150</ele>
        <time>2015-06-25T10:31:04.000Z</time>
      </trkpt>
      <trkpt lat="48.74219" lon="1.76669">
        <ele>150.1</ele>
        <time>2015-06-25T10:31:06.000Z</time>
      </trkpt>
      <trkpt lat="48.7422" lon="1.76662">
        <ele>150.1</ele>
        <time>2015-06-25T10:31:10.000Z</time>
      </trkpt>
      <trkpt lat="48.74222" lon="1.76654">
        <ele>150</ele>
        <time>2015-06-25T10:31:16.000Z</time>
      </trkpt>
      <trkpt lat="48.74223" lon="1.76643">
        <ele>150</ele>
        <time>2015-06-25T10:31:22.000Z</time>
      </trkpt>
      <trkpt lat="48.74224" lon="1.76637">
        <ele>150</ele>
        <time>2015-06-25T10:31:25.000Z</time>
      </trkpt>
      <trkpt lat="48.74227" lon="1.76625">
        <ele>149.8</ele>
        <time>2015-06-25T10:31:30.000Z</time>
      </trkpt>
      <trkpt lat="48.74228" lon="1.76616">
        <ele>149.8</ele>
        <time>2015-06-25T10:31:34.000Z</time>
      </trkpt>
      <trkpt lat="48.7423" lon="1.76612">
        <ele>149.7</ele>
        <time>2015-06-25T10:31:36.000Z</time>
      </trkpt>
      <trkpt lat="48.74231" lon="1.76609">
        <ele>149.7</ele>
        <time>2015-06-25T10:31:38.000Z</time>
      </trkpt>
      <trkpt lat="48.74231" lon="1.76608">
        <ele>149.7</ele>
        <time>2015-06-25T10:31:43.000Z</time>
      </trkpt>
      <trkpt lat="48.74231" lon="1.76608">
        <ele>149.7</ele>
        <time>2015-06-25T10:31:44.000Z</time>
      </trkpt>
      <trkpt lat="48.74232" lon="1.76598">
        <ele>149.7</ele>
        <time>2015-06-25T10:31:54.000Z</time>
      </trkpt>
      <trkpt lat="48.74233" lon="1.76588">
        <ele>149.6</ele>
        <time>2015-06-25T10:31:58.000Z</time>
      </trkpt>
      <trkpt lat="48.74233" lon="1.76573">
        <ele>149.6</ele>
        <time>2015-06-25T10:32:04.000Z</time>
      </trkpt>
      <trkpt lat="48.74233" lon="1.76564">
        <ele>149.6</ele>
        <time>2015-06-25T10:32:08.000Z</time>
      </trkpt>
      <trkpt lat="48.74235" lon="1.76552">
        <ele>149.4</ele>
        <time>2015-06-25T10:32:13.000Z</time>
      </trkpt>
      <trkpt lat="48.74238" lon="1.76541">
        <ele>148.9</ele>
        <time>2015-06-25T10:32:18.000Z</time>
      </trkpt>
      <trkpt lat="48.74239" lon="1.76537">
        <ele>148.7</ele>
        <time>2015-06-25T10:32:23.000Z</time>
      </trkpt>
      <trkpt lat="48.74244" lon="1.76516">
        <ele>148.2</ele>
        <time>2015-06-25T10:35:06.000Z</time>
      </trkpt>
      <trkpt lat="48.74244" lon="1.76512">
        <ele>148.2</ele>
        <time>2015-06-25T10:35:07.000Z</time>
      </trkpt>
      <trkpt lat="48.74246" lon="1.76503">
        <ele>148.1</ele>
        <time>2015-06-25T10:35:11.000Z</time>
      </trkpt>
      <trkpt lat="48.74249" lon="1.76492">
        <ele>148.3</ele>
        <time>2015-06-25T10:35:16.000Z</time>
      </trkpt>
      <trkpt lat="48.74253" lon="1.76479">
        <ele>148.9</ele>
        <time>2015-06-25T10:35:22.000Z</time>
      </trkpt>
      <trkpt lat="48.74255" lon="1.76466">
        <ele>149.4</ele>
        <time>2015-06-25T10:35:29.000Z</time>
      </trkpt>
      <trkpt lat="48.74256" lon="1.76461">
        <ele>149.5</ele>
        <time>2015-06-25T10:35:32.000Z</time>
      </trkpt>
      <trkpt lat="48.74255" lon="1.76452">
        <ele>149.5</ele>
        <time>2015-06-25T10:35:37.000Z</time>
      </trkpt>
      <trkpt lat="48.74259" lon="1.76432">
        <ele>150</ele>
        <time>2015-06-25T10:35:47.000Z</time>
      </trkpt>
      <trkpt lat="48.74265" lon="1.76422">
        <ele>150.6</ele>
        <time>2015-06-25T10:35:55.000Z</time>
      </trkpt>
      <trkpt lat="48.74267" lon="1.76415">
        <ele>150.8</ele>
        <time>2015-06-25T10:36:00.000Z</time>
      </trkpt>
      <trkpt lat="48.74269" lon="1.76409">
        <ele>150.6</ele>
        <time>2015-06-25T10:36:04.000Z</time>
      </trkpt>
      <trkpt lat="48.7427" lon="1.76397">
        <ele>150</ele>
        <time>2015-06-25T10:36:10.000Z</time>
      </trkpt>
      <trkpt lat="48.74271" lon="1.76395">
        <ele>149.9</ele>
        <time>2015-06-25T10:36:11.000Z</time>
      </trkpt>
      <trkpt lat="48.74271" lon="1.76387">
        <ele>149.4</ele>
        <time>2015-06-25T10:36:19.000Z</time>
      </trkpt>
      <trkpt lat="48.74274" lon="1.76386">
        <ele>149.6</ele>
        <time>2015-06-25T10:36:24.000Z</time>
      </trkpt>
      <trkpt lat="48.74284" lon="1.76388">
        <ele>150.9</ele>
        <time>2015-06-25T10:36:31.000Z</time>
      </trkpt>
      <trkpt lat="48.74285" lon="1.76388">
        <ele>151.3</ele>
        <time>2015-06-25T10:36:33.000Z</time>
      </trkpt>
      <trkpt lat="48.7429" lon="1.76387">
        <ele>152.1</ele>
        <time>2015-06-25T10:36:37.000Z</time>
      </trkpt>
      <trkpt lat="48.74295" lon="1.76386">
        <ele>152.7</ele>
        <time>2015-06-25T10:36:41.000Z</time>
      </trkpt>
      <trkpt lat="48.74297" lon="1.76386">
        <ele>153</ele>
        <time>2015-06-25T10:36:43.000Z</time>
      </trkpt>
      <trkpt lat="48.74303" lon="1.76386">
        <ele>154.1</ele>
        <time>2015-06-25T10:36:47.000Z</time>
      </trkpt>
      <trkpt lat="48.74306" lon="1.76386">
        <ele>154.7</ele>
        <time>2015-06-25T10:36:49.000Z</time>
      </trkpt>
      <trkpt lat="48.74313" lon="1.76394">
        <ele>156.2</ele>
        <time>2015-06-25T10:36:55.000Z</time>
      </trkpt>
      <trkpt lat="48.74315" lon="1.76395">
        <ele>156.5</ele>
        <time>2015-06-25T10:36:57.000Z</time>
      </trkpt>
      <trkpt lat="48.7432" lon="1.76393">
        <ele>156.9</ele>
        <time>2015-06-25T10:37:01.000Z</time>
      </trkpt>
      <trkpt lat="48.74327" lon="1.76396">
        <ele>158.1</ele>
        <time>2015-06-25T10:37:06.000Z</time>
      </trkpt>
      <trkpt lat="48.74332" lon="1.76397">
        <ele>158.8</ele>
        <time>2015-06-25T10:37:10.000Z</time>
      </trkpt>
      <trkpt lat="48.74341" lon="1.76402">
        <ele>159.6</ele>
        <time>2015-06-25T10:37:17.000Z</time>
      </trkpt>
      <trkpt lat="48.74346" lon="1.76405">
        <ele>159.9</ele>
        <time>2015-06-25T10:37:22.000Z</time>
      </trkpt>
      <trkpt lat="48.74353" lon="1.76406">
        <ele>160.1</ele>
        <time>2015-06-25T10:37:28.000Z</time>
      </trkpt>
      <trkpt lat="48.74355" lon="1.76408">
        <ele>160.3</ele>
        <time>2015-06-25T10:37:30.000Z</time>
      </trkpt>
      <trkpt lat="48.7436" lon="1.76407">
        <ele>160.3</ele>
        <time>2015-06-25T10:37:36.000Z</time>
      </trkpt>
      <trkpt lat="48.74368" lon="1.76407">
        <ele>160.2</ele>
        <time>2015-06-25T10:37:42.000Z</time>
      </trkpt>
      <trkpt lat="48.74369" lon="1.76407">
        <ele>160.2</ele>
        <time>2015-06-25T10:37:43.000Z</time>
      </trkpt>
      <trkpt lat="48.74372" lon="1.76408">
        <ele>160.3</ele>
        <time>2015-06-25T10:37:45.000Z</time>
      </trkpt>
      <trkpt lat="48.74377" lon="1.76408">
        <ele>160.2</ele>
        <time>2015-06-25T10:37:48.000Z</time>
      </trkpt>
      <trkpt lat="48.74386" lon="1.76411">
        <ele>160.4</ele>
        <time>2015-06-25T10:37:55.000Z</time>
      </trkpt>
      <trkpt lat="48.74386" lon="1.76411">
        <ele>160.4</ele>
        <time>2015-06-25T10:37:56.000Z</time>
      </trkpt>
      <trkpt lat="48.74399" lon="1.76419">
        <ele>160.8</ele>
        <time>2015-06-25T10:38:24.000Z</time>
      </trkpt>
      <trkpt lat="48.74407" lon="1.76421">
        <ele>160.7</ele>
        <time>2015-06-25T10:38:30.000Z</time>
      </trkpt>
      <trkpt lat="48.74415" lon="1.76424">
        <ele>160.8</ele>
        <time>2015-06-25T10:38:35.000Z</time>
      </trkpt>
      <trkpt lat="48.74419" lon="1.76425">
        <ele>161.2</ele>
        <time>2015-06-25T10:38:39.000Z</time>
      </trkpt>
      <trkpt lat="48.74427" lon="1.76428">
        <ele>162.1</ele>
        <time>2015-06-25T10:38:45.000Z</time>
      </trkpt>
      <trkpt lat="48.74432" lon="1.7643">
        <ele>162.9</ele>
        <time>2015-06-25T10:38:51.000Z</time>
      </trkpt>
      <trkpt lat="48.74436" lon="1.76433">
        <ele>163.4</ele>
        <time>2015-06-25T10:38:54.000Z</time>
      </trkpt>
      <trkpt lat="48.74441" lon="1.76436">
        <ele>164</ele>
        <time>2015-06-25T10:38:59.000Z</time>
      </trkpt>
      <trkpt lat="48.74449" lon="1.76436">
        <ele>165.1</ele>
        <time>2015-06-25T10:39:06.000Z</time>
      </trkpt>
      <trkpt lat="48.74454" lon="1.76437">
        <ele>165.9</ele>
        <time>2015-06-25T10:39:12.000Z</time>
      </trkpt>
      <trkpt lat="48.74458" lon="1.76437">
        <ele>166.6</ele>
        <time>2015-06-25T10:39:17.000Z</time>
      </trkpt>
      <trkpt lat="48.74463" lon="1.76439">
        <ele>167.7</ele>
        <time>2015-06-25T10:39:23.000Z</time>
      </trkpt>
      <trkpt lat="48.74463" lon="1.76439">
        <ele>167.8</ele>
        <time>2015-06-25T10:39:25.000Z</time>
      </trkpt>
      <trkpt lat="48.7444" lon="1.76435">
        <ele>164</ele>
        <time>2015-06-25T10:42:07.000Z</time>
      </trkpt>
      <trkpt lat="48.74431" lon="1.76435">
        <ele>163.3</ele>
        <time>2015-06-25T10:42:14.000Z</time>
      </trkpt>
      <trkpt lat="48.74427" lon="1.76434">
        <ele>162.8</ele>
        <time>2015-06-25T10:42:20.000Z</time>
      </trkpt>
      <trkpt lat="48.74421" lon="1.76432">
        <ele>162</ele>
        <time>2015-06-25T10:42:26.000Z</time>
      </trkpt>
      <trkpt lat="48.74415" lon="1.7643">
        <ele>161.4</ele>
        <time>2015-06-25T10:42:32.000Z</time>
      </trkpt>
      <trkpt lat="48.74404" lon="1.76424">
        <ele>161</ele>
        <time>2015-06-25T10:42:38.000Z</time>
      </trkpt>
      <trkpt lat="48.74397" lon="1.76422">
        <ele>161</ele>
        <time>2015-06-25T10:42:44.000Z</time>
      </trkpt>
      <trkpt lat="48.74391" lon="1.76419">
        <ele>161</ele>
        <time>2015-06-25T10:42:49.000Z</time>
      </trkpt>
      <trkpt lat="48.74382" lon="1.76417">
        <ele>161</ele>
        <time>2015-06-25T10:42:55.000Z</time>
      </trkpt>
      <trkpt lat="48.7437" lon="1.76413">
        <ele>160.7</ele>
        <time>2015-06-25T10:43:04.000Z</time>
      </trkpt>
      <trkpt lat="48.74362" lon="1.7641">
        <ele>160.5</ele>
        <time>2015-06-25T10:43:10.000Z</time>
      </trkpt>
      <trkpt lat="48.74357" lon="1.76409">
        <ele>160.4</ele>
        <time>2015-06-25T10:43:14.000Z</time>
      </trkpt>
      <trkpt lat="48.74351" lon="1.76408">
        <ele>160.3</ele>
        <time>2015-06-25T10:43:19.000Z</time>
      </trkpt>
      <trkpt lat="48.74341" lon="1.76407">
        <ele>160.1</ele>
        <time>2015-06-25T10:43:28.000Z</time>
      </trkpt>
      <trkpt lat="48.74334" lon="1.76406">
        <ele>159.9</ele>
        <time>2015-06-25T10:43:34.000Z</time>
      </trkpt>
      <trkpt lat="48.74329" lon="1.76404">
        <ele>159</ele>
        <time>2015-06-25T10:43:37.000Z</time>
      </trkpt>
      <trkpt lat="48.74324" lon="1.76404">
        <ele>158.4</ele>
        <time>2015-06-25T10:43:42.000Z</time>
      </trkpt>
      <trkpt lat="48.74321" lon="1.76405">
        <ele>158.1</ele>
        <time>2015-06-25T10:43:46.000Z</time>
      </trkpt>
      <trkpt lat="48.74315" lon="1.76403">
        <ele>157.2</ele>
        <time>2015-06-25T10:43:51.000Z</time>
      </trkpt>
      <trkpt lat="48.7431" lon="1.76401">
        <ele>156.4</ele>
        <time>2015-06-25T10:43:57.000Z</time>
      </trkpt>
      <trkpt lat="48.74304" lon="1.764">
        <ele>155.5</ele>
        <time>2015-06-25T10:44:03.000Z</time>
      </trkpt>
      <trkpt lat="48.74299" lon="1.764">
        <ele>154.6</ele>
        <time>2015-06-25T10:44:07.000Z</time>
      </trkpt>
      <trkpt lat="48.74296" lon="1.76399">
        <ele>154</ele>
        <time>2015-06-25T10:44:11.000Z</time>
      </trkpt>
      <trkpt lat="48.74292" lon="1.76399">
        <ele>153.2</ele>
        <time>2015-06-25T10:44:16.000Z</time>
      </trkpt>
      <trkpt lat="48.74287" lon="1.76398">
        <ele>152.3</ele>
        <time>2015-06-25T10:44:19.000Z</time>
      </trkpt>
      <trkpt lat="48.74274" lon="1.7639">
        <ele>149.8</ele>
        <time>2015-06-25T10:44:24.000Z</time>
      </trkpt>
      <trkpt lat="48.74261" lon="1.76384">
        <ele>148.7</ele>
        <time>2015-06-25T10:44:31.000Z</time>
      </trkpt>
      <trkpt lat="48.7426" lon="1.76387">
        <ele>148.7</ele>
        <time>2015-06-25T10:44:35.000Z</time>
      </trkpt>
      <trkpt lat="48.74255" lon="1.76385">
        <ele>148.3</ele>
        <time>2015-06-25T10:44:40.000Z</time>
      </trkpt>
      <trkpt lat="48.74248" lon="1.7638">
        <ele>148.1</ele>
        <time>2015-06-25T10:44:44.000Z</time>
      </trkpt>
      <trkpt lat="48.74247" lon="1.76379">
        <ele>148.1</ele>
        <time>2015-06-25T10:44:46.000Z</time>
      </trkpt>
      <trkpt lat="48.74239" lon="1.76379">
        <ele>148.6</ele>
        <time>2015-06-25T10:44:51.000Z</time>
      </trkpt>
      <trkpt lat="48.74234" lon="1.76377">
        <ele>148.8</ele>
        <time>2015-06-25T10:44:56.000Z</time>
      </trkpt>
      <trkpt lat="48.74228" lon="1.76372">
        <ele>149.3</ele>
        <time>2015-06-25T10:45:07.000Z</time>
      </trkpt>
      <trkpt lat="48.74224" lon="1.76358">
        <ele>149.9</ele>
        <time>2015-06-25T10:45:25.000Z</time>
      </trkpt>
      <trkpt lat="48.74227" lon="1.76344">
        <ele>149.7</ele>
        <time>2015-06-25T10:45:30.000Z</time>
      </trkpt>
      <trkpt lat="48.74232" lon="1.76324">
        <ele>149.7</ele>
        <time>2015-06-25T10:45:38.000Z</time>
      </trkpt>
      <trkpt lat="48.74233" lon="1.76322">
        <ele>149.7</ele>
        <time>2015-06-25T10:45:39.000Z</time>
      </trkpt>
      <trkpt lat="48.74235" lon="1.76313">
        <ele>149.9</ele>
        <time>2015-06-25T10:45:43.000Z</time>
      </trkpt>
      <trkpt lat="48.74238" lon="1.76307">
        <ele>149.7</ele>
        <time>2015-06-25T10:45:46.000Z</time>
      </trkpt>
      <trkpt lat="48.74239" lon="1.76303">
        <ele>149.7</ele>
        <time>2015-06-25T10:45:48.000Z</time>
      </trkpt>
      <trkpt lat="48.74238" lon="1.763">
        <ele>149.9</ele>
        <time>2015-06-25T10:45:50.000Z</time>
      </trkpt>
      <trkpt lat="48.7424" lon="1.76288">
        <ele>150.1</ele>
        <time>2015-06-25T10:45:55.000Z</time>
      </trkpt>
      <trkpt lat="48.74244" lon="1.76278">
        <ele>149.8</ele>
        <time>2015-06-25T10:46:01.000Z</time>
      </trkpt>
      <trkpt lat="48.74248" lon="1.76269">
        <ele>149.6</ele>
        <time>2015-06-25T10:46:06.000Z</time>
      </trkpt>
      <trkpt lat="48.74253" lon="1.76264">
        <ele>149.3</ele>
        <time>2015-06-25T10:46:10.000Z</time>
      </trkpt>
      <trkpt lat="48.74262" lon="1.7625">
        <ele>149.2</ele>
        <time>2015-06-25T10:46:18.000Z</time>
      </trkpt>
      <trkpt lat="48.74269" lon="1.7623">
        <ele>148.8</ele>
        <time>2015-06-25T10:46:27.000Z</time>
      </trkpt>
      <trkpt lat="48.74275" lon="1.76218">
        <ele>148.4</ele>
        <time>2015-06-25T10:46:33.000Z</time>
      </trkpt>
      <trkpt lat="48.74284" lon="1.76209">
        <ele>148.1</ele>
        <time>2015-06-25T10:46:39.000Z</time>
      </trkpt>
      <trkpt lat="48.74291" lon="1.76199">
        <ele>147.9</ele>
        <time>2015-06-25T10:46:46.000Z</time>
      </trkpt>
      <trkpt lat="48.74298" lon="1.76192">
        <ele>147.6</ele>
        <time>2015-06-25T10:46:52.000Z</time>
      </trkpt>
      <trkpt lat="48.7431" lon="1.76187">
        <ele>146.8</ele>
        <time>2015-06-25T10:46:59.000Z</time>
      </trkpt>
      <trkpt lat="48.7432" lon="1.76181">
        <ele>146.5</ele>
        <time>2015-06-25T10:47:05.000Z</time>
      </trkpt>
      <trkpt lat="48.74326" lon="1.76177">
        <ele>146.3</ele>
        <time>2015-06-25T10:47:09.000Z</time>
      </trkpt>
      <trkpt lat="48.74333" lon="1.76173">
        <ele>146</ele>
        <time>2015-06-25T10:47:14.000Z</time>
      </trkpt>
      <trkpt lat="48.74341" lon="1.76168">
        <ele>146</ele>
        <time>2015-06-25T10:47:20.000Z</time>
      </trkpt>
      <trkpt lat="48.7435" lon="1.76165">
        <ele>146</ele>
        <time>2015-06-25T10:47:25.000Z</time>
      </trkpt>
      <trkpt lat="48.74358" lon="1.76158">
        <ele>146</ele>
        <time>2015-06-25T10:47:32.000Z</time>
      </trkpt>
      <trkpt lat="48.74363" lon="1.76156">
        <ele>146</ele>
        <time>2015-06-25T10:47:36.000Z</time>
      </trkpt>
      <trkpt lat="48.74374" lon="1.76154">
        <ele>146</ele>
        <time>2015-06-25T10:47:43.000Z</time>
      </trkpt>
      <trkpt lat="48.74382" lon="1.76151">
        <ele>146</ele>
        <time>2015-06-25T10:47:49.000Z</time>
      </trkpt>
      <trkpt lat="48.74397" lon="1.76146">
        <ele>146</ele>
        <time>2015-06-25T10:47:57.000Z</time>
      </trkpt>
      <trkpt lat="48.74406" lon="1.76144">
        <ele>146</ele>
        <time>2015-06-25T10:48:03.000Z</time>
      </trkpt>
      <trkpt lat="48.74415" lon="1.76144">
        <ele>146</ele>
        <time>2015-06-25T10:48:08.000Z</time>
      </trkpt>
      <trkpt lat="48.7443" lon="1.76138">
        <ele>145.5</ele>
        <time>2015-06-25T10:48:18.000Z</time>
      </trkpt>
      <trkpt lat="48.7444" lon="1.76134">
        <ele>145.3</ele>
        <time>2015-06-25T10:48:24.000Z</time>
      </trkpt>
      <trkpt lat="48.74442" lon="1.76134">
        <ele>145.3</ele>
        <time>2015-06-25T10:48:26.000Z</time>
      </trkpt>
      <trkpt lat="48.7445" lon="1.7613">
        <ele>145.1</ele>
        <time>2015-06-25T10:48:34.000Z</time>
      </trkpt>
      <trkpt lat="48.74458" lon="1.76124">
        <ele>145</ele>
        <time>2015-06-25T10:48:40.000Z</time>
      </trkpt>
      <trkpt lat="48.74467" lon="1.76117">
        <ele>145</ele>
        <time>2015-06-25T10:48:46.000Z</time>
      </trkpt>
      <trkpt lat="48.74478" lon="1.76112">
        <ele>144.8</ele>
        <time>2015-06-25T10:48:51.000Z</time>
      </trkpt>
      <trkpt lat="48.74492" lon="1.76104">
        <ele>144.3</ele>
        <time>2015-06-25T10:48:57.000Z</time>
      </trkpt>
      <trkpt lat="48.74498" lon="1.76102">
        <ele>144.1</ele>
        <time>2015-06-25T10:49:02.000Z</time>
      </trkpt>
      <trkpt lat="48.74503" lon="1.76102">
        <ele>144</ele>
        <time>2015-06-25T10:49:06.000Z</time>
      </trkpt>
      <trkpt lat="48.74511" lon="1.76098">
        <ele>144</ele>
        <time>2015-06-25T10:49:11.000Z</time>
      </trkpt>
      <trkpt lat="48.74517" lon="1.76102">
        <ele>144</ele>
        <time>2015-06-25T10:49:17.000Z</time>
      </trkpt>
      <trkpt lat="48.74519" lon="1.76105">
        <ele>144</ele>
        <time>2015-06-25T10:49:20.000Z</time>
      </trkpt>
      <trkpt lat="48.74529" lon="1.7611">
        <ele>144.1</ele>
        <time>2015-06-25T10:49:25.000Z</time>
      </trkpt>
      <trkpt lat="48.7453" lon="1.7611">
        <ele>144.2</ele>
        <time>2015-06-25T10:49:26.000Z</time>
      </trkpt>
      <trkpt lat="48.74535" lon="1.76107">
        <ele>144.5</ele>
        <time>2015-06-25T10:49:32.000Z</time>
      </trkpt>
      <trkpt lat="48.74538" lon="1.76103">
        <ele>144.6</ele>
        <time>2015-06-25T10:49:40.000Z</time>
      </trkpt>
      <trkpt lat="48.74546" lon="1.76103">
        <ele>144.9</ele>
        <time>2015-06-25T10:50:10.000Z</time>
      </trkpt>
      <trkpt lat="48.74551" lon="1.76108">
        <ele>145.5</ele>
        <time>2015-06-25T10:50:20.000Z</time>
      </trkpt>
      <trkpt lat="48.7455" lon="1.76109">
        <ele>145.5</ele>
        <time>2015-06-25T10:50:26.000Z</time>
      </trkpt>
      <trkpt lat="48.7454" lon="1.76101">
        <ele>144.5</ele>
        <time>2015-06-25T10:50:53.000Z</time>
      </trkpt>
      <trkpt lat="48.74548" lon="1.76095">
        <ele>144.6</ele>
        <time>2015-06-25T10:51:02.000Z</time>
      </trkpt>
      <trkpt lat="48.74557" lon="1.76096">
        <ele>145</ele>
        <time>2015-06-25T10:51:11.000Z</time>
      </trkpt>
      <trkpt lat="48.74561" lon="1.76094">
        <ele>145.1</ele>
        <time>2015-06-25T10:51:14.000Z</time>
      </trkpt>
      <trkpt lat="48.74569" lon="1.7609">
        <ele>145.2</ele>
        <time>2015-06-25T10:51:20.000Z</time>
      </trkpt>
      <trkpt lat="48.74578" lon="1.76087">
        <ele>145.2</ele>
        <time>2015-06-25T10:51:27.000Z</time>
      </trkpt>
      <trkpt lat="48.74588" lon="1.76084">
        <ele>145.4</ele>
        <time>2015-06-25T10:51:32.000Z</time>
      </trkpt>
      <trkpt lat="48.74593" lon="1.7608">
        <ele>145.5</ele>
        <time>2015-06-25T10:51:38.000Z</time>
      </trkpt>
      <trkpt lat="48.74598" lon="1.76077">
        <ele>145.6</ele>
        <time>2015-06-25T10:51:43.000Z</time>
      </trkpt>
      <trkpt lat="48.74609" lon="1.76076">
        <ele>146.1</ele>
        <time>2015-06-25T10:51:50.000Z</time>
      </trkpt>
      <trkpt lat="48.74619" lon="1.76075">
        <ele>146.1</ele>
        <time>2015-06-25T10:51:57.000Z</time>
      </trkpt>
      <trkpt lat="48.74628" lon="1.76072">
        <ele>145.8</ele>
        <time>2015-06-25T10:52:03.000Z</time>
      </trkpt>
      <trkpt lat="48.74636" lon="1.76071">
        <ele>145.6</ele>
        <time>2015-06-25T10:52:08.000Z</time>
      </trkpt>
      <trkpt lat="48.74644" lon="1.76071">
        <ele>145.6</ele>
        <time>2015-06-25T10:52:14.000Z</time>
      </trkpt>
      <trkpt lat="48.74653" lon="1.76067">
        <ele>145</ele>
        <time>2015-06-25T10:52:20.000Z</time>
      </trkpt>
      <trkpt lat="48.74665" lon="1.76062">
        <ele>144.5</ele>
        <time>2015-06-25T10:52:26.000Z</time>
      </trkpt>
      <trkpt lat="48.74676" lon="1.76063">
        <ele>144.9</ele>
        <time>2015-06-25T10:52:32.000Z</time>
      </trkpt>
      <trkpt lat="48.74687" lon="1.76053">
        <ele>144.6</ele>
        <time>2015-06-25T10:52:40.000Z</time>
      </trkpt>
      <trkpt lat="48.74695" lon="1.76048">
        <ele>144.8</ele>
        <time>2015-06-25T10:52:47.000Z</time>
      </trkpt>
      <trkpt lat="48.74699" lon="1.76041">
        <ele>144.6</ele>
        <time>2015-06-25T10:52:52.000Z</time>
      </trkpt>
      <trkpt lat="48.74706" lon="1.76034">
        <ele>144.4</ele>
        <time>2015-06-25T10:52:59.000Z</time>
      </trkpt>
      <trkpt lat="48.74712" lon="1.76028">
        <ele>144.1</ele>
        <time>2015-06-25T10:53:06.000Z</time>
      </trkpt>
      <trkpt lat="48.74719" lon="1.76023">
        <ele>143.8</ele>
        <time>2015-06-25T10:53:12.000Z</time>
      </trkpt>
      <trkpt lat="48.74727" lon="1.76017">
        <ele>144</ele>
        <time>2015-06-25T10:53:19.000Z</time>
      </trkpt>
      <trkpt lat="48.74735" lon="1.76009">
        <ele>144.4</ele>
        <time>2015-06-25T10:53:26.000Z</time>
      </trkpt>
      <trkpt lat="48.74743" lon="1.76">
        <ele>144.5</ele>
        <time>2015-06-25T10:53:33.000Z</time>
      </trkpt>
      <trkpt lat="48.74753" lon="1.75989">
        <ele>144.8</ele>
        <time>2015-06-25T10:53:41.000Z</time>
      </trkpt>
      <trkpt lat="48.74758" lon="1.7598">
        <ele>145</ele>
        <time>2015-06-25T10:53:46.000Z</time>
      </trkpt>
      <trkpt lat="48.74764" lon="1.75971">
        <ele>145.4</ele>
        <time>2015-06-25T10:53:52.000Z</time>
      </trkpt>
      <trkpt lat="48.7477" lon="1.75961">
        <ele>145.7</ele>
        <time>2015-06-25T10:53:58.000Z</time>
      </trkpt>
      <trkpt lat="48.74773" lon="1.75951">
        <ele>145</ele>
        <time>2015-06-25T10:54:04.000Z</time>
      </trkpt>
      <trkpt lat="48.74776" lon="1.75945">
        <ele>144.8</ele>
        <time>2015-06-25T10:54:07.000Z</time>
      </trkpt>
      <trkpt lat="48.74777" lon="1.75932">
        <ele>144.5</ele>
        <time>2015-06-25T10:54:13.000Z</time>
      </trkpt>
      <trkpt lat="48.7478" lon="1.75921">
        <ele>144.4</ele>
        <time>2015-06-25T10:54:19.000Z</time>
      </trkpt>
      <trkpt lat="48.7478" lon="1.75913">
        <ele>144.1</ele>
        <time>2015-06-25T10:54:23.000Z</time>
      </trkpt>
      <trkpt lat="48.7478" lon="1.75903">
        <ele>143.8</ele>
        <time>2015-06-25T10:54:27.000Z</time>
      </trkpt>
      <trkpt lat="48.74778" lon="1.75895">
        <ele>143.3</ele>
        <time>2015-06-25T10:54:30.000Z</time>
      </trkpt>
      <trkpt lat="48.74776" lon="1.75883">
        <ele>142.9</ele>
        <time>2015-06-25T10:54:36.000Z</time>
      </trkpt>
      <trkpt lat="48.74776" lon="1.75875">
        <ele>142.9</ele>
        <time>2015-06-25T10:54:40.000Z</time>
      </trkpt>
      <trkpt lat="48.74775" lon="1.75864">
        <ele>142.9</ele>
        <time>2015-06-25T10:54:45.000Z</time>
      </trkpt>
      <trkpt lat="48.74774" lon="1.75851">
        <ele>142.9</ele>
        <time>2015-06-25T10:54:50.000Z</time>
      </trkpt>
      <trkpt lat="48.74774" lon="1.75849">
        <ele>142.9</ele>
        <time>2015-06-25T10:54:51.000Z</time>
      </trkpt>
      <trkpt lat="48.74773" lon="1.75841">
        <ele>142.8</ele>
        <time>2015-06-25T10:54:56.000Z</time>
      </trkpt>
      <trkpt lat="48.74771" lon="1.75836">
        <ele>142.7</ele>
        <time>2015-06-25T10:54:58.000Z</time>
      </trkpt>
      <trkpt lat="48.74767" lon="1.75818">
        <ele>142.8</ele>
        <time>2015-06-25T10:55:05.000Z</time>
      </trkpt>
      <trkpt lat="48.74767" lon="1.75808">
        <ele>143</ele>
        <time>2015-06-25T10:55:09.000Z</time>
      </trkpt>
      <trkpt lat="48.74766" lon="1.75804">
        <ele>143</ele>
        <time>2015-06-25T10:55:11.000Z</time>
      </trkpt>
      <trkpt lat="48.74766" lon="1.7579">
        <ele>143.3</ele>
        <time>2015-06-25T10:55:17.000Z</time>
      </trkpt>
      <trkpt lat="48.74766" lon="1.75783">
        <ele>143.5</ele>
        <time>2015-06-25T10:55:21.000Z</time>
      </trkpt>
      <trkpt lat="48.74763" lon="1.75773">
        <ele>143.7</ele>
        <time>2015-06-25T10:55:26.000Z</time>
      </trkpt>
      <trkpt lat="48.74761" lon="1.75767">
        <ele>144</ele>
        <time>2015-06-25T10:55:30.000Z</time>
      </trkpt>
      <trkpt lat="48.74755" lon="1.75757">
        <ele>144.1</ele>
        <time>2015-06-25T10:55:34.000Z</time>
      </trkpt>
      <trkpt lat="48.74749" lon="1.75742">
        <ele>144</ele>
        <time>2015-06-25T10:55:41.000Z</time>
      </trkpt>
      <trkpt lat="48.7475" lon="1.75737">
        <ele>144</ele>
        <time>2015-06-25T10:55:43.000Z</time>
      </trkpt>
      <trkpt lat="48.74747" lon="1.75728">
        <ele>143.9</ele>
        <time>2015-06-25T10:55:47.000Z</time>
      </trkpt>
      <trkpt lat="48.74748" lon="1.75718">
        <ele>143.8</ele>
        <time>2015-06-25T10:55:52.000Z</time>
      </trkpt>
      <trkpt lat="48.74747" lon="1.75699">
        <ele>143.1</ele>
        <time>2015-06-25T10:55:59.000Z</time>
      </trkpt>
      <trkpt lat="48.74751" lon="1.75685">
        <ele>142.9</ele>
        <time>2015-06-25T10:56:06.000Z</time>
      </trkpt>
      <trkpt lat="48.74752" lon="1.75669">
        <ele>142.5</ele>
        <time>2015-06-25T10:56:14.000Z</time>
      </trkpt>
      <trkpt lat="48.74754" lon="1.75658">
        <ele>142.6</ele>
        <time>2015-06-25T10:56:19.000Z</time>
      </trkpt>
      <trkpt lat="48.74755" lon="1.75656">
        <ele>142.8</ele>
        <time>2015-06-25T10:56:20.000Z</time>
      </trkpt>
      <trkpt lat="48.7476" lon="1.75642">
        <ele>143.3</ele>
        <time>2015-06-25T10:56:27.000Z</time>
      </trkpt>
      <trkpt lat="48.74762" lon="1.75639">
        <ele>143.7</ele>
        <time>2015-06-25T10:56:29.000Z</time>
      </trkpt>
      <trkpt lat="48.74768" lon="1.75628">
        <ele>144.4</ele>
        <time>2015-06-25T10:56:36.000Z</time>
      </trkpt>
      <trkpt lat="48.74771" lon="1.75617">
        <ele>144.4</ele>
        <time>2015-06-25T10:56:41.000Z</time>
      </trkpt>
      <trkpt lat="48.74776" lon="1.75604">
        <ele>144.2</ele>
        <time>2015-06-25T10:56:48.000Z</time>
      </trkpt>
      <trkpt lat="48.74784" lon="1.75588">
        <ele>145</ele>
        <time>2015-06-25T10:56:56.000Z</time>
      </trkpt>
      <trkpt lat="48.74789" lon="1.7558">
        <ele>145.3</ele>
        <time>2015-06-25T10:57:02.000Z</time>
      </trkpt>
      <trkpt lat="48.7479" lon="1.75577">
        <ele>145.3</ele>
        <time>2015-06-25T10:57:04.000Z</time>
      </trkpt>
      <trkpt lat="48.74796" lon="1.75564">
        <ele>145.2</ele>
        <time>2015-06-25T10:57:11.000Z</time>
      </trkpt>
      <trkpt lat="48.748" lon="1.75554">
        <ele>144.8</ele>
        <time>2015-06-25T10:57:16.000Z</time>
      </trkpt>
      <trkpt lat="48.74802" lon="1.75549">
        <ele>144.8</ele>
        <time>2015-06-25T10:57:19.000Z</time>
      </trkpt>
      <trkpt lat="48.74806" lon="1.75542">
        <ele>144.5</ele>
        <time>2015-06-25T10:57:23.000Z</time>
      </trkpt>
      <trkpt lat="48.74809" lon="1.75535">
        <ele>144.3</ele>
        <time>2015-06-25T10:57:27.000Z</time>
      </trkpt>
      <trkpt lat="48.74813" lon="1.75527">
        <ele>144</ele>
        <time>2015-06-25T10:57:32.000Z</time>
      </trkpt>
      <trkpt lat="48.74819" lon="1.75517">
        <ele>144</ele>
        <time>2015-06-25T10:57:37.000Z</time>
      </trkpt>
      <trkpt lat="48.74821" lon="1.75516">
        <ele>144.1</ele>
        <time>2015-06-25T10:57:38.000Z</time>
      </trkpt>
      <trkpt lat="48.74826" lon="1.75499">
        <ele>143.1</ele>
        <time>2015-06-25T10:57:45.000Z</time>
      </trkpt>
      <trkpt lat="48.74827" lon="1.75485">
        <ele>142.8</ele>
        <time>2015-06-25T10:57:51.000Z</time>
      </trkpt>
      <trkpt lat="48.74827" lon="1.75481">
        <ele>142.7</ele>
        <time>2015-06-25T10:57:53.000Z</time>
      </trkpt>
      <trkpt lat="48.74827" lon="1.75469">
        <ele>142.3</ele>
        <time>2015-06-25T10:57:59.000Z</time>
      </trkpt>
      <trkpt lat="48.74823" lon="1.75457">
        <ele>141.9</ele>
        <time>2015-06-25T10:58:04.000Z</time>
      </trkpt>
      <trkpt lat="48.74824" lon="1.75442">
        <ele>142.1</ele>
        <time>2015-06-25T10:58:12.000Z</time>
      </trkpt>
      <trkpt lat="48.74826" lon="1.75432">
        <ele>142.5</ele>
        <time>2015-06-25T10:58:17.000Z</time>
      </trkpt>
      <trkpt lat="48.7483" lon="1.75414">
        <ele>143.4</ele>
        <time>2015-06-25T10:58:25.000Z</time>
      </trkpt>
      <trkpt lat="48.74829" lon="1.75403">
        <ele>143.4</ele>
        <time>2015-06-25T10:58:30.000Z</time>
      </trkpt>
      <trkpt lat="48.74828" lon="1.7539">
        <ele>143.3</ele>
        <time>2015-06-25T10:58:37.000Z</time>
      </trkpt>
      <trkpt lat="48.74829" lon="1.75382">
        <ele>143.1</ele>
        <time>2015-06-25T10:58:41.000Z</time>
      </trkpt>
      <trkpt lat="48.74826" lon="1.75367">
        <ele>142.4</ele>
        <time>2015-06-25T10:58:48.000Z</time>
      </trkpt>
      <trkpt lat="48.74822" lon="1.75351">
        <ele>141.5</ele>
        <time>2015-06-25T10:58:55.000Z</time>
      </trkpt>
      <trkpt lat="48.74817" lon="1.75339">
        <ele>140.9</ele>
        <time>2015-06-25T10:59:01.000Z</time>
      </trkpt>
      <trkpt lat="48.74814" lon="1.75332">
        <ele>140.6</ele>
        <time>2015-06-25T10:59:05.000Z</time>
      </trkpt>
      <trkpt lat="48.7481" lon="1.75318">
        <ele>140.3</ele>
        <time>2015-06-25T10:59:11.000Z</time>
      </trkpt>
      <trkpt lat="48.74809" lon="1.75316">
        <ele>140.3</ele>
        <time>2015-06-25T10:59:14.000Z</time>
      </trkpt>
      <trkpt lat="48.74804" lon="1.75302">
        <ele>140.1</ele>
        <time>2015-06-25T10:59:20.000Z</time>
      </trkpt>
      <trkpt lat="48.74805" lon="1.7529">
        <ele>140.5</ele>
        <time>2015-06-25T10:59:25.000Z</time>
      </trkpt>
      <trkpt lat="48.74802" lon="1.75279">
        <ele>140.8</ele>
        <time>2015-06-25T10:59:29.000Z</time>
      </trkpt>
      <trkpt lat="48.748" lon="1.75269">
        <ele>141</ele>
        <time>2015-06-25T10:59:33.000Z</time>
      </trkpt>
      <trkpt lat="48.74794" lon="1.75256">
        <ele>141.1</ele>
        <time>2015-06-25T10:59:40.000Z</time>
      </trkpt>
      <trkpt lat="48.74792" lon="1.75249">
        <ele>141.1</ele>
        <time>2015-06-25T10:59:45.000Z</time>
      </trkpt>
      <trkpt lat="48.74788" lon="1.75241">
        <ele>141.4</ele>
        <time>2015-06-25T10:59:50.000Z</time>
      </trkpt>
      <trkpt lat="48.74785" lon="1.75231">
        <ele>141.9</ele>
        <time>2015-06-25T10:59:54.000Z</time>
      </trkpt>
      <trkpt lat="48.74781" lon="1.75224">
        <ele>142.1</ele>
        <time>2015-06-25T10:59:59.000Z</time>
      </trkpt>
      <trkpt lat="48.74778" lon="1.75213">
        <ele>142.6</ele>
        <time>2015-06-25T11:00:05.000Z</time>
      </trkpt>
      <trkpt lat="48.74772" lon="1.75199">
        <ele>142.8</ele>
        <time>2015-06-25T11:00:12.000Z</time>
      </trkpt>
      <trkpt lat="48.74765" lon="1.75183">
        <ele>143</ele>
        <time>2015-06-25T11:00:20.000Z</time>
      </trkpt>
      <trkpt lat="48.74764" lon="1.75181">
        <ele>143</ele>
        <time>2015-06-25T11:00:22.000Z</time>
      </trkpt>
      <trkpt lat="48.7476" lon="1.75168">
        <ele>143.4</ele>
        <time>2015-06-25T11:00:29.000Z</time>
      </trkpt>
      <trkpt lat="48.74757" lon="1.75162">
        <ele>143.1</ele>
        <time>2015-06-25T11:00:32.000Z</time>
      </trkpt>
      <trkpt lat="48.74754" lon="1.75149">
        <ele>142.7</ele>
        <time>2015-06-25T11:00:39.000Z</time>
      </trkpt>
      <trkpt lat="48.74754" lon="1.75145">
        <ele>142.7</ele>
        <time>2015-06-25T11:00:42.000Z</time>
      </trkpt>
      <trkpt lat="48.7475" lon="1.75129">
        <ele>141.6</ele>
        <time>2015-06-25T11:00:49.000Z</time>
      </trkpt>
      <trkpt lat="48.74747" lon="1.75126">
        <ele>141.2</ele>
        <time>2015-06-25T11:00:51.000Z</time>
      </trkpt>
      <trkpt lat="48.74746" lon="1.75116">
        <ele>140.7</ele>
        <time>2015-06-25T11:00:56.000Z</time>
      </trkpt>
      <trkpt lat="48.74745" lon="1.75103">
        <ele>139.9</ele>
        <time>2015-06-25T11:01:02.000Z</time>
      </trkpt>
      <trkpt lat="48.74746" lon="1.75091">
        <ele>139.3</ele>
        <time>2015-06-25T11:01:07.000Z</time>
      </trkpt>
      <trkpt lat="48.74753" lon="1.75078">
        <ele>139.7</ele>
        <time>2015-06-25T11:01:14.000Z</time>
      </trkpt>
      <trkpt lat="48.74756" lon="1.75068">
        <ele>139.9</ele>
        <time>2015-06-25T11:01:18.000Z</time>
      </trkpt>
      <trkpt lat="48.7476" lon="1.75052">
        <ele>140.3</ele>
        <time>2015-06-25T11:01:24.000Z</time>
      </trkpt>
      <trkpt lat="48.74764" lon="1.75042">
        <ele>140.8</ele>
        <time>2015-06-25T11:01:29.000Z</time>
      </trkpt>
      <trkpt lat="48.74768" lon="1.75032">
        <ele>140.8</ele>
        <time>2015-06-25T11:01:34.000Z</time>
      </trkpt>
      <trkpt lat="48.74772" lon="1.75025">
        <ele>140.9</ele>
        <time>2015-06-25T11:01:38.000Z</time>
      </trkpt>
      <trkpt lat="48.74775" lon="1.75012">
        <ele>140.1</ele>
        <time>2015-06-25T11:01:45.000Z</time>
      </trkpt>
      <trkpt lat="48.74779" lon="1.75">
        <ele>139.6</ele>
        <time>2015-06-25T11:01:51.000Z</time>
      </trkpt>
      <trkpt lat="48.74783" lon="1.74994">
        <ele>140.1</ele>
        <time>2015-06-25T11:01:55.000Z</time>
      </trkpt>
      <trkpt lat="48.74788" lon="1.74981">
        <ele>140.5</ele>
        <time>2015-06-25T11:02:02.000Z</time>
      </trkpt>
      <trkpt lat="48.74789" lon="1.7498">
        <ele>140.7</ele>
        <time>2015-06-25T11:02:03.000Z</time>
      </trkpt>
      <trkpt lat="48.74797" lon="1.74968">
        <ele>141.4</ele>
        <time>2015-06-25T11:02:10.000Z</time>
      </trkpt>
      <trkpt lat="48.74801" lon="1.74961">
        <ele>141.2</ele>
        <time>2015-06-25T11:02:15.000Z</time>
      </trkpt>
      <trkpt lat="48.74802" lon="1.74956">
        <ele>140.6</ele>
        <time>2015-06-25T11:02:18.000Z</time>
      </trkpt>
      <trkpt lat="48.74802" lon="1.74955">
        <ele>140.5</ele>
        <time>2015-06-25T11:02:19.000Z</time>
      </trkpt>
      <trkpt lat="48.74806" lon="1.74942">
        <ele>139.1</ele>
        <time>2015-06-25T11:02:26.000Z</time>
      </trkpt>
      <trkpt lat="48.7481" lon="1.74934">
        <ele>140</ele>
        <time>2015-06-25T11:02:31.000Z</time>
      </trkpt>
      <trkpt lat="48.74815" lon="1.74921">
        <ele>140.2</ele>
        <time>2015-06-25T11:02:38.000Z</time>
      </trkpt>
      <trkpt lat="48.74818" lon="1.74917">
        <ele>140.3</ele>
        <time>2015-06-25T11:02:41.000Z</time>
      </trkpt>
      <trkpt lat="48.74823" lon="1.74905">
        <ele>140</ele>
        <time>2015-06-25T11:02:48.000Z</time>
      </trkpt>
      <trkpt lat="48.74829" lon="1.74898">
        <ele>139.8</ele>
        <time>2015-06-25T11:02:54.000Z</time>
      </trkpt>
      <trkpt lat="48.74829" lon="1.74896">
        <ele>139.6</ele>
        <time>2015-06-25T11:03:00.000Z</time>
      </trkpt>
      <trkpt lat="48.7483" lon="1.74896">
        <ele>139.7</ele>
        <time>2015-06-25T11:03:02.000Z</time>
      </trkpt>
      <trkpt lat="48.74824" lon="1.74889">
        <ele>138.3</ele>
        <time>2015-06-25T11:03:08.000Z</time>
      </trkpt>
      <trkpt lat="48.7483" lon="1.74882">
        <ele>138.7</ele>
        <time>2015-06-25T11:03:12.000Z</time>
      </trkpt>
      <trkpt lat="48.74831" lon="1.74881">
        <ele>138.8</ele>
        <time>2015-06-25T11:03:13.000Z</time>
      </trkpt>
      <trkpt lat="48.74835" lon="1.74877">
        <ele>139.3</ele>
        <time>2015-06-25T11:03:18.000Z</time>
      </trkpt>
      <trkpt lat="48.74844" lon="1.74866">
        <ele>141</ele>
        <time>2015-06-25T11:03:25.000Z</time>
      </trkpt>
      <trkpt lat="48.74848" lon="1.74861">
        <ele>141.6</ele>
        <time>2015-06-25T11:03:29.000Z</time>
      </trkpt>
      <trkpt lat="48.74848" lon="1.74842">
        <ele>140.9</ele>
        <time>2015-06-25T11:03:37.000Z</time>
      </trkpt>
      <trkpt lat="48.74848" lon="1.74837">
        <ele>140.7</ele>
        <time>2015-06-25T11:03:39.000Z</time>
      </trkpt>
      <trkpt lat="48.74852" lon="1.74823">
        <ele>140.8</ele>
        <time>2015-06-25T11:03:46.000Z</time>
      </trkpt>
      <trkpt lat="48.74859" lon="1.74819">
        <ele>141.3</ele>
        <time>2015-06-25T11:03:50.000Z</time>
      </trkpt>
      <trkpt lat="48.74864" lon="1.74806">
        <ele>141.9</ele>
        <time>2015-06-25T11:03:57.000Z</time>
      </trkpt>
      <trkpt lat="48.74869" lon="1.74795">
        <ele>142.3</ele>
        <time>2015-06-25T11:04:02.000Z</time>
      </trkpt>
      <trkpt lat="48.74868" lon="1.74794">
        <ele>141.9</ele>
        <time>2015-06-25T11:04:03.000Z</time>
      </trkpt>
      <trkpt lat="48.74864" lon="1.7478">
        <ele>140.5</ele>
        <time>2015-06-25T11:04:08.000Z</time>
      </trkpt>
      <trkpt lat="48.74863" lon="1.74778">
        <ele>140.3</ele>
        <time>2015-06-25T11:04:09.000Z</time>
      </trkpt>
      <trkpt lat="48.74868" lon="1.74767">
        <ele>140.4</ele>
        <time>2015-06-25T11:04:14.000Z</time>
      </trkpt>
      <trkpt lat="48.74874" lon="1.74753">
        <ele>140.2</ele>
        <time>2015-06-25T11:04:21.000Z</time>
      </trkpt>
      <trkpt lat="48.74876" lon="1.74748">
        <ele>139.9</ele>
        <time>2015-06-25T11:04:24.000Z</time>
      </trkpt>
      <trkpt lat="48.74881" lon="1.74741">
        <ele>139.9</ele>
        <time>2015-06-25T11:04:28.000Z</time>
      </trkpt>
      <trkpt lat="48.74884" lon="1.74728">
        <ele>139.2</ele>
        <time>2015-06-25T11:04:34.000Z</time>
      </trkpt>
      <trkpt lat="48.74887" lon="1.74721">
        <ele>138.9</ele>
        <time>2015-06-25T11:04:37.000Z</time>
      </trkpt>
      <trkpt lat="48.74891" lon="1.74711">
        <ele>139.6</ele>
        <time>2015-06-25T11:04:43.000Z</time>
      </trkpt>
      <trkpt lat="48.74893" lon="1.74699">
        <ele>139.8</ele>
        <time>2015-06-25T11:04:50.000Z</time>
      </trkpt>
      <trkpt lat="48.74893" lon="1.74694">
        <ele>139.7</ele>
        <time>2015-06-25T11:04:54.000Z</time>
      </trkpt>
      <trkpt lat="48.74898" lon="1.74689">
        <ele>140.4</ele>
        <time>2015-06-25T11:04:58.000Z</time>
      </trkpt>
      <trkpt lat="48.74902" lon="1.74681">
        <ele>140.9</ele>
        <time>2015-06-25T11:05:03.000Z</time>
      </trkpt>
      <trkpt lat="48.74906" lon="1.74674">
        <ele>141.2</ele>
        <time>2015-06-25T11:05:07.000Z</time>
      </trkpt>
      <trkpt lat="48.74907" lon="1.74665">
        <ele>140.8</ele>
        <time>2015-06-25T11:05:12.000Z</time>
      </trkpt>
      <trkpt lat="48.7491" lon="1.74658">
        <ele>140.6</ele>
        <time>2015-06-25T11:05:16.000Z</time>
      </trkpt>
      <trkpt lat="48.74918" lon="1.74648">
        <ele>140.9</ele>
        <time>2015-06-25T11:05:21.000Z</time>
      </trkpt>
      <trkpt lat="48.74921" lon="1.74634">
        <ele>140.5</ele>
        <time>2015-06-25T11:05:27.000Z</time>
      </trkpt>
      <trkpt lat="48.74924" lon="1.74628">
        <ele>140.5</ele>
        <time>2015-06-25T11:05:30.000Z</time>
      </trkpt>
      <trkpt lat="48.7493" lon="1.74619">
        <ele>140.9</ele>
        <time>2015-06-25T11:05:36.000Z</time>
      </trkpt>
      <trkpt lat="48.74932" lon="1.74609">
        <ele>140.5</ele>
        <time>2015-06-25T11:05:41.000Z</time>
      </trkpt>
      <trkpt lat="48.74934" lon="1.74605">
        <ele>140.5</ele>
        <time>2015-06-25T11:05:45.000Z</time>
      </trkpt>
      <trkpt lat="48.74937" lon="1.74602">
        <ele>140.5</ele>
        <time>2015-06-25T11:05:49.000Z</time>
      </trkpt>
      <trkpt lat="48.74939" lon="1.74593">
        <ele>139.8</ele>
        <time>2015-06-25T11:05:54.000Z</time>
      </trkpt>
      <trkpt lat="48.74947" lon="1.74585">
        <ele>139.4</ele>
        <time>2015-06-25T11:05:59.000Z</time>
      </trkpt>
      <trkpt lat="48.74949" lon="1.7458">
        <ele>139.4</ele>
        <time>2015-06-25T11:06:03.000Z</time>
      </trkpt>
      <trkpt lat="48.7495" lon="1.74579">
        <ele>139.4</ele>
        <time>2015-06-25T11:06:04.000Z</time>
      </trkpt>
      <trkpt lat="48.74954" lon="1.74564">
        <ele>139.4</ele>
        <time>2015-06-25T11:06:12.000Z</time>
      </trkpt>
      <trkpt lat="48.74957" lon="1.74554">
        <ele>139.7</ele>
        <time>2015-06-25T11:06:18.000Z</time>
      </trkpt>
      <trkpt lat="48.74965" lon="1.74539">
        <ele>140.8</ele>
        <time>2015-06-25T11:06:26.000Z</time>
      </trkpt>
      <trkpt lat="48.74969" lon="1.74531">
        <ele>141.3</ele>
        <time>2015-06-25T11:06:31.000Z</time>
      </trkpt>
      <trkpt lat="48.74967" lon="1.7452">
        <ele>140.4</ele>
        <time>2015-06-25T11:06:36.000Z</time>
      </trkpt>
      <trkpt lat="48.74971" lon="1.74508">
        <ele>140.4</ele>
        <time>2015-06-25T11:06:42.000Z</time>
      </trkpt>
      <trkpt lat="48.74977" lon="1.74495">
        <ele>141.6</ele>
        <time>2015-06-25T11:06:48.000Z</time>
      </trkpt>
      <trkpt lat="48.74983" lon="1.74483">
        <ele>142.8</ele>
        <time>2015-06-25T11:06:54.000Z</time>
      </trkpt>
      <trkpt lat="48.74986" lon="1.7447">
        <ele>142.6</ele>
        <time>2015-06-25T11:07:01.000Z</time>
      </trkpt>
      <trkpt lat="48.74987" lon="1.74465">
        <ele>142.5</ele>
        <time>2015-06-25T11:07:03.000Z</time>
      </trkpt>
      <trkpt lat="48.74989" lon="1.74452">
        <ele>142.1</ele>
        <time>2015-06-25T11:07:10.000Z</time>
      </trkpt>
      <trkpt lat="48.74995" lon="1.7444">
        <ele>142.6</ele>
        <time>2015-06-25T11:07:16.000Z</time>
      </trkpt>
      <trkpt lat="48.74997" lon="1.74433">
        <ele>141.9</ele>
        <time>2015-06-25T11:07:19.000Z</time>
      </trkpt>
      <trkpt lat="48.74998" lon="1.7442">
        <ele>140.2</ele>
        <time>2015-06-25T11:07:25.000Z</time>
      </trkpt>
      <trkpt lat="48.75002" lon="1.74406">
        <ele>139.5</ele>
        <time>2015-06-25T11:07:32.000Z</time>
      </trkpt>
      <trkpt lat="48.75003" lon="1.74402">
        <ele>139.2</ele>
        <time>2015-06-25T11:07:34.000Z</time>
      </trkpt>
      <trkpt lat="48.75005" lon="1.7439">
        <ele>138.8</ele>
        <time>2015-06-25T11:07:40.000Z</time>
      </trkpt>
      <trkpt lat="48.75009" lon="1.74382">
        <ele>139.5</ele>
        <time>2015-06-25T11:07:44.000Z</time>
      </trkpt>
      <trkpt lat="48.75011" lon="1.74373">
        <ele>139.5</ele>
        <time>2015-06-25T11:07:48.000Z</time>
      </trkpt>
      <trkpt lat="48.75016" lon="1.74358">
        <ele>140</ele>
        <time>2015-06-25T11:07:56.000Z</time>
      </trkpt>
      <trkpt lat="48.75018" lon="1.74349">
        <ele>140.1</ele>
        <time>2015-06-25T11:08:00.000Z</time>
      </trkpt>
      <trkpt lat="48.75019" lon="1.74336">
        <ele>139.4</ele>
        <time>2015-06-25T11:08:06.000Z</time>
      </trkpt>
      <trkpt lat="48.75022" lon="1.74326">
        <ele>139.1</ele>
        <time>2015-06-25T11:08:10.000Z</time>
      </trkpt>
      <trkpt lat="48.75024" lon="1.74319">
        <ele>138.9</ele>
        <time>2015-06-25T11:08:14.000Z</time>
      </trkpt>
      <trkpt lat="48.75028" lon="1.74308">
        <ele>138.4</ele>
        <time>2015-06-25T11:08:20.000Z</time>
      </trkpt>
      <trkpt lat="48.75029" lon="1.74306">
        <ele>138.4</ele>
        <time>2015-06-25T11:08:21.000Z</time>
      </trkpt>
      <trkpt lat="48.7503" lon="1.743">
        <ele>138.3</ele>
        <time>2015-06-25T11:08:24.000Z</time>
      </trkpt>
      <trkpt lat="48.75032" lon="1.74288">
        <ele>137.7</ele>
        <time>2015-06-25T11:08:30.000Z</time>
      </trkpt>
      <trkpt lat="48.75037" lon="1.74273">
        <ele>137.7</ele>
        <time>2015-06-25T11:08:36.000Z</time>
      </trkpt>
      <trkpt lat="48.75039" lon="1.74266">
        <ele>137.7</ele>
        <time>2015-06-25T11:08:40.000Z</time>
      </trkpt>
      <trkpt lat="48.75041" lon="1.74256">
        <ele>137.3</ele>
        <time>2015-06-25T11:08:45.000Z</time>
      </trkpt>
      <trkpt lat="48.75044" lon="1.74242">
        <ele>136.9</ele>
        <time>2015-06-25T11:08:50.000Z</time>
      </trkpt>
      <trkpt lat="48.75045" lon="1.74237">
        <ele>136.7</ele>
        <time>2015-06-25T11:08:53.000Z</time>
      </trkpt>
      <trkpt lat="48.75048" lon="1.74229">
        <ele>136.6</ele>
        <time>2015-06-25T11:08:59.000Z</time>
      </trkpt>
      <trkpt lat="48.75053" lon="1.7422">
        <ele>136.5</ele>
        <time>2015-06-25T11:09:05.000Z</time>
      </trkpt>
      <trkpt lat="48.75055" lon="1.74214">
        <ele>136.1</ele>
        <time>2015-06-25T11:09:08.000Z</time>
      </trkpt>
      <trkpt lat="48.75064" lon="1.74202">
        <ele>136.7</ele>
        <time>2015-06-25T11:09:16.000Z</time>
      </trkpt>
      <trkpt lat="48.75069" lon="1.74196">
        <ele>137</ele>
        <time>2015-06-25T11:09:21.000Z</time>
      </trkpt>
      <trkpt lat="48.75074" lon="1.74186">
        <ele>137.4</ele>
        <time>2015-06-25T11:09:27.000Z</time>
      </trkpt>
      <trkpt lat="48.75076" lon="1.74172">
        <ele>136.7</ele>
        <time>2015-06-25T11:09:33.000Z</time>
      </trkpt>
      <trkpt lat="48.75079" lon="1.74162">
        <ele>136.2</ele>
        <time>2015-06-25T11:09:38.000Z</time>
      </trkpt>
      <trkpt lat="48.75082" lon="1.74153">
        <ele>135.5</ele>
        <time>2015-06-25T11:09:43.000Z</time>
      </trkpt>
      <trkpt lat="48.75086" lon="1.7415">
        <ele>136.3</ele>
        <time>2015-06-25T11:09:45.000Z</time>
      </trkpt>
      <trkpt lat="48.75088" lon="1.74146">
        <ele>136.7</ele>
        <time>2015-06-25T11:09:48.000Z</time>
      </trkpt>
      <trkpt lat="48.7509" lon="1.74139">
        <ele>136.7</ele>
        <time>2015-06-25T11:09:51.000Z</time>
      </trkpt>
      <trkpt lat="48.75094" lon="1.74129">
        <ele>138.2</ele>
        <time>2015-06-25T11:09:56.000Z</time>
      </trkpt>
      <trkpt lat="48.75096" lon="1.74118">
        <ele>138.8</ele>
        <time>2015-06-25T11:10:01.000Z</time>
      </trkpt>
      <trkpt lat="48.751" lon="1.74104">
        <ele>139.8</ele>
        <time>2015-06-25T11:10:07.000Z</time>
      </trkpt>
      <trkpt lat="48.75098" lon="1.74095">
        <ele>139</ele>
        <time>2015-06-25T11:10:10.000Z</time>
      </trkpt>
      <trkpt lat="48.75096" lon="1.74083">
        <ele>138.3</ele>
        <time>2015-06-25T11:10:15.000Z</time>
      </trkpt>
      <trkpt lat="48.75094" lon="1.74063">
        <ele>139</ele>
        <time>2015-06-25T11:10:22.000Z</time>
      </trkpt>
      <trkpt lat="48.75096" lon="1.74056">
        <ele>140.2</ele>
        <time>2015-06-25T11:10:27.000Z</time>
      </trkpt>
      <trkpt lat="48.75097" lon="1.74046">
        <ele>141</ele>
        <time>2015-06-25T11:10:33.000Z</time>
      </trkpt>
      <trkpt lat="48.75098" lon="1.74037">
        <ele>141.6</ele>
        <time>2015-06-25T11:10:38.000Z</time>
      </trkpt>
      <trkpt lat="48.75098" lon="1.74028">
        <ele>142</ele>
        <time>2015-06-25T11:10:42.000Z</time>
      </trkpt>
      <trkpt lat="48.75103" lon="1.7401">
        <ele>142.2</ele>
        <time>2015-06-25T11:10:49.000Z</time>
      </trkpt>
      <trkpt lat="48.75107" lon="1.74001">
        <ele>142.4</ele>
        <time>2015-06-25T11:10:54.000Z</time>
      </trkpt>
      <trkpt lat="48.7511" lon="1.73996">
        <ele>142.6</ele>
        <time>2015-06-25T11:10:59.000Z</time>
      </trkpt>
      <trkpt lat="48.75113" lon="1.73988">
        <ele>142.1</ele>
        <time>2015-06-25T11:11:04.000Z</time>
      </trkpt>
      <trkpt lat="48.75122" lon="1.73978">
        <ele>142.9</ele>
        <time>2015-06-25T11:11:11.000Z</time>
      </trkpt>
      <trkpt lat="48.75124" lon="1.73976">
        <ele>143.3</ele>
        <time>2015-06-25T11:11:14.000Z</time>
      </trkpt>
      <trkpt lat="48.75133" lon="1.7397">
        <ele>145.3</ele>
        <time>2015-06-25T11:11:19.000Z</time>
      </trkpt>
      <trkpt lat="48.75135" lon="1.73967">
        <ele>145.2</ele>
        <time>2015-06-25T11:11:20.000Z</time>
      </trkpt>
      <trkpt lat="48.75143" lon="1.73959">
        <ele>145.5</ele>
        <time>2015-06-25T11:11:27.000Z</time>
      </trkpt>
      <trkpt lat="48.75153" lon="1.73951">
        <ele>145.7</ele>
        <time>2015-06-25T11:11:33.000Z</time>
      </trkpt>
      <trkpt lat="48.75155" lon="1.73949">
        <ele>145.4</ele>
        <time>2015-06-25T11:11:35.000Z</time>
      </trkpt>
      <trkpt lat="48.75164" lon="1.73939">
        <ele>144.3</ele>
        <time>2015-06-25T11:11:43.000Z</time>
      </trkpt>
      <trkpt lat="48.75164" lon="1.73937">
        <ele>143.5</ele>
        <time>2015-06-25T11:11:44.000Z</time>
      </trkpt>
      <trkpt lat="48.75168" lon="1.73934">
        <ele>142.7</ele>
        <time>2015-06-25T11:11:47.000Z</time>
      </trkpt>
      <trkpt lat="48.75175" lon="1.73927">
        <ele>141.7</ele>
        <time>2015-06-25T11:11:53.000Z</time>
      </trkpt>
      <trkpt lat="48.75183" lon="1.7392">
        <ele>141.8</ele>
        <time>2015-06-25T11:11:59.000Z</time>
      </trkpt>
      <trkpt lat="48.75186" lon="1.73919">
        <ele>142.2</ele>
        <time>2015-06-25T11:12:01.000Z</time>
      </trkpt>
      <trkpt lat="48.75189" lon="1.73917">
        <ele>142.5</ele>
        <time>2015-06-25T11:12:04.000Z</time>
      </trkpt>
      <trkpt lat="48.75196" lon="1.7391">
        <ele>141.6</ele>
        <time>2015-06-25T11:12:10.000Z</time>
      </trkpt>
      <trkpt lat="48.75203" lon="1.73907">
        <ele>141</ele>
        <time>2015-06-25T11:12:15.000Z</time>
      </trkpt>
      <trkpt lat="48.7521" lon="1.73902">
        <ele>140.3</ele>
        <time>2015-06-25T11:12:20.000Z</time>
      </trkpt>
      <trkpt lat="48.75212" lon="1.73901">
        <ele>139.9</ele>
        <time>2015-06-25T11:12:22.000Z</time>
      </trkpt>
      <trkpt lat="48.75223" lon="1.7389">
        <ele>137.3</ele>
        <time>2015-06-25T11:12:29.000Z</time>
      </trkpt>
      <trkpt lat="48.7523" lon="1.73884">
        <ele>137</ele>
        <time>2015-06-25T11:12:35.000Z</time>
      </trkpt>
      <trkpt lat="48.75237" lon="1.7388">
        <ele>136.8</ele>
        <time>2015-06-25T11:12:39.000Z</time>
      </trkpt>
      <trkpt lat="48.75247" lon="1.73874">
        <ele>136.5</ele>
        <time>2015-06-25T11:12:45.000Z</time>
      </trkpt>
      <trkpt lat="48.75249" lon="1.73875">
        <ele>136.9</ele>
        <time>2015-06-25T11:12:47.000Z</time>
      </trkpt>
      <trkpt lat="48.75256" lon="1.73871">
        <ele>135.9</ele>
        <time>2015-06-25T11:12:52.000Z</time>
      </trkpt>
      <trkpt lat="48.7526" lon="1.73869">
        <ele>135.5</ele>
        <time>2015-06-25T11:12:54.000Z</time>
      </trkpt>
      <trkpt lat="48.75272" lon="1.73869">
        <ele>135.7</ele>
        <time>2015-06-25T11:12:59.000Z</time>
      </trkpt>
      <trkpt lat="48.75285" lon="1.7387">
        <ele>134.9</ele>
        <time>2015-06-25T11:13:05.000Z</time>
      </trkpt>
      <trkpt lat="48.75286" lon="1.73871">
        <ele>135</ele>
        <time>2015-06-25T11:13:06.000Z</time>
      </trkpt>
      <trkpt lat="48.7529" lon="1.73872">
        <ele>134.5</ele>
        <time>2015-06-25T11:13:10.000Z</time>
      </trkpt>
      <trkpt lat="48.75295" lon="1.7387">
        <ele>133.4</ele>
        <time>2015-06-25T11:13:16.000Z</time>
      </trkpt>
      <trkpt lat="48.75298" lon="1.73872">
        <ele>133.4</ele>
        <time>2015-06-25T11:13:21.000Z</time>
      </trkpt>
      <trkpt lat="48.75301" lon="1.73877">
        <ele>133.5</ele>
        <time>2015-06-25T11:13:25.000Z</time>
      </trkpt>
      <trkpt lat="48.75309" lon="1.73887">
        <ele>133.5</ele>
        <time>2015-06-25T11:13:31.000Z</time>
      </trkpt>
      <trkpt lat="48.75317" lon="1.73893">
        <ele>133.8</ele>
        <time>2015-06-25T11:13:37.000Z</time>
      </trkpt>
      <trkpt lat="48.75321" lon="1.73896">
        <ele>133.8</ele>
        <time>2015-06-25T11:13:42.000Z</time>
      </trkpt>
      <trkpt lat="48.75325" lon="1.73897">
        <ele>133.7</ele>
        <time>2015-06-25T11:13:45.000Z</time>
      </trkpt>
      <trkpt lat="48.75333" lon="1.739">
        <ele>133.2</ele>
        <time>2015-06-25T11:13:50.000Z</time>
      </trkpt>
      <trkpt lat="48.75345" lon="1.73912">
        <ele>133</ele>
        <time>2015-06-25T11:13:57.000Z</time>
      </trkpt>
      <trkpt lat="48.75352" lon="1.73925">
        <ele>133.1</ele>
        <time>2015-06-25T11:14:04.000Z</time>
      </trkpt>
      <trkpt lat="48.75353" lon="1.73931">
        <ele>133.4</ele>
        <time>2015-06-25T11:14:10.000Z</time>
      </trkpt>
      <trkpt lat="48.75347" lon="1.73945">
        <ele>135</ele>
        <time>2015-06-25T11:15:25.000Z</time>
      </trkpt>
      <trkpt lat="48.7535" lon="1.7396">
        <ele>135.5</ele>
        <time>2015-06-25T11:15:31.000Z</time>
      </trkpt>
      <trkpt lat="48.75353" lon="1.73971">
        <ele>135.9</ele>
        <time>2015-06-25T11:15:36.000Z</time>
      </trkpt>
      <trkpt lat="48.75359" lon="1.73982">
        <ele>136.4</ele>
        <time>2015-06-25T11:15:41.000Z</time>
      </trkpt>
      <trkpt lat="48.75363" lon="1.73995">
        <ele>136.8</ele>
        <time>2015-06-25T11:15:47.000Z</time>
      </trkpt>
      <trkpt lat="48.75368" lon="1.74004">
        <ele>137.3</ele>
        <time>2015-06-25T11:15:52.000Z</time>
      </trkpt>
      <trkpt lat="48.75367" lon="1.74007">
        <ele>137.7</ele>
        <time>2015-06-25T11:15:56.000Z</time>
      </trkpt>
      <trkpt lat="48.75368" lon="1.7401">
        <ele>137.9</ele>
        <time>2015-06-25T11:15:58.000Z</time>
      </trkpt>
      <trkpt lat="48.75367" lon="1.7401">
        <ele>137.9</ele>
        <time>2015-06-25T11:16:04.000Z</time>
      </trkpt>
      <trkpt lat="48.75364" lon="1.74012">
        <ele>138.2</ele>
        <time>2015-06-25T11:16:09.000Z</time>
      </trkpt>
      <trkpt lat="48.7537" lon="1.74023">
        <ele>139</ele>
        <time>2015-06-25T11:16:15.000Z</time>
      </trkpt>
      <trkpt lat="48.75383" lon="1.74032">
        <ele>138.9</ele>
        <time>2015-06-25T11:16:21.000Z</time>
      </trkpt>
      <trkpt lat="48.75398" lon="1.74042">
        <ele>139.4</ele>
        <time>2015-06-25T11:16:28.000Z</time>
      </trkpt>
      <trkpt lat="48.75405" lon="1.74049">
        <ele>139.9</ele>
        <time>2015-06-25T11:16:33.000Z</time>
      </trkpt>
      <trkpt lat="48.75407" lon="1.74051">
        <ele>139.9</ele>
        <time>2015-06-25T11:16:34.000Z</time>
      </trkpt>
      <trkpt lat="48.75414" lon="1.74056">
        <ele>140.2</ele>
        <time>2015-06-25T11:16:39.000Z</time>
      </trkpt>
      <trkpt lat="48.75411" lon="1.74054">
        <ele>140.1</ele>
        <time>2015-06-25T11:16:45.000Z</time>
      </trkpt>
      <trkpt lat="48.75404" lon="1.7405">
        <ele>140</ele>
        <time>2015-06-25T11:16:52.000Z</time>
      </trkpt>
      <trkpt lat="48.75401" lon="1.74046">
        <ele>139.7</ele>
        <time>2015-06-25T11:16:57.000Z</time>
      </trkpt>
      <trkpt lat="48.75396" lon="1.74038">
        <ele>139</ele>
        <time>2015-06-25T11:17:05.000Z</time>
      </trkpt>
      <trkpt lat="48.75393" lon="1.74034">
        <ele>138.7</ele>
        <time>2015-06-25T11:17:09.000Z</time>
      </trkpt>
      <trkpt lat="48.75387" lon="1.74029">
        <ele>138.3</ele>
        <time>2015-06-25T11:17:13.000Z</time>
      </trkpt>
      <trkpt lat="48.75385" lon="1.74027">
        <ele>138.2</ele>
        <time>2015-06-25T11:17:15.000Z</time>
      </trkpt>
      <trkpt lat="48.75381" lon="1.7402">
        <ele>138.1</ele>
        <time>2015-06-25T11:17:19.000Z</time>
      </trkpt>
      <trkpt lat="48.75373" lon="1.74014">
        <ele>138.1</ele>
        <time>2015-06-25T11:17:23.000Z</time>
      </trkpt>
      <trkpt lat="48.75358" lon="1.73999">
        <ele>137.2</ele>
        <time>2015-06-25T11:17:32.000Z</time>
      </trkpt>
      <trkpt lat="48.75355" lon="1.73988">
        <ele>136.8</ele>
        <time>2015-06-25T11:17:39.000Z</time>
      </trkpt>
      <trkpt lat="48.7535" lon="1.73969">
        <ele>135.9</ele>
        <time>2015-06-25T11:17:48.000Z</time>
      </trkpt>
      <trkpt lat="48.75347" lon="1.73952">
        <ele>135.3</ele>
        <time>2015-06-25T11:17:56.000Z</time>
      </trkpt>
      <trkpt lat="48.75346" lon="1.73935">
        <ele>134.5</ele>
        <time>2015-06-25T11:18:04.000Z</time>
      </trkpt>
      <trkpt lat="48.7535" lon="1.73935">
        <ele>134</ele>
        <time>2015-06-25T11:18:10.000Z</time>
      </trkpt>
      <trkpt lat="48.75352" lon="1.73936">
        <ele>134</ele>
        <time>2015-06-25T11:18:11.000Z</time>
      </trkpt>
      <trkpt lat="48.75357" lon="1.7394">
        <ele>133.9</ele>
        <time>2015-06-25T11:18:18.000Z</time>
      </trkpt>
      <trkpt lat="48.75361" lon="1.73943">
        <ele>133.9</ele>
        <time>2015-06-25T11:18:22.000Z</time>
      </trkpt>
      <trkpt lat="48.75366" lon="1.73948">
        <ele>133.7</ele>
        <time>2015-06-25T11:18:26.000Z</time>
      </trkpt>
      <trkpt lat="48.75375" lon="1.73955">
        <ele>133.8</ele>
        <time>2015-06-25T11:18:33.000Z</time>
      </trkpt>
      <trkpt lat="48.75382" lon="1.73959">
        <ele>134.1</ele>
        <time>2015-06-25T11:18:39.000Z</time>
      </trkpt>
      <trkpt lat="48.75389" lon="1.73966">
        <ele>134.8</ele>
        <time>2015-06-25T11:18:46.000Z</time>
      </trkpt>
      <trkpt lat="48.75391" lon="1.73968">
        <ele>135.1</ele>
        <time>2015-06-25T11:18:48.000Z</time>
      </trkpt>
      <trkpt lat="48.75396" lon="1.73975">
        <ele>135.4</ele>
        <time>2015-06-25T11:18:55.000Z</time>
      </trkpt>
      <trkpt lat="48.754" lon="1.73977">
        <ele>135</ele>
        <time>2015-06-25T11:18:59.000Z</time>
      </trkpt>
      <trkpt lat="48.75408" lon="1.7398">
        <ele>134.4</ele>
        <time>2015-06-25T11:19:05.000Z</time>
      </trkpt>
      <trkpt lat="48.75416" lon="1.73983">
        <ele>133.9</ele>
        <time>2015-06-25T11:19:11.000Z</time>
      </trkpt>
      <trkpt lat="48.75422" lon="1.73984">
        <ele>133.9</ele>
        <time>2015-06-25T11:19:15.000Z</time>
      </trkpt>
      <trkpt lat="48.75434" lon="1.73984">
        <ele>134.1</ele>
        <time>2015-06-25T11:19:20.000Z</time>
      </trkpt>
      <trkpt lat="48.7544" lon="1.73985">
        <ele>134.3</ele>
        <time>2015-06-25T11:19:24.000Z</time>
      </trkpt>
      <trkpt lat="48.75444" lon="1.73986">
        <ele>134.4</ele>
        <time>2015-06-25T11:19:30.000Z</time>
      </trkpt>
      <trkpt lat="48.75448" lon="1.73983">
        <ele>134.2</ele>
        <time>2015-06-25T11:19:36.000Z</time>
      </trkpt>
      <trkpt lat="48.75449" lon="1.73983">
        <ele>134.2</ele>
        <time>2015-06-25T11:19:38.000Z</time>
      </trkpt>
      <trkpt lat="48.75456" lon="1.73983">
        <ele>134.1</ele>
        <time>2015-06-25T11:19:42.000Z</time>
      </trkpt>
      <trkpt lat="48.75465" lon="1.7398">
        <ele>133.8</ele>
        <time>2015-06-25T11:19:49.000Z</time>
      </trkpt>
      <trkpt lat="48.75467" lon="1.7398">
        <ele>133.8</ele>
        <time>2015-06-25T11:19:51.000Z</time>
      </trkpt>
      <trkpt lat="48.75474" lon="1.73985">
        <ele>134.4</ele>
        <time>2015-06-25T11:19:56.000Z</time>
      </trkpt>
      <trkpt lat="48.75476" lon="1.73986">
        <ele>134.5</ele>
        <time>2015-06-25T11:19:59.000Z</time>
      </trkpt>
      <trkpt lat="48.75482" lon="1.73987">
        <ele>134.6</ele>
        <time>2015-06-25T11:20:03.000Z</time>
      </trkpt>
      <trkpt lat="48.75493" lon="1.73991">
        <ele>135</ele>
        <time>2015-06-25T11:20:10.000Z</time>
      </trkpt>
      <trkpt lat="48.75495" lon="1.73992">
        <ele>135.1</ele>
        <time>2015-06-25T11:20:11.000Z</time>
      </trkpt>
      <trkpt lat="48.75501" lon="1.73992">
        <ele>135.2</ele>
        <time>2015-06-25T11:20:14.000Z</time>
      </trkpt>
      <trkpt lat="48.75511" lon="1.73992">
        <ele>135.5</ele>
        <time>2015-06-25T11:20:21.000Z</time>
      </trkpt>
      <trkpt lat="48.75517" lon="1.73991">
        <ele>135.5</ele>
        <time>2015-06-25T11:20:28.000Z</time>
      </trkpt>
      <trkpt lat="48.75522" lon="1.7399">
        <ele>135.4</ele>
        <time>2015-06-25T11:20:33.000Z</time>
      </trkpt>
      <trkpt lat="48.75528" lon="1.73985">
        <ele>134.9</ele>
        <time>2015-06-25T11:20:39.000Z</time>
      </trkpt>
      <trkpt lat="48.75529" lon="1.73985">
        <ele>134.8</ele>
        <time>2015-06-25T11:20:40.000Z</time>
      </trkpt>
      <trkpt lat="48.75535" lon="1.73982">
        <ele>134.9</ele>
        <time>2015-06-25T11:20:46.000Z</time>
      </trkpt>
      <trkpt lat="48.75536" lon="1.73981">
        <ele>134.7</ele>
        <time>2015-06-25T11:20:47.000Z</time>
      </trkpt>
      <trkpt lat="48.75546" lon="1.73975">
        <ele>134.7</ele>
        <time>2015-06-25T11:20:53.000Z</time>
      </trkpt>
      <trkpt lat="48.75556" lon="1.73971">
        <ele>134.9</ele>
        <time>2015-06-25T11:20:59.000Z</time>
      </trkpt>
      <trkpt lat="48.75563" lon="1.73969">
        <ele>135.4</ele>
        <time>2015-06-25T11:21:04.000Z</time>
      </trkpt>
      <trkpt lat="48.75567" lon="1.73968">
        <ele>135.8</ele>
        <time>2015-06-25T11:21:07.000Z</time>
      </trkpt>
      <trkpt lat="48.75576" lon="1.73968">
        <ele>136.7</ele>
        <time>2015-06-25T11:21:14.000Z</time>
      </trkpt>
      <trkpt lat="48.75582" lon="1.73961">
        <ele>136.6</ele>
        <time>2015-06-25T11:21:18.000Z</time>
      </trkpt>
      <trkpt lat="48.7559" lon="1.73954">
        <ele>136.3</ele>
        <time>2015-06-25T11:21:23.000Z</time>
      </trkpt>
      <trkpt lat="48.75596" lon="1.73951">
        <ele>136.2</ele>
        <time>2015-06-25T11:21:27.000Z</time>
      </trkpt>
      <trkpt lat="48.75607" lon="1.73943">
        <ele>135.6</ele>
        <time>2015-06-25T11:21:35.000Z</time>
      </trkpt>
      <trkpt lat="48.75612" lon="1.7394">
        <ele>135.5</ele>
        <time>2015-06-25T11:21:39.000Z</time>
      </trkpt>
      <trkpt lat="48.7562" lon="1.73935">
        <ele>135.2</ele>
        <time>2015-06-25T11:21:44.000Z</time>
      </trkpt>
      <trkpt lat="48.75622" lon="1.73932">
        <ele>135</ele>
        <time>2015-06-25T11:21:47.000Z</time>
      </trkpt>
      <trkpt lat="48.7563" lon="1.73929">
        <ele>135.1</ele>
        <time>2015-06-25T11:21:53.000Z</time>
      </trkpt>
      <trkpt lat="48.75637" lon="1.73928">
        <ele>135.3</ele>
        <time>2015-06-25T11:21:59.000Z</time>
      </trkpt>
      <trkpt lat="48.75649" lon="1.73925">
        <ele>136.8</ele>
        <time>2015-06-25T11:22:07.000Z</time>
      </trkpt>
      <trkpt lat="48.75655" lon="1.73923">
        <ele>137.5</ele>
        <time>2015-06-25T11:22:11.000Z</time>
      </trkpt>
      <trkpt lat="48.75663" lon="1.73922">
        <ele>138.7</ele>
        <time>2015-06-25T11:22:17.000Z</time>
      </trkpt>
      <trkpt lat="48.75676" lon="1.73914">
        <ele>141</ele>
        <time>2015-06-25T11:22:22.000Z</time>
      </trkpt>
      <trkpt lat="48.75682" lon="1.73907">
        <ele>142.5</ele>
        <time>2015-06-25T11:22:27.000Z</time>
      </trkpt>
      <trkpt lat="48.75683" lon="1.73906">
        <ele>142.7</ele>
        <time>2015-06-25T11:22:28.000Z</time>
      </trkpt>
      <trkpt lat="48.75693" lon="1.73903">
        <ele>144.7</ele>
        <time>2015-06-25T11:22:35.000Z</time>
      </trkpt>
      <trkpt lat="48.75697" lon="1.73901">
        <ele>144.7</ele>
        <time>2015-06-25T11:22:38.000Z</time>
      </trkpt>
      <trkpt lat="48.757" lon="1.73898">
        <ele>144.3</ele>
        <time>2015-06-25T11:22:45.000Z</time>
      </trkpt>
      <trkpt lat="48.75713" lon="1.73891">
        <ele>142.5</ele>
        <time>2015-06-25T11:23:00.000Z</time>
      </trkpt>
      <trkpt lat="48.75722" lon="1.73889">
        <ele>141</ele>
        <time>2015-06-25T11:23:05.000Z</time>
      </trkpt>
      <trkpt lat="48.75729" lon="1.73882">
        <ele>140.3</ele>
        <time>2015-06-25T11:23:10.000Z</time>
      </trkpt>
      <trkpt lat="48.75736" lon="1.73878">
        <ele>139.7</ele>
        <time>2015-06-25T11:23:14.000Z</time>
      </trkpt>
      <trkpt lat="48.75744" lon="1.73872">
        <ele>139</ele>
        <time>2015-06-25T11:23:20.000Z</time>
      </trkpt>
      <trkpt lat="48.75752" lon="1.73864">
        <ele>138.3</ele>
        <time>2015-06-25T11:23:26.000Z</time>
      </trkpt>
      <trkpt lat="48.75762" lon="1.73858">
        <ele>138.7</ele>
        <time>2015-06-25T11:23:34.000Z</time>
      </trkpt>
      <trkpt lat="48.75765" lon="1.73858">
        <ele>138.9</ele>
        <time>2015-06-25T11:23:36.000Z</time>
      </trkpt>
      <trkpt lat="48.75771" lon="1.73851">
        <ele>138.9</ele>
        <time>2015-06-25T11:23:42.000Z</time>
      </trkpt>
      <trkpt lat="48.75775" lon="1.73846">
        <ele>138.8</ele>
        <time>2015-06-25T11:23:45.000Z</time>
      </trkpt>
      <trkpt lat="48.75777" lon="1.73833">
        <ele>138</ele>
        <time>2015-06-25T11:23:49.000Z</time>
      </trkpt>
      <trkpt lat="48.75779" lon="1.7381">
        <ele>137.2</ele>
        <time>2015-06-25T11:23:58.000Z</time>
      </trkpt>
      <trkpt lat="48.75783" lon="1.73794">
        <ele>136.8</ele>
        <time>2015-06-25T11:24:05.000Z</time>
      </trkpt>
      <trkpt lat="48.75785" lon="1.7378">
        <ele>136.3</ele>
        <time>2015-06-25T11:24:11.000Z</time>
      </trkpt>
      <trkpt lat="48.75784" lon="1.73759">
        <ele>135.6</ele>
        <time>2015-06-25T11:24:20.000Z</time>
      </trkpt>
      <trkpt lat="48.75786" lon="1.73747">
        <ele>135.1</ele>
        <time>2015-06-25T11:24:26.000Z</time>
      </trkpt>
      <trkpt lat="48.75781" lon="1.73734">
        <ele>134</ele>
        <time>2015-06-25T11:24:32.000Z</time>
      </trkpt>
      <trkpt lat="48.75777" lon="1.7372">
        <ele>132.9</ele>
        <time>2015-06-25T11:24:38.000Z</time>
      </trkpt>
      <trkpt lat="48.75779" lon="1.7371">
        <ele>132.6</ele>
        <time>2015-06-25T11:24:43.000Z</time>
      </trkpt>
      <trkpt lat="48.75786" lon="1.73702">
        <ele>132.6</ele>
        <time>2015-06-25T11:24:49.000Z</time>
      </trkpt>
      <trkpt lat="48.7579" lon="1.73696">
        <ele>132.5</ele>
        <time>2015-06-25T11:24:54.000Z</time>
      </trkpt>
      <trkpt lat="48.75793" lon="1.73684">
        <ele>131.8</ele>
        <time>2015-06-25T11:25:00.000Z</time>
      </trkpt>
      <trkpt lat="48.75791" lon="1.73677">
        <ele>131.2</ele>
        <time>2015-06-25T11:25:04.000Z</time>
      </trkpt>
      <trkpt lat="48.75785" lon="1.73667">
        <ele>130.3</ele>
        <time>2015-06-25T11:25:10.000Z</time>
      </trkpt>
      <trkpt lat="48.7578" lon="1.73658">
        <ele>129.8</ele>
        <time>2015-06-25T11:25:16.000Z</time>
      </trkpt>
      <trkpt lat="48.75773" lon="1.73644">
        <ele>129.2</ele>
        <time>2015-06-25T11:25:24.000Z</time>
      </trkpt>
      <trkpt lat="48.75773" lon="1.73643">
        <ele>129.1</ele>
        <time>2015-06-25T11:25:25.000Z</time>
      </trkpt>
      <trkpt lat="48.75769" lon="1.73633">
        <ele>128.8</ele>
        <time>2015-06-25T11:25:30.000Z</time>
      </trkpt>
      <trkpt lat="48.75766" lon="1.73616">
        <ele>128.2</ele>
        <time>2015-06-25T11:25:37.000Z</time>
      </trkpt>
      <trkpt lat="48.75765" lon="1.73614">
        <ele>128.1</ele>
        <time>2015-06-25T11:25:38.000Z</time>
      </trkpt>
      <trkpt lat="48.75761" lon="1.73599">
        <ele>128</ele>
        <time>2015-06-25T11:25:45.000Z</time>
      </trkpt>
      <trkpt lat="48.75758" lon="1.73585">
        <ele>128</ele>
        <time>2015-06-25T11:25:51.000Z</time>
      </trkpt>
      <trkpt lat="48.75755" lon="1.73568">
        <ele>127.9</ele>
        <time>2015-06-25T11:25:57.000Z</time>
      </trkpt>
      <trkpt lat="48.75754" lon="1.73566">
        <ele>127.9</ele>
        <time>2015-06-25T11:25:58.000Z</time>
      </trkpt>
      <trkpt lat="48.75753" lon="1.73552">
        <ele>127.8</ele>
        <time>2015-06-25T11:26:04.000Z</time>
      </trkpt>
      <trkpt lat="48.75753" lon="1.7355">
        <ele>127.7</ele>
        <time>2015-06-25T11:26:05.000Z</time>
      </trkpt>
      <trkpt lat="48.75752" lon="1.73546">
        <ele>127.6</ele>
        <time>2015-06-25T11:26:07.000Z</time>
      </trkpt>
      <trkpt lat="48.75752" lon="1.73533">
        <ele>127.2</ele>
        <time>2015-06-25T11:26:13.000Z</time>
      </trkpt>
      <trkpt lat="48.7575" lon="1.73514">
        <ele>127</ele>
        <time>2015-06-25T11:26:21.000Z</time>
      </trkpt>
      <trkpt lat="48.75749" lon="1.73495">
        <ele>127.1</ele>
        <time>2015-06-25T11:26:30.000Z</time>
      </trkpt>
      <trkpt lat="48.75747" lon="1.73479">
        <ele>127.1</ele>
        <time>2015-06-25T11:26:37.000Z</time>
      </trkpt>
      <trkpt lat="48.75745" lon="1.73463">
        <ele>127.2</ele>
        <time>2015-06-25T11:26:44.000Z</time>
      </trkpt>
      <trkpt lat="48.75741" lon="1.73441">
        <ele>127.3</ele>
        <time>2015-06-25T11:26:54.000Z</time>
      </trkpt>
      <trkpt lat="48.75735" lon="1.73423">
        <ele>127.5</ele>
        <time>2015-06-25T11:27:03.000Z</time>
      </trkpt>
      <trkpt lat="48.75732" lon="1.73416">
        <ele>127.7</ele>
        <time>2015-06-25T11:27:07.000Z</time>
      </trkpt>
      <trkpt lat="48.75725" lon="1.73403">
        <ele>127.9</ele>
        <time>2015-06-25T11:27:14.000Z</time>
      </trkpt>
      <trkpt lat="48.75719" lon="1.73393">
        <ele>128</ele>
        <time>2015-06-25T11:27:20.000Z</time>
      </trkpt>
      <trkpt lat="48.75707" lon="1.73374">
        <ele>128.3</ele>
        <time>2015-06-25T11:27:31.000Z</time>
      </trkpt>
      <trkpt lat="48.75699" lon="1.73362">
        <ele>128.8</ele>
        <time>2015-06-25T11:27:38.000Z</time>
      </trkpt>
      <trkpt lat="48.75691" lon="1.7335">
        <ele>129.1</ele>
        <time>2015-06-25T11:27:46.000Z</time>
      </trkpt>
      <trkpt lat="48.75684" lon="1.73341">
        <ele>129.3</ele>
        <time>2015-06-25T11:27:52.000Z</time>
      </trkpt>
      <trkpt lat="48.75676" lon="1.73328">
        <ele>129.7</ele>
        <time>2015-06-25T11:28:01.000Z</time>
      </trkpt>
      <trkpt lat="48.75667" lon="1.7331">
        <ele>130</ele>
        <time>2015-06-25T11:28:11.000Z</time>
      </trkpt>
      <trkpt lat="48.75664" lon="1.73305">
        <ele>130.1</ele>
        <time>2015-06-25T11:28:14.000Z</time>
      </trkpt>
      <trkpt lat="48.7566" lon="1.733">
        <ele>130.2</ele>
        <time>2015-06-25T11:28:18.000Z</time>
      </trkpt>
      <trkpt lat="48.75651" lon="1.73283">
        <ele>130.6</ele>
        <time>2015-06-25T11:28:28.000Z</time>
      </trkpt>
      <trkpt lat="48.75644" lon="1.7327">
        <ele>131.1</ele>
        <time>2015-06-25T11:28:35.000Z</time>
      </trkpt>
      <trkpt lat="48.75637" lon="1.73258">
        <ele>131.8</ele>
        <time>2015-06-25T11:28:42.000Z</time>
      </trkpt>
      <trkpt lat="48.75636" lon="1.73257">
        <ele>131.9</ele>
        <time>2015-06-25T11:28:43.000Z</time>
      </trkpt>
      <trkpt lat="48.75632" lon="1.7325">
        <ele>132.2</ele>
        <time>2015-06-25T11:28:47.000Z</time>
      </trkpt>
      <trkpt lat="48.75625" lon="1.73237">
        <ele>132.3</ele>
        <time>2015-06-25T11:28:55.000Z</time>
      </trkpt>
      <trkpt lat="48.75616" lon="1.7322">
        <ele>132.1</ele>
        <time>2015-06-25T11:29:05.000Z</time>
      </trkpt>
      <trkpt lat="48.75611" lon="1.73213">
        <ele>132.4</ele>
        <time>2015-06-25T11:29:10.000Z</time>
      </trkpt>
      <trkpt lat="48.75603" lon="1.73206">
        <ele>132.8</ele>
        <time>2015-06-25T11:29:16.000Z</time>
      </trkpt>
      <trkpt lat="48.75595" lon="1.73197">
        <ele>133</ele>
        <time>2015-06-25T11:29:23.000Z</time>
      </trkpt>
      <trkpt lat="48.7559" lon="1.73189">
        <ele>133.2</ele>
        <time>2015-06-25T11:29:29.000Z</time>
      </trkpt>
      <trkpt lat="48.75591" lon="1.73181">
        <ele>133.4</ele>
        <time>2015-06-25T11:29:33.000Z</time>
      </trkpt>
      <trkpt lat="48.75593" lon="1.73175">
        <ele>133.4</ele>
        <time>2015-06-25T11:29:36.000Z</time>
      </trkpt>
      <trkpt lat="48.75601" lon="1.73162">
        <ele>133.4</ele>
        <time>2015-06-25T11:29:44.000Z</time>
      </trkpt>
      <trkpt lat="48.7561" lon="1.73145">
        <ele>133</ele>
        <time>2015-06-25T11:29:54.000Z</time>
      </trkpt>
      <trkpt lat="48.75625" lon="1.73123">
        <ele>133.3</ele>
        <time>2015-06-25T11:30:08.000Z</time>
      </trkpt>
      <trkpt lat="48.75636" lon="1.73102">
        <ele>133.1</ele>
        <time>2015-06-25T11:30:20.000Z</time>
      </trkpt>
      <trkpt lat="48.75643" lon="1.73091">
        <ele>132.7</ele>
        <time>2015-06-25T11:30:27.000Z</time>
      </trkpt>
      <trkpt lat="48.75648" lon="1.73084">
        <ele>132.4</ele>
        <time>2015-06-25T11:30:32.000Z</time>
      </trkpt>
      <trkpt lat="48.75651" lon="1.73076">
        <ele>132.2</ele>
        <time>2015-06-25T11:30:36.000Z</time>
      </trkpt>
      <trkpt lat="48.75661" lon="1.73062">
        <ele>132</ele>
        <time>2015-06-25T11:30:44.000Z</time>
      </trkpt>
      <trkpt lat="48.75664" lon="1.73056">
        <ele>132.1</ele>
        <time>2015-06-25T11:30:48.000Z</time>
      </trkpt>
      <trkpt lat="48.75667" lon="1.73053">
        <ele>132</ele>
        <time>2015-06-25T11:30:50.000Z</time>
      </trkpt>
      <trkpt lat="48.75671" lon="1.73047">
        <ele>131.9</ele>
        <time>2015-06-25T11:30:54.000Z</time>
      </trkpt>
      <trkpt lat="48.75678" lon="1.73033">
        <ele>131.6</ele>
        <time>2015-06-25T11:31:01.000Z</time>
      </trkpt>
      <trkpt lat="48.75684" lon="1.73023">
        <ele>131.5</ele>
        <time>2015-06-25T11:31:08.000Z</time>
      </trkpt>
      <trkpt lat="48.75689" lon="1.73014">
        <ele>131.6</ele>
        <time>2015-06-25T11:31:13.000Z</time>
      </trkpt>
      <trkpt lat="48.75696" lon="1.73004">
        <ele>131.8</ele>
        <time>2015-06-25T11:31:20.000Z</time>
      </trkpt>
      <trkpt lat="48.75703" lon="1.72991">
        <ele>131.7</ele>
        <time>2015-06-25T11:31:27.000Z</time>
      </trkpt>
      <trkpt lat="48.75709" lon="1.72981">
        <ele>131.5</ele>
        <time>2015-06-25T11:31:33.000Z</time>
      </trkpt>
      <trkpt lat="48.75718" lon="1.72965">
        <ele>131.1</ele>
        <time>2015-06-25T11:31:42.000Z</time>
      </trkpt>
      <trkpt lat="48.75727" lon="1.72949">
        <ele>130.8</ele>
        <time>2015-06-25T11:31:52.000Z</time>
      </trkpt>
      <trkpt lat="48.75738" lon="1.72931">
        <ele>130.9</ele>
        <time>2015-06-25T11:32:03.000Z</time>
      </trkpt>
      <trkpt lat="48.75746" lon="1.72915">
        <ele>131.1</ele>
        <time>2015-06-25T11:32:10.000Z</time>
      </trkpt>
      <trkpt lat="48.75754" lon="1.72898">
        <ele>130.9</ele>
        <time>2015-06-25T11:32:17.000Z</time>
      </trkpt>
      <trkpt lat="48.75761" lon="1.7289">
        <ele>130.6</ele>
        <time>2015-06-25T11:32:23.000Z</time>
      </trkpt>
      <trkpt lat="48.75767" lon="1.72881">
        <ele>130.4</ele>
        <time>2015-06-25T11:32:28.000Z</time>
      </trkpt>
      <trkpt lat="48.75773" lon="1.7287">
        <ele>130.2</ele>
        <time>2015-06-25T11:32:33.000Z</time>
      </trkpt>
      <trkpt lat="48.75781" lon="1.72858">
        <ele>130</ele>
        <time>2015-06-25T11:32:39.000Z</time>
      </trkpt>
      <trkpt lat="48.7579" lon="1.72847">
        <ele>130.1</ele>
        <time>2015-06-25T11:32:47.000Z</time>
      </trkpt>
      <trkpt lat="48.75791" lon="1.72845">
        <ele>130.1</ele>
        <time>2015-06-25T11:32:51.000Z</time>
      </trkpt>
      <trkpt lat="48.75793" lon="1.72837">
        <ele>130.3</ele>
        <time>2015-06-25T11:32:58.000Z</time>
      </trkpt>
      <trkpt lat="48.75802" lon="1.72828">
        <ele>130.1</ele>
        <time>2015-06-25T11:33:04.000Z</time>
      </trkpt>
      <trkpt lat="48.75804" lon="1.72827">
        <ele>130.1</ele>
        <time>2015-06-25T11:33:05.000Z</time>
      </trkpt>
      <trkpt lat="48.75809" lon="1.72823">
        <ele>129.8</ele>
        <time>2015-06-25T11:33:10.000Z</time>
      </trkpt>
      <trkpt lat="48.75816" lon="1.72816">
        <ele>129.5</ele>
        <time>2015-06-25T11:33:15.000Z</time>
      </trkpt>
      <trkpt lat="48.75821" lon="1.72808">
        <ele>129.4</ele>
        <time>2015-06-25T11:33:20.000Z</time>
      </trkpt>
      <trkpt lat="48.75824" lon="1.72804">
        <ele>129.3</ele>
        <time>2015-06-25T11:33:23.000Z</time>
      </trkpt>
      <trkpt lat="48.75836" lon="1.72791">
        <ele>128.9</ele>
        <time>2015-06-25T11:33:31.000Z</time>
      </trkpt>
      <trkpt lat="48.75843" lon="1.72782">
        <ele>128.7</ele>
        <time>2015-06-25T11:33:37.000Z</time>
      </trkpt>
      <trkpt lat="48.75846" lon="1.72781">
        <ele>128.6</ele>
        <time>2015-06-25T11:33:39.000Z</time>
      </trkpt>
      <trkpt lat="48.7585" lon="1.72778">
        <ele>128.4</ele>
        <time>2015-06-25T11:33:42.000Z</time>
      </trkpt>
      <trkpt lat="48.75854" lon="1.72773">
        <ele>128.2</ele>
        <time>2015-06-25T11:33:46.000Z</time>
      </trkpt>
      <trkpt lat="48.75861" lon="1.72768">
        <ele>128</ele>
        <time>2015-06-25T11:33:51.000Z</time>
      </trkpt>
      <trkpt lat="48.75862" lon="1.72767">
        <ele>128</ele>
        <time>2015-06-25T11:33:52.000Z</time>
      </trkpt>
      <trkpt lat="48.75865" lon="1.7276">
        <ele>127.9</ele>
        <time>2015-06-25T11:33:56.000Z</time>
      </trkpt>
      <trkpt lat="48.75875" lon="1.72755">
        <ele>127.5</ele>
        <time>2015-06-25T11:34:03.000Z</time>
      </trkpt>
      <trkpt lat="48.75883" lon="1.7275">
        <ele>127.2</ele>
        <time>2015-06-25T11:34:09.000Z</time>
      </trkpt>
      <trkpt lat="48.75888" lon="1.72746">
        <ele>127</ele>
        <time>2015-06-25T11:34:12.000Z</time>
      </trkpt>
      <trkpt lat="48.75895" lon="1.72739">
        <ele>126.9</ele>
        <time>2015-06-25T11:34:16.000Z</time>
      </trkpt>
      <trkpt lat="48.75903" lon="1.72733">
        <ele>126.8</ele>
        <time>2015-06-25T11:34:21.000Z</time>
      </trkpt>
      <trkpt lat="48.75911" lon="1.72726">
        <ele>126.9</ele>
        <time>2015-06-25T11:34:27.000Z</time>
      </trkpt>
      <trkpt lat="48.75919" lon="1.7272">
        <ele>126.9</ele>
        <time>2015-06-25T11:34:33.000Z</time>
      </trkpt>
      <trkpt lat="48.75922" lon="1.72717">
        <ele>126.8</ele>
        <time>2015-06-25T11:34:35.000Z</time>
      </trkpt>
      <trkpt lat="48.75931" lon="1.72709">
        <ele>126.5</ele>
        <time>2015-06-25T11:34:42.000Z</time>
      </trkpt>
      <trkpt lat="48.7594" lon="1.72698">
        <ele>126.2</ele>
        <time>2015-06-25T11:34:49.000Z</time>
      </trkpt>
      <trkpt lat="48.75947" lon="1.72692">
        <ele>126</ele>
        <time>2015-06-25T11:34:54.000Z</time>
      </trkpt>
      <trkpt lat="48.75954" lon="1.7268">
        <ele>126</ele>
        <time>2015-06-25T11:35:00.000Z</time>
      </trkpt>
      <trkpt lat="48.7596" lon="1.72675">
        <ele>126</ele>
        <time>2015-06-25T11:35:05.000Z</time>
      </trkpt>
      <trkpt lat="48.75964" lon="1.72672">
        <ele>126</ele>
        <time>2015-06-25T11:35:08.000Z</time>
      </trkpt>
      <trkpt lat="48.75973" lon="1.72664">
        <ele>126</ele>
        <time>2015-06-25T11:35:15.000Z</time>
      </trkpt>
      <trkpt lat="48.7598" lon="1.7266">
        <ele>125.7</ele>
        <time>2015-06-25T11:35:20.000Z</time>
      </trkpt>
      <trkpt lat="48.75981" lon="1.72658">
        <ele>125.7</ele>
        <time>2015-06-25T11:35:21.000Z</time>
      </trkpt>
      <trkpt lat="48.75991" lon="1.72646">
        <ele>125.3</ele>
        <time>2015-06-25T11:35:26.000Z</time>
      </trkpt>
      <trkpt lat="48.76005" lon="1.72633">
        <ele>124.8</ele>
        <time>2015-06-25T11:35:31.000Z</time>
      </trkpt>
      <trkpt lat="48.76022" lon="1.72616">
        <ele>124.2</ele>
        <time>2015-06-25T11:35:37.000Z</time>
      </trkpt>
      <trkpt lat="48.76032" lon="1.72604">
        <ele>124.2</ele>
        <time>2015-06-25T11:35:41.000Z</time>
      </trkpt>
      <trkpt lat="48.76044" lon="1.72592">
        <ele>124.3</ele>
        <time>2015-06-25T11:35:46.000Z</time>
      </trkpt>
      <trkpt lat="48.76054" lon="1.72584">
        <ele>124.1</ele>
        <time>2015-06-25T11:35:50.000Z</time>
      </trkpt>
      <trkpt lat="48.76066" lon="1.7257">
        <ele>123.6</ele>
        <time>2015-06-25T11:35:55.000Z</time>
      </trkpt>
      <trkpt lat="48.76076" lon="1.72557">
        <ele>123.3</ele>
        <time>2015-06-25T11:35:59.000Z</time>
      </trkpt>
      <trkpt lat="48.7609" lon="1.72539">
        <ele>122.8</ele>
        <time>2015-06-25T11:36:04.000Z</time>
      </trkpt>
      <trkpt lat="48.76105" lon="1.72518">
        <ele>122.2</ele>
        <time>2015-06-25T11:36:09.000Z</time>
      </trkpt>
      <trkpt lat="48.76124" lon="1.72497">
        <ele>121.5</ele>
        <time>2015-06-25T11:36:15.000Z</time>
      </trkpt>
      <trkpt lat="48.76137" lon="1.72473">
        <ele>121.1</ele>
        <time>2015-06-25T11:36:21.000Z</time>
      </trkpt>
      <trkpt lat="48.76153" lon="1.7245">
        <ele>120.5</ele>
        <time>2015-06-25T11:36:27.000Z</time>
      </trkpt>
      <trkpt lat="48.76166" lon="1.72426">
        <ele>120.7</ele>
        <time>2015-06-25T11:36:32.000Z</time>
      </trkpt>
      <trkpt lat="48.7618" lon="1.72403">
        <ele>120.3</ele>
        <time>2015-06-25T11:36:38.000Z</time>
      </trkpt>
      <trkpt lat="48.76191" lon="1.72382">
        <ele>120.1</ele>
        <time>2015-06-25T11:36:43.000Z</time>
      </trkpt>
      <trkpt lat="48.76206" lon="1.7236">
        <ele>119.6</ele>
        <time>2015-06-25T11:36:48.000Z</time>
      </trkpt>
      <trkpt lat="48.76218" lon="1.72339">
        <ele>119.1</ele>
        <time>2015-06-25T11:36:53.000Z</time>
      </trkpt>
      <trkpt lat="48.76227" lon="1.72322">
        <ele>118.9</ele>
        <time>2015-06-25T11:36:57.000Z</time>
      </trkpt>
      <trkpt lat="48.7624" lon="1.72295">
        <ele>119</ele>
        <time>2015-06-25T11:37:03.000Z</time>
      </trkpt>
      <trkpt lat="48.76245" lon="1.72274">
        <ele>119</ele>
        <time>2015-06-25T11:37:07.000Z</time>
      </trkpt>
      <trkpt lat="48.76247" lon="1.7227">
        <ele>119</ele>
        <time>2015-06-25T11:37:08.000Z</time>
      </trkpt>
      <trkpt lat="48.76247" lon="1.72247">
        <ele>119</ele>
        <time>2015-06-25T11:37:16.000Z</time>
      </trkpt>
      <trkpt lat="48.76244" lon="1.72237">
        <ele>119</ele>
        <time>2015-06-25T11:37:20.000Z</time>
      </trkpt>
      <trkpt lat="48.76245" lon="1.72226">
        <ele>119</ele>
        <time>2015-06-25T11:37:26.000Z</time>
      </trkpt>
      <trkpt lat="48.76248" lon="1.72198">
        <ele>119</ele>
        <time>2015-06-25T11:37:32.000Z</time>
      </trkpt>
      <trkpt lat="48.76248" lon="1.72171">
        <ele>119</ele>
        <time>2015-06-25T11:37:37.000Z</time>
      </trkpt>
      <trkpt lat="48.76246" lon="1.72143">
        <ele>118.3</ele>
        <time>2015-06-25T11:37:42.000Z</time>
      </trkpt>
      <trkpt lat="48.76245" lon="1.72114">
        <ele>118.9</ele>
        <time>2015-06-25T11:37:47.000Z</time>
      </trkpt>
      <trkpt lat="48.76247" lon="1.72082">
        <ele>119</ele>
        <time>2015-06-25T11:37:53.000Z</time>
      </trkpt>
      <trkpt lat="48.76254" lon="1.72043">
        <ele>118</ele>
        <time>2015-06-25T11:38:00.000Z</time>
      </trkpt>
      <trkpt lat="48.76258" lon="1.72021">
        <ele>118</ele>
        <time>2015-06-25T11:38:04.000Z</time>
      </trkpt>
      <trkpt lat="48.76264" lon="1.71993">
        <ele>118</ele>
        <time>2015-06-25T11:38:09.000Z</time>
      </trkpt>
      <trkpt lat="48.7627" lon="1.71965">
        <ele>118</ele>
        <time>2015-06-25T11:38:14.000Z</time>
      </trkpt>
      <trkpt lat="48.76275" lon="1.71941">
        <ele>118</ele>
        <time>2015-06-25T11:38:18.000Z</time>
      </trkpt>
      <trkpt lat="48.76278" lon="1.71913">
        <ele>118</ele>
        <time>2015-06-25T11:38:23.000Z</time>
      </trkpt>
      <trkpt lat="48.76281" lon="1.71887">
        <ele>117.9</ele>
        <time>2015-06-25T11:38:28.000Z</time>
      </trkpt>
      <trkpt lat="48.76285" lon="1.71866">
        <ele>117.7</ele>
        <time>2015-06-25T11:38:32.000Z</time>
      </trkpt>
      <trkpt lat="48.76291" lon="1.71838">
        <ele>117.5</ele>
        <time>2015-06-25T11:38:37.000Z</time>
      </trkpt>
      <trkpt lat="48.763" lon="1.71813">
        <ele>117.2</ele>
        <time>2015-06-25T11:38:41.000Z</time>
      </trkpt>
      <trkpt lat="48.76308" lon="1.71787">
        <ele>117</ele>
        <time>2015-06-25T11:38:47.000Z</time>
      </trkpt>
      <trkpt lat="48.76316" lon="1.7175">
        <ele>117</ele>
        <time>2015-06-25T11:38:53.000Z</time>
      </trkpt>
      <trkpt lat="48.76319" lon="1.71737">
        <ele>117</ele>
        <time>2015-06-25T11:38:55.000Z</time>
      </trkpt>
      <trkpt lat="48.76321" lon="1.71722">
        <ele>117</ele>
        <time>2015-06-25T11:38:57.000Z</time>
      </trkpt>
      <trkpt lat="48.76329" lon="1.71685">
        <ele>117.1</ele>
        <time>2015-06-25T11:39:03.000Z</time>
      </trkpt>
      <trkpt lat="48.76331" lon="1.71672">
        <ele>117.1</ele>
        <time>2015-06-25T11:39:05.000Z</time>
      </trkpt>
      <trkpt lat="48.76334" lon="1.7165">
        <ele>117</ele>
        <time>2015-06-25T11:39:09.000Z</time>
      </trkpt>
      <trkpt lat="48.76342" lon="1.71609">
        <ele>117</ele>
        <time>2015-06-25T11:39:16.000Z</time>
      </trkpt>
      <trkpt lat="48.76343" lon="1.71595">
        <ele>117</ele>
        <time>2015-06-25T11:39:19.000Z</time>
      </trkpt>
      <trkpt lat="48.76349" lon="1.71567">
        <ele>117</ele>
        <time>2015-06-25T11:39:24.000Z</time>
      </trkpt>
      <trkpt lat="48.76358" lon="1.71547">
        <ele>117</ele>
        <time>2015-06-25T11:39:28.000Z</time>
      </trkpt>
      <trkpt lat="48.7636" lon="1.71527">
        <ele>117</ele>
        <time>2015-06-25T11:39:31.000Z</time>
      </trkpt>
      <trkpt lat="48.7637" lon="1.71493">
        <ele>116.7</ele>
        <time>2015-06-25T11:39:37.000Z</time>
      </trkpt>
      <trkpt lat="48.7638" lon="1.7147">
        <ele>116.4</ele>
        <time>2015-06-25T11:39:41.000Z</time>
      </trkpt>
      <trkpt lat="48.76391" lon="1.71442">
        <ele>117</ele>
        <time>2015-06-25T11:39:47.000Z</time>
      </trkpt>
      <trkpt lat="48.764" lon="1.71425">
        <ele>117</ele>
        <time>2015-06-25T11:39:50.000Z</time>
      </trkpt>
      <trkpt lat="48.76413" lon="1.71388">
        <ele>117.1</ele>
        <time>2015-06-25T11:39:56.000Z</time>
      </trkpt>
      <trkpt lat="48.76419" lon="1.71362">
        <ele>117</ele>
        <time>2015-06-25T11:40:00.000Z</time>
      </trkpt>
      <trkpt lat="48.7642" lon="1.71356">
        <ele>117</ele>
        <time>2015-06-25T11:40:01.000Z</time>
      </trkpt>
      <trkpt lat="48.76432" lon="1.7132">
        <ele>117.5</ele>
        <time>2015-06-25T11:40:08.000Z</time>
      </trkpt>
      <trkpt lat="48.76443" lon="1.71303">
        <ele>118</ele>
        <time>2015-06-25T11:40:12.000Z</time>
      </trkpt>
      <trkpt lat="48.76457" lon="1.71285">
        <ele>117.5</ele>
        <time>2015-06-25T11:40:17.000Z</time>
      </trkpt>
      <trkpt lat="48.7647" lon="1.71263">
        <ele>117.6</ele>
        <time>2015-06-25T11:40:22.000Z</time>
      </trkpt>
      <trkpt lat="48.76484" lon="1.71238">
        <ele>118</ele>
        <time>2015-06-25T11:40:28.000Z</time>
      </trkpt>
      <trkpt lat="48.765" lon="1.71209">
        <ele>118</ele>
        <time>2015-06-25T11:40:34.000Z</time>
      </trkpt>
      <trkpt lat="48.76514" lon="1.71182">
        <ele>118.2</ele>
        <time>2015-06-25T11:40:40.000Z</time>
      </trkpt>
      <trkpt lat="48.76524" lon="1.71163">
        <ele>118.3</ele>
        <time>2015-06-25T11:40:44.000Z</time>
      </trkpt>
      <trkpt lat="48.76536" lon="1.71141">
        <ele>118.6</ele>
        <time>2015-06-25T11:40:49.000Z</time>
      </trkpt>
      <trkpt lat="48.76543" lon="1.71129">
        <ele>118.8</ele>
        <time>2015-06-25T11:40:53.000Z</time>
      </trkpt>
      <trkpt lat="48.76548" lon="1.71122">
        <ele>118.9</ele>
        <time>2015-06-25T11:40:55.000Z</time>
      </trkpt>
      <trkpt lat="48.7656" lon="1.71112">
        <ele>118.8</ele>
        <time>2015-06-25T11:40:59.000Z</time>
      </trkpt>
      <trkpt lat="48.76582" lon="1.71097">
        <ele>118.6</ele>
        <time>2015-06-25T11:41:03.000Z</time>
      </trkpt>
      <trkpt lat="48.76599" lon="1.71086">
        <ele>118.3</ele>
        <time>2015-06-25T11:41:08.000Z</time>
      </trkpt>
      <trkpt lat="48.76605" lon="1.71074">
        <ele>118.2</ele>
        <time>2015-06-25T11:41:15.000Z</time>
      </trkpt>
      <trkpt lat="48.76611" lon="1.71061">
        <ele>118</ele>
        <time>2015-06-25T11:41:20.000Z</time>
      </trkpt>
      <trkpt lat="48.7662" lon="1.71049">
        <ele>118.2</ele>
        <time>2015-06-25T11:41:25.000Z</time>
      </trkpt>
      <trkpt lat="48.76627" lon="1.71041">
        <ele>118.2</ele>
        <time>2015-06-25T11:41:31.000Z</time>
      </trkpt>
      <trkpt lat="48.76636" lon="1.7103">
        <ele>118.1</ele>
        <time>2015-06-25T11:41:38.000Z</time>
      </trkpt>
      <trkpt lat="48.76645" lon="1.71018">
        <ele>118.1</ele>
        <time>2015-06-25T11:41:45.000Z</time>
      </trkpt>
      <trkpt lat="48.76654" lon="1.71006">
        <ele>118.2</ele>
        <time>2015-06-25T11:41:53.000Z</time>
      </trkpt>
      <trkpt lat="48.76667" lon="1.70986">
        <ele>118.5</ele>
        <time>2015-06-25T11:42:05.000Z</time>
      </trkpt>
      <trkpt lat="48.76678" lon="1.70973">
        <ele>118.6</ele>
        <time>2015-06-25T11:42:13.000Z</time>
      </trkpt>
      <trkpt lat="48.76687" lon="1.7096">
        <ele>118.6</ele>
        <time>2015-06-25T11:42:18.000Z</time>
      </trkpt>
      <trkpt lat="48.76697" lon="1.70946">
        <ele>118.9</ele>
        <time>2015-06-25T11:42:27.000Z</time>
      </trkpt>
      <trkpt lat="48.76703" lon="1.70937">
        <ele>118.8</ele>
        <time>2015-06-25T11:42:32.000Z</time>
      </trkpt>
      <trkpt lat="48.76709" lon="1.70929">
        <ele>118.8</ele>
        <time>2015-06-25T11:42:36.000Z</time>
      </trkpt>
      <trkpt lat="48.76716" lon="1.70916">
        <ele>119</ele>
        <time>2015-06-25T11:42:41.000Z</time>
      </trkpt>
      <trkpt lat="48.76722" lon="1.70907">
        <ele>119</ele>
        <time>2015-06-25T11:42:47.000Z</time>
      </trkpt>
      <trkpt lat="48.76732" lon="1.70893">
        <ele>118.6</ele>
        <time>2015-06-25T11:42:54.000Z</time>
      </trkpt>
      <trkpt lat="48.76737" lon="1.70885">
        <ele>118.5</ele>
        <time>2015-06-25T11:42:59.000Z</time>
      </trkpt>
      <trkpt lat="48.76745" lon="1.70872">
        <ele>118.2</ele>
        <time>2015-06-25T11:43:05.000Z</time>
      </trkpt>
      <trkpt lat="48.7675" lon="1.70863">
        <ele>118</ele>
        <time>2015-06-25T11:43:09.000Z</time>
      </trkpt>
      <trkpt lat="48.76759" lon="1.7085">
        <ele>118.3</ele>
        <time>2015-06-25T11:43:17.000Z</time>
      </trkpt>
      <trkpt lat="48.76768" lon="1.70837">
        <ele>118.3</ele>
        <time>2015-06-25T11:43:24.000Z</time>
      </trkpt>
      <trkpt lat="48.76775" lon="1.70825">
        <ele>118.4</ele>
        <time>2015-06-25T11:43:29.000Z</time>
      </trkpt>
      <trkpt lat="48.76783" lon="1.70813">
        <ele>118.5</ele>
        <time>2015-06-25T11:43:35.000Z</time>
      </trkpt>
      <trkpt lat="48.76793" lon="1.70798">
        <ele>118.3</ele>
        <time>2015-06-25T11:43:44.000Z</time>
      </trkpt>
      <trkpt lat="48.76802" lon="1.70788">
        <ele>118.1</ele>
        <time>2015-06-25T11:43:51.000Z</time>
      </trkpt>
      <trkpt lat="48.76807" lon="1.70779">
        <ele>118</ele>
        <time>2015-06-25T11:43:56.000Z</time>
      </trkpt>
      <trkpt lat="48.76811" lon="1.70774">
        <ele>117.8</ele>
        <time>2015-06-25T11:44:00.000Z</time>
      </trkpt>
      <trkpt lat="48.76822" lon="1.70759">
        <ele>117.8</ele>
        <time>2015-06-25T11:44:07.000Z</time>
      </trkpt>
      <trkpt lat="48.76828" lon="1.7075">
        <ele>118</ele>
        <time>2015-06-25T11:44:13.000Z</time>
      </trkpt>
      <trkpt lat="48.76835" lon="1.70739">
        <ele>118</ele>
        <time>2015-06-25T11:44:20.000Z</time>
      </trkpt>
      <trkpt lat="48.76841" lon="1.70732">
        <ele>117.9</ele>
        <time>2015-06-25T11:44:25.000Z</time>
      </trkpt>
      <trkpt lat="48.76848" lon="1.70722">
        <ele>118</ele>
        <time>2015-06-25T11:44:31.000Z</time>
      </trkpt>
      <trkpt lat="48.76853" lon="1.70716">
        <ele>118.1</ele>
        <time>2015-06-25T11:44:35.000Z</time>
      </trkpt>
      <trkpt lat="48.76858" lon="1.70707">
        <ele>118.1</ele>
        <time>2015-06-25T11:44:40.000Z</time>
      </trkpt>
      <trkpt lat="48.76867" lon="1.70697">
        <ele>117.8</ele>
        <time>2015-06-25T11:44:48.000Z</time>
      </trkpt>
      <trkpt lat="48.76871" lon="1.70691">
        <ele>117.8</ele>
        <time>2015-06-25T11:44:52.000Z</time>
      </trkpt>
      <trkpt lat="48.76877" lon="1.70682">
        <ele>117.9</ele>
        <time>2015-06-25T11:44:57.000Z</time>
      </trkpt>
      <trkpt lat="48.76884" lon="1.70669">
        <ele>118.1</ele>
        <time>2015-06-25T11:45:03.000Z</time>
      </trkpt>
      <trkpt lat="48.76891" lon="1.70659">
        <ele>117.9</ele>
        <time>2015-06-25T11:45:09.000Z</time>
      </trkpt>
      <trkpt lat="48.76895" lon="1.70651">
        <ele>117.8</ele>
        <time>2015-06-25T11:45:14.000Z</time>
      </trkpt>
      <trkpt lat="48.76899" lon="1.70644">
        <ele>117.6</ele>
        <time>2015-06-25T11:45:19.000Z</time>
      </trkpt>
      <trkpt lat="48.76905" lon="1.70638">
        <ele>117.5</ele>
        <time>2015-06-25T11:45:23.000Z</time>
      </trkpt>
      <trkpt lat="48.7691" lon="1.70629">
        <ele>117.6</ele>
        <time>2015-06-25T11:45:29.000Z</time>
      </trkpt>
      <trkpt lat="48.76911" lon="1.70627">
        <ele>117.7</ele>
        <time>2015-06-25T11:45:30.000Z</time>
      </trkpt>
      <trkpt lat="48.7692" lon="1.70615">
        <ele>117.7</ele>
        <time>2015-06-25T11:45:37.000Z</time>
      </trkpt>
      <trkpt lat="48.76926" lon="1.70607">
        <ele>117.7</ele>
        <time>2015-06-25T11:45:42.000Z</time>
      </trkpt>
      <trkpt lat="48.76932" lon="1.70597">
        <ele>117.4</ele>
        <time>2015-06-25T11:45:47.000Z</time>
      </trkpt>
      <trkpt lat="48.76938" lon="1.70591">
        <ele>117.2</ele>
        <time>2015-06-25T11:45:52.000Z</time>
      </trkpt>
      <trkpt lat="48.76944" lon="1.70582">
        <ele>117.1</ele>
        <time>2015-06-25T11:45:58.000Z</time>
      </trkpt>
      <trkpt lat="48.76952" lon="1.70571">
        <ele>117.2</ele>
        <time>2015-06-25T11:46:05.000Z</time>
      </trkpt>
      <trkpt lat="48.76953" lon="1.70567">
        <ele>117.3</ele>
        <time>2015-06-25T11:46:07.000Z</time>
      </trkpt>
      <trkpt lat="48.76962" lon="1.70554">
        <ele>117.4</ele>
        <time>2015-06-25T11:46:15.000Z</time>
      </trkpt>
      <trkpt lat="48.76965" lon="1.70551">
        <ele>117.3</ele>
        <time>2015-06-25T11:46:17.000Z</time>
      </trkpt>
      <trkpt lat="48.76976" lon="1.70537">
        <ele>116.9</ele>
        <time>2015-06-25T11:46:25.000Z</time>
      </trkpt>
      <trkpt lat="48.7698" lon="1.70529">
        <ele>116.7</ele>
        <time>2015-06-25T11:46:29.000Z</time>
      </trkpt>
      <trkpt lat="48.76987" lon="1.70519">
        <ele>116.6</ele>
        <time>2015-06-25T11:46:35.000Z</time>
      </trkpt>
      <trkpt lat="48.76988" lon="1.70514">
        <ele>116.6</ele>
        <time>2015-06-25T11:46:37.000Z</time>
      </trkpt>
      <trkpt lat="48.76996" lon="1.70507">
        <ele>116.3</ele>
        <time>2015-06-25T11:46:41.000Z</time>
      </trkpt>
      <trkpt lat="48.77002" lon="1.70497">
        <ele>116</ele>
        <time>2015-06-25T11:46:47.000Z</time>
      </trkpt>
      <trkpt lat="48.77006" lon="1.70488">
        <ele>116.1</ele>
        <time>2015-06-25T11:46:52.000Z</time>
      </trkpt>
      <trkpt lat="48.77011" lon="1.70482">
        <ele>116</ele>
        <time>2015-06-25T11:46:56.000Z</time>
      </trkpt>
      <trkpt lat="48.77019" lon="1.70473">
        <ele>115.6</ele>
        <time>2015-06-25T11:47:03.000Z</time>
      </trkpt>
      <trkpt lat="48.77023" lon="1.70468">
        <ele>115.5</ele>
        <time>2015-06-25T11:47:08.000Z</time>
      </trkpt>
      <trkpt lat="48.7703" lon="1.70461">
        <ele>115.3</ele>
        <time>2015-06-25T11:47:14.000Z</time>
      </trkpt>
      <trkpt lat="48.77036" lon="1.70456">
        <ele>115.1</ele>
        <time>2015-06-25T11:47:19.000Z</time>
      </trkpt>
      <trkpt lat="48.77038" lon="1.70454">
        <ele>115</ele>
        <time>2015-06-25T11:47:21.000Z</time>
      </trkpt>
      <trkpt lat="48.77045" lon="1.70452">
        <ele>114.6</ele>
        <time>2015-06-25T11:47:26.000Z</time>
      </trkpt>
      <trkpt lat="48.77051" lon="1.70453">
        <ele>114.3</ele>
        <time>2015-06-25T11:47:30.000Z</time>
      </trkpt>
      <trkpt lat="48.77055" lon="1.70456">
        <ele>114</ele>
        <time>2015-06-25T11:47:34.000Z</time>
      </trkpt>
      <trkpt lat="48.77062" lon="1.70461">
        <ele>113.8</ele>
        <time>2015-06-25T11:47:40.000Z</time>
      </trkpt>
      <trkpt lat="48.77072" lon="1.70464">
        <ele>113.4</ele>
        <time>2015-06-25T11:47:46.000Z</time>
      </trkpt>
      <trkpt lat="48.77072" lon="1.70468">
        <ele>113.4</ele>
        <time>2015-06-25T11:47:51.000Z</time>
      </trkpt>
      <trkpt lat="48.77071" lon="1.70477">
        <ele>113.4</ele>
        <time>2015-06-25T11:47:56.000Z</time>
      </trkpt>
      <trkpt lat="48.77073" lon="1.70478">
        <ele>113.4</ele>
        <time>2015-06-25T11:48:01.000Z</time>
      </trkpt>
      <trkpt lat="48.77071" lon="1.70463">
        <ele>113.4</ele>
        <time>2015-06-25T11:51:12.000Z</time>
      </trkpt>
      <trkpt lat="48.77076" lon="1.70458">
        <ele>113.3</ele>
        <time>2015-06-25T11:51:16.000Z</time>
      </trkpt>
      <trkpt lat="48.77081" lon="1.70457">
        <ele>113.1</ele>
        <time>2015-06-25T11:51:21.000Z</time>
      </trkpt>
      <trkpt lat="48.7709" lon="1.7046">
        <ele>113.1</ele>
        <time>2015-06-25T11:51:28.000Z</time>
      </trkpt>
      <trkpt lat="48.77099" lon="1.70464">
        <ele>113.4</ele>
        <time>2015-06-25T11:51:36.000Z</time>
      </trkpt>
      <trkpt lat="48.77109" lon="1.70465">
        <ele>113.7</ele>
        <time>2015-06-25T11:51:44.000Z</time>
      </trkpt>
      <trkpt lat="48.77119" lon="1.7046">
        <ele>113.6</ele>
        <time>2015-06-25T11:51:51.000Z</time>
      </trkpt>
      <trkpt lat="48.77131" lon="1.70463">
        <ele>113.7</ele>
        <time>2015-06-25T11:51:59.000Z</time>
      </trkpt>
      <trkpt lat="48.77134" lon="1.70464">
        <ele>113.7</ele>
        <time>2015-06-25T11:52:01.000Z</time>
      </trkpt>
      <trkpt lat="48.77143" lon="1.70465">
        <ele>113.7</ele>
        <time>2015-06-25T11:52:08.000Z</time>
      </trkpt>
      <trkpt lat="48.77145" lon="1.70465">
        <ele>113.7</ele>
        <time>2015-06-25T11:52:10.000Z</time>
      </trkpt>
      <trkpt lat="48.77153" lon="1.70465">
        <ele>113.6</ele>
        <time>2015-06-25T11:52:16.000Z</time>
      </trkpt>
      <trkpt lat="48.7716" lon="1.70466">
        <ele>113.6</ele>
        <time>2015-06-25T11:52:23.000Z</time>
      </trkpt>
      <trkpt lat="48.77168" lon="1.70465">
        <ele>113.4</ele>
        <time>2015-06-25T11:52:30.000Z</time>
      </trkpt>
      <trkpt lat="48.77169" lon="1.70465">
        <ele>113.4</ele>
        <time>2015-06-25T11:52:31.000Z</time>
      </trkpt>
      <trkpt lat="48.77179" lon="1.70468">
        <ele>113.3</ele>
        <time>2015-06-25T11:52:39.000Z</time>
      </trkpt>
      <trkpt lat="48.77182" lon="1.70467">
        <ele>113.2</ele>
        <time>2015-06-25T11:52:41.000Z</time>
      </trkpt>
      <trkpt lat="48.77191" lon="1.7047">
        <ele>113</ele>
        <time>2015-06-25T11:52:49.000Z</time>
      </trkpt>
      <trkpt lat="48.77197" lon="1.7047">
        <ele>113</ele>
        <time>2015-06-25T11:52:54.000Z</time>
      </trkpt>
      <trkpt lat="48.77204" lon="1.70467">
        <ele>113.2</ele>
        <time>2015-06-25T11:53:00.000Z</time>
      </trkpt>
      <trkpt lat="48.77213" lon="1.70466">
        <ele>113.4</ele>
        <time>2015-06-25T11:53:08.000Z</time>
      </trkpt>
      <trkpt lat="48.77221" lon="1.70467">
        <ele>113.8</ele>
        <time>2015-06-25T11:53:15.000Z</time>
      </trkpt>
      <trkpt lat="48.77226" lon="1.70467">
        <ele>113.9</ele>
        <time>2015-06-25T11:53:19.000Z</time>
      </trkpt>
      <trkpt lat="48.77232" lon="1.7047">
        <ele>114</ele>
        <time>2015-06-25T11:53:25.000Z</time>
      </trkpt>
      <trkpt lat="48.77233" lon="1.7047">
        <ele>114</ele>
        <time>2015-06-25T11:53:26.000Z</time>
      </trkpt>
      <trkpt lat="48.77238" lon="1.7047">
        <ele>114</ele>
        <time>2015-06-25T11:53:34.000Z</time>
      </trkpt>
      <trkpt lat="48.77238" lon="1.7047">
        <ele>114</ele>
        <time>2015-06-25T11:53:35.000Z</time>
      </trkpt>
      <trkpt lat="48.77248" lon="1.70471">
        <ele>114</ele>
        <time>2015-06-25T11:53:42.000Z</time>
      </trkpt>
      <trkpt lat="48.77252" lon="1.7047">
        <ele>114.1</ele>
        <time>2015-06-25T11:53:46.000Z</time>
      </trkpt>
      <trkpt lat="48.7726" lon="1.70471">
        <ele>114</ele>
        <time>2015-06-25T11:53:52.000Z</time>
      </trkpt>
      <trkpt lat="48.77265" lon="1.70471">
        <ele>114</ele>
        <time>2015-06-25T11:53:55.000Z</time>
      </trkpt>
      <trkpt lat="48.77269" lon="1.7047">
        <ele>114</ele>
        <time>2015-06-25T11:54:00.000Z</time>
      </trkpt>
      <trkpt lat="48.7727" lon="1.7047">
        <ele>114</ele>
        <time>2015-06-25T11:54:01.000Z</time>
      </trkpt>
      <trkpt lat="48.77279" lon="1.70468">
        <ele>114</ele>
        <time>2015-06-25T11:54:09.000Z</time>
      </trkpt>
      <trkpt lat="48.77281" lon="1.70467">
        <ele>114.1</ele>
        <time>2015-06-25T11:54:11.000Z</time>
      </trkpt>
      <trkpt lat="48.77292" lon="1.7047">
        <ele>114.5</ele>
        <time>2015-06-25T11:54:18.000Z</time>
      </trkpt>
      <trkpt lat="48.77297" lon="1.70471">
        <ele>114.7</ele>
        <time>2015-06-25T11:54:22.000Z</time>
      </trkpt>
      <trkpt lat="48.77302" lon="1.70472">
        <ele>114.9</ele>
        <time>2015-06-25T11:54:27.000Z</time>
      </trkpt>
      <trkpt lat="48.77303" lon="1.70472">
        <ele>114.9</ele>
        <time>2015-06-25T11:54:28.000Z</time>
      </trkpt>
      <trkpt lat="48.77305" lon="1.70472">
        <ele>115</ele>
        <time>2015-06-25T11:54:30.000Z</time>
      </trkpt>
      <trkpt lat="48.77314" lon="1.7047">
        <ele>115</ele>
        <time>2015-06-25T11:54:36.000Z</time>
      </trkpt>
      <trkpt lat="48.77321" lon="1.70468">
        <ele>115</ele>
        <time>2015-06-25T11:54:43.000Z</time>
      </trkpt>
      <trkpt lat="48.77322" lon="1.70467">
        <ele>115</ele>
        <time>2015-06-25T11:54:45.000Z</time>
      </trkpt>
      <trkpt lat="48.77325" lon="1.70466">
        <ele>115</ele>
        <time>2015-06-25T11:54:48.000Z</time>
      </trkpt>
      <trkpt lat="48.7733" lon="1.70463">
        <ele>115</ele>
        <time>2015-06-25T11:54:54.000Z</time>
      </trkpt>
      <trkpt lat="48.77332" lon="1.70464">
        <ele>115</ele>
        <time>2015-06-25T11:54:57.000Z</time>
      </trkpt>
      <trkpt lat="48.77337" lon="1.70464">
        <ele>115</ele>
        <time>2015-06-25T11:54:59.000Z</time>
      </trkpt>
      <trkpt lat="48.77347" lon="1.70463">
        <ele>115</ele>
        <time>2015-06-25T11:55:06.000Z</time>
      </trkpt>
      <trkpt lat="48.77349" lon="1.70464">
        <ele>115</ele>
        <time>2015-06-25T11:55:08.000Z</time>
      </trkpt>
      <trkpt lat="48.77354" lon="1.70465">
        <ele>115</ele>
        <time>2015-06-25T11:55:12.000Z</time>
      </trkpt>
      <trkpt lat="48.77363" lon="1.70466">
        <ele>115.1</ele>
        <time>2015-06-25T11:55:20.000Z</time>
      </trkpt>
      <trkpt lat="48.7737" lon="1.70467">
        <ele>115.3</ele>
        <time>2015-06-25T11:55:25.000Z</time>
      </trkpt>
      <trkpt lat="48.77375" lon="1.70469">
        <ele>115.5</ele>
        <time>2015-06-25T11:55:31.000Z</time>
      </trkpt>
      <trkpt lat="48.77387" lon="1.70473">
        <ele>115.9</ele>
        <time>2015-06-25T11:55:39.000Z</time>
      </trkpt>
      <trkpt lat="48.77391" lon="1.70475">
        <ele>116.2</ele>
        <time>2015-06-25T11:55:42.000Z</time>
      </trkpt>
      <trkpt lat="48.77399" lon="1.70485">
        <ele>117.1</ele>
        <time>2015-06-25T11:55:50.000Z</time>
      </trkpt>
      <trkpt lat="48.77405" lon="1.70495">
        <ele>117.7</ele>
        <time>2015-06-25T11:55:57.000Z</time>
      </trkpt>
      <trkpt lat="48.77409" lon="1.70498">
        <ele>118.2</ele>
        <time>2015-06-25T11:56:01.000Z</time>
      </trkpt>
      <trkpt lat="48.77414" lon="1.70503">
        <ele>118.7</ele>
        <time>2015-06-25T11:56:08.000Z</time>
      </trkpt>
      <trkpt lat="48.77417" lon="1.70507">
        <ele>119.1</ele>
        <time>2015-06-25T11:56:11.000Z</time>
      </trkpt>
      <trkpt lat="48.77422" lon="1.70511">
        <ele>119.4</ele>
        <time>2015-06-25T11:56:15.000Z</time>
      </trkpt>
      <trkpt lat="48.77428" lon="1.70516">
        <ele>119.8</ele>
        <time>2015-06-25T11:56:21.000Z</time>
      </trkpt>
      <trkpt lat="48.77436" lon="1.70523">
        <ele>120.4</ele>
        <time>2015-06-25T11:56:29.000Z</time>
      </trkpt>
      <trkpt lat="48.77444" lon="1.70533">
        <ele>121</ele>
        <time>2015-06-25T11:56:37.000Z</time>
      </trkpt>
      <trkpt lat="48.77452" lon="1.70541">
        <ele>121.3</ele>
        <time>2015-06-25T11:56:43.000Z</time>
      </trkpt>
      <trkpt lat="48.77457" lon="1.70548">
        <ele>121.4</ele>
        <time>2015-06-25T11:56:48.000Z</time>
      </trkpt>
      <trkpt lat="48.77463" lon="1.7055">
        <ele>121.7</ele>
        <time>2015-06-25T11:56:54.000Z</time>
      </trkpt>
      <trkpt lat="48.77464" lon="1.70551">
        <ele>121.7</ele>
        <time>2015-06-25T11:56:56.000Z</time>
      </trkpt>
      <trkpt lat="48.7747" lon="1.70554">
        <ele>121.9</ele>
        <time>2015-06-25T11:57:03.000Z</time>
      </trkpt>
      <trkpt lat="48.77473" lon="1.70556">
        <ele>122</ele>
        <time>2015-06-25T11:57:10.000Z</time>
      </trkpt>
      <trkpt lat="48.77473" lon="1.70556">
        <ele>122</ele>
        <time>2015-06-25T11:57:11.000Z</time>
      </trkpt>
      <trkpt lat="48.77481" lon="1.70538">
        <ele>122.1</ele>
        <time>2015-06-25T11:57:40.000Z</time>
      </trkpt>
      <trkpt lat="48.77486" lon="1.70523">
        <ele>122</ele>
        <time>2015-06-25T11:57:47.000Z</time>
      </trkpt>
      <trkpt lat="48.77486" lon="1.7052">
        <ele>122</ele>
        <time>2015-06-25T11:57:49.000Z</time>
      </trkpt>
      <trkpt lat="48.77485" lon="1.70515">
        <ele>122</ele>
        <time>2015-06-25T11:57:53.000Z</time>
      </trkpt>
      <trkpt lat="48.77483" lon="1.70509">
        <ele>122</ele>
        <time>2015-06-25T11:57:57.000Z</time>
      </trkpt>
      <trkpt lat="48.77482" lon="1.70502">
        <ele>122</ele>
        <time>2015-06-25T11:58:02.000Z</time>
      </trkpt>
      <trkpt lat="48.77479" lon="1.70499">
        <ele>122</ele>
        <time>2015-06-25T11:58:08.000Z</time>
      </trkpt>
      <trkpt lat="48.7748" lon="1.70499">
        <ele>122</ele>
        <time>2015-06-25T11:58:10.000Z</time>
      </trkpt>
      <trkpt lat="48.77474" lon="1.70498">
        <ele>121.9</ele>
        <time>2015-06-25T11:59:03.000Z</time>
      </trkpt>
      <trkpt lat="48.77477" lon="1.70498">
        <ele>121.9</ele>
        <time>2015-06-25T11:59:08.000Z</time>
      </trkpt>
      <trkpt lat="48.77479" lon="1.70499">
        <ele>122</ele>
        <time>2015-06-25T11:59:39.000Z</time>
      </trkpt>
      <trkpt lat="48.7748" lon="1.70499">
        <ele>122</ele>
        <time>2015-06-25T11:59:40.000Z</time>
      </trkpt>
      <trkpt lat="48.77478" lon="1.70503">
        <ele>122</ele>
        <time>2015-06-25T11:59:46.000Z</time>
      </trkpt>
      <trkpt lat="48.77478" lon="1.70503">
        <ele>122</ele>
        <time>2015-06-25T11:59:47.000Z</time>
      </trkpt>
      <trkpt lat="48.76968" lon="1.71376">
        <ele>128.7</ele>
        <time>2015-06-25T13:36:37.000Z</time>
      </trkpt>
      <trkpt lat="48.76961" lon="1.71386">
        <ele>129.6</ele>
        <time>2015-06-25T13:36:43.000Z</time>
      </trkpt>
      <trkpt lat="48.76954" lon="1.71393">
        <ele>130.6</ele>
        <time>2015-06-25T13:36:48.000Z</time>
      </trkpt>
      <trkpt lat="48.76946" lon="1.71408">
        <ele>132.2</ele>
        <time>2015-06-25T13:36:57.000Z</time>
      </trkpt>
      <trkpt lat="48.76943" lon="1.71418">
        <ele>133.1</ele>
        <time>2015-06-25T13:37:05.000Z</time>
      </trkpt>
      <trkpt lat="48.7694" lon="1.71423">
        <ele>133.2</ele>
        <time>2015-06-25T13:37:10.000Z</time>
      </trkpt>
      <trkpt lat="48.76935" lon="1.71433">
        <ele>133.6</ele>
        <time>2015-06-25T13:37:16.000Z</time>
      </trkpt>
      <trkpt lat="48.7693" lon="1.71441">
        <ele>133.9</ele>
        <time>2015-06-25T13:37:22.000Z</time>
      </trkpt>
      <trkpt lat="48.76921" lon="1.71448">
        <ele>134.2</ele>
        <time>2015-06-25T13:37:28.000Z</time>
      </trkpt>
      <trkpt lat="48.76916" lon="1.71458">
        <ele>134.4</ele>
        <time>2015-06-25T13:37:33.000Z</time>
      </trkpt>
      <trkpt lat="48.76914" lon="1.71461">
        <ele>134.3</ele>
        <time>2015-06-25T13:37:35.000Z</time>
      </trkpt>
      <trkpt lat="48.76911" lon="1.71463">
        <ele>134.2</ele>
        <time>2015-06-25T13:37:37.000Z</time>
      </trkpt>
      <trkpt lat="48.76901" lon="1.71479">
        <ele>134.4</ele>
        <time>2015-06-25T13:37:47.000Z</time>
      </trkpt>
      <trkpt lat="48.76893" lon="1.71491">
        <ele>134.7</ele>
        <time>2015-06-25T13:37:55.000Z</time>
      </trkpt>
      <trkpt lat="48.76886" lon="1.71501">
        <ele>134.8</ele>
        <time>2015-06-25T13:38:02.000Z</time>
      </trkpt>
      <trkpt lat="48.76884" lon="1.71503">
        <ele>134.8</ele>
        <time>2015-06-25T13:38:03.000Z</time>
      </trkpt>
      <trkpt lat="48.76881" lon="1.7151">
        <ele>134.9</ele>
        <time>2015-06-25T13:38:10.000Z</time>
      </trkpt>
      <trkpt lat="48.76889" lon="1.71485">
        <ele>134</ele>
        <time>2015-06-25T13:39:00.000Z</time>
      </trkpt>
      <trkpt lat="48.76896" lon="1.71475">
        <ele>133.7</ele>
        <time>2015-06-25T13:39:05.000Z</time>
      </trkpt>
      <trkpt lat="48.76904" lon="1.71466">
        <ele>133.7</ele>
        <time>2015-06-25T13:39:11.000Z</time>
      </trkpt>
      <trkpt lat="48.76909" lon="1.71456">
        <ele>133.8</ele>
        <time>2015-06-25T13:39:17.000Z</time>
      </trkpt>
      <trkpt lat="48.76919" lon="1.7144">
        <ele>133.8</ele>
        <time>2015-06-25T13:39:27.000Z</time>
      </trkpt>
      <trkpt lat="48.76924" lon="1.71434">
        <ele>133.6</ele>
        <time>2015-06-25T13:39:32.000Z</time>
      </trkpt>
      <trkpt lat="48.76928" lon="1.71428">
        <ele>133.4</ele>
        <time>2015-06-25T13:39:36.000Z</time>
      </trkpt>
      <trkpt lat="48.76935" lon="1.71417">
        <ele>133</ele>
        <time>2015-06-25T13:39:43.000Z</time>
      </trkpt>
      <trkpt lat="48.76939" lon="1.71411">
        <ele>132.6</ele>
        <time>2015-06-25T13:39:47.000Z</time>
      </trkpt>
      <trkpt lat="48.76939" lon="1.7141">
        <ele>132.5</ele>
        <time>2015-06-25T13:39:51.000Z</time>
      </trkpt>
      <trkpt lat="48.76941" lon="1.71408">
        <ele>132.4</ele>
        <time>2015-06-25T13:39:55.000Z</time>
      </trkpt>
      <trkpt lat="48.76943" lon="1.71404">
        <ele>132.1</ele>
        <time>2015-06-25T13:40:01.000Z</time>
      </trkpt>
      <trkpt lat="48.76947" lon="1.71393">
        <ele>131.1</ele>
        <time>2015-06-25T13:40:13.000Z</time>
      </trkpt>
      <trkpt lat="48.76956" lon="1.71381">
        <ele>129.6</ele>
        <time>2015-06-25T13:40:20.000Z</time>
      </trkpt>
      <trkpt lat="48.7696" lon="1.71372">
        <ele>128.7</ele>
        <time>2015-06-25T13:40:26.000Z</time>
      </trkpt>
      <trkpt lat="48.76962" lon="1.71369">
        <ele>128.5</ele>
        <time>2015-06-25T13:40:28.000Z</time>
      </trkpt>
      <trkpt lat="48.76966" lon="1.7136">
        <ele>128</ele>
        <time>2015-06-25T13:40:34.000Z</time>
      </trkpt>
      <trkpt lat="48.76971" lon="1.71348">
        <ele>127.6</ele>
        <time>2015-06-25T13:40:42.000Z</time>
      </trkpt>
      <trkpt lat="48.76973" lon="1.71341">
        <ele>127.2</ele>
        <time>2015-06-25T13:40:48.000Z</time>
      </trkpt>
      <trkpt lat="48.76982" lon="1.71333">
        <ele>126.6</ele>
        <time>2015-06-25T13:40:53.000Z</time>
      </trkpt>
      <trkpt lat="48.76988" lon="1.7132">
        <ele>126</ele>
        <time>2015-06-25T13:41:00.000Z</time>
      </trkpt>
      <trkpt lat="48.76989" lon="1.71315">
        <ele>125.7</ele>
        <time>2015-06-25T13:41:04.000Z</time>
      </trkpt>
      <trkpt lat="48.76994" lon="1.71304">
        <ele>125.2</ele>
        <time>2015-06-25T13:41:10.000Z</time>
      </trkpt>
      <trkpt lat="48.76996" lon="1.713">
        <ele>124.9</ele>
        <time>2015-06-25T13:41:13.000Z</time>
      </trkpt>
      <trkpt lat="48.77003" lon="1.71291">
        <ele>124.5</ele>
        <time>2015-06-25T13:41:19.000Z</time>
      </trkpt>
      <trkpt lat="48.77008" lon="1.71281">
        <ele>124.1</ele>
        <time>2015-06-25T13:41:25.000Z</time>
      </trkpt>
      <trkpt lat="48.7701" lon="1.71272">
        <ele>123.8</ele>
        <time>2015-06-25T13:41:30.000Z</time>
      </trkpt>
      <trkpt lat="48.77013" lon="1.71264">
        <ele>123.5</ele>
        <time>2015-06-25T13:41:35.000Z</time>
      </trkpt>
      <trkpt lat="48.77015" lon="1.71258">
        <ele>123.3</ele>
        <time>2015-06-25T13:41:40.000Z</time>
      </trkpt>
      <trkpt lat="48.77019" lon="1.71253">
        <ele>123.1</ele>
        <time>2015-06-25T13:41:44.000Z</time>
      </trkpt>
      <trkpt lat="48.77021" lon="1.71249">
        <ele>123</ele>
        <time>2015-06-25T13:41:47.000Z</time>
      </trkpt>
      <trkpt lat="48.77024" lon="1.71237">
        <ele>122.5</ele>
        <time>2015-06-25T13:41:55.000Z</time>
      </trkpt>
      <trkpt lat="48.77027" lon="1.71228">
        <ele>122.2</ele>
        <time>2015-06-25T13:42:01.000Z</time>
      </trkpt>
      <trkpt lat="48.77032" lon="1.71217">
        <ele>122</ele>
        <time>2015-06-25T13:42:07.000Z</time>
      </trkpt>
      <trkpt lat="48.77032" lon="1.71214">
        <ele>122</ele>
        <time>2015-06-25T13:42:09.000Z</time>
      </trkpt>
      <trkpt lat="48.77034" lon="1.71207">
        <ele>122</ele>
        <time>2015-06-25T13:42:14.000Z</time>
      </trkpt>
      <trkpt lat="48.77035" lon="1.71204">
        <ele>122</ele>
        <time>2015-06-25T13:42:15.000Z</time>
      </trkpt>
      <trkpt lat="48.77035" lon="1.712">
        <ele>122</ele>
        <time>2015-06-25T13:42:17.000Z</time>
      </trkpt>
      <trkpt lat="48.77041" lon="1.71195">
        <ele>122</ele>
        <time>2015-06-25T13:42:22.000Z</time>
      </trkpt>
      <trkpt lat="48.77045" lon="1.71189">
        <ele>121.8</ele>
        <time>2015-06-25T13:42:25.000Z</time>
      </trkpt>
      <trkpt lat="48.77051" lon="1.71183">
        <ele>121.6</ele>
        <time>2015-06-25T13:42:29.000Z</time>
      </trkpt>
      <trkpt lat="48.77052" lon="1.71176">
        <ele>121.3</ele>
        <time>2015-06-25T13:42:33.000Z</time>
      </trkpt>
      <trkpt lat="48.77056" lon="1.71169">
        <ele>121.1</ele>
        <time>2015-06-25T13:42:36.000Z</time>
      </trkpt>
      <trkpt lat="48.77062" lon="1.71158">
        <ele>120.7</ele>
        <time>2015-06-25T13:42:41.000Z</time>
      </trkpt>
      <trkpt lat="48.77067" lon="1.71146">
        <ele>120.3</ele>
        <time>2015-06-25T13:42:47.000Z</time>
      </trkpt>
      <trkpt lat="48.77072" lon="1.71137">
        <ele>119.9</ele>
        <time>2015-06-25T13:42:51.000Z</time>
      </trkpt>
      <trkpt lat="48.77077" lon="1.7113">
        <ele>119.7</ele>
        <time>2015-06-25T13:42:56.000Z</time>
      </trkpt>
      <trkpt lat="48.77077" lon="1.71125">
        <ele>119.5</ele>
        <time>2015-06-25T13:43:02.000Z</time>
      </trkpt>
      <trkpt lat="48.7708" lon="1.71118">
        <ele>119.3</ele>
        <time>2015-06-25T13:43:09.000Z</time>
      </trkpt>
      <trkpt lat="48.77093" lon="1.71121">
        <ele>119.4</ele>
        <time>2015-06-25T13:43:24.000Z</time>
      </trkpt>
      <trkpt lat="48.77095" lon="1.71126">
        <ele>119.6</ele>
        <time>2015-06-25T13:43:31.000Z</time>
      </trkpt>
      <trkpt lat="48.7709" lon="1.71128">
        <ele>119.6</ele>
        <time>2015-06-25T13:43:36.000Z</time>
      </trkpt>
      <trkpt lat="48.77088" lon="1.71134">
        <ele>119.8</ele>
        <time>2015-06-25T13:43:41.000Z</time>
      </trkpt>
      <trkpt lat="48.77089" lon="1.71147">
        <ele>120.2</ele>
        <time>2015-06-25T13:43:50.000Z</time>
      </trkpt>
      <trkpt lat="48.77088" lon="1.71149">
        <ele>120.3</ele>
        <time>2015-06-25T13:43:53.000Z</time>
      </trkpt>
      <trkpt lat="48.77091" lon="1.71164">
        <ele>120.7</ele>
        <time>2015-06-25T13:44:06.000Z</time>
      </trkpt>
      <trkpt lat="48.77091" lon="1.71165">
        <ele>120.7</ele>
        <time>2015-06-25T13:44:07.000Z</time>
      </trkpt>
      <trkpt lat="48.77096" lon="1.71172">
        <ele>120.6</ele>
        <time>2015-06-25T13:44:12.000Z</time>
      </trkpt>
      <trkpt lat="48.77095" lon="1.71178">
        <ele>120.7</ele>
        <time>2015-06-25T13:44:18.000Z</time>
      </trkpt>
      <trkpt lat="48.771" lon="1.71187">
        <ele>120.8</ele>
        <time>2015-06-25T13:44:24.000Z</time>
      </trkpt>
      <trkpt lat="48.77102" lon="1.71199">
        <ele>121.2</ele>
        <time>2015-06-25T13:44:29.000Z</time>
      </trkpt>
      <trkpt lat="48.77103" lon="1.71208">
        <ele>121.5</ele>
        <time>2015-06-25T13:44:34.000Z</time>
      </trkpt>
      <trkpt lat="48.77105" lon="1.71217">
        <ele>121.8</ele>
        <time>2015-06-25T13:44:39.000Z</time>
      </trkpt>
      <trkpt lat="48.77108" lon="1.71224">
        <ele>122.1</ele>
        <time>2015-06-25T13:44:43.000Z</time>
      </trkpt>
      <trkpt lat="48.7711" lon="1.71229">
        <ele>122.2</ele>
        <time>2015-06-25T13:44:46.000Z</time>
      </trkpt>
      <trkpt lat="48.77111" lon="1.71237">
        <ele>122.5</ele>
        <time>2015-06-25T13:44:52.000Z</time>
      </trkpt>
      <trkpt lat="48.77118" lon="1.71247">
        <ele>122.9</ele>
        <time>2015-06-25T13:44:59.000Z</time>
      </trkpt>
      <trkpt lat="48.77118" lon="1.71248">
        <ele>122.9</ele>
        <time>2015-06-25T13:45:00.000Z</time>
      </trkpt>
      <trkpt lat="48.7712" lon="1.71252">
        <ele>123.1</ele>
        <time>2015-06-25T13:45:02.000Z</time>
      </trkpt>
      <trkpt lat="48.7712" lon="1.71254">
        <ele>123.2</ele>
        <time>2015-06-25T13:45:05.000Z</time>
      </trkpt>
      <trkpt lat="48.77119" lon="1.71264">
        <ele>123.5</ele>
        <time>2015-06-25T13:45:10.000Z</time>
      </trkpt>
      <trkpt lat="48.77123" lon="1.71274">
        <ele>123.9</ele>
        <time>2015-06-25T13:45:15.000Z</time>
      </trkpt>
      <trkpt lat="48.77123" lon="1.71276">
        <ele>123.9</ele>
        <time>2015-06-25T13:45:16.000Z</time>
      </trkpt>
      <trkpt lat="48.77124" lon="1.71281">
        <ele>124.1</ele>
        <time>2015-06-25T13:45:19.000Z</time>
      </trkpt>
      <trkpt lat="48.77124" lon="1.71287">
        <ele>124.3</ele>
        <time>2015-06-25T13:45:23.000Z</time>
      </trkpt>
      <trkpt lat="48.77125" lon="1.71294">
        <ele>124.6</ele>
        <time>2015-06-25T13:45:28.000Z</time>
      </trkpt>
      <trkpt lat="48.77125" lon="1.71304">
        <ele>125</ele>
        <time>2015-06-25T13:45:35.000Z</time>
      </trkpt>
      <trkpt lat="48.77128" lon="1.71311">
        <ele>125.2</ele>
        <time>2015-06-25T13:45:40.000Z</time>
      </trkpt>
      <trkpt lat="48.77128" lon="1.71314">
        <ele>125.3</ele>
        <time>2015-06-25T13:45:42.000Z</time>
      </trkpt>
      <trkpt lat="48.77127" lon="1.71322">
        <ele>125.6</ele>
        <time>2015-06-25T13:45:46.000Z</time>
      </trkpt>
      <trkpt lat="48.77126" lon="1.71329">
        <ele>125.8</ele>
        <time>2015-06-25T13:45:51.000Z</time>
      </trkpt>
      <trkpt lat="48.77125" lon="1.71329">
        <ele>125.9</ele>
        <time>2015-06-25T13:45:56.000Z</time>
      </trkpt>
      <trkpt lat="48.77123" lon="1.71331">
        <ele>125.9</ele>
        <time>2015-06-25T13:46:00.000Z</time>
      </trkpt>
      <trkpt lat="48.77124" lon="1.71334">
        <ele>126</ele>
        <time>2015-06-25T13:46:05.000Z</time>
      </trkpt>
      <trkpt lat="48.77124" lon="1.71335">
        <ele>126</ele>
        <time>2015-06-25T13:46:06.000Z</time>
      </trkpt>
      <trkpt lat="48.77126" lon="1.71339">
        <ele>126.2</ele>
        <time>2015-06-25T13:46:10.000Z</time>
      </trkpt>
      <trkpt lat="48.77131" lon="1.71347">
        <ele>126.5</ele>
        <time>2015-06-25T13:46:14.000Z</time>
      </trkpt>
      <trkpt lat="48.77133" lon="1.71354">
        <ele>126.7</ele>
        <time>2015-06-25T13:46:18.000Z</time>
      </trkpt>
      <trkpt lat="48.77136" lon="1.71362">
        <ele>127</ele>
        <time>2015-06-25T13:46:23.000Z</time>
      </trkpt>
      <trkpt lat="48.77137" lon="1.71364">
        <ele>127.1</ele>
        <time>2015-06-25T13:46:24.000Z</time>
      </trkpt>
      <trkpt lat="48.77138" lon="1.71371">
        <ele>127.4</ele>
        <time>2015-06-25T13:46:28.000Z</time>
      </trkpt>
      <trkpt lat="48.77138" lon="1.71383">
        <ele>127.8</ele>
        <time>2015-06-25T13:46:34.000Z</time>
      </trkpt>
      <trkpt lat="48.7714" lon="1.71395">
        <ele>128.2</ele>
        <time>2015-06-25T13:46:42.000Z</time>
      </trkpt>
      <trkpt lat="48.77142" lon="1.71403">
        <ele>128.6</ele>
        <time>2015-06-25T13:46:47.000Z</time>
      </trkpt>
      <trkpt lat="48.77138" lon="1.71409">
        <ele>128.7</ele>
        <time>2015-06-25T13:46:53.000Z</time>
      </trkpt>
      <trkpt lat="48.77139" lon="1.71412">
        <ele>128.9</ele>
        <time>2015-06-25T13:46:56.000Z</time>
      </trkpt>
      <trkpt lat="48.77144" lon="1.71417">
        <ele>129.2</ele>
        <time>2015-06-25T13:46:59.000Z</time>
      </trkpt>
      <trkpt lat="48.77146" lon="1.71425">
        <ele>129.5</ele>
        <time>2015-06-25T13:47:04.000Z</time>
      </trkpt>
      <trkpt lat="48.77146" lon="1.71425">
        <ele>129.6</ele>
        <time>2015-06-25T13:47:07.000Z</time>
      </trkpt>
      <trkpt lat="48.77149" lon="1.71427">
        <ele>129.7</ele>
        <time>2015-06-25T13:47:11.000Z</time>
      </trkpt>
      <trkpt lat="48.7715" lon="1.71428">
        <ele>129.8</ele>
        <time>2015-06-25T13:47:12.000Z</time>
      </trkpt>
      <trkpt lat="48.77151" lon="1.71428">
        <ele>129.8</ele>
        <time>2015-06-25T13:47:13.000Z</time>
      </trkpt>
      <trkpt lat="48.77154" lon="1.71433">
        <ele>130.1</ele>
        <time>2015-06-25T13:47:17.000Z</time>
      </trkpt>
      <trkpt lat="48.77156" lon="1.7144">
        <ele>130.4</ele>
        <time>2015-06-25T13:47:23.000Z</time>
      </trkpt>
      <trkpt lat="48.77156" lon="1.71451">
        <ele>130.8</ele>
        <time>2015-06-25T13:47:29.000Z</time>
      </trkpt>
      <trkpt lat="48.77157" lon="1.71458">
        <ele>131.2</ele>
        <time>2015-06-25T13:47:34.000Z</time>
      </trkpt>
      <trkpt lat="48.77156" lon="1.71466">
        <ele>131.4</ele>
        <time>2015-06-25T13:47:38.000Z</time>
      </trkpt>
      <trkpt lat="48.77157" lon="1.71475">
        <ele>131.8</ele>
        <time>2015-06-25T13:47:45.000Z</time>
      </trkpt>
      <trkpt lat="48.77158" lon="1.71475">
        <ele>131.8</ele>
        <time>2015-06-25T13:47:47.000Z</time>
      </trkpt>
      <trkpt lat="48.77169" lon="1.7147">
        <ele>131.9</ele>
        <time>2015-06-25T13:48:26.000Z</time>
      </trkpt>
      <trkpt lat="48.7717" lon="1.71471">
        <ele>132</ele>
        <time>2015-06-25T13:48:28.000Z</time>
      </trkpt>
      <trkpt lat="48.77171" lon="1.71482">
        <ele>132.4</ele>
        <time>2015-06-25T13:48:36.000Z</time>
      </trkpt>
      <trkpt lat="48.77168" lon="1.71484">
        <ele>132.4</ele>
        <time>2015-06-25T13:48:44.000Z</time>
      </trkpt>
      <trkpt lat="48.77168" lon="1.71489">
        <ele>132.6</ele>
        <time>2015-06-25T13:48:49.000Z</time>
      </trkpt>
      <trkpt lat="48.77168" lon="1.71496">
        <ele>132.9</ele>
        <time>2015-06-25T13:48:55.000Z</time>
      </trkpt>
      <trkpt lat="48.77168" lon="1.71505">
        <ele>133.2</ele>
        <time>2015-06-25T13:49:00.000Z</time>
      </trkpt>
      <trkpt lat="48.77163" lon="1.71513">
        <ele>133.3</ele>
        <time>2015-06-25T13:49:06.000Z</time>
      </trkpt>
      <trkpt lat="48.7716" lon="1.71512">
        <ele>133.2</ele>
        <time>2015-06-25T13:49:12.000Z</time>
      </trkpt>
      <trkpt lat="48.77161" lon="1.71512">
        <ele>133.2</ele>
        <time>2015-06-25T13:49:32.000Z</time>
      </trkpt>
      <trkpt lat="48.77161" lon="1.7151">
        <ele>133.2</ele>
        <time>2015-06-25T13:49:33.000Z</time>
      </trkpt>
      <trkpt lat="48.7716" lon="1.71503">
        <ele>132.8</ele>
        <time>2015-06-25T13:49:37.000Z</time>
      </trkpt>
      <trkpt lat="48.77159" lon="1.71494">
        <ele>132.5</ele>
        <time>2015-06-25T13:49:41.000Z</time>
      </trkpt>
      <trkpt lat="48.77159" lon="1.71487">
        <ele>132.3</ele>
        <time>2015-06-25T13:49:47.000Z</time>
      </trkpt>
      <trkpt lat="48.77155" lon="1.7148">
        <ele>131.9</ele>
        <time>2015-06-25T13:49:53.000Z</time>
      </trkpt>
      <trkpt lat="48.77153" lon="1.71478">
        <ele>131.7</ele>
        <time>2015-06-25T13:49:58.000Z</time>
      </trkpt>
      <trkpt lat="48.7716" lon="1.71479">
        <ele>132</ele>
        <time>2015-06-25T13:50:32.000Z</time>
      </trkpt>
      <trkpt lat="48.77163" lon="1.71489">
        <ele>132.5</ele>
        <time>2015-06-25T13:50:36.000Z</time>
      </trkpt>
      <trkpt lat="48.77165" lon="1.715">
        <ele>132.9</ele>
        <time>2015-06-25T13:50:42.000Z</time>
      </trkpt>
      <trkpt lat="48.77166" lon="1.7151">
        <ele>133.3</ele>
        <time>2015-06-25T13:50:46.000Z</time>
      </trkpt>
      <trkpt lat="48.77167" lon="1.71517">
        <ele>133.6</ele>
        <time>2015-06-25T13:50:49.000Z</time>
      </trkpt>
      <trkpt lat="48.77164" lon="1.71529">
        <ele>134</ele>
        <time>2015-06-25T13:50:55.000Z</time>
      </trkpt>
      <trkpt lat="48.77164" lon="1.71536">
        <ele>134.2</ele>
        <time>2015-06-25T13:51:00.000Z</time>
      </trkpt>
      <trkpt lat="48.77166" lon="1.71549">
        <ele>134.8</ele>
        <time>2015-06-25T13:51:06.000Z</time>
      </trkpt>
      <trkpt lat="48.77171" lon="1.7156">
        <ele>135.3</ele>
        <time>2015-06-25T13:51:11.000Z</time>
      </trkpt>
      <trkpt lat="48.77172" lon="1.71568">
        <ele>135.6</ele>
        <time>2015-06-25T13:51:15.000Z</time>
      </trkpt>
      <trkpt lat="48.77173" lon="1.71577">
        <ele>136</ele>
        <time>2015-06-25T13:51:21.000Z</time>
      </trkpt>
      <trkpt lat="48.77175" lon="1.71579">
        <ele>136.1</ele>
        <time>2015-06-25T13:51:28.000Z</time>
      </trkpt>
      <trkpt lat="48.77176" lon="1.71581">
        <ele>136.3</ele>
        <time>2015-06-25T13:51:30.000Z</time>
      </trkpt>
      <trkpt lat="48.77178" lon="1.71595">
        <ele>137.3</ele>
        <time>2015-06-25T13:51:37.000Z</time>
      </trkpt>
      <trkpt lat="48.77177" lon="1.71605">
        <ele>137.9</ele>
        <time>2015-06-25T13:51:41.000Z</time>
      </trkpt>
      <trkpt lat="48.77175" lon="1.71615">
        <ele>138.6</ele>
        <time>2015-06-25T13:51:48.000Z</time>
      </trkpt>
      <trkpt lat="48.77177" lon="1.71614">
        <ele>138.6</ele>
        <time>2015-06-25T13:51:53.000Z</time>
      </trkpt>
      <trkpt lat="48.77179" lon="1.7161">
        <ele>138.4</ele>
        <time>2015-06-25T13:52:31.000Z</time>
      </trkpt>
      <trkpt lat="48.77175" lon="1.71614">
        <ele>138.5</ele>
        <time>2015-06-25T13:52:37.000Z</time>
      </trkpt>
      <trkpt lat="48.77174" lon="1.71615">
        <ele>138.5</ele>
        <time>2015-06-25T13:52:41.000Z</time>
      </trkpt>
      <trkpt lat="48.77182" lon="1.71614">
        <ele>138.8</ele>
        <time>2015-06-25T13:53:02.000Z</time>
      </trkpt>
      <trkpt lat="48.77186" lon="1.71625">
        <ele>139.7</ele>
        <time>2015-06-25T13:53:07.000Z</time>
      </trkpt>
      <trkpt lat="48.77186" lon="1.71627">
        <ele>139.8</ele>
        <time>2015-06-25T13:53:08.000Z</time>
      </trkpt>
      <trkpt lat="48.7719" lon="1.71641">
        <ele>141</ele>
        <time>2015-06-25T13:53:15.000Z</time>
      </trkpt>
      <trkpt lat="48.77194" lon="1.71661">
        <ele>143.4</ele>
        <time>2015-06-25T13:53:22.000Z</time>
      </trkpt>
      <trkpt lat="48.77197" lon="1.71673">
        <ele>145</ele>
        <time>2015-06-25T13:53:27.000Z</time>
      </trkpt>
      <trkpt lat="48.772" lon="1.71686">
        <ele>147</ele>
        <time>2015-06-25T13:53:34.000Z</time>
      </trkpt>
      <trkpt lat="48.77204" lon="1.71698">
        <ele>148.6</ele>
        <time>2015-06-25T13:53:41.000Z</time>
      </trkpt>
      <trkpt lat="48.77203" lon="1.71709">
        <ele>149.5</ele>
        <time>2015-06-25T13:53:48.000Z</time>
      </trkpt>
      <trkpt lat="48.77203" lon="1.71711">
        <ele>149.7</ele>
        <time>2015-06-25T13:53:49.000Z</time>
      </trkpt>
      <trkpt lat="48.77204" lon="1.71715">
        <ele>150.1</ele>
        <time>2015-06-25T13:53:52.000Z</time>
      </trkpt>
      <trkpt lat="48.7721" lon="1.71733">
        <ele>152.1</ele>
        <time>2015-06-25T13:54:00.000Z</time>
      </trkpt>
      <trkpt lat="48.7721" lon="1.71736">
        <ele>152.4</ele>
        <time>2015-06-25T13:54:01.000Z</time>
      </trkpt>
      <trkpt lat="48.77213" lon="1.71747">
        <ele>153.4</ele>
        <time>2015-06-25T13:54:07.000Z</time>
      </trkpt>
      <trkpt lat="48.77216" lon="1.71755">
        <ele>154</ele>
        <time>2015-06-25T13:54:12.000Z</time>
      </trkpt>
      <trkpt lat="48.77223" lon="1.7177">
        <ele>154.6</ele>
        <time>2015-06-25T13:54:19.000Z</time>
      </trkpt>
      <trkpt lat="48.77223" lon="1.71772">
        <ele>154.7</ele>
        <time>2015-06-25T13:54:20.000Z</time>
      </trkpt>
      <trkpt lat="48.77223" lon="1.71776">
        <ele>154.8</ele>
        <time>2015-06-25T13:54:22.000Z</time>
      </trkpt>
      <trkpt lat="48.77225" lon="1.71792">
        <ele>155.2</ele>
        <time>2015-06-25T13:54:28.000Z</time>
      </trkpt>
      <trkpt lat="48.7723" lon="1.71808">
        <ele>155.2</ele>
        <time>2015-06-25T13:54:33.000Z</time>
      </trkpt>
      <trkpt lat="48.77233" lon="1.7182">
        <ele>155.2</ele>
        <time>2015-06-25T13:54:38.000Z</time>
      </trkpt>
      <trkpt lat="48.77236" lon="1.71829">
        <ele>154.9</ele>
        <time>2015-06-25T13:54:42.000Z</time>
      </trkpt>
      <trkpt lat="48.77236" lon="1.71845">
        <ele>155.9</ele>
        <time>2015-06-25T13:54:49.000Z</time>
      </trkpt>
      <trkpt lat="48.77236" lon="1.71856">
        <ele>156.6</ele>
        <time>2015-06-25T13:54:55.000Z</time>
      </trkpt>
      <trkpt lat="48.77239" lon="1.71863">
        <ele>156.8</ele>
        <time>2015-06-25T13:55:02.000Z</time>
      </trkpt>
      <trkpt lat="48.77246" lon="1.71861">
        <ele>155.5</ele>
        <time>2015-06-25T13:55:34.000Z</time>
      </trkpt>
      <trkpt lat="48.77245" lon="1.71864">
        <ele>156.2</ele>
        <time>2015-06-25T13:55:40.000Z</time>
      </trkpt>
      <trkpt lat="48.77243" lon="1.71872">
        <ele>157.4</ele>
        <time>2015-06-25T13:55:48.000Z</time>
      </trkpt>
      <trkpt lat="48.77243" lon="1.71873">
        <ele>157.5</ele>
        <time>2015-06-25T13:55:51.000Z</time>
      </trkpt>
      <trkpt lat="48.77238" lon="1.7188">
        <ele>158.9</ele>
        <time>2015-06-25T13:56:05.000Z</time>
      </trkpt>
      <trkpt lat="48.77227" lon="1.71886">
        <ele>160.4</ele>
        <time>2015-06-25T13:56:11.000Z</time>
      </trkpt>
      <trkpt lat="48.77217" lon="1.71893">
        <ele>162.1</ele>
        <time>2015-06-25T13:56:16.000Z</time>
      </trkpt>
      <trkpt lat="48.77207" lon="1.71898">
        <ele>163.7</ele>
        <time>2015-06-25T13:56:21.000Z</time>
      </trkpt>
      <trkpt lat="48.77196" lon="1.71903">
        <ele>165.4</ele>
        <time>2015-06-25T13:56:27.000Z</time>
      </trkpt>
      <trkpt lat="48.77185" lon="1.71912">
        <ele>166.2</ele>
        <time>2015-06-25T13:56:35.000Z</time>
      </trkpt>
      <trkpt lat="48.7717" lon="1.71923">
        <ele>166.6</ele>
        <time>2015-06-25T13:56:45.000Z</time>
      </trkpt>
      <trkpt lat="48.7716" lon="1.71929">
        <ele>165.5</ele>
        <time>2015-06-25T13:56:52.000Z</time>
      </trkpt>
      <trkpt lat="48.77149" lon="1.71936">
        <ele>163.6</ele>
        <time>2015-06-25T13:56:59.000Z</time>
      </trkpt>
      <trkpt lat="48.7714" lon="1.71943">
        <ele>162.1</ele>
        <time>2015-06-25T13:57:05.000Z</time>
      </trkpt>
      <trkpt lat="48.77127" lon="1.7195">
        <ele>159</ele>
        <time>2015-06-25T13:57:13.000Z</time>
      </trkpt>
      <trkpt lat="48.77118" lon="1.71957">
        <ele>156.7</ele>
        <time>2015-06-25T13:57:20.000Z</time>
      </trkpt>
      <trkpt lat="48.77106" lon="1.71967">
        <ele>154.4</ele>
        <time>2015-06-25T13:57:26.000Z</time>
      </trkpt>
      <trkpt lat="48.77096" lon="1.71975">
        <ele>152.9</ele>
        <time>2015-06-25T13:57:31.000Z</time>
      </trkpt>
      <trkpt lat="48.77086" lon="1.71982">
        <ele>151.5</ele>
        <time>2015-06-25T13:57:37.000Z</time>
      </trkpt>
      <trkpt lat="48.7708" lon="1.71983">
        <ele>150.7</ele>
        <time>2015-06-25T13:57:41.000Z</time>
      </trkpt>
      <trkpt lat="48.77071" lon="1.71989">
        <ele>149.5</ele>
        <time>2015-06-25T13:57:48.000Z</time>
      </trkpt>
      <trkpt lat="48.77062" lon="1.71996">
        <ele>148.1</ele>
        <time>2015-06-25T13:57:53.000Z</time>
      </trkpt>
      <trkpt lat="48.77053" lon="1.72001">
        <ele>146.9</ele>
        <time>2015-06-25T13:57:58.000Z</time>
      </trkpt>
      <trkpt lat="48.77045" lon="1.72007">
        <ele>146.7</ele>
        <time>2015-06-25T13:58:03.000Z</time>
      </trkpt>
      <trkpt lat="48.77033" lon="1.72012">
        <ele>146.2</ele>
        <time>2015-06-25T13:58:11.000Z</time>
      </trkpt>
      <trkpt lat="48.77031" lon="1.72013">
        <ele>146.2</ele>
        <time>2015-06-25T13:58:12.000Z</time>
      </trkpt>
      <trkpt lat="48.77023" lon="1.7202">
        <ele>146.1</ele>
        <time>2015-06-25T13:58:18.000Z</time>
      </trkpt>
      <trkpt lat="48.77009" lon="1.72029">
        <ele>145.7</ele>
        <time>2015-06-25T13:58:28.000Z</time>
      </trkpt>
      <trkpt lat="48.76996" lon="1.72038">
        <ele>145.6</ele>
        <time>2015-06-25T13:58:37.000Z</time>
      </trkpt>
      <trkpt lat="48.76982" lon="1.72047">
        <ele>145.3</ele>
        <time>2015-06-25T13:58:45.000Z</time>
      </trkpt>
      <trkpt lat="48.76972" lon="1.72053">
        <ele>144.9</ele>
        <time>2015-06-25T13:58:52.000Z</time>
      </trkpt>
      <trkpt lat="48.76961" lon="1.72059">
        <ele>145.1</ele>
        <time>2015-06-25T13:58:59.000Z</time>
      </trkpt>
      <trkpt lat="48.76952" lon="1.72065">
        <ele>145.5</ele>
        <time>2015-06-25T13:59:05.000Z</time>
      </trkpt>
      <trkpt lat="48.76937" lon="1.72075">
        <ele>147.8</ele>
        <time>2015-06-25T13:59:14.000Z</time>
      </trkpt>
      <trkpt lat="48.76925" lon="1.72081">
        <ele>150.4</ele>
        <time>2015-06-25T13:59:22.000Z</time>
      </trkpt>
      <trkpt lat="48.76923" lon="1.72082">
        <ele>150.8</ele>
        <time>2015-06-25T13:59:24.000Z</time>
      </trkpt>
      <trkpt lat="48.7692" lon="1.72079">
        <ele>151.2</ele>
        <time>2015-06-25T13:59:28.000Z</time>
      </trkpt>
      <trkpt lat="48.76911" lon="1.72067">
        <ele>150.5</ele>
        <time>2015-06-25T13:59:36.000Z</time>
      </trkpt>
      <trkpt lat="48.76903" lon="1.72055">
        <ele>149.5</ele>
        <time>2015-06-25T13:59:42.000Z</time>
      </trkpt>
      <trkpt lat="48.76891" lon="1.72038">
        <ele>148.4</ele>
        <time>2015-06-25T13:59:51.000Z</time>
      </trkpt>
      <trkpt lat="48.76881" lon="1.72022">
        <ele>147.2</ele>
        <time>2015-06-25T14:00:00.000Z</time>
      </trkpt>
      <trkpt lat="48.76872" lon="1.72008">
        <ele>146.1</ele>
        <time>2015-06-25T14:00:07.000Z</time>
      </trkpt>
      <trkpt lat="48.76866" lon="1.71999">
        <ele>145.3</ele>
        <time>2015-06-25T14:00:12.000Z</time>
      </trkpt>
      <trkpt lat="48.76857" lon="1.71986">
        <ele>144.5</ele>
        <time>2015-06-25T14:00:19.000Z</time>
      </trkpt>
      <trkpt lat="48.76853" lon="1.71977">
        <ele>144.2</ele>
        <time>2015-06-25T14:00:23.000Z</time>
      </trkpt>
      <trkpt lat="48.76845" lon="1.71968">
        <ele>143.8</ele>
        <time>2015-06-25T14:00:29.000Z</time>
      </trkpt>
      <trkpt lat="48.76836" lon="1.71954">
        <ele>142.8</ele>
        <time>2015-06-25T14:00:37.000Z</time>
      </trkpt>
      <trkpt lat="48.76825" lon="1.71939">
        <ele>141.4</ele>
        <time>2015-06-25T14:00:46.000Z</time>
      </trkpt>
      <trkpt lat="48.76815" lon="1.71924">
        <ele>140.1</ele>
        <time>2015-06-25T14:00:54.000Z</time>
      </trkpt>
      <trkpt lat="48.76804" lon="1.71909">
        <ele>138.4</ele>
        <time>2015-06-25T14:01:00.000Z</time>
      </trkpt>
      <trkpt lat="48.76793" lon="1.71893">
        <ele>137.2</ele>
        <time>2015-06-25T14:01:07.000Z</time>
      </trkpt>
      <trkpt lat="48.76787" lon="1.71882">
        <ele>136.6</ele>
        <time>2015-06-25T14:01:13.000Z</time>
      </trkpt>
      <trkpt lat="48.7678" lon="1.71872">
        <ele>135.8</ele>
        <time>2015-06-25T14:01:19.000Z</time>
      </trkpt>
      <trkpt lat="48.7677" lon="1.71857">
        <ele>135.1</ele>
        <time>2015-06-25T14:01:27.000Z</time>
      </trkpt>
      <trkpt lat="48.76761" lon="1.71843">
        <ele>134.5</ele>
        <time>2015-06-25T14:01:35.000Z</time>
      </trkpt>
      <trkpt lat="48.76749" lon="1.71825">
        <ele>133.7</ele>
        <time>2015-06-25T14:01:44.000Z</time>
      </trkpt>
      <trkpt lat="48.76735" lon="1.71804">
        <ele>133.5</ele>
        <time>2015-06-25T14:01:55.000Z</time>
      </trkpt>
      <trkpt lat="48.76731" lon="1.71796">
        <ele>133.4</ele>
        <time>2015-06-25T14:01:59.000Z</time>
      </trkpt>
      <trkpt lat="48.7672" lon="1.71784">
        <ele>133.3</ele>
        <time>2015-06-25T14:02:08.000Z</time>
      </trkpt>
      <trkpt lat="48.76713" lon="1.71788">
        <ele>133.7</ele>
        <time>2015-06-25T14:02:13.000Z</time>
      </trkpt>
      <trkpt lat="48.76701" lon="1.71803">
        <ele>134.6</ele>
        <time>2015-06-25T14:02:19.000Z</time>
      </trkpt>
      <trkpt lat="48.76693" lon="1.71816">
        <ele>135.4</ele>
        <time>2015-06-25T14:02:27.000Z</time>
      </trkpt>
      <trkpt lat="48.76688" lon="1.71824">
        <ele>135.6</ele>
        <time>2015-06-25T14:02:32.000Z</time>
      </trkpt>
      <trkpt lat="48.76682" lon="1.71836">
        <ele>135.5</ele>
        <time>2015-06-25T14:02:38.000Z</time>
      </trkpt>
      <trkpt lat="48.76671" lon="1.71852">
        <ele>134.1</ele>
        <time>2015-06-25T14:02:47.000Z</time>
      </trkpt>
      <trkpt lat="48.76669" lon="1.71854">
        <ele>133.7</ele>
        <time>2015-06-25T14:02:50.000Z</time>
      </trkpt>
      <trkpt lat="48.76665" lon="1.71852">
        <ele>133.5</ele>
        <time>2015-06-25T14:02:54.000Z</time>
      </trkpt>
      <trkpt lat="48.76653" lon="1.71831">
        <ele>133.6</ele>
        <time>2015-06-25T14:03:05.000Z</time>
      </trkpt>
      <trkpt lat="48.76645" lon="1.71816">
        <ele>132.9</ele>
        <time>2015-06-25T14:03:13.000Z</time>
      </trkpt>
      <trkpt lat="48.76637" lon="1.71799">
        <ele>131.8</ele>
        <time>2015-06-25T14:03:21.000Z</time>
      </trkpt>
      <trkpt lat="48.76629" lon="1.71784">
        <ele>131</ele>
        <time>2015-06-25T14:03:29.000Z</time>
      </trkpt>
      <trkpt lat="48.76618" lon="1.71762">
        <ele>129.2</ele>
        <time>2015-06-25T14:03:40.000Z</time>
      </trkpt>
      <trkpt lat="48.76606" lon="1.7174">
        <ele>127.6</ele>
        <time>2015-06-25T14:03:52.000Z</time>
      </trkpt>
      <trkpt lat="48.76594" lon="1.71721">
        <ele>126.1</ele>
        <time>2015-06-25T14:04:02.000Z</time>
      </trkpt>
      <trkpt lat="48.76587" lon="1.71706">
        <ele>125.3</ele>
        <time>2015-06-25T14:04:10.000Z</time>
      </trkpt>
      <trkpt lat="48.76584" lon="1.71704">
        <ele>125.1</ele>
        <time>2015-06-25T14:04:15.000Z</time>
      </trkpt>
      <trkpt lat="48.76577" lon="1.71695">
        <ele>124.8</ele>
        <time>2015-06-25T14:04:25.000Z</time>
      </trkpt>
      <trkpt lat="48.76568" lon="1.7168">
        <ele>124.7</ele>
        <time>2015-06-25T14:04:32.000Z</time>
      </trkpt>
      <trkpt lat="48.76562" lon="1.71669">
        <ele>124.4</ele>
        <time>2015-06-25T14:04:38.000Z</time>
      </trkpt>
      <trkpt lat="48.76553" lon="1.71654">
        <ele>124.7</ele>
        <time>2015-06-25T14:04:46.000Z</time>
      </trkpt>
      <trkpt lat="48.76547" lon="1.71641">
        <ele>124.9</ele>
        <time>2015-06-25T14:04:54.000Z</time>
      </trkpt>
      <trkpt lat="48.76539" lon="1.71627">
        <ele>124.4</ele>
        <time>2015-06-25T14:05:02.000Z</time>
      </trkpt>
      <trkpt lat="48.7653" lon="1.71611">
        <ele>123.3</ele>
        <time>2015-06-25T14:05:11.000Z</time>
      </trkpt>
      <trkpt lat="48.76521" lon="1.71594">
        <ele>122.1</ele>
        <time>2015-06-25T14:05:20.000Z</time>
      </trkpt>
      <trkpt lat="48.76514" lon="1.7158">
        <ele>120.8</ele>
        <time>2015-06-25T14:05:28.000Z</time>
      </trkpt>
      <trkpt lat="48.76506" lon="1.71566">
        <ele>119.1</ele>
        <time>2015-06-25T14:05:35.000Z</time>
      </trkpt>
      <trkpt lat="48.765" lon="1.71557">
        <ele>118.1</ele>
        <time>2015-06-25T14:05:41.000Z</time>
      </trkpt>
      <trkpt lat="48.76494" lon="1.71541">
        <ele>117.2</ele>
        <time>2015-06-25T14:05:49.000Z</time>
      </trkpt>
      <trkpt lat="48.76494" lon="1.71538">
        <ele>117.1</ele>
        <time>2015-06-25T14:05:51.000Z</time>
      </trkpt>
      <trkpt lat="48.76484" lon="1.71525">
        <ele>116.4</ele>
        <time>2015-06-25T14:06:00.000Z</time>
      </trkpt>
      <trkpt lat="48.76481" lon="1.71518">
        <ele>116.2</ele>
        <time>2015-06-25T14:06:04.000Z</time>
      </trkpt>
      <trkpt lat="48.76481" lon="1.71515">
        <ele>116.2</ele>
        <time>2015-06-25T14:06:11.000Z</time>
      </trkpt>
      <trkpt lat="48.7648" lon="1.71508">
        <ele>116.1</ele>
        <time>2015-06-25T14:06:21.000Z</time>
      </trkpt>
      <trkpt lat="48.76479" lon="1.71506">
        <ele>116.1</ele>
        <time>2015-06-25T14:06:22.000Z</time>
      </trkpt>
      <trkpt lat="48.76474" lon="1.71498">
        <ele>116</ele>
        <time>2015-06-25T14:06:27.000Z</time>
      </trkpt>
      <trkpt lat="48.76465" lon="1.71485">
        <ele>116</ele>
        <time>2015-06-25T14:06:35.000Z</time>
      </trkpt>
      <trkpt lat="48.76458" lon="1.71476">
        <ele>116</ele>
        <time>2015-06-25T14:06:41.000Z</time>
      </trkpt>
      <trkpt lat="48.76449" lon="1.71461">
        <ele>116</ele>
        <time>2015-06-25T14:06:49.000Z</time>
      </trkpt>
      <trkpt lat="48.76441" lon="1.71445">
        <ele>116.1</ele>
        <time>2015-06-25T14:06:57.000Z</time>
      </trkpt>
      <trkpt lat="48.76435" lon="1.71431">
        <ele>116.7</ele>
        <time>2015-06-25T14:07:04.000Z</time>
      </trkpt>
      <trkpt lat="48.7643" lon="1.71418">
        <ele>117</ele>
        <time>2015-06-25T14:07:12.000Z</time>
      </trkpt>
      <trkpt lat="48.76422" lon="1.714">
        <ele>116.9</ele>
        <time>2015-06-25T14:07:22.000Z</time>
      </trkpt>
      <trkpt lat="48.7642" lon="1.71395">
        <ele>116.9</ele>
        <time>2015-06-25T14:07:28.000Z</time>
      </trkpt>
      <trkpt lat="48.76413" lon="1.71393">
        <ele>117.1</ele>
        <time>2015-06-25T14:07:37.000Z</time>
      </trkpt>
      <trkpt lat="48.76411" lon="1.71415">
        <ele>117</ele>
        <time>2015-06-25T14:08:10.000Z</time>
      </trkpt>
      <trkpt lat="48.76406" lon="1.71426">
        <ele>117</ele>
        <time>2015-06-25T14:08:15.000Z</time>
      </trkpt>
      <trkpt lat="48.76399" lon="1.71435">
        <ele>117</ele>
        <time>2015-06-25T14:08:21.000Z</time>
      </trkpt>
      <trkpt lat="48.76398" lon="1.71439">
        <ele>117</ele>
        <time>2015-06-25T14:08:23.000Z</time>
      </trkpt>
      <trkpt lat="48.76396" lon="1.71441">
        <ele>117</ele>
        <time>2015-06-25T14:08:25.000Z</time>
      </trkpt>
      <trkpt lat="48.76387" lon="1.71459">
        <ele>116.5</ele>
        <time>2015-06-25T14:08:33.000Z</time>
      </trkpt>
      <trkpt lat="48.76379" lon="1.71473">
        <ele>116.3</ele>
        <time>2015-06-25T14:08:40.000Z</time>
      </trkpt>
      <trkpt lat="48.76372" lon="1.71489">
        <ele>116.6</ele>
        <time>2015-06-25T14:08:48.000Z</time>
      </trkpt>
      <trkpt lat="48.76368" lon="1.71509">
        <ele>116.8</ele>
        <time>2015-06-25T14:08:56.000Z</time>
      </trkpt>
      <trkpt lat="48.76365" lon="1.71525">
        <ele>116.9</ele>
        <time>2015-06-25T14:09:03.000Z</time>
      </trkpt>
      <trkpt lat="48.76361" lon="1.7154">
        <ele>117</ele>
        <time>2015-06-25T14:09:11.000Z</time>
      </trkpt>
      <trkpt lat="48.76359" lon="1.71558">
        <ele>117</ele>
        <time>2015-06-25T14:09:18.000Z</time>
      </trkpt>
      <trkpt lat="48.76358" lon="1.71571">
        <ele>117</ele>
        <time>2015-06-25T14:09:24.000Z</time>
      </trkpt>
      <trkpt lat="48.76355" lon="1.71582">
        <ele>117</ele>
        <time>2015-06-25T14:09:29.000Z</time>
      </trkpt>
      <trkpt lat="48.76351" lon="1.716">
        <ele>117</ele>
        <time>2015-06-25T14:09:37.000Z</time>
      </trkpt>
      <trkpt lat="48.76347" lon="1.71612">
        <ele>117</ele>
        <time>2015-06-25T14:09:43.000Z</time>
      </trkpt>
      <trkpt lat="48.76342" lon="1.71629">
        <ele>117</ele>
        <time>2015-06-25T14:09:50.000Z</time>
      </trkpt>
      <trkpt lat="48.76338" lon="1.71642">
        <ele>117</ele>
        <time>2015-06-25T14:09:56.000Z</time>
      </trkpt>
      <trkpt lat="48.76335" lon="1.71655">
        <ele>117</ele>
        <time>2015-06-25T14:10:02.000Z</time>
      </trkpt>
      <trkpt lat="48.76332" lon="1.71674">
        <ele>117</ele>
        <time>2015-06-25T14:10:10.000Z</time>
      </trkpt>
      <trkpt lat="48.7633" lon="1.7169">
        <ele>117</ele>
        <time>2015-06-25T14:10:16.000Z</time>
      </trkpt>
      <trkpt lat="48.76327" lon="1.71707">
        <ele>117</ele>
        <time>2015-06-25T14:10:23.000Z</time>
      </trkpt>
      <trkpt lat="48.76324" lon="1.71719">
        <ele>117</ele>
        <time>2015-06-25T14:10:29.000Z</time>
      </trkpt>
      <trkpt lat="48.7632" lon="1.71727">
        <ele>117</ele>
        <time>2015-06-25T14:10:33.000Z</time>
      </trkpt>
      <trkpt lat="48.76317" lon="1.71745">
        <ele>117</ele>
        <time>2015-06-25T14:10:41.000Z</time>
      </trkpt>
      <trkpt lat="48.76314" lon="1.71756">
        <ele>117</ele>
        <time>2015-06-25T14:10:46.000Z</time>
      </trkpt>
      <trkpt lat="48.76312" lon="1.71772">
        <ele>117</ele>
        <time>2015-06-25T14:10:52.000Z</time>
      </trkpt>
      <trkpt lat="48.76311" lon="1.71774">
        <ele>117</ele>
        <time>2015-06-25T14:10:53.000Z</time>
      </trkpt>
      <trkpt lat="48.76308" lon="1.71791">
        <ele>117</ele>
        <time>2015-06-25T14:11:00.000Z</time>
      </trkpt>
      <trkpt lat="48.76307" lon="1.71797">
        <ele>117</ele>
        <time>2015-06-25T14:11:03.000Z</time>
      </trkpt>
      <trkpt lat="48.76307" lon="1.7181">
        <ele>117</ele>
        <time>2015-06-25T14:11:10.000Z</time>
      </trkpt>
      <trkpt lat="48.76301" lon="1.71826">
        <ele>117.1</ele>
        <time>2015-06-25T14:11:19.000Z</time>
      </trkpt>
      <trkpt lat="48.76297" lon="1.71845">
        <ele>117.3</ele>
        <time>2015-06-25T14:11:27.000Z</time>
      </trkpt>
      <trkpt lat="48.76295" lon="1.71857">
        <ele>117.4</ele>
        <time>2015-06-25T14:11:32.000Z</time>
      </trkpt>
      <trkpt lat="48.76292" lon="1.71871">
        <ele>117.5</ele>
        <time>2015-06-25T14:11:38.000Z</time>
      </trkpt>
      <trkpt lat="48.76289" lon="1.71887">
        <ele>117.6</ele>
        <time>2015-06-25T14:11:45.000Z</time>
      </trkpt>
      <trkpt lat="48.76284" lon="1.71905">
        <ele>117.8</ele>
        <time>2015-06-25T14:11:53.000Z</time>
      </trkpt>
      <trkpt lat="48.7628" lon="1.71921">
        <ele>117.9</ele>
        <time>2015-06-25T14:12:00.000Z</time>
      </trkpt>
      <trkpt lat="48.76278" lon="1.71936">
        <ele>118</ele>
        <time>2015-06-25T14:12:05.000Z</time>
      </trkpt>
      <trkpt lat="48.76276" lon="1.7194">
        <ele>118</ele>
        <time>2015-06-25T14:12:07.000Z</time>
      </trkpt>
      <trkpt lat="48.76274" lon="1.71951">
        <ele>118</ele>
        <time>2015-06-25T14:12:12.000Z</time>
      </trkpt>
      <trkpt lat="48.76271" lon="1.71966">
        <ele>118</ele>
        <time>2015-06-25T14:12:19.000Z</time>
      </trkpt>
      <trkpt lat="48.76268" lon="1.71975">
        <ele>118</ele>
        <time>2015-06-25T14:12:24.000Z</time>
      </trkpt>
      <trkpt lat="48.76265" lon="1.71991">
        <ele>118</ele>
        <time>2015-06-25T14:12:32.000Z</time>
      </trkpt>
      <trkpt lat="48.76263" lon="1.72009">
        <ele>118</ele>
        <time>2015-06-25T14:12:40.000Z</time>
      </trkpt>
      <trkpt lat="48.76261" lon="1.72022">
        <ele>118</ele>
        <time>2015-06-25T14:12:46.000Z</time>
      </trkpt>
      <trkpt lat="48.76255" lon="1.72037">
        <ele>118</ele>
        <time>2015-06-25T14:12:52.000Z</time>
      </trkpt>
      <trkpt lat="48.76252" lon="1.7205">
        <ele>118</ele>
        <time>2015-06-25T14:12:59.000Z</time>
      </trkpt>
      <trkpt lat="48.76253" lon="1.7205">
        <ele>118</ele>
        <time>2015-06-25T14:13:01.000Z</time>
      </trkpt>
      <trkpt lat="48.76253" lon="1.7206">
        <ele>118.1</ele>
        <time>2015-06-25T14:13:09.000Z</time>
      </trkpt>
      <trkpt lat="48.76251" lon="1.72073">
        <ele>118.6</ele>
        <time>2015-06-25T14:13:14.000Z</time>
      </trkpt>
      <trkpt lat="48.7625" lon="1.72087">
        <ele>119</ele>
        <time>2015-06-25T14:13:20.000Z</time>
      </trkpt>
      <trkpt lat="48.7625" lon="1.72092">
        <ele>119</ele>
        <time>2015-06-25T14:13:22.000Z</time>
      </trkpt>
      <trkpt lat="48.7625" lon="1.72105">
        <ele>119</ele>
        <time>2015-06-25T14:13:27.000Z</time>
      </trkpt>
      <trkpt lat="48.76249" lon="1.72118">
        <ele>118.7</ele>
        <time>2015-06-25T14:13:32.000Z</time>
      </trkpt>
      <trkpt lat="48.76249" lon="1.72123">
        <ele>118.6</ele>
        <time>2015-06-25T14:13:34.000Z</time>
      </trkpt>
      <trkpt lat="48.76248" lon="1.72137">
        <ele>118.1</ele>
        <time>2015-06-25T14:13:41.000Z</time>
      </trkpt>
      <trkpt lat="48.76249" lon="1.7215">
        <ele>118.4</ele>
        <time>2015-06-25T14:13:47.000Z</time>
      </trkpt>
      <trkpt lat="48.76249" lon="1.72167">
        <ele>119</ele>
        <time>2015-06-25T14:13:54.000Z</time>
      </trkpt>
      <trkpt lat="48.76251" lon="1.72171">
        <ele>119</ele>
        <time>2015-06-25T14:13:56.000Z</time>
      </trkpt>
      <trkpt lat="48.76249" lon="1.72191">
        <ele>119</ele>
        <time>2015-06-25T14:14:03.000Z</time>
      </trkpt>
      <trkpt lat="48.7625" lon="1.72204">
        <ele>119</ele>
        <time>2015-06-25T14:14:08.000Z</time>
      </trkpt>
      <trkpt lat="48.7625" lon="1.72219">
        <ele>119</ele>
        <time>2015-06-25T14:14:15.000Z</time>
      </trkpt>
      <trkpt lat="48.76252" lon="1.72222">
        <ele>119</ele>
        <time>2015-06-25T14:14:19.000Z</time>
      </trkpt>
      <trkpt lat="48.76254" lon="1.72227">
        <ele>119</ele>
        <time>2015-06-25T14:14:26.000Z</time>
      </trkpt>
      <trkpt lat="48.76258" lon="1.72227">
        <ele>119</ele>
        <time>2015-06-25T14:14:32.000Z</time>
      </trkpt>
      <trkpt lat="48.7627" lon="1.7223">
        <ele>119</ele>
        <time>2015-06-25T14:14:40.000Z</time>
      </trkpt>
      <trkpt lat="48.76278" lon="1.72231">
        <ele>119</ele>
        <time>2015-06-25T14:14:46.000Z</time>
      </trkpt>
      <trkpt lat="48.7629" lon="1.72227">
        <ele>118.6</ele>
        <time>2015-06-25T14:14:53.000Z</time>
      </trkpt>
      <trkpt lat="48.763" lon="1.72225">
        <ele>118.2</ele>
        <time>2015-06-25T14:14:58.000Z</time>
      </trkpt>
      <trkpt lat="48.76305" lon="1.72223">
        <ele>118</ele>
        <time>2015-06-25T14:15:04.000Z</time>
      </trkpt>
      <trkpt lat="48.76309" lon="1.72224">
        <ele>118.1</ele>
        <time>2015-06-25T14:15:07.000Z</time>
      </trkpt>
      <trkpt lat="48.76317" lon="1.72226">
        <ele>118.4</ele>
        <time>2015-06-25T14:15:12.000Z</time>
      </trkpt>
      <trkpt lat="48.76327" lon="1.72226">
        <ele>118.8</ele>
        <time>2015-06-25T14:15:19.000Z</time>
      </trkpt>
      <trkpt lat="48.76337" lon="1.72227">
        <ele>119.2</ele>
        <time>2015-06-25T14:15:27.000Z</time>
      </trkpt>
      <trkpt lat="48.76351" lon="1.72228">
        <ele>120.3</ele>
        <time>2015-06-25T14:15:38.000Z</time>
      </trkpt>
      <trkpt lat="48.76362" lon="1.72229">
        <ele>121</ele>
        <time>2015-06-25T14:15:46.000Z</time>
      </trkpt>
      <trkpt lat="48.76377" lon="1.72227">
        <ele>121.6</ele>
        <time>2015-06-25T14:15:53.000Z</time>
      </trkpt>
      <trkpt lat="48.76385" lon="1.72225">
        <ele>121.9</ele>
        <time>2015-06-25T14:15:58.000Z</time>
      </trkpt>
      <trkpt lat="48.76388" lon="1.72223">
        <ele>122</ele>
        <time>2015-06-25T14:16:01.000Z</time>
      </trkpt>
      <trkpt lat="48.76395" lon="1.72225">
        <ele>122.4</ele>
        <time>2015-06-25T14:16:06.000Z</time>
      </trkpt>
      <trkpt lat="48.76409" lon="1.72222">
        <ele>123.5</ele>
        <time>2015-06-25T14:16:14.000Z</time>
      </trkpt>
      <trkpt lat="48.76423" lon="1.7222">
        <ele>124.7</ele>
        <time>2015-06-25T14:16:19.000Z</time>
      </trkpt>
      <trkpt lat="48.76434" lon="1.72218">
        <ele>126</ele>
        <time>2015-06-25T14:16:26.000Z</time>
      </trkpt>
      <trkpt lat="48.76444" lon="1.72217">
        <ele>127.1</ele>
        <time>2015-06-25T14:16:33.000Z</time>
      </trkpt>
      <trkpt lat="48.76446" lon="1.72216">
        <ele>127.4</ele>
        <time>2015-06-25T14:16:35.000Z</time>
      </trkpt>
      <trkpt lat="48.76452" lon="1.7221">
        <ele>128.2</ele>
        <time>2015-06-25T14:16:42.000Z</time>
      </trkpt>
      <trkpt lat="48.76463" lon="1.72206">
        <ele>129.2</ele>
        <time>2015-06-25T14:16:51.000Z</time>
      </trkpt>
      <trkpt lat="48.76476" lon="1.72203">
        <ele>130.4</ele>
        <time>2015-06-25T14:16:58.000Z</time>
      </trkpt>
      <trkpt lat="48.76484" lon="1.722">
        <ele>131.2</ele>
        <time>2015-06-25T14:17:03.000Z</time>
      </trkpt>
      <trkpt lat="48.76495" lon="1.72193">
        <ele>132.5</ele>
        <time>2015-06-25T14:17:12.000Z</time>
      </trkpt>
      <trkpt lat="48.76503" lon="1.72187">
        <ele>133.5</ele>
        <time>2015-06-25T14:17:20.000Z</time>
      </trkpt>
      <trkpt lat="48.76508" lon="1.72182">
        <ele>134</ele>
        <time>2015-06-25T14:17:26.000Z</time>
      </trkpt>
      <trkpt lat="48.7651" lon="1.72181">
        <ele>134.3</ele>
        <time>2015-06-25T14:17:31.000Z</time>
      </trkpt>
      <trkpt lat="48.76513" lon="1.72175">
        <ele>134.6</ele>
        <time>2015-06-25T14:17:37.000Z</time>
      </trkpt>
      <trkpt lat="48.76523" lon="1.72177">
        <ele>135.7</ele>
        <time>2015-06-25T14:17:43.000Z</time>
      </trkpt>
      <trkpt lat="48.76532" lon="1.7218">
        <ele>137</ele>
        <time>2015-06-25T14:17:47.000Z</time>
      </trkpt>
      <trkpt lat="48.76542" lon="1.72181">
        <ele>138</ele>
        <time>2015-06-25T14:17:51.000Z</time>
      </trkpt>
      <trkpt lat="48.76552" lon="1.7218">
        <ele>139.1</ele>
        <time>2015-06-25T14:17:58.000Z</time>
      </trkpt>
      <trkpt lat="48.76563" lon="1.72177">
        <ele>140</ele>
        <time>2015-06-25T14:18:06.000Z</time>
      </trkpt>
      <trkpt lat="48.76574" lon="1.72176">
        <ele>140.6</ele>
        <time>2015-06-25T14:18:14.000Z</time>
      </trkpt>
      <trkpt lat="48.76584" lon="1.72176">
        <ele>141</ele>
        <time>2015-06-25T14:18:21.000Z</time>
      </trkpt>
      <trkpt lat="48.76595" lon="1.72177">
        <ele>141.6</ele>
        <time>2015-06-25T14:18:29.000Z</time>
      </trkpt>
      <trkpt lat="48.76608" lon="1.72176">
        <ele>142.2</ele>
        <time>2015-06-25T14:18:38.000Z</time>
      </trkpt>
      <trkpt lat="48.76619" lon="1.72175">
        <ele>142.6</ele>
        <time>2015-06-25T14:18:46.000Z</time>
      </trkpt>
      <trkpt lat="48.76632" lon="1.7217">
        <ele>142.8</ele>
        <time>2015-06-25T14:18:55.000Z</time>
      </trkpt>
      <trkpt lat="48.76641" lon="1.7217">
        <ele>143.2</ele>
        <time>2015-06-25T14:18:59.000Z</time>
      </trkpt>
      <trkpt lat="48.76649" lon="1.72167">
        <ele>143.7</ele>
        <time>2015-06-25T14:19:05.000Z</time>
      </trkpt>
      <trkpt lat="48.76662" lon="1.72166">
        <ele>144.7</ele>
        <time>2015-06-25T14:19:14.000Z</time>
      </trkpt>
      <trkpt lat="48.76673" lon="1.72165">
        <ele>145.5</ele>
        <time>2015-06-25T14:19:22.000Z</time>
      </trkpt>
      <trkpt lat="48.76686" lon="1.72164">
        <ele>146.4</ele>
        <time>2015-06-25T14:19:31.000Z</time>
      </trkpt>
      <trkpt lat="48.76696" lon="1.72161">
        <ele>147.1</ele>
        <time>2015-06-25T14:19:39.000Z</time>
      </trkpt>
      <trkpt lat="48.76705" lon="1.72164">
        <ele>147.8</ele>
        <time>2015-06-25T14:19:45.000Z</time>
      </trkpt>
      <trkpt lat="48.76716" lon="1.72174">
        <ele>148.5</ele>
        <time>2015-06-25T14:19:52.000Z</time>
      </trkpt>
      <trkpt lat="48.76725" lon="1.72183">
        <ele>149.2</ele>
        <time>2015-06-25T14:19:57.000Z</time>
      </trkpt>
      <trkpt lat="48.76735" lon="1.72192">
        <ele>149.9</ele>
        <time>2015-06-25T14:20:06.000Z</time>
      </trkpt>
      <trkpt lat="48.76742" lon="1.72202">
        <ele>150.7</ele>
        <time>2015-06-25T14:20:14.000Z</time>
      </trkpt>
      <trkpt lat="48.76752" lon="1.72211">
        <ele>151.8</ele>
        <time>2015-06-25T14:20:22.000Z</time>
      </trkpt>
      <trkpt lat="48.76761" lon="1.72221">
        <ele>153.2</ele>
        <time>2015-06-25T14:20:30.000Z</time>
      </trkpt>
      <trkpt lat="48.76771" lon="1.72232">
        <ele>154.4</ele>
        <time>2015-06-25T14:20:36.000Z</time>
      </trkpt>
      <trkpt lat="48.76783" lon="1.72243">
        <ele>155.4</ele>
        <time>2015-06-25T14:20:46.000Z</time>
      </trkpt>
      <trkpt lat="48.76791" lon="1.72251">
        <ele>155.9</ele>
        <time>2015-06-25T14:20:53.000Z</time>
      </trkpt>
      <trkpt lat="48.76803" lon="1.72262">
        <ele>156.4</ele>
        <time>2015-06-25T14:21:03.000Z</time>
      </trkpt>
      <trkpt lat="48.76818" lon="1.72277">
        <ele>156.9</ele>
        <time>2015-06-25T14:21:15.000Z</time>
      </trkpt>
      <trkpt lat="48.76828" lon="1.72287">
        <ele>157.4</ele>
        <time>2015-06-25T14:21:24.000Z</time>
      </trkpt>
      <trkpt lat="48.7684" lon="1.72298">
        <ele>157.8</ele>
        <time>2015-06-25T14:21:34.000Z</time>
      </trkpt>
      <trkpt lat="48.76852" lon="1.72309">
        <ele>158.3</ele>
        <time>2015-06-25T14:21:42.000Z</time>
      </trkpt>
      <trkpt lat="48.76865" lon="1.72323">
        <ele>159.2</ele>
        <time>2015-06-25T14:21:53.000Z</time>
      </trkpt>
      <trkpt lat="48.76878" lon="1.72335">
        <ele>159.6</ele>
        <time>2015-06-25T14:22:03.000Z</time>
      </trkpt>
      <trkpt lat="48.76888" lon="1.72345">
        <ele>159.9</ele>
        <time>2015-06-25T14:22:10.000Z</time>
      </trkpt>
      <trkpt lat="48.76896" lon="1.72353">
        <ele>160.5</ele>
        <time>2015-06-25T14:22:15.000Z</time>
      </trkpt>
      <trkpt lat="48.76905" lon="1.72363">
        <ele>161.2</ele>
        <time>2015-06-25T14:22:23.000Z</time>
      </trkpt>
      <trkpt lat="48.76907" lon="1.72374">
        <ele>161.2</ele>
        <time>2015-06-25T14:22:29.000Z</time>
      </trkpt>
      <trkpt lat="48.76902" lon="1.72386">
        <ele>160.5</ele>
        <time>2015-06-25T14:22:34.000Z</time>
      </trkpt>
      <trkpt lat="48.76895" lon="1.72395">
        <ele>159.3</ele>
        <time>2015-06-25T14:22:40.000Z</time>
      </trkpt>
      <trkpt lat="48.76893" lon="1.72401">
        <ele>158.6</ele>
        <time>2015-06-25T14:22:43.000Z</time>
      </trkpt>
      <trkpt lat="48.76889" lon="1.72415">
        <ele>157.1</ele>
        <time>2015-06-25T14:22:49.000Z</time>
      </trkpt>
      <trkpt lat="48.7688" lon="1.72427">
        <ele>155.6</ele>
        <time>2015-06-25T14:22:55.000Z</time>
      </trkpt>
      <trkpt lat="48.76872" lon="1.7244">
        <ele>153.9</ele>
        <time>2015-06-25T14:23:01.000Z</time>
      </trkpt>
      <trkpt lat="48.76863" lon="1.72454">
        <ele>151.6</ele>
        <time>2015-06-25T14:23:09.000Z</time>
      </trkpt>
      <trkpt lat="48.76853" lon="1.72467">
        <ele>149.7</ele>
        <time>2015-06-25T14:23:17.000Z</time>
      </trkpt>
      <trkpt lat="48.76844" lon="1.72482">
        <ele>148.4</ele>
        <time>2015-06-25T14:23:23.000Z</time>
      </trkpt>
      <trkpt lat="48.76834" lon="1.72497">
        <ele>147.2</ele>
        <time>2015-06-25T14:23:32.000Z</time>
      </trkpt>
      <trkpt lat="48.76825" lon="1.7251">
        <ele>145.8</ele>
        <time>2015-06-25T14:23:39.000Z</time>
      </trkpt>
      <trkpt lat="48.76818" lon="1.72518">
        <ele>145</ele>
        <time>2015-06-25T14:23:44.000Z</time>
      </trkpt>
      <trkpt lat="48.76811" lon="1.7253">
        <ele>144.1</ele>
        <time>2015-06-25T14:23:50.000Z</time>
      </trkpt>
      <trkpt lat="48.76801" lon="1.72542">
        <ele>142.7</ele>
        <time>2015-06-25T14:23:58.000Z</time>
      </trkpt>
      <trkpt lat="48.76796" lon="1.72547">
        <ele>142</ele>
        <time>2015-06-25T14:24:02.000Z</time>
      </trkpt>
      <trkpt lat="48.7679" lon="1.72554">
        <ele>141</ele>
        <time>2015-06-25T14:24:07.000Z</time>
      </trkpt>
      <trkpt lat="48.76783" lon="1.72565">
        <ele>139.7</ele>
        <time>2015-06-25T14:24:13.000Z</time>
      </trkpt>
      <trkpt lat="48.76778" lon="1.72573">
        <ele>138.7</ele>
        <time>2015-06-25T14:24:18.000Z</time>
      </trkpt>
      <trkpt lat="48.76771" lon="1.72584">
        <ele>137.7</ele>
        <time>2015-06-25T14:24:25.000Z</time>
      </trkpt>
      <trkpt lat="48.76765" lon="1.72594">
        <ele>136.8</ele>
        <time>2015-06-25T14:24:30.000Z</time>
      </trkpt>
      <trkpt lat="48.76762" lon="1.72606">
        <ele>135.8</ele>
        <time>2015-06-25T14:24:35.000Z</time>
      </trkpt>
      <trkpt lat="48.76757" lon="1.72617">
        <ele>135</ele>
        <time>2015-06-25T14:24:42.000Z</time>
      </trkpt>
      <trkpt lat="48.76748" lon="1.7262">
        <ele>134.6</ele>
        <time>2015-06-25T14:24:48.000Z</time>
      </trkpt>
      <trkpt lat="48.76737" lon="1.72615">
        <ele>134.4</ele>
        <time>2015-06-25T14:24:55.000Z</time>
      </trkpt>
      <trkpt lat="48.76722" lon="1.72612">
        <ele>133.9</ele>
        <time>2015-06-25T14:25:03.000Z</time>
      </trkpt>
      <trkpt lat="48.76711" lon="1.72608">
        <ele>133.7</ele>
        <time>2015-06-25T14:25:10.000Z</time>
      </trkpt>
      <trkpt lat="48.76697" lon="1.72604">
        <ele>133.4</ele>
        <time>2015-06-25T14:25:18.000Z</time>
      </trkpt>
      <trkpt lat="48.7669" lon="1.72598">
        <ele>133.4</ele>
        <time>2015-06-25T14:25:24.000Z</time>
      </trkpt>
      <trkpt lat="48.76684" lon="1.72594">
        <ele>133.5</ele>
        <time>2015-06-25T14:25:29.000Z</time>
      </trkpt>
      <trkpt lat="48.76672" lon="1.72591">
        <ele>133.5</ele>
        <time>2015-06-25T14:25:37.000Z</time>
      </trkpt>
      <trkpt lat="48.7666" lon="1.72586">
        <ele>133.6</ele>
        <time>2015-06-25T14:25:45.000Z</time>
      </trkpt>
      <trkpt lat="48.76646" lon="1.72578">
        <ele>133.6</ele>
        <time>2015-06-25T14:25:54.000Z</time>
      </trkpt>
      <trkpt lat="48.76633" lon="1.72574">
        <ele>133.7</ele>
        <time>2015-06-25T14:26:00.000Z</time>
      </trkpt>
      <trkpt lat="48.76621" lon="1.72566">
        <ele>134.2</ele>
        <time>2015-06-25T14:26:06.000Z</time>
      </trkpt>
      <trkpt lat="48.76611" lon="1.72556">
        <ele>135</ele>
        <time>2015-06-25T14:26:14.000Z</time>
      </trkpt>
      <trkpt lat="48.76605" lon="1.72547">
        <ele>135.4</ele>
        <time>2015-06-25T14:26:20.000Z</time>
      </trkpt>
      <trkpt lat="48.766" lon="1.72529">
        <ele>136.5</ele>
        <time>2015-06-25T14:26:29.000Z</time>
      </trkpt>
      <trkpt lat="48.76597" lon="1.72516">
        <ele>137.4</ele>
        <time>2015-06-25T14:26:37.000Z</time>
      </trkpt>
      <trkpt lat="48.76596" lon="1.72505">
        <ele>138.1</ele>
        <time>2015-06-25T14:26:42.000Z</time>
      </trkpt>
      <trkpt lat="48.76598" lon="1.72505">
        <ele>138.2</ele>
        <time>2015-06-25T14:26:48.000Z</time>
      </trkpt>
      <trkpt lat="48.76602" lon="1.72511">
        <ele>137.9</ele>
        <time>2015-06-25T14:26:52.000Z</time>
      </trkpt>
      <trkpt lat="48.76601" lon="1.72513">
        <ele>137.7</ele>
        <time>2015-06-25T14:26:55.000Z</time>
      </trkpt>
      <trkpt lat="48.76603" lon="1.72525">
        <ele>136.9</ele>
        <time>2015-06-25T14:27:19.000Z</time>
      </trkpt>
      <trkpt lat="48.76606" lon="1.72526">
        <ele>136.9</ele>
        <time>2015-06-25T14:27:22.000Z</time>
      </trkpt>
      <trkpt lat="48.76604" lon="1.72522">
        <ele>137.2</ele>
        <time>2015-06-25T14:27:26.000Z</time>
      </trkpt>
      <trkpt lat="48.76603" lon="1.7252">
        <ele>137.3</ele>
        <time>2015-06-25T14:27:27.000Z</time>
      </trkpt>
      <trkpt lat="48.766" lon="1.72514">
        <ele>137.6</ele>
        <time>2015-06-25T14:27:34.000Z</time>
      </trkpt>
      <trkpt lat="48.76602" lon="1.72523">
        <ele>137</ele>
        <time>2015-06-25T14:28:44.000Z</time>
      </trkpt>
      <trkpt lat="48.76605" lon="1.72531">
        <ele>136.5</ele>
        <time>2015-06-25T14:28:46.000Z</time>
      </trkpt>
      <trkpt lat="48.76606" lon="1.72535">
        <ele>136.3</ele>
        <time>2015-06-25T14:28:48.000Z</time>
      </trkpt>
      <trkpt lat="48.76611" lon="1.72547">
        <ele>135.6</ele>
        <time>2015-06-25T14:28:54.000Z</time>
      </trkpt>
      <trkpt lat="48.76618" lon="1.72557">
        <ele>134.9</ele>
        <time>2015-06-25T14:29:01.000Z</time>
      </trkpt>
      <trkpt lat="48.76621" lon="1.72558">
        <ele>134.8</ele>
        <time>2015-06-25T14:29:04.000Z</time>
      </trkpt>
      <trkpt lat="48.76622" lon="1.72547">
        <ele>135.6</ele>
        <time>2015-06-25T14:29:11.000Z</time>
      </trkpt>
      <trkpt lat="48.76625" lon="1.72536">
        <ele>136.4</ele>
        <time>2015-06-25T14:29:18.000Z</time>
      </trkpt>
      <trkpt lat="48.76629" lon="1.72524">
        <ele>137.3</ele>
        <time>2015-06-25T14:29:25.000Z</time>
      </trkpt>
      <trkpt lat="48.76632" lon="1.72514">
        <ele>138.4</ele>
        <time>2015-06-25T14:29:31.000Z</time>
      </trkpt>
      <trkpt lat="48.76635" lon="1.725">
        <ele>139.9</ele>
        <time>2015-06-25T14:29:38.000Z</time>
      </trkpt>
      <trkpt lat="48.76639" lon="1.72488">
        <ele>140.4</ele>
        <time>2015-06-25T14:29:45.000Z</time>
      </trkpt>
      <trkpt lat="48.76644" lon="1.72472">
        <ele>141</ele>
        <time>2015-06-25T14:29:53.000Z</time>
      </trkpt>
      <trkpt lat="48.76648" lon="1.72456">
        <ele>142.1</ele>
        <time>2015-06-25T14:30:01.000Z</time>
      </trkpt>
      <trkpt lat="48.76651" lon="1.72443">
        <ele>143.1</ele>
        <time>2015-06-25T14:30:08.000Z</time>
      </trkpt>
      <trkpt lat="48.76655" lon="1.72431">
        <ele>143.8</ele>
        <time>2015-06-25T14:30:14.000Z</time>
      </trkpt>
      <trkpt lat="48.76656" lon="1.72428">
        <ele>144</ele>
        <time>2015-06-25T14:30:16.000Z</time>
      </trkpt>
      <trkpt lat="48.7666" lon="1.72416">
        <ele>144.8</ele>
        <time>2015-06-25T14:30:23.000Z</time>
      </trkpt>
      <trkpt lat="48.76658" lon="1.72416">
        <ele>144.7</ele>
        <time>2015-06-25T14:30:29.000Z</time>
      </trkpt>
      <trkpt lat="48.76656" lon="1.72432">
        <ele>143.7</ele>
        <time>2015-06-25T14:30:36.000Z</time>
      </trkpt>
      <trkpt lat="48.76654" lon="1.72449">
        <ele>142.7</ele>
        <time>2015-06-25T14:30:43.000Z</time>
      </trkpt>
      <trkpt lat="48.76649" lon="1.72463">
        <ele>141.6</ele>
        <time>2015-06-25T14:30:50.000Z</time>
      </trkpt>
      <trkpt lat="48.76646" lon="1.72481">
        <ele>140.6</ele>
        <time>2015-06-25T14:30:57.000Z</time>
      </trkpt>
      <trkpt lat="48.76641" lon="1.72501">
        <ele>139.8</ele>
        <time>2015-06-25T14:31:06.000Z</time>
      </trkpt>
      <trkpt lat="48.76639" lon="1.72512">
        <ele>138.7</ele>
        <time>2015-06-25T14:31:11.000Z</time>
      </trkpt>
      <trkpt lat="48.76633" lon="1.72527">
        <ele>137.1</ele>
        <time>2015-06-25T14:31:18.000Z</time>
      </trkpt>
      <trkpt lat="48.7663" lon="1.72537">
        <ele>136.3</ele>
        <time>2015-06-25T14:31:23.000Z</time>
      </trkpt>
      <trkpt lat="48.76625" lon="1.72543">
        <ele>135.9</ele>
        <time>2015-06-25T14:31:27.000Z</time>
      </trkpt>
      <trkpt lat="48.76623" lon="1.72559">
        <ele>134.8</ele>
        <time>2015-06-25T14:31:34.000Z</time>
      </trkpt>
      <trkpt lat="48.76623" lon="1.72562">
        <ele>134.5</ele>
        <time>2015-06-25T14:31:36.000Z</time>
      </trkpt>
      <trkpt lat="48.76619" lon="1.72566">
        <ele>134.3</ele>
        <time>2015-06-25T14:31:43.000Z</time>
      </trkpt>
      <trkpt lat="48.76618" lon="1.72568">
        <ele>134.1</ele>
        <time>2015-06-25T14:31:46.000Z</time>
      </trkpt>
      <trkpt lat="48.76613" lon="1.72588">
        <ele>132.8</ele>
        <time>2015-06-25T14:31:54.000Z</time>
      </trkpt>
      <trkpt lat="48.7661" lon="1.72603">
        <ele>132.3</ele>
        <time>2015-06-25T14:32:00.000Z</time>
      </trkpt>
      <trkpt lat="48.76605" lon="1.72624">
        <ele>130.9</ele>
        <time>2015-06-25T14:32:09.000Z</time>
      </trkpt>
      <trkpt lat="48.76599" lon="1.72643">
        <ele>129.9</ele>
        <time>2015-06-25T14:32:17.000Z</time>
      </trkpt>
      <trkpt lat="48.76598" lon="1.72645">
        <ele>129.9</ele>
        <time>2015-06-25T14:32:18.000Z</time>
      </trkpt>
      <trkpt lat="48.76594" lon="1.7266">
        <ele>129.5</ele>
        <time>2015-06-25T14:32:25.000Z</time>
      </trkpt>
      <trkpt lat="48.76592" lon="1.72674">
        <ele>129.1</ele>
        <time>2015-06-25T14:32:31.000Z</time>
      </trkpt>
      <trkpt lat="48.7659" lon="1.72683">
        <ele>128.6</ele>
        <time>2015-06-25T14:32:35.000Z</time>
      </trkpt>
      <trkpt lat="48.76586" lon="1.72689">
        <ele>128.3</ele>
        <time>2015-06-25T14:32:38.000Z</time>
      </trkpt>
      <trkpt lat="48.7658" lon="1.72707">
        <ele>127.9</ele>
        <time>2015-06-25T14:32:46.000Z</time>
      </trkpt>
      <trkpt lat="48.7658" lon="1.72708">
        <ele>127.9</ele>
        <time>2015-06-25T14:32:49.000Z</time>
      </trkpt>
      <trkpt lat="48.76582" lon="1.72698">
        <ele>127.9</ele>
        <time>2015-06-25T14:33:06.000Z</time>
      </trkpt>
      <trkpt lat="48.76586" lon="1.72685">
        <ele>128.4</ele>
        <time>2015-06-25T14:33:12.000Z</time>
      </trkpt>
      <trkpt lat="48.76589" lon="1.72675">
        <ele>128.9</ele>
        <time>2015-06-25T14:33:17.000Z</time>
      </trkpt>
      <trkpt lat="48.7659" lon="1.72658">
        <ele>129.5</ele>
        <time>2015-06-25T14:33:24.000Z</time>
      </trkpt>
      <trkpt lat="48.76593" lon="1.72647">
        <ele>129.8</ele>
        <time>2015-06-25T14:33:29.000Z</time>
      </trkpt>
      <trkpt lat="48.76597" lon="1.72638">
        <ele>130.1</ele>
        <time>2015-06-25T14:33:34.000Z</time>
      </trkpt>
      <trkpt lat="48.76601" lon="1.72619">
        <ele>131.2</ele>
        <time>2015-06-25T14:33:43.000Z</time>
      </trkpt>
      <trkpt lat="48.76606" lon="1.726">
        <ele>132.2</ele>
        <time>2015-06-25T14:33:52.000Z</time>
      </trkpt>
      <trkpt lat="48.76612" lon="1.72582">
        <ele>133.1</ele>
        <time>2015-06-25T14:34:01.000Z</time>
      </trkpt>
      <trkpt lat="48.76616" lon="1.72569">
        <ele>134.1</ele>
        <time>2015-06-25T14:34:09.000Z</time>
      </trkpt>
      <trkpt lat="48.76611" lon="1.72559">
        <ele>134.8</ele>
        <time>2015-06-25T14:34:17.000Z</time>
      </trkpt>
      <trkpt lat="48.76606" lon="1.72548">
        <ele>135.4</ele>
        <time>2015-06-25T14:34:24.000Z</time>
      </trkpt>
      <trkpt lat="48.766" lon="1.72531">
        <ele>136.4</ele>
        <time>2015-06-25T14:34:33.000Z</time>
      </trkpt>
      <trkpt lat="48.76597" lon="1.72517">
        <ele>137.2</ele>
        <time>2015-06-25T14:34:40.000Z</time>
      </trkpt>
      <trkpt lat="48.76593" lon="1.72505">
        <ele>138</ele>
        <time>2015-06-25T14:34:47.000Z</time>
      </trkpt>
      <trkpt lat="48.76589" lon="1.72491">
        <ele>138.8</ele>
        <time>2015-06-25T14:34:55.000Z</time>
      </trkpt>
      <trkpt lat="48.76586" lon="1.72478">
        <ele>139.7</ele>
        <time>2015-06-25T14:35:02.000Z</time>
      </trkpt>
      <trkpt lat="48.7658" lon="1.72462">
        <ele>140.6</ele>
        <time>2015-06-25T14:35:11.000Z</time>
      </trkpt>
      <trkpt lat="48.76577" lon="1.72448">
        <ele>141.3</ele>
        <time>2015-06-25T14:35:17.000Z</time>
      </trkpt>
      <trkpt lat="48.76574" lon="1.72438">
        <ele>141.4</ele>
        <time>2015-06-25T14:35:21.000Z</time>
      </trkpt>
      <trkpt lat="48.76569" lon="1.72417">
        <ele>141.5</ele>
        <time>2015-06-25T14:35:29.000Z</time>
      </trkpt>
      <trkpt lat="48.76565" lon="1.72404">
        <ele>141.5</ele>
        <time>2015-06-25T14:35:35.000Z</time>
      </trkpt>
      <trkpt lat="48.7656" lon="1.72386">
        <ele>141.3</ele>
        <time>2015-06-25T14:35:43.000Z</time>
      </trkpt>
      <trkpt lat="48.76555" lon="1.72371">
        <ele>140.9</ele>
        <time>2015-06-25T14:35:50.000Z</time>
      </trkpt>
      <trkpt lat="48.76551" lon="1.72354">
        <ele>140.5</ele>
        <time>2015-06-25T14:35:57.000Z</time>
      </trkpt>
      <trkpt lat="48.76546" lon="1.72334">
        <ele>140</ele>
        <time>2015-06-25T14:36:05.000Z</time>
      </trkpt>
      <trkpt lat="48.7654" lon="1.72315">
        <ele>138.7</ele>
        <time>2015-06-25T14:36:13.000Z</time>
      </trkpt>
      <trkpt lat="48.76536" lon="1.72304">
        <ele>137.9</ele>
        <time>2015-06-25T14:36:18.000Z</time>
      </trkpt>
      <trkpt lat="48.76531" lon="1.72285">
        <ele>137.3</ele>
        <time>2015-06-25T14:36:26.000Z</time>
      </trkpt>
      <trkpt lat="48.76531" lon="1.72283">
        <ele>137.3</ele>
        <time>2015-06-25T14:36:27.000Z</time>
      </trkpt>
      <trkpt lat="48.76525" lon="1.72265">
        <ele>136.7</ele>
        <time>2015-06-25T14:36:35.000Z</time>
      </trkpt>
      <trkpt lat="48.76519" lon="1.72251">
        <ele>136.1</ele>
        <time>2015-06-25T14:36:42.000Z</time>
      </trkpt>
      <trkpt lat="48.76516" lon="1.72236">
        <ele>135.5</ele>
        <time>2015-06-25T14:36:49.000Z</time>
      </trkpt>
      <trkpt lat="48.7651" lon="1.7222">
        <ele>134.4</ele>
        <time>2015-06-25T14:36:57.000Z</time>
      </trkpt>
      <trkpt lat="48.76507" lon="1.72215">
        <ele>134</ele>
        <time>2015-06-25T14:37:00.000Z</time>
      </trkpt>
      <trkpt lat="48.76507" lon="1.72204">
        <ele>134</ele>
        <time>2015-06-25T14:37:05.000Z</time>
      </trkpt>
      <trkpt lat="48.76501" lon="1.72198">
        <ele>133.1</ele>
        <time>2015-06-25T14:37:11.000Z</time>
      </trkpt>
      <trkpt lat="48.7649" lon="1.72203">
        <ele>131.9</ele>
        <time>2015-06-25T14:37:19.000Z</time>
      </trkpt>
      <trkpt lat="48.76482" lon="1.72208">
        <ele>131.1</ele>
        <time>2015-06-25T14:37:26.000Z</time>
      </trkpt>
      <trkpt lat="48.76476" lon="1.72211">
        <ele>130.4</ele>
        <time>2015-06-25T14:37:31.000Z</time>
      </trkpt>
      <trkpt lat="48.76469" lon="1.72212">
        <ele>129.7</ele>
        <time>2015-06-25T14:37:35.000Z</time>
      </trkpt>
      <trkpt lat="48.76461" lon="1.72218">
        <ele>128.8</ele>
        <time>2015-06-25T14:37:42.000Z</time>
      </trkpt>
      <trkpt lat="48.76459" lon="1.72219">
        <ele>128.7</ele>
        <time>2015-06-25T14:37:43.000Z</time>
      </trkpt>
      <trkpt lat="48.7645" lon="1.72224">
        <ele>127.5</ele>
        <time>2015-06-25T14:37:51.000Z</time>
      </trkpt>
      <trkpt lat="48.76449" lon="1.72224">
        <ele>127.5</ele>
        <time>2015-06-25T14:37:53.000Z</time>
      </trkpt>
      <trkpt lat="48.76453" lon="1.72222">
        <ele>127.9</ele>
        <time>2015-06-25T14:38:02.000Z</time>
      </trkpt>
      <trkpt lat="48.76456" lon="1.72229">
        <ele>128.2</ele>
        <time>2015-06-25T14:38:06.000Z</time>
      </trkpt>
      <trkpt lat="48.76456" lon="1.72231">
        <ele>128.2</ele>
        <time>2015-06-25T14:38:07.000Z</time>
      </trkpt>
      <trkpt lat="48.76461" lon="1.72247">
        <ele>128.8</ele>
        <time>2015-06-25T14:38:15.000Z</time>
      </trkpt>
      <trkpt lat="48.76462" lon="1.72248">
        <ele>128.8</ele>
        <time>2015-06-25T14:38:18.000Z</time>
      </trkpt>
      <trkpt lat="48.76452" lon="1.72254">
        <ele>127.9</ele>
        <time>2015-06-25T14:41:57.000Z</time>
      </trkpt>
      <trkpt lat="48.76451" lon="1.72254">
        <ele>127.9</ele>
        <time>2015-06-25T14:42:01.000Z</time>
      </trkpt>
      <trkpt lat="48.76458" lon="1.72249">
        <ele>128.5</ele>
        <time>2015-06-25T14:42:58.000Z</time>
      </trkpt>
      <trkpt lat="48.76459" lon="1.72245">
        <ele>128.6</ele>
        <time>2015-06-25T14:43:07.000Z</time>
      </trkpt>
      <trkpt lat="48.76458" lon="1.72242">
        <ele>128.5</ele>
        <time>2015-06-25T14:43:11.000Z</time>
      </trkpt>
      <trkpt lat="48.76456" lon="1.72237">
        <ele>128.3</ele>
        <time>2015-06-25T14:44:01.000Z</time>
      </trkpt>
      <trkpt lat="48.76457" lon="1.72231">
        <ele>128.3</ele>
        <time>2015-06-25T14:44:03.000Z</time>
      </trkpt>
      <trkpt lat="48.76455" lon="1.72225">
        <ele>128.2</ele>
        <time>2015-06-25T14:44:07.000Z</time>
      </trkpt>
      <trkpt lat="48.7645" lon="1.72223">
        <ele>127.6</ele>
        <time>2015-06-25T14:44:11.000Z</time>
      </trkpt>
      <trkpt lat="48.76438" lon="1.72225">
        <ele>126.3</ele>
        <time>2015-06-25T14:44:19.000Z</time>
      </trkpt>
      <trkpt lat="48.76427" lon="1.72226">
        <ele>125.1</ele>
        <time>2015-06-25T14:44:27.000Z</time>
      </trkpt>
      <trkpt lat="48.76415" lon="1.72226">
        <ele>123.9</ele>
        <time>2015-06-25T14:44:36.000Z</time>
      </trkpt>
      <trkpt lat="48.76403" lon="1.72226">
        <ele>123</ele>
        <time>2015-06-25T14:44:44.000Z</time>
      </trkpt>
      <trkpt lat="48.76392" lon="1.72227">
        <ele>122.2</ele>
        <time>2015-06-25T14:44:50.000Z</time>
      </trkpt>
      <trkpt lat="48.76382" lon="1.72227">
        <ele>121.8</ele>
        <time>2015-06-25T14:44:57.000Z</time>
      </trkpt>
      <trkpt lat="48.76382" lon="1.72228">
        <ele>121.7</ele>
        <time>2015-06-25T14:45:00.000Z</time>
      </trkpt>
      <trkpt lat="48.76389" lon="1.72228">
        <ele>122</ele>
        <time>2015-06-25T14:45:15.000Z</time>
      </trkpt>
      <trkpt lat="48.76394" lon="1.72229">
        <ele>122.4</ele>
        <time>2015-06-25T14:45:18.000Z</time>
      </trkpt>
      <trkpt lat="48.76404" lon="1.72229">
        <ele>123.1</ele>
        <time>2015-06-25T14:45:23.000Z</time>
      </trkpt>
      <trkpt lat="48.76408" lon="1.72227">
        <ele>123.4</ele>
        <time>2015-06-25T14:45:28.000Z</time>
      </trkpt>
      <trkpt lat="48.76408" lon="1.72227">
        <ele>123.3</ele>
        <time>2015-06-25T14:45:30.000Z</time>
      </trkpt>
      <trkpt lat="48.76402" lon="1.72227">
        <ele>123</ele>
        <time>2015-06-25T14:45:36.000Z</time>
      </trkpt>
      <trkpt lat="48.76391" lon="1.72228">
        <ele>122.1</ele>
        <time>2015-06-25T14:45:43.000Z</time>
      </trkpt>
      <trkpt lat="48.76375" lon="1.72228">
        <ele>121.5</ele>
        <time>2015-06-25T14:45:54.000Z</time>
      </trkpt>
      <trkpt lat="48.7636" lon="1.72228">
        <ele>120.9</ele>
        <time>2015-06-25T14:46:05.000Z</time>
      </trkpt>
      <trkpt lat="48.76345" lon="1.72229">
        <ele>119.9</ele>
        <time>2015-06-25T14:46:15.000Z</time>
      </trkpt>
      <trkpt lat="48.76333" lon="1.72228">
        <ele>119</ele>
        <time>2015-06-25T14:46:24.000Z</time>
      </trkpt>
      <trkpt lat="48.76318" lon="1.72229">
        <ele>118.4</ele>
        <time>2015-06-25T14:46:35.000Z</time>
      </trkpt>
      <trkpt lat="48.76316" lon="1.72231">
        <ele>118.4</ele>
        <time>2015-06-25T14:46:37.000Z</time>
      </trkpt>
      <trkpt lat="48.76308" lon="1.72229">
        <ele>118.1</ele>
        <time>2015-06-25T14:46:43.000Z</time>
      </trkpt>
      <trkpt lat="48.76307" lon="1.7223">
        <ele>118</ele>
        <time>2015-06-25T14:46:44.000Z</time>
      </trkpt>
      <trkpt lat="48.76295" lon="1.72232">
        <ele>118.4</ele>
        <time>2015-06-25T14:46:52.000Z</time>
      </trkpt>
      <trkpt lat="48.76281" lon="1.72233">
        <ele>118.9</ele>
        <time>2015-06-25T14:47:01.000Z</time>
      </trkpt>
      <trkpt lat="48.76272" lon="1.72232">
        <ele>119</ele>
        <time>2015-06-25T14:47:07.000Z</time>
      </trkpt>
      <trkpt lat="48.76259" lon="1.72233">
        <ele>119</ele>
        <time>2015-06-25T14:47:14.000Z</time>
      </trkpt>
      <trkpt lat="48.76254" lon="1.72234">
        <ele>119</ele>
        <time>2015-06-25T14:47:18.000Z</time>
      </trkpt>
      <trkpt lat="48.76254" lon="1.72245">
        <ele>119</ele>
        <time>2015-06-25T14:47:24.000Z</time>
      </trkpt>
      <trkpt lat="48.76253" lon="1.72251">
        <ele>119</ele>
        <time>2015-06-25T14:47:27.000Z</time>
      </trkpt>
      <trkpt lat="48.76252" lon="1.72257">
        <ele>119</ele>
        <time>2015-06-25T14:47:30.000Z</time>
      </trkpt>
      <trkpt lat="48.76248" lon="1.72274">
        <ele>119</ele>
        <time>2015-06-25T14:47:37.000Z</time>
      </trkpt>
      <trkpt lat="48.76247" lon="1.72277">
        <ele>119</ele>
        <time>2015-06-25T14:47:38.000Z</time>
      </trkpt>
      <trkpt lat="48.76242" lon="1.72292">
        <ele>119</ele>
        <time>2015-06-25T14:47:45.000Z</time>
      </trkpt>
      <trkpt lat="48.76235" lon="1.72308">
        <ele>119</ele>
        <time>2015-06-25T14:47:53.000Z</time>
      </trkpt>
      <trkpt lat="48.76228" lon="1.72323">
        <ele>118.9</ele>
        <time>2015-06-25T14:48:00.000Z</time>
      </trkpt>
      <trkpt lat="48.76222" lon="1.72334">
        <ele>119</ele>
        <time>2015-06-25T14:48:05.000Z</time>
      </trkpt>
      <trkpt lat="48.76213" lon="1.72349">
        <ele>119.3</ele>
        <time>2015-06-25T14:48:13.000Z</time>
      </trkpt>
      <trkpt lat="48.76211" lon="1.72355">
        <ele>119.4</ele>
        <time>2015-06-25T14:48:16.000Z</time>
      </trkpt>
      <trkpt lat="48.76204" lon="1.72363">
        <ele>119.6</ele>
        <time>2015-06-25T14:48:22.000Z</time>
      </trkpt>
      <trkpt lat="48.76197" lon="1.72374">
        <ele>119.9</ele>
        <time>2015-06-25T14:48:28.000Z</time>
      </trkpt>
      <trkpt lat="48.76191" lon="1.72386">
        <ele>120.1</ele>
        <time>2015-06-25T14:48:34.000Z</time>
      </trkpt>
      <trkpt lat="48.76187" lon="1.72394">
        <ele>120.1</ele>
        <time>2015-06-25T14:48:38.000Z</time>
      </trkpt>
      <trkpt lat="48.76182" lon="1.72401">
        <ele>120.2</ele>
        <time>2015-06-25T14:48:42.000Z</time>
      </trkpt>
      <trkpt lat="48.76171" lon="1.72415">
        <ele>120.7</ele>
        <time>2015-06-25T14:48:50.000Z</time>
      </trkpt>
      <trkpt lat="48.76164" lon="1.72425">
        <ele>120.7</ele>
        <time>2015-06-25T14:48:56.000Z</time>
      </trkpt>
      <trkpt lat="48.76158" lon="1.72438">
        <ele>120.5</ele>
        <time>2015-06-25T14:49:02.000Z</time>
      </trkpt>
      <trkpt lat="48.76155" lon="1.72441">
        <ele>120.5</ele>
        <time>2015-06-25T14:49:04.000Z</time>
      </trkpt>
      <trkpt lat="48.76146" lon="1.72454">
        <ele>120.7</ele>
        <time>2015-06-25T14:49:12.000Z</time>
      </trkpt>
      <trkpt lat="48.7614" lon="1.72465">
        <ele>121</ele>
        <time>2015-06-25T14:49:18.000Z</time>
      </trkpt>
      <trkpt lat="48.76134" lon="1.72477">
        <ele>121.2</ele>
        <time>2015-06-25T14:49:24.000Z</time>
      </trkpt>
      <trkpt lat="48.76126" lon="1.72489">
        <ele>121.4</ele>
        <time>2015-06-25T14:49:30.000Z</time>
      </trkpt>
      <trkpt lat="48.76117" lon="1.72501">
        <ele>121.8</ele>
        <time>2015-06-25T14:49:37.000Z</time>
      </trkpt>
      <trkpt lat="48.76109" lon="1.7251">
        <ele>122.1</ele>
        <time>2015-06-25T14:49:43.000Z</time>
      </trkpt>
      <trkpt lat="48.76108" lon="1.72512">
        <ele>122.1</ele>
        <time>2015-06-25T14:49:44.000Z</time>
      </trkpt>
      <trkpt lat="48.76104" lon="1.72525">
        <ele>122.3</ele>
        <time>2015-06-25T14:49:50.000Z</time>
      </trkpt>
      <trkpt lat="48.761" lon="1.72531">
        <ele>122.4</ele>
        <time>2015-06-25T14:49:53.000Z</time>
      </trkpt>
      <trkpt lat="48.76093" lon="1.7254">
        <ele>122.6</ele>
        <time>2015-06-25T14:49:59.000Z</time>
      </trkpt>
      <trkpt lat="48.76085" lon="1.72546">
        <ele>123</ele>
        <time>2015-06-25T14:50:05.000Z</time>
      </trkpt>
      <trkpt lat="48.76077" lon="1.72557">
        <ele>123.2</ele>
        <time>2015-06-25T14:50:12.000Z</time>
      </trkpt>
      <trkpt lat="48.76066" lon="1.72565">
        <ele>123.6</ele>
        <time>2015-06-25T14:50:19.000Z</time>
      </trkpt>
      <trkpt lat="48.76058" lon="1.7257">
        <ele>123.9</ele>
        <time>2015-06-25T14:50:25.000Z</time>
      </trkpt>
      <trkpt lat="48.76053" lon="1.72576">
        <ele>124.1</ele>
        <time>2015-06-25T14:50:30.000Z</time>
      </trkpt>
      <trkpt lat="48.76046" lon="1.72582">
        <ele>124.3</ele>
        <time>2015-06-25T14:50:35.000Z</time>
      </trkpt>
      <trkpt lat="48.76042" lon="1.7259">
        <ele>124.4</ele>
        <time>2015-06-25T14:50:39.000Z</time>
      </trkpt>
      <trkpt lat="48.76036" lon="1.72597">
        <ele>124.3</ele>
        <time>2015-06-25T14:50:45.000Z</time>
      </trkpt>
      <trkpt lat="48.76027" lon="1.72608">
        <ele>124.1</ele>
        <time>2015-06-25T14:50:53.000Z</time>
      </trkpt>
      <trkpt lat="48.76026" lon="1.72609">
        <ele>124.1</ele>
        <time>2015-06-25T14:50:54.000Z</time>
      </trkpt>
      <trkpt lat="48.76017" lon="1.72619">
        <ele>124.4</ele>
        <time>2015-06-25T14:51:01.000Z</time>
      </trkpt>
      <trkpt lat="48.76008" lon="1.72629">
        <ele>124.7</ele>
        <time>2015-06-25T14:51:07.000Z</time>
      </trkpt>
      <trkpt lat="48.76005" lon="1.72635">
        <ele>124.8</ele>
        <time>2015-06-25T14:51:10.000Z</time>
      </trkpt>
      <trkpt lat="48.76001" lon="1.72639">
        <ele>125</ele>
        <time>2015-06-25T14:51:13.000Z</time>
      </trkpt>
      <trkpt lat="48.75995" lon="1.72644">
        <ele>125.2</ele>
        <time>2015-06-25T14:51:17.000Z</time>
      </trkpt>
      <trkpt lat="48.75988" lon="1.72654">
        <ele>125.4</ele>
        <time>2015-06-25T14:51:23.000Z</time>
      </trkpt>
      <trkpt lat="48.75988" lon="1.72656">
        <ele>125.4</ele>
        <time>2015-06-25T14:51:25.000Z</time>
      </trkpt>
      <trkpt lat="48.75989" lon="1.72663">
        <ele>125.4</ele>
        <time>2015-06-25T14:51:29.000Z</time>
      </trkpt>
      <trkpt lat="48.75993" lon="1.72679">
        <ele>125.2</ele>
        <time>2015-06-25T14:51:36.000Z</time>
      </trkpt>
      <trkpt lat="48.75998" lon="1.72691">
        <ele>125.1</ele>
        <time>2015-06-25T14:51:42.000Z</time>
      </trkpt>
      <trkpt lat="48.76" lon="1.72695">
        <ele>125</ele>
        <time>2015-06-25T14:51:44.000Z</time>
      </trkpt>
      <trkpt lat="48.76004" lon="1.72708">
        <ele>124.9</ele>
        <time>2015-06-25T14:51:50.000Z</time>
      </trkpt>
      <trkpt lat="48.76008" lon="1.72719">
        <ele>124.7</ele>
        <time>2015-06-25T14:51:55.000Z</time>
      </trkpt>
      <trkpt lat="48.76012" lon="1.72731">
        <ele>124.6</ele>
        <time>2015-06-25T14:52:01.000Z</time>
      </trkpt>
      <trkpt lat="48.76016" lon="1.72741">
        <ele>124.4</ele>
        <time>2015-06-25T14:52:05.000Z</time>
      </trkpt>
      <trkpt lat="48.76021" lon="1.72753">
        <ele>124.1</ele>
        <time>2015-06-25T14:52:11.000Z</time>
      </trkpt>
      <trkpt lat="48.76027" lon="1.72764">
        <ele>123.5</ele>
        <time>2015-06-25T14:52:17.000Z</time>
      </trkpt>
      <trkpt lat="48.76033" lon="1.72773">
        <ele>123.1</ele>
        <time>2015-06-25T14:52:22.000Z</time>
      </trkpt>
      <trkpt lat="48.76039" lon="1.7278">
        <ele>123</ele>
        <time>2015-06-25T14:52:27.000Z</time>
      </trkpt>
      <trkpt lat="48.7604" lon="1.72781">
        <ele>123</ele>
        <time>2015-06-25T14:52:28.000Z</time>
      </trkpt>
      <trkpt lat="48.76045" lon="1.72789">
        <ele>123</ele>
        <time>2015-06-25T14:52:34.000Z</time>
      </trkpt>
      <trkpt lat="48.76052" lon="1.72799">
        <ele>123</ele>
        <time>2015-06-25T14:52:40.000Z</time>
      </trkpt>
      <trkpt lat="48.76056" lon="1.72806">
        <ele>123</ele>
        <time>2015-06-25T14:52:45.000Z</time>
      </trkpt>
      <trkpt lat="48.76058" lon="1.72808">
        <ele>122.9</ele>
        <time>2015-06-25T14:52:47.000Z</time>
      </trkpt>
      <trkpt lat="48.76063" lon="1.72817">
        <ele>122.7</ele>
        <time>2015-06-25T14:52:52.000Z</time>
      </trkpt>
      <trkpt lat="48.76071" lon="1.72828">
        <ele>122.4</ele>
        <time>2015-06-25T14:52:58.000Z</time>
      </trkpt>
      <trkpt lat="48.76084" lon="1.72844">
        <ele>122</ele>
        <time>2015-06-25T14:53:06.000Z</time>
      </trkpt>
      <trkpt lat="48.76085" lon="1.72846">
        <ele>121.9</ele>
        <time>2015-06-25T14:53:07.000Z</time>
      </trkpt>
      <trkpt lat="48.76095" lon="1.72854">
        <ele>121.6</ele>
        <time>2015-06-25T14:53:15.000Z</time>
      </trkpt>
      <trkpt lat="48.76102" lon="1.72862">
        <ele>121.3</ele>
        <time>2015-06-25T14:53:21.000Z</time>
      </trkpt>
      <trkpt lat="48.76112" lon="1.72869">
        <ele>121</ele>
        <time>2015-06-25T14:53:30.000Z</time>
      </trkpt>
      <trkpt lat="48.76114" lon="1.7287">
        <ele>121</ele>
        <time>2015-06-25T14:53:32.000Z</time>
      </trkpt>
      <trkpt lat="48.76122" lon="1.72869">
        <ele>121</ele>
        <time>2015-06-25T14:53:38.000Z</time>
      </trkpt>
      <trkpt lat="48.76129" lon="1.72862">
        <ele>121</ele>
        <time>2015-06-25T14:53:44.000Z</time>
      </trkpt>
      <trkpt lat="48.7613" lon="1.72862">
        <ele>121</ele>
        <time>2015-06-25T14:53:45.000Z</time>
      </trkpt>
      <trkpt lat="48.76142" lon="1.72859">
        <ele>121</ele>
        <time>2015-06-25T14:53:53.000Z</time>
      </trkpt>
      <trkpt lat="48.7615" lon="1.72865">
        <ele>121</ele>
        <time>2015-06-25T14:53:59.000Z</time>
      </trkpt>
      <trkpt lat="48.7616" lon="1.72875">
        <ele>121</ele>
        <time>2015-06-25T14:54:04.000Z</time>
      </trkpt>
      <trkpt lat="48.76168" lon="1.72884">
        <ele>121</ele>
        <time>2015-06-25T14:54:12.000Z</time>
      </trkpt>
      <trkpt lat="48.76176" lon="1.72891">
        <ele>121.4</ele>
        <time>2015-06-25T14:54:18.000Z</time>
      </trkpt>
      <trkpt lat="48.76186" lon="1.72901">
        <ele>121.8</ele>
        <time>2015-06-25T14:54:24.000Z</time>
      </trkpt>
      <trkpt lat="48.76196" lon="1.72911">
        <ele>122.1</ele>
        <time>2015-06-25T14:54:33.000Z</time>
      </trkpt>
      <trkpt lat="48.76206" lon="1.7292">
        <ele>122.9</ele>
        <time>2015-06-25T14:54:40.000Z</time>
      </trkpt>
      <trkpt lat="48.76213" lon="1.72927">
        <ele>123.4</ele>
        <time>2015-06-25T14:54:44.000Z</time>
      </trkpt>
      <trkpt lat="48.76221" lon="1.72937">
        <ele>123.9</ele>
        <time>2015-06-25T14:54:51.000Z</time>
      </trkpt>
      <trkpt lat="48.76232" lon="1.72951">
        <ele>124.6</ele>
        <time>2015-06-25T14:54:58.000Z</time>
      </trkpt>
      <trkpt lat="48.76242" lon="1.7296">
        <ele>125.3</ele>
        <time>2015-06-25T14:55:06.000Z</time>
      </trkpt>
      <trkpt lat="48.76251" lon="1.7297">
        <ele>125.9</ele>
        <time>2015-06-25T14:55:12.000Z</time>
      </trkpt>
      <trkpt lat="48.76259" lon="1.7298">
        <ele>126.1</ele>
        <time>2015-06-25T14:55:19.000Z</time>
      </trkpt>
      <trkpt lat="48.76268" lon="1.72989">
        <ele>126.4</ele>
        <time>2015-06-25T14:55:26.000Z</time>
      </trkpt>
      <trkpt lat="48.76275" lon="1.72999">
        <ele>126.9</ele>
        <time>2015-06-25T14:55:31.000Z</time>
      </trkpt>
      <trkpt lat="48.76283" lon="1.73008">
        <ele>127.3</ele>
        <time>2015-06-25T14:55:37.000Z</time>
      </trkpt>
      <trkpt lat="48.76296" lon="1.73022">
        <ele>127.8</ele>
        <time>2015-06-25T14:55:47.000Z</time>
      </trkpt>
      <trkpt lat="48.76309" lon="1.73034">
        <ele>128.2</ele>
        <time>2015-06-25T14:55:54.000Z</time>
      </trkpt>
      <trkpt lat="48.76315" lon="1.7304">
        <ele>128.4</ele>
        <time>2015-06-25T14:55:59.000Z</time>
      </trkpt>
      <trkpt lat="48.76324" lon="1.7305">
        <ele>128.8</ele>
        <time>2015-06-25T14:56:06.000Z</time>
      </trkpt>
      <trkpt lat="48.76335" lon="1.73062">
        <ele>129.2</ele>
        <time>2015-06-25T14:56:15.000Z</time>
      </trkpt>
      <trkpt lat="48.76347" lon="1.73077">
        <ele>129.4</ele>
        <time>2015-06-25T14:56:25.000Z</time>
      </trkpt>
      <trkpt lat="48.76354" lon="1.73084">
        <ele>129.3</ele>
        <time>2015-06-25T14:56:31.000Z</time>
      </trkpt>
      <trkpt lat="48.76357" lon="1.73087">
        <ele>129.3</ele>
        <time>2015-06-25T14:56:33.000Z</time>
      </trkpt>
      <trkpt lat="48.76365" lon="1.73094">
        <ele>129.4</ele>
        <time>2015-06-25T14:56:39.000Z</time>
      </trkpt>
      <trkpt lat="48.7637" lon="1.73097">
        <ele>129.5</ele>
        <time>2015-06-25T14:56:43.000Z</time>
      </trkpt>
      <trkpt lat="48.76377" lon="1.73106">
        <ele>129.8</ele>
        <time>2015-06-25T14:56:51.000Z</time>
      </trkpt>
      <trkpt lat="48.76388" lon="1.7312">
        <ele>130.3</ele>
        <time>2015-06-25T14:56:56.000Z</time>
      </trkpt>
      <trkpt lat="48.76397" lon="1.7313">
        <ele>130.5</ele>
        <time>2015-06-25T14:57:01.000Z</time>
      </trkpt>
      <trkpt lat="48.76403" lon="1.73141">
        <ele>130.6</ele>
        <time>2015-06-25T14:57:08.000Z</time>
      </trkpt>
      <trkpt lat="48.76402" lon="1.7316">
        <ele>131.3</ele>
        <time>2015-06-25T14:57:15.000Z</time>
      </trkpt>
      <trkpt lat="48.76397" lon="1.73178">
        <ele>131.8</ele>
        <time>2015-06-25T14:57:24.000Z</time>
      </trkpt>
      <trkpt lat="48.7639" lon="1.73196">
        <ele>132.1</ele>
        <time>2015-06-25T14:57:33.000Z</time>
      </trkpt>
      <trkpt lat="48.76384" lon="1.73211">
        <ele>133.3</ele>
        <time>2015-06-25T14:57:41.000Z</time>
      </trkpt>
      <trkpt lat="48.76377" lon="1.7323">
        <ele>134</ele>
        <time>2015-06-25T14:57:51.000Z</time>
      </trkpt>
      <trkpt lat="48.7637" lon="1.73246">
        <ele>134</ele>
        <time>2015-06-25T14:57:59.000Z</time>
      </trkpt>
      <trkpt lat="48.76362" lon="1.73266">
        <ele>134</ele>
        <time>2015-06-25T14:58:09.000Z</time>
      </trkpt>
      <trkpt lat="48.76359" lon="1.73274">
        <ele>134</ele>
        <time>2015-06-25T14:58:14.000Z</time>
      </trkpt>
      <trkpt lat="48.76356" lon="1.73287">
        <ele>134.3</ele>
        <time>2015-06-25T14:58:22.000Z</time>
      </trkpt>
      <trkpt lat="48.7635" lon="1.73303">
        <ele>134.9</ele>
        <time>2015-06-25T14:58:30.000Z</time>
      </trkpt>
      <trkpt lat="48.76346" lon="1.73315">
        <ele>135.4</ele>
        <time>2015-06-25T14:58:35.000Z</time>
      </trkpt>
      <trkpt lat="48.76339" lon="1.73332">
        <ele>136</ele>
        <time>2015-06-25T14:58:44.000Z</time>
      </trkpt>
      <trkpt lat="48.76331" lon="1.73352">
        <ele>136.7</ele>
        <time>2015-06-25T14:58:52.000Z</time>
      </trkpt>
      <trkpt lat="48.76328" lon="1.73363">
        <ele>137.3</ele>
        <time>2015-06-25T14:58:57.000Z</time>
      </trkpt>
      <trkpt lat="48.76322" lon="1.73379">
        <ele>138.7</ele>
        <time>2015-06-25T14:59:04.000Z</time>
      </trkpt>
      <trkpt lat="48.76318" lon="1.73389">
        <ele>139.5</ele>
        <time>2015-06-25T14:59:09.000Z</time>
      </trkpt>
      <trkpt lat="48.76313" lon="1.73399">
        <ele>140.8</ele>
        <time>2015-06-25T14:59:15.000Z</time>
      </trkpt>
      <trkpt lat="48.76307" lon="1.73416">
        <ele>142.9</ele>
        <time>2015-06-25T14:59:24.000Z</time>
      </trkpt>
      <trkpt lat="48.763" lon="1.73432">
        <ele>143.8</ele>
        <time>2015-06-25T14:59:33.000Z</time>
      </trkpt>
      <trkpt lat="48.76295" lon="1.73447">
        <ele>144.3</ele>
        <time>2015-06-25T14:59:40.000Z</time>
      </trkpt>
      <trkpt lat="48.76292" lon="1.73455">
        <ele>144.4</ele>
        <time>2015-06-25T14:59:44.000Z</time>
      </trkpt>
      <trkpt lat="48.76287" lon="1.73473">
        <ele>144.7</ele>
        <time>2015-06-25T14:59:51.000Z</time>
      </trkpt>
      <trkpt lat="48.7628" lon="1.73486">
        <ele>145.1</ele>
        <time>2015-06-25T14:59:57.000Z</time>
      </trkpt>
      <trkpt lat="48.76275" lon="1.73499">
        <ele>145.6</ele>
        <time>2015-06-25T15:00:04.000Z</time>
      </trkpt>
      <trkpt lat="48.7627" lon="1.73514">
        <ele>145.6</ele>
        <time>2015-06-25T15:00:11.000Z</time>
      </trkpt>
      <trkpt lat="48.76267" lon="1.73522">
        <ele>145.6</ele>
        <time>2015-06-25T15:00:15.000Z</time>
      </trkpt>
      <trkpt lat="48.7626" lon="1.73537">
        <ele>145.6</ele>
        <time>2015-06-25T15:00:22.000Z</time>
      </trkpt>
      <trkpt lat="48.76255" lon="1.7355">
        <ele>145.5</ele>
        <time>2015-06-25T15:00:28.000Z</time>
      </trkpt>
      <trkpt lat="48.76248" lon="1.73571">
        <ele>145.8</ele>
        <time>2015-06-25T15:00:37.000Z</time>
      </trkpt>
      <trkpt lat="48.7624" lon="1.73591">
        <ele>146</ele>
        <time>2015-06-25T15:00:47.000Z</time>
      </trkpt>
      <trkpt lat="48.76235" lon="1.73608">
        <ele>146.2</ele>
        <time>2015-06-25T15:00:54.000Z</time>
      </trkpt>
      <trkpt lat="48.76229" lon="1.73622">
        <ele>146.1</ele>
        <time>2015-06-25T15:01:00.000Z</time>
      </trkpt>
      <trkpt lat="48.76223" lon="1.73636">
        <ele>146</ele>
        <time>2015-06-25T15:01:07.000Z</time>
      </trkpt>
      <trkpt lat="48.76217" lon="1.73653">
        <ele>146.4</ele>
        <time>2015-06-25T15:01:16.000Z</time>
      </trkpt>
      <trkpt lat="48.76207" lon="1.73672">
        <ele>146.1</ele>
        <time>2015-06-25T15:01:23.000Z</time>
      </trkpt>
      <trkpt lat="48.76202" lon="1.73687">
        <ele>145.8</ele>
        <time>2015-06-25T15:01:29.000Z</time>
      </trkpt>
      <trkpt lat="48.76195" lon="1.73704">
        <ele>145</ele>
        <time>2015-06-25T15:01:38.000Z</time>
      </trkpt>
      <trkpt lat="48.7619" lon="1.73717">
        <ele>144.5</ele>
        <time>2015-06-25T15:01:43.000Z</time>
      </trkpt>
      <trkpt lat="48.76186" lon="1.73732">
        <ele>144.4</ele>
        <time>2015-06-25T15:01:48.000Z</time>
      </trkpt>
      <trkpt lat="48.76179" lon="1.73754">
        <ele>144.4</ele>
        <time>2015-06-25T15:01:58.000Z</time>
      </trkpt>
      <trkpt lat="48.76174" lon="1.73773">
        <ele>144.6</ele>
        <time>2015-06-25T15:02:06.000Z</time>
      </trkpt>
      <trkpt lat="48.76167" lon="1.73785">
        <ele>144.3</ele>
        <time>2015-06-25T15:02:11.000Z</time>
      </trkpt>
      <trkpt lat="48.7616" lon="1.73796">
        <ele>145.3</ele>
        <time>2015-06-25T15:02:19.000Z</time>
      </trkpt>
      <trkpt lat="48.76156" lon="1.73813">
        <ele>146.3</ele>
        <time>2015-06-25T15:02:26.000Z</time>
      </trkpt>
      <trkpt lat="48.76152" lon="1.73825">
        <ele>146.9</ele>
        <time>2015-06-25T15:02:31.000Z</time>
      </trkpt>
      <trkpt lat="48.76147" lon="1.73839">
        <ele>148</ele>
        <time>2015-06-25T15:02:38.000Z</time>
      </trkpt>
      <trkpt lat="48.76143" lon="1.73853">
        <ele>149.2</ele>
        <time>2015-06-25T15:02:45.000Z</time>
      </trkpt>
      <trkpt lat="48.76135" lon="1.73872">
        <ele>150.7</ele>
        <time>2015-06-25T15:02:53.000Z</time>
      </trkpt>
      <trkpt lat="48.76132" lon="1.73882">
        <ele>151.3</ele>
        <time>2015-06-25T15:02:58.000Z</time>
      </trkpt>
      <trkpt lat="48.76126" lon="1.73896">
        <ele>152.8</ele>
        <time>2015-06-25T15:03:06.000Z</time>
      </trkpt>
      <trkpt lat="48.76123" lon="1.73901">
        <ele>153.4</ele>
        <time>2015-06-25T15:03:09.000Z</time>
      </trkpt>
      <trkpt lat="48.76121" lon="1.73909">
        <ele>154.3</ele>
        <time>2015-06-25T15:03:14.000Z</time>
      </trkpt>
      <trkpt lat="48.76112" lon="1.7391">
        <ele>155.6</ele>
        <time>2015-06-25T15:03:21.000Z</time>
      </trkpt>
      <trkpt lat="48.76107" lon="1.73907">
        <ele>155.6</ele>
        <time>2015-06-25T15:03:25.000Z</time>
      </trkpt>
      <trkpt lat="48.76095" lon="1.73908">
        <ele>155.7</ele>
        <time>2015-06-25T15:03:34.000Z</time>
      </trkpt>
      <trkpt lat="48.76084" lon="1.73905">
        <ele>155.6</ele>
        <time>2015-06-25T15:03:40.000Z</time>
      </trkpt>
      <trkpt lat="48.76074" lon="1.739">
        <ele>155.3</ele>
        <time>2015-06-25T15:03:47.000Z</time>
      </trkpt>
      <trkpt lat="48.7607" lon="1.73898">
        <ele>155.2</ele>
        <time>2015-06-25T15:03:51.000Z</time>
      </trkpt>
      <trkpt lat="48.76065" lon="1.73897">
        <ele>155</ele>
        <time>2015-06-25T15:03:55.000Z</time>
      </trkpt>
      <trkpt lat="48.76056" lon="1.739">
        <ele>155.2</ele>
        <time>2015-06-25T15:04:01.000Z</time>
      </trkpt>
      <trkpt lat="48.76045" lon="1.73904">
        <ele>154.8</ele>
        <time>2015-06-25T15:04:08.000Z</time>
      </trkpt>
      <trkpt lat="48.76036" lon="1.73908">
        <ele>154.7</ele>
        <time>2015-06-25T15:04:14.000Z</time>
      </trkpt>
      <trkpt lat="48.76027" lon="1.73914">
        <ele>154.6</ele>
        <time>2015-06-25T15:04:21.000Z</time>
      </trkpt>
      <trkpt lat="48.76025" lon="1.73914">
        <ele>154.4</ele>
        <time>2015-06-25T15:04:23.000Z</time>
      </trkpt>
      <trkpt lat="48.7602" lon="1.73921">
        <ele>154.9</ele>
        <time>2015-06-25T15:04:28.000Z</time>
      </trkpt>
      <trkpt lat="48.76008" lon="1.7394">
        <ele>156.7</ele>
        <time>2015-06-25T15:04:37.000Z</time>
      </trkpt>
      <trkpt lat="48.76001" lon="1.73945">
        <ele>156.3</ele>
        <time>2015-06-25T15:04:41.000Z</time>
      </trkpt>
      <trkpt lat="48.75994" lon="1.73948">
        <ele>157.7</ele>
        <time>2015-06-25T15:04:46.000Z</time>
      </trkpt>
      <trkpt lat="48.75993" lon="1.73949">
        <ele>157.9</ele>
        <time>2015-06-25T15:04:48.000Z</time>
      </trkpt>
      <trkpt lat="48.76004" lon="1.73943">
        <ele>156.4</ele>
        <time>2015-06-25T15:05:04.000Z</time>
      </trkpt>
      <trkpt lat="48.76007" lon="1.73934">
        <ele>155.5</ele>
        <time>2015-06-25T15:05:08.000Z</time>
      </trkpt>
      <trkpt lat="48.76014" lon="1.73923">
        <ele>154.7</ele>
        <time>2015-06-25T15:05:16.000Z</time>
      </trkpt>
      <trkpt lat="48.7602" lon="1.73918">
        <ele>154.3</ele>
        <time>2015-06-25T15:05:22.000Z</time>
      </trkpt>
      <trkpt lat="48.76024" lon="1.73915">
        <ele>154.5</ele>
        <time>2015-06-25T15:05:26.000Z</time>
      </trkpt>
      <trkpt lat="48.76035" lon="1.7391">
        <ele>154.8</ele>
        <time>2015-06-25T15:05:34.000Z</time>
      </trkpt>
      <trkpt lat="48.76048" lon="1.73905">
        <ele>155.1</ele>
        <time>2015-06-25T15:05:43.000Z</time>
      </trkpt>
      <trkpt lat="48.76054" lon="1.73902">
        <ele>155.3</ele>
        <time>2015-06-25T15:05:48.000Z</time>
      </trkpt>
      <trkpt lat="48.76062" lon="1.739">
        <ele>155.2</ele>
        <time>2015-06-25T15:05:55.000Z</time>
      </trkpt>
      <trkpt lat="48.76075" lon="1.73904">
        <ele>155.6</ele>
        <time>2015-06-25T15:06:04.000Z</time>
      </trkpt>
      <trkpt lat="48.76082" lon="1.73906">
        <ele>155.6</ele>
        <time>2015-06-25T15:06:09.000Z</time>
      </trkpt>
      <trkpt lat="48.7609" lon="1.73915">
        <ele>155.9</ele>
        <time>2015-06-25T15:06:16.000Z</time>
      </trkpt>
      <trkpt lat="48.76091" lon="1.73916">
        <ele>156</ele>
        <time>2015-06-25T15:06:18.000Z</time>
      </trkpt>
      <trkpt lat="48.76095" lon="1.73917">
        <ele>156</ele>
        <time>2015-06-25T15:06:23.000Z</time>
      </trkpt>
      <trkpt lat="48.76107" lon="1.73923">
        <ele>156.3</ele>
        <time>2015-06-25T15:06:30.000Z</time>
      </trkpt>
      <trkpt lat="48.76112" lon="1.73931">
        <ele>156.4</ele>
        <time>2015-06-25T15:06:35.000Z</time>
      </trkpt>
      <trkpt lat="48.76114" lon="1.73937">
        <ele>156.5</ele>
        <time>2015-06-25T15:06:38.000Z</time>
      </trkpt>
      <trkpt lat="48.76111" lon="1.73946">
        <ele>157.1</ele>
        <time>2015-06-25T15:06:44.000Z</time>
      </trkpt>
      <trkpt lat="48.76108" lon="1.73951">
        <ele>157.7</ele>
        <time>2015-06-25T15:06:47.000Z</time>
      </trkpt>
      <trkpt lat="48.76106" lon="1.73959">
        <ele>158.7</ele>
        <time>2015-06-25T15:06:51.000Z</time>
      </trkpt>
      <trkpt lat="48.76102" lon="1.73965">
        <ele>159.6</ele>
        <time>2015-06-25T15:06:55.000Z</time>
      </trkpt>
      <trkpt lat="48.76098" lon="1.7398">
        <ele>161.5</ele>
        <time>2015-06-25T15:07:04.000Z</time>
      </trkpt>
      <trkpt lat="48.76094" lon="1.7399">
        <ele>163</ele>
        <time>2015-06-25T15:07:10.000Z</time>
      </trkpt>
      <trkpt lat="48.76093" lon="1.73993">
        <ele>163.2</ele>
        <time>2015-06-25T15:07:12.000Z</time>
      </trkpt>
      <trkpt lat="48.76091" lon="1.74008">
        <ele>164.8</ele>
        <time>2015-06-25T15:07:19.000Z</time>
      </trkpt>
      <trkpt lat="48.76087" lon="1.7402">
        <ele>166.7</ele>
        <time>2015-06-25T15:07:26.000Z</time>
      </trkpt>
      <trkpt lat="48.76085" lon="1.74024">
        <ele>167.3</ele>
        <time>2015-06-25T15:07:28.000Z</time>
      </trkpt>
      <trkpt lat="48.76082" lon="1.74034">
        <ele>168.2</ele>
        <time>2015-06-25T15:07:33.000Z</time>
      </trkpt>
      <trkpt lat="48.7608" lon="1.74051">
        <ele>168.6</ele>
        <time>2015-06-25T15:07:41.000Z</time>
      </trkpt>
      <trkpt lat="48.76077" lon="1.74062">
        <ele>168.9</ele>
        <time>2015-06-25T15:07:46.000Z</time>
      </trkpt>
      <trkpt lat="48.76077" lon="1.74068">
        <ele>168.8</ele>
        <time>2015-06-25T15:07:49.000Z</time>
      </trkpt>
      <trkpt lat="48.76076" lon="1.74077">
        <ele>168.7</ele>
        <time>2015-06-25T15:07:53.000Z</time>
      </trkpt>
      <trkpt lat="48.76068" lon="1.74093">
        <ele>170.1</ele>
        <time>2015-06-25T15:08:00.000Z</time>
      </trkpt>
      <trkpt lat="48.76063" lon="1.74102">
        <ele>171.3</ele>
        <time>2015-06-25T15:08:05.000Z</time>
      </trkpt>
      <trkpt lat="48.76062" lon="1.74111">
        <ele>171.3</ele>
        <time>2015-06-25T15:08:09.000Z</time>
      </trkpt>
      <trkpt lat="48.76059" lon="1.74119">
        <ele>172.1</ele>
        <time>2015-06-25T15:08:14.000Z</time>
      </trkpt>
      <trkpt lat="48.76058" lon="1.74128">
        <ele>172.4</ele>
        <time>2015-06-25T15:08:20.000Z</time>
      </trkpt>
      <trkpt lat="48.76057" lon="1.74131">
        <ele>172.7</ele>
        <time>2015-06-25T15:08:23.000Z</time>
      </trkpt>
      <trkpt lat="48.76052" lon="1.74138">
        <ele>173.7</ele>
        <time>2015-06-25T15:08:29.000Z</time>
      </trkpt>
      <trkpt lat="48.76051" lon="1.74141">
        <ele>173.7</ele>
        <time>2015-06-25T15:08:30.000Z</time>
      </trkpt>
      <trkpt lat="48.7605" lon="1.74148">
        <ele>174.1</ele>
        <time>2015-06-25T15:08:33.000Z</time>
      </trkpt>
      <trkpt lat="48.76047" lon="1.74166">
        <ele>174.9</ele>
        <time>2015-06-25T15:08:39.000Z</time>
      </trkpt>
      <trkpt lat="48.76042" lon="1.74178">
        <ele>176</ele>
        <time>2015-06-25T15:08:46.000Z</time>
      </trkpt>
      <trkpt lat="48.76037" lon="1.7419">
        <ele>177.7</ele>
        <time>2015-06-25T15:08:53.000Z</time>
      </trkpt>
      <trkpt lat="48.76032" lon="1.74196">
        <ele>179.1</ele>
        <time>2015-06-25T15:08:56.000Z</time>
      </trkpt>
      <trkpt lat="48.76029" lon="1.74205">
        <ele>179.7</ele>
        <time>2015-06-25T15:09:01.000Z</time>
      </trkpt>
      <trkpt lat="48.76026" lon="1.74221">
        <ele>180.1</ele>
        <time>2015-06-25T15:09:07.000Z</time>
      </trkpt>
      <trkpt lat="48.76023" lon="1.74235">
        <ele>180.4</ele>
        <time>2015-06-25T15:09:12.000Z</time>
      </trkpt>
      <trkpt lat="48.76023" lon="1.74246">
        <ele>180.4</ele>
        <time>2015-06-25T15:09:18.000Z</time>
      </trkpt>
      <trkpt lat="48.76023" lon="1.74261">
        <ele>180.3</ele>
        <time>2015-06-25T15:09:24.000Z</time>
      </trkpt>
      <trkpt lat="48.76017" lon="1.74284">
        <ele>180.3</ele>
        <time>2015-06-25T15:09:33.000Z</time>
      </trkpt>
      <trkpt lat="48.76018" lon="1.74295">
        <ele>180.1</ele>
        <time>2015-06-25T15:09:39.000Z</time>
      </trkpt>
      <trkpt lat="48.76021" lon="1.74308">
        <ele>180</ele>
        <time>2015-06-25T15:09:46.000Z</time>
      </trkpt>
      <trkpt lat="48.76022" lon="1.74318">
        <ele>180</ele>
        <time>2015-06-25T15:09:49.000Z</time>
      </trkpt>
      <trkpt lat="48.76022" lon="1.74323">
        <ele>180</ele>
        <time>2015-06-25T15:09:51.000Z</time>
      </trkpt>
      <trkpt lat="48.76025" lon="1.74336">
        <ele>180</ele>
        <time>2015-06-25T15:09:56.000Z</time>
      </trkpt>
      <trkpt lat="48.76031" lon="1.74351">
        <ele>180</ele>
        <time>2015-06-25T15:10:03.000Z</time>
      </trkpt>
      <trkpt lat="48.76033" lon="1.74362">
        <ele>180</ele>
        <time>2015-06-25T15:10:10.000Z</time>
      </trkpt>
      <trkpt lat="48.76028" lon="1.74376">
        <ele>180</ele>
        <time>2015-06-25T15:10:18.000Z</time>
      </trkpt>
      <trkpt lat="48.76024" lon="1.74387">
        <ele>180</ele>
        <time>2015-06-25T15:10:25.000Z</time>
      </trkpt>
      <trkpt lat="48.76018" lon="1.74402">
        <ele>180</ele>
        <time>2015-06-25T15:10:33.000Z</time>
      </trkpt>
      <trkpt lat="48.76013" lon="1.74415">
        <ele>180</ele>
        <time>2015-06-25T15:10:41.000Z</time>
      </trkpt>
      <trkpt lat="48.76009" lon="1.74431">
        <ele>180</ele>
        <time>2015-06-25T15:10:49.000Z</time>
      </trkpt>
      <trkpt lat="48.76004" lon="1.74446">
        <ele>180</ele>
        <time>2015-06-25T15:10:54.000Z</time>
      </trkpt>
      <trkpt lat="48.75999" lon="1.7446">
        <ele>180</ele>
        <time>2015-06-25T15:11:01.000Z</time>
      </trkpt>
      <trkpt lat="48.75993" lon="1.74476">
        <ele>180</ele>
        <time>2015-06-25T15:11:09.000Z</time>
      </trkpt>
      <trkpt lat="48.75989" lon="1.74486">
        <ele>180</ele>
        <time>2015-06-25T15:11:14.000Z</time>
      </trkpt>
      <trkpt lat="48.75982" lon="1.74502">
        <ele>180</ele>
        <time>2015-06-25T15:11:22.000Z</time>
      </trkpt>
      <trkpt lat="48.75979" lon="1.74515">
        <ele>180</ele>
        <time>2015-06-25T15:11:28.000Z</time>
      </trkpt>
      <trkpt lat="48.75972" lon="1.74534">
        <ele>180</ele>
        <time>2015-06-25T15:11:36.000Z</time>
      </trkpt>
      <trkpt lat="48.7597" lon="1.74546">
        <ele>180</ele>
        <time>2015-06-25T15:11:41.000Z</time>
      </trkpt>
      <trkpt lat="48.75968" lon="1.74562">
        <ele>180.2</ele>
        <time>2015-06-25T15:11:46.000Z</time>
      </trkpt>
      <trkpt lat="48.75964" lon="1.74576">
        <ele>180.7</ele>
        <time>2015-06-25T15:11:51.000Z</time>
      </trkpt>
      <trkpt lat="48.7596" lon="1.74584">
        <ele>181</ele>
        <time>2015-06-25T15:11:55.000Z</time>
      </trkpt>
      <trkpt lat="48.75959" lon="1.7459">
        <ele>181</ele>
        <time>2015-06-25T15:11:59.000Z</time>
      </trkpt>
      <trkpt lat="48.75955" lon="1.74605">
        <ele>181</ele>
        <time>2015-06-25T15:12:06.000Z</time>
      </trkpt>
      <trkpt lat="48.75953" lon="1.74612">
        <ele>181</ele>
        <time>2015-06-25T15:12:09.000Z</time>
      </trkpt>
      <trkpt lat="48.75947" lon="1.74627">
        <ele>181</ele>
        <time>2015-06-25T15:12:17.000Z</time>
      </trkpt>
      <trkpt lat="48.75942" lon="1.74643">
        <ele>181</ele>
        <time>2015-06-25T15:12:24.000Z</time>
      </trkpt>
      <trkpt lat="48.75938" lon="1.7466">
        <ele>181</ele>
        <time>2015-06-25T15:12:31.000Z</time>
      </trkpt>
      <trkpt lat="48.75936" lon="1.74667">
        <ele>181</ele>
        <time>2015-06-25T15:12:36.000Z</time>
      </trkpt>
      <trkpt lat="48.75931" lon="1.74682">
        <ele>181</ele>
        <time>2015-06-25T15:12:41.000Z</time>
      </trkpt>
      <trkpt lat="48.75926" lon="1.74703">
        <ele>181</ele>
        <time>2015-06-25T15:12:46.000Z</time>
      </trkpt>
      <trkpt lat="48.75922" lon="1.74715">
        <ele>181</ele>
        <time>2015-06-25T15:12:51.000Z</time>
      </trkpt>
      <trkpt lat="48.75917" lon="1.74726">
        <ele>181</ele>
        <time>2015-06-25T15:12:57.000Z</time>
      </trkpt>
      <trkpt lat="48.75915" lon="1.74742">
        <ele>181</ele>
        <time>2015-06-25T15:13:04.000Z</time>
      </trkpt>
      <trkpt lat="48.75909" lon="1.74753">
        <ele>181</ele>
        <time>2015-06-25T15:13:10.000Z</time>
      </trkpt>
      <trkpt lat="48.75909" lon="1.74756">
        <ele>181</ele>
        <time>2015-06-25T15:13:11.000Z</time>
      </trkpt>
      <trkpt lat="48.75903" lon="1.74771">
        <ele>181</ele>
        <time>2015-06-25T15:13:18.000Z</time>
      </trkpt>
      <trkpt lat="48.75901" lon="1.74779">
        <ele>181</ele>
        <time>2015-06-25T15:13:21.000Z</time>
      </trkpt>
      <trkpt lat="48.75896" lon="1.74797">
        <ele>181</ele>
        <time>2015-06-25T15:13:29.000Z</time>
      </trkpt>
      <trkpt lat="48.75893" lon="1.74806">
        <ele>181</ele>
        <time>2015-06-25T15:13:34.000Z</time>
      </trkpt>
      <trkpt lat="48.75892" lon="1.74813">
        <ele>181</ele>
        <time>2015-06-25T15:13:39.000Z</time>
      </trkpt>
      <trkpt lat="48.75889" lon="1.74825">
        <ele>181</ele>
        <time>2015-06-25T15:13:44.000Z</time>
      </trkpt>
      <trkpt lat="48.75887" lon="1.74835">
        <ele>181</ele>
        <time>2015-06-25T15:13:49.000Z</time>
      </trkpt>
      <trkpt lat="48.75884" lon="1.74847">
        <ele>181</ele>
        <time>2015-06-25T15:13:55.000Z</time>
      </trkpt>
      <trkpt lat="48.75883" lon="1.74862">
        <ele>181</ele>
        <time>2015-06-25T15:14:02.000Z</time>
      </trkpt>
      <trkpt lat="48.75878" lon="1.74876">
        <ele>181</ele>
        <time>2015-06-25T15:14:08.000Z</time>
      </trkpt>
      <trkpt lat="48.75877" lon="1.74881">
        <ele>181</ele>
        <time>2015-06-25T15:14:10.000Z</time>
      </trkpt>
      <trkpt lat="48.75873" lon="1.74891">
        <ele>181</ele>
        <time>2015-06-25T15:14:15.000Z</time>
      </trkpt>
      <trkpt lat="48.75869" lon="1.74899">
        <ele>181</ele>
        <time>2015-06-25T15:14:23.000Z</time>
      </trkpt>
      <trkpt lat="48.75866" lon="1.74901">
        <ele>181</ele>
        <time>2015-06-25T15:14:30.000Z</time>
      </trkpt>
      <trkpt lat="48.75862" lon="1.74908">
        <ele>181</ele>
        <time>2015-06-25T15:14:37.000Z</time>
      </trkpt>
      <trkpt lat="48.75857" lon="1.74918">
        <ele>181</ele>
        <time>2015-06-25T15:14:40.000Z</time>
      </trkpt>
      <trkpt lat="48.75856" lon="1.74928">
        <ele>181</ele>
        <time>2015-06-25T15:14:45.000Z</time>
      </trkpt>
      <trkpt lat="48.75854" lon="1.74948">
        <ele>181</ele>
        <time>2015-06-25T15:14:50.000Z</time>
      </trkpt>
      <trkpt lat="48.75852" lon="1.74965">
        <ele>181</ele>
        <time>2015-06-25T15:14:56.000Z</time>
      </trkpt>
      <trkpt lat="48.75848" lon="1.74978">
        <ele>181</ele>
        <time>2015-06-25T15:15:02.000Z</time>
      </trkpt>
      <trkpt lat="48.75844" lon="1.74986">
        <ele>181</ele>
        <time>2015-06-25T15:15:07.000Z</time>
      </trkpt>
      <trkpt lat="48.75838" lon="1.74998">
        <ele>181</ele>
        <time>2015-06-25T15:15:13.000Z</time>
      </trkpt>
      <trkpt lat="48.75828" lon="1.7501">
        <ele>181</ele>
        <time>2015-06-25T15:15:21.000Z</time>
      </trkpt>
      <trkpt lat="48.75825" lon="1.75014">
        <ele>181</ele>
        <time>2015-06-25T15:15:23.000Z</time>
      </trkpt>
      <trkpt lat="48.75819" lon="1.75029">
        <ele>181</ele>
        <time>2015-06-25T15:15:29.000Z</time>
      </trkpt>
      <trkpt lat="48.75817" lon="1.75045">
        <ele>181</ele>
        <time>2015-06-25T15:15:35.000Z</time>
      </trkpt>
      <trkpt lat="48.75813" lon="1.75058">
        <ele>181</ele>
        <time>2015-06-25T15:15:40.000Z</time>
      </trkpt>
      <trkpt lat="48.7581" lon="1.75073">
        <ele>181</ele>
        <time>2015-06-25T15:15:47.000Z</time>
      </trkpt>
      <trkpt lat="48.75801" lon="1.75089">
        <ele>181</ele>
        <time>2015-06-25T15:15:53.000Z</time>
      </trkpt>
      <trkpt lat="48.758" lon="1.75091">
        <ele>181</ele>
        <time>2015-06-25T15:15:54.000Z</time>
      </trkpt>
      <trkpt lat="48.75799" lon="1.75095">
        <ele>181</ele>
        <time>2015-06-25T15:15:56.000Z</time>
      </trkpt>
      <trkpt lat="48.75796" lon="1.75105">
        <ele>181</ele>
        <time>2015-06-25T15:16:00.000Z</time>
      </trkpt>
      <trkpt lat="48.75793" lon="1.75113">
        <ele>181</ele>
        <time>2015-06-25T15:16:04.000Z</time>
      </trkpt>
      <trkpt lat="48.75792" lon="1.75133">
        <ele>181</ele>
        <time>2015-06-25T15:16:11.000Z</time>
      </trkpt>
      <trkpt lat="48.75789" lon="1.75149">
        <ele>181</ele>
        <time>2015-06-25T15:16:17.000Z</time>
      </trkpt>
      <trkpt lat="48.75788" lon="1.75151">
        <ele>181</ele>
        <time>2015-06-25T15:16:18.000Z</time>
      </trkpt>
      <trkpt lat="48.75783" lon="1.75165">
        <ele>181</ele>
        <time>2015-06-25T15:16:24.000Z</time>
      </trkpt>
      <trkpt lat="48.7578" lon="1.75173">
        <ele>181</ele>
        <time>2015-06-25T15:16:28.000Z</time>
      </trkpt>
      <trkpt lat="48.75776" lon="1.75193">
        <ele>181</ele>
        <time>2015-06-25T15:16:35.000Z</time>
      </trkpt>
      <trkpt lat="48.75772" lon="1.75205">
        <ele>181</ele>
        <time>2015-06-25T15:16:40.000Z</time>
      </trkpt>
      <trkpt lat="48.75765" lon="1.75218">
        <ele>181</ele>
        <time>2015-06-25T15:16:45.000Z</time>
      </trkpt>
      <trkpt lat="48.75761" lon="1.75231">
        <ele>181</ele>
        <time>2015-06-25T15:16:51.000Z</time>
      </trkpt>
      <trkpt lat="48.75758" lon="1.75242">
        <ele>181</ele>
        <time>2015-06-25T15:16:56.000Z</time>
      </trkpt>
      <trkpt lat="48.75756" lon="1.75255">
        <ele>181</ele>
        <time>2015-06-25T15:17:01.000Z</time>
      </trkpt>
      <trkpt lat="48.75749" lon="1.75268">
        <ele>181</ele>
        <time>2015-06-25T15:17:07.000Z</time>
      </trkpt>
      <trkpt lat="48.75748" lon="1.75271">
        <ele>181.1</ele>
        <time>2015-06-25T15:17:08.000Z</time>
      </trkpt>
      <trkpt lat="48.75743" lon="1.75286">
        <ele>181.3</ele>
        <time>2015-06-25T15:17:15.000Z</time>
      </trkpt>
      <trkpt lat="48.7574" lon="1.75298">
        <ele>181.4</ele>
        <time>2015-06-25T15:17:20.000Z</time>
      </trkpt>
      <trkpt lat="48.75738" lon="1.75308">
        <ele>181.4</ele>
        <time>2015-06-25T15:17:24.000Z</time>
      </trkpt>
      <trkpt lat="48.75734" lon="1.7532">
        <ele>181.6</ele>
        <time>2015-06-25T15:17:30.000Z</time>
      </trkpt>
      <trkpt lat="48.75731" lon="1.75334">
        <ele>181.7</ele>
        <time>2015-06-25T15:17:36.000Z</time>
      </trkpt>
      <trkpt lat="48.75723" lon="1.75345">
        <ele>182</ele>
        <time>2015-06-25T15:17:42.000Z</time>
      </trkpt>
      <trkpt lat="48.75717" lon="1.75362">
        <ele>182</ele>
        <time>2015-06-25T15:17:50.000Z</time>
      </trkpt>
      <trkpt lat="48.75712" lon="1.75374">
        <ele>182</ele>
        <time>2015-06-25T15:17:55.000Z</time>
      </trkpt>
      <trkpt lat="48.75706" lon="1.75389">
        <ele>182</ele>
        <time>2015-06-25T15:18:01.000Z</time>
      </trkpt>
      <trkpt lat="48.75701" lon="1.75399">
        <ele>182</ele>
        <time>2015-06-25T15:18:07.000Z</time>
      </trkpt>
      <trkpt lat="48.75698" lon="1.75413">
        <ele>182</ele>
        <time>2015-06-25T15:18:13.000Z</time>
      </trkpt>
      <trkpt lat="48.75697" lon="1.75431">
        <ele>182</ele>
        <time>2015-06-25T15:18:19.000Z</time>
      </trkpt>
      <trkpt lat="48.75695" lon="1.75448">
        <ele>182</ele>
        <time>2015-06-25T15:18:25.000Z</time>
      </trkpt>
      <trkpt lat="48.75696" lon="1.75463">
        <ele>182</ele>
        <time>2015-06-25T15:18:31.000Z</time>
      </trkpt>
      <trkpt lat="48.75691" lon="1.75478">
        <ele>182</ele>
        <time>2015-06-25T15:18:38.000Z</time>
      </trkpt>
      <trkpt lat="48.75688" lon="1.75482">
        <ele>182</ele>
        <time>2015-06-25T15:18:40.000Z</time>
      </trkpt>
      <trkpt lat="48.75687" lon="1.75499">
        <ele>182</ele>
        <time>2015-06-25T15:18:47.000Z</time>
      </trkpt>
      <trkpt lat="48.75682" lon="1.75508">
        <ele>181.8</ele>
        <time>2015-06-25T15:18:53.000Z</time>
      </trkpt>
      <trkpt lat="48.75681" lon="1.7551">
        <ele>181.8</ele>
        <time>2015-06-25T15:18:54.000Z</time>
      </trkpt>
      <trkpt lat="48.75683" lon="1.75514">
        <ele>181.7</ele>
        <time>2015-06-25T15:19:01.000Z</time>
      </trkpt>
      <trkpt lat="48.75678" lon="1.7552">
        <ele>181.7</ele>
        <time>2015-06-25T15:19:06.000Z</time>
      </trkpt>
      <trkpt lat="48.75678" lon="1.75522">
        <ele>181.7</ele>
        <time>2015-06-25T15:19:07.000Z</time>
      </trkpt>
      <trkpt lat="48.75674" lon="1.75533">
        <ele>181.7</ele>
        <time>2015-06-25T15:19:12.000Z</time>
      </trkpt>
      <trkpt lat="48.75672" lon="1.75552">
        <ele>181.8</ele>
        <time>2015-06-25T15:19:19.000Z</time>
      </trkpt>
      <trkpt lat="48.75667" lon="1.75564">
        <ele>182</ele>
        <time>2015-06-25T15:19:25.000Z</time>
      </trkpt>
      <trkpt lat="48.75661" lon="1.75576">
        <ele>182</ele>
        <time>2015-06-25T15:19:32.000Z</time>
      </trkpt>
      <trkpt lat="48.75664" lon="1.75601">
        <ele>182</ele>
        <time>2015-06-25T15:19:38.000Z</time>
      </trkpt>
      <trkpt lat="48.75671" lon="1.75631">
        <ele>181.8</ele>
        <time>2015-06-25T15:19:45.000Z</time>
      </trkpt>
      <trkpt lat="48.75673" lon="1.75654">
        <ele>181.8</ele>
        <time>2015-06-25T15:19:52.000Z</time>
      </trkpt>
      <trkpt lat="48.75672" lon="1.75665">
        <ele>181.8</ele>
        <time>2015-06-25T15:19:58.000Z</time>
      </trkpt>
      <trkpt lat="48.75671" lon="1.75675">
        <ele>181.8</ele>
        <time>2015-06-25T15:20:03.000Z</time>
      </trkpt>
      <trkpt lat="48.75673" lon="1.75687">
        <ele>181.8</ele>
        <time>2015-06-25T15:20:09.000Z</time>
      </trkpt>
      <trkpt lat="48.75674" lon="1.75693">
        <ele>181.8</ele>
        <time>2015-06-25T15:20:11.000Z</time>
      </trkpt>
      <trkpt lat="48.75674" lon="1.75704">
        <ele>181.7</ele>
        <time>2015-06-25T15:20:16.000Z</time>
      </trkpt>
      <trkpt lat="48.75672" lon="1.75718">
        <ele>181.8</ele>
        <time>2015-06-25T15:20:22.000Z</time>
      </trkpt>
      <trkpt lat="48.75672" lon="1.75724">
        <ele>181.8</ele>
        <time>2015-06-25T15:20:24.000Z</time>
      </trkpt>
      <trkpt lat="48.7567" lon="1.75739">
        <ele>181.9</ele>
        <time>2015-06-25T15:20:31.000Z</time>
      </trkpt>
      <trkpt lat="48.7567" lon="1.75754">
        <ele>181.8</ele>
        <time>2015-06-25T15:20:37.000Z</time>
      </trkpt>
      <trkpt lat="48.75674" lon="1.75767">
        <ele>181.3</ele>
        <time>2015-06-25T15:20:43.000Z</time>
      </trkpt>
      <trkpt lat="48.75677" lon="1.75784">
        <ele>181</ele>
        <time>2015-06-25T15:20:50.000Z</time>
      </trkpt>
      <trkpt lat="48.75679" lon="1.75798">
        <ele>181</ele>
        <time>2015-06-25T15:20:55.000Z</time>
      </trkpt>
      <trkpt lat="48.75683" lon="1.75812">
        <ele>181</ele>
        <time>2015-06-25T15:21:01.000Z</time>
      </trkpt>
      <trkpt lat="48.75682" lon="1.75831">
        <ele>181</ele>
        <time>2015-06-25T15:21:08.000Z</time>
      </trkpt>
      <trkpt lat="48.7568" lon="1.75836">
        <ele>181</ele>
        <time>2015-06-25T15:21:10.000Z</time>
      </trkpt>
      <trkpt lat="48.75686" lon="1.75849">
        <ele>181</ele>
        <time>2015-06-25T15:21:15.000Z</time>
      </trkpt>
      <trkpt lat="48.75688" lon="1.75852">
        <ele>181</ele>
        <time>2015-06-25T15:21:16.000Z</time>
      </trkpt>
      <trkpt lat="48.75687" lon="1.75869">
        <ele>181</ele>
        <time>2015-06-25T15:21:23.000Z</time>
      </trkpt>
      <trkpt lat="48.7569" lon="1.75879">
        <ele>181</ele>
        <time>2015-06-25T15:21:27.000Z</time>
      </trkpt>
      <trkpt lat="48.75696" lon="1.75897">
        <ele>181</ele>
        <time>2015-06-25T15:21:34.000Z</time>
      </trkpt>
      <trkpt lat="48.75699" lon="1.75903">
        <ele>181</ele>
        <time>2015-06-25T15:21:36.000Z</time>
      </trkpt>
      <trkpt lat="48.75698" lon="1.75916">
        <ele>181</ele>
        <time>2015-06-25T15:21:42.000Z</time>
      </trkpt>
      <trkpt lat="48.75697" lon="1.7593">
        <ele>181</ele>
        <time>2015-06-25T15:21:48.000Z</time>
      </trkpt>
      <trkpt lat="48.75702" lon="1.75946">
        <ele>181</ele>
        <time>2015-06-25T15:21:54.000Z</time>
      </trkpt>
      <trkpt lat="48.75704" lon="1.75949">
        <ele>181</ele>
        <time>2015-06-25T15:21:55.000Z</time>
      </trkpt>
      <trkpt lat="48.75703" lon="1.75959">
        <ele>181</ele>
        <time>2015-06-25T15:21:59.000Z</time>
      </trkpt>
      <trkpt lat="48.75703" lon="1.75976">
        <ele>181</ele>
        <time>2015-06-25T15:22:06.000Z</time>
      </trkpt>
      <trkpt lat="48.75701" lon="1.75985">
        <ele>181</ele>
        <time>2015-06-25T15:22:10.000Z</time>
      </trkpt>
      <trkpt lat="48.75702" lon="1.76002">
        <ele>181</ele>
        <time>2015-06-25T15:22:17.000Z</time>
      </trkpt>
      <trkpt lat="48.75701" lon="1.76013">
        <ele>181</ele>
        <time>2015-06-25T15:22:22.000Z</time>
      </trkpt>
      <trkpt lat="48.75702" lon="1.76024">
        <ele>181</ele>
        <time>2015-06-25T15:22:27.000Z</time>
      </trkpt>
      <trkpt lat="48.75699" lon="1.7604">
        <ele>181</ele>
        <time>2015-06-25T15:22:34.000Z</time>
      </trkpt>
      <trkpt lat="48.75702" lon="1.76055">
        <ele>181</ele>
        <time>2015-06-25T15:22:40.000Z</time>
      </trkpt>
      <trkpt lat="48.75707" lon="1.7607">
        <ele>181</ele>
        <time>2015-06-25T15:22:45.000Z</time>
      </trkpt>
      <trkpt lat="48.75708" lon="1.76073">
        <ele>181</ele>
        <time>2015-06-25T15:22:46.000Z</time>
      </trkpt>
      <trkpt lat="48.75714" lon="1.76093">
        <ele>181</ele>
        <time>2015-06-25T15:22:54.000Z</time>
      </trkpt>
      <trkpt lat="48.75718" lon="1.76106">
        <ele>181</ele>
        <time>2015-06-25T15:22:59.000Z</time>
      </trkpt>
      <trkpt lat="48.75717" lon="1.76121">
        <ele>181</ele>
        <time>2015-06-25T15:23:04.000Z</time>
      </trkpt>
      <trkpt lat="48.75722" lon="1.7614">
        <ele>181</ele>
        <time>2015-06-25T15:23:10.000Z</time>
      </trkpt>
      <trkpt lat="48.75719" lon="1.7615">
        <ele>181</ele>
        <time>2015-06-25T15:23:16.000Z</time>
      </trkpt>
      <trkpt lat="48.75719" lon="1.76164">
        <ele>181</ele>
        <time>2015-06-25T15:23:22.000Z</time>
      </trkpt>
      <trkpt lat="48.75719" lon="1.7618">
        <ele>181</ele>
        <time>2015-06-25T15:23:29.000Z</time>
      </trkpt>
      <trkpt lat="48.7572" lon="1.76196">
        <ele>181.1</ele>
        <time>2015-06-25T15:23:35.000Z</time>
      </trkpt>
      <trkpt lat="48.75723" lon="1.7621">
        <ele>181.6</ele>
        <time>2015-06-25T15:23:40.000Z</time>
      </trkpt>
      <trkpt lat="48.75726" lon="1.76227">
        <ele>182</ele>
        <time>2015-06-25T15:23:47.000Z</time>
      </trkpt>
      <trkpt lat="48.75728" lon="1.76245">
        <ele>182</ele>
        <time>2015-06-25T15:23:55.000Z</time>
      </trkpt>
      <trkpt lat="48.75727" lon="1.76261">
        <ele>182</ele>
        <time>2015-06-25T15:24:01.000Z</time>
      </trkpt>
      <trkpt lat="48.75728" lon="1.76275">
        <ele>182</ele>
        <time>2015-06-25T15:24:08.000Z</time>
      </trkpt>
      <trkpt lat="48.7573" lon="1.76292">
        <ele>182</ele>
        <time>2015-06-25T15:24:15.000Z</time>
      </trkpt>
      <trkpt lat="48.75731" lon="1.763">
        <ele>182</ele>
        <time>2015-06-25T15:24:19.000Z</time>
      </trkpt>
      <trkpt lat="48.75731" lon="1.76307">
        <ele>182</ele>
        <time>2015-06-25T15:24:23.000Z</time>
      </trkpt>
      <trkpt lat="48.75732" lon="1.7633">
        <ele>182</ele>
        <time>2015-06-25T15:24:32.000Z</time>
      </trkpt>
      <trkpt lat="48.75734" lon="1.76351">
        <ele>182</ele>
        <time>2015-06-25T15:24:40.000Z</time>
      </trkpt>
      <trkpt lat="48.75735" lon="1.76366">
        <ele>182</ele>
        <time>2015-06-25T15:24:47.000Z</time>
      </trkpt>
      <trkpt lat="48.75737" lon="1.76388">
        <ele>182</ele>
        <time>2015-06-25T15:24:56.000Z</time>
      </trkpt>
      <trkpt lat="48.75742" lon="1.76406">
        <ele>182</ele>
        <time>2015-06-25T15:25:03.000Z</time>
      </trkpt>
      <trkpt lat="48.75739" lon="1.76419">
        <ele>182</ele>
        <time>2015-06-25T15:25:10.000Z</time>
      </trkpt>
      <trkpt lat="48.75738" lon="1.76424">
        <ele>182</ele>
        <time>2015-06-25T15:25:13.000Z</time>
      </trkpt>
      <trkpt lat="48.75737" lon="1.7644">
        <ele>182</ele>
        <time>2015-06-25T15:25:21.000Z</time>
      </trkpt>
      <trkpt lat="48.75737" lon="1.76458">
        <ele>182</ele>
        <time>2015-06-25T15:25:28.000Z</time>
      </trkpt>
      <trkpt lat="48.75739" lon="1.76476">
        <ele>182.1</ele>
        <time>2015-06-25T15:25:36.000Z</time>
      </trkpt>
      <trkpt lat="48.75742" lon="1.76495">
        <ele>182.2</ele>
        <time>2015-06-25T15:25:44.000Z</time>
      </trkpt>
      <trkpt lat="48.75741" lon="1.76503">
        <ele>182.4</ele>
        <time>2015-06-25T15:25:48.000Z</time>
      </trkpt>
      <trkpt lat="48.75744" lon="1.76518">
        <ele>182.7</ele>
        <time>2015-06-25T15:25:54.000Z</time>
      </trkpt>
      <trkpt lat="48.75746" lon="1.76525">
        <ele>182.9</ele>
        <time>2015-06-25T15:25:57.000Z</time>
      </trkpt>
      <trkpt lat="48.75751" lon="1.76547">
        <ele>183</ele>
        <time>2015-06-25T15:26:05.000Z</time>
      </trkpt>
      <trkpt lat="48.75753" lon="1.7656">
        <ele>183</ele>
        <time>2015-06-25T15:26:11.000Z</time>
      </trkpt>
      <trkpt lat="48.75754" lon="1.76576">
        <ele>183</ele>
        <time>2015-06-25T15:26:18.000Z</time>
      </trkpt>
      <trkpt lat="48.75754" lon="1.76591">
        <ele>183</ele>
        <time>2015-06-25T15:26:25.000Z</time>
      </trkpt>
      <trkpt lat="48.75756" lon="1.76603">
        <ele>183</ele>
        <time>2015-06-25T15:26:29.000Z</time>
      </trkpt>
      <trkpt lat="48.75757" lon="1.76618">
        <ele>183</ele>
        <time>2015-06-25T15:26:36.000Z</time>
      </trkpt>
      <trkpt lat="48.75757" lon="1.7662">
        <ele>183</ele>
        <time>2015-06-25T15:26:37.000Z</time>
      </trkpt>
      <trkpt lat="48.75759" lon="1.76632">
        <ele>183</ele>
        <time>2015-06-25T15:26:42.000Z</time>
      </trkpt>
      <trkpt lat="48.75759" lon="1.76634">
        <ele>183</ele>
        <time>2015-06-25T15:26:43.000Z</time>
      </trkpt>
      <trkpt lat="48.7576" lon="1.76646">
        <ele>183</ele>
        <time>2015-06-25T15:26:48.000Z</time>
      </trkpt>
      <trkpt lat="48.75761" lon="1.76664">
        <ele>183</ele>
        <time>2015-06-25T15:26:55.000Z</time>
      </trkpt>
      <trkpt lat="48.75765" lon="1.76675">
        <ele>183</ele>
        <time>2015-06-25T15:26:59.000Z</time>
      </trkpt>
      <trkpt lat="48.75772" lon="1.76696">
        <ele>183</ele>
        <time>2015-06-25T15:27:05.000Z</time>
      </trkpt>
      <trkpt lat="48.7577" lon="1.76712">
        <ele>183</ele>
        <time>2015-06-25T15:27:10.000Z</time>
      </trkpt>
      <trkpt lat="48.75773" lon="1.76729">
        <ele>183</ele>
        <time>2015-06-25T15:27:18.000Z</time>
      </trkpt>
      <trkpt lat="48.75776" lon="1.76746">
        <ele>183</ele>
        <time>2015-06-25T15:27:25.000Z</time>
      </trkpt>
      <trkpt lat="48.75776" lon="1.76761">
        <ele>183</ele>
        <time>2015-06-25T15:27:30.000Z</time>
      </trkpt>
      <trkpt lat="48.75777" lon="1.76773">
        <ele>183</ele>
        <time>2015-06-25T15:27:34.000Z</time>
      </trkpt>
      <trkpt lat="48.75778" lon="1.76788">
        <ele>183</ele>
        <time>2015-06-25T15:27:40.000Z</time>
      </trkpt>
      <trkpt lat="48.75778" lon="1.76803">
        <ele>183</ele>
        <time>2015-06-25T15:27:46.000Z</time>
      </trkpt>
      <trkpt lat="48.75781" lon="1.76819">
        <ele>183</ele>
        <time>2015-06-25T15:27:53.000Z</time>
      </trkpt>
      <trkpt lat="48.75783" lon="1.76834">
        <ele>183</ele>
        <time>2015-06-25T15:28:00.000Z</time>
      </trkpt>
      <trkpt lat="48.75782" lon="1.76845">
        <ele>183</ele>
        <time>2015-06-25T15:28:06.000Z</time>
      </trkpt>
      <trkpt lat="48.7578" lon="1.76854">
        <ele>183</ele>
        <time>2015-06-25T15:28:10.000Z</time>
      </trkpt>
      <trkpt lat="48.75782" lon="1.7687">
        <ele>183</ele>
        <time>2015-06-25T15:28:19.000Z</time>
      </trkpt>
      <trkpt lat="48.75788" lon="1.76885">
        <ele>183</ele>
        <time>2015-06-25T15:28:25.000Z</time>
      </trkpt>
      <trkpt lat="48.75787" lon="1.76902">
        <ele>183</ele>
        <time>2015-06-25T15:28:30.000Z</time>
      </trkpt>
      <trkpt lat="48.75788" lon="1.76922">
        <ele>183</ele>
        <time>2015-06-25T15:28:35.000Z</time>
      </trkpt>
      <trkpt lat="48.75792" lon="1.76942">
        <ele>183</ele>
        <time>2015-06-25T15:28:40.000Z</time>
      </trkpt>
      <trkpt lat="48.75793" lon="1.76953">
        <ele>183</ele>
        <time>2015-06-25T15:28:44.000Z</time>
      </trkpt>
      <trkpt lat="48.75792" lon="1.76955">
        <ele>183</ele>
        <time>2015-06-25T15:28:45.000Z</time>
      </trkpt>
      <trkpt lat="48.75796" lon="1.7697">
        <ele>183</ele>
        <time>2015-06-25T15:28:49.000Z</time>
      </trkpt>
      <trkpt lat="48.75799" lon="1.77009">
        <ele>183</ele>
        <time>2015-06-25T15:28:57.000Z</time>
      </trkpt>
      <trkpt lat="48.75801" lon="1.77041">
        <ele>183</ele>
        <time>2015-06-25T15:29:03.000Z</time>
      </trkpt>
      <trkpt lat="48.75806" lon="1.77086">
        <ele>183</ele>
        <time>2015-06-25T15:29:11.000Z</time>
      </trkpt>
      <trkpt lat="48.75812" lon="1.77122">
        <ele>183</ele>
        <time>2015-06-25T15:29:17.000Z</time>
      </trkpt>
      <trkpt lat="48.75819" lon="1.77168">
        <ele>183</ele>
        <time>2015-06-25T15:29:25.000Z</time>
      </trkpt>
      <trkpt lat="48.75821" lon="1.77196">
        <ele>183</ele>
        <time>2015-06-25T15:29:30.000Z</time>
      </trkpt>
      <trkpt lat="48.75825" lon="1.77208">
        <ele>183</ele>
        <time>2015-06-25T15:29:32.000Z</time>
      </trkpt>
      <trkpt lat="48.75826" lon="1.77254">
        <ele>183</ele>
        <time>2015-06-25T15:29:40.000Z</time>
      </trkpt>
      <trkpt lat="48.7583" lon="1.77287">
        <ele>183</ele>
        <time>2015-06-25T15:29:46.000Z</time>
      </trkpt>
      <trkpt lat="48.75835" lon="1.77313">
        <ele>183</ele>
        <time>2015-06-25T15:29:50.000Z</time>
      </trkpt>
      <trkpt lat="48.75839" lon="1.77325">
        <ele>183</ele>
        <time>2015-06-25T15:29:52.000Z</time>
      </trkpt>
      <trkpt lat="48.75838" lon="1.77341">
        <ele>183</ele>
        <time>2015-06-25T15:29:55.000Z</time>
      </trkpt>
      <trkpt lat="48.75845" lon="1.77374">
        <ele>183</ele>
        <time>2015-06-25T15:30:02.000Z</time>
      </trkpt>
      <trkpt lat="48.75848" lon="1.77398">
        <ele>183</ele>
        <time>2015-06-25T15:30:07.000Z</time>
      </trkpt>
      <trkpt lat="48.75851" lon="1.77425">
        <ele>183</ele>
        <time>2015-06-25T15:30:12.000Z</time>
      </trkpt>
      <trkpt lat="48.75854" lon="1.77452">
        <ele>183</ele>
        <time>2015-06-25T15:30:17.000Z</time>
      </trkpt>
      <trkpt lat="48.75855" lon="1.77475">
        <ele>183</ele>
        <time>2015-06-25T15:30:21.000Z</time>
      </trkpt>
      <trkpt lat="48.7586" lon="1.77517">
        <ele>183</ele>
        <time>2015-06-25T15:30:28.000Z</time>
      </trkpt>
      <trkpt lat="48.75861" lon="1.77542">
        <ele>183</ele>
        <time>2015-06-25T15:30:33.000Z</time>
      </trkpt>
      <trkpt lat="48.75856" lon="1.77549">
        <ele>183</ele>
        <time>2015-06-25T15:30:38.000Z</time>
      </trkpt>
      <trkpt lat="48.75854" lon="1.77561">
        <ele>183</ele>
        <time>2015-06-25T15:30:44.000Z</time>
      </trkpt>
      <trkpt lat="48.75855" lon="1.77566">
        <ele>183</ele>
        <time>2015-06-25T15:30:46.000Z</time>
      </trkpt>
      <trkpt lat="48.75852" lon="1.77577">
        <ele>183</ele>
        <time>2015-06-25T15:30:52.000Z</time>
      </trkpt>
      <trkpt lat="48.75851" lon="1.77579">
        <ele>183</ele>
        <time>2015-06-25T15:30:53.000Z</time>
      </trkpt>
      <trkpt lat="48.75851" lon="1.77588">
        <ele>183</ele>
        <time>2015-06-25T15:30:56.000Z</time>
      </trkpt>
      <trkpt lat="48.75856" lon="1.7761">
        <ele>183</ele>
        <time>2015-06-25T15:31:03.000Z</time>
      </trkpt>
      <trkpt lat="48.75856" lon="1.77619">
        <ele>183</ele>
        <time>2015-06-25T15:31:07.000Z</time>
      </trkpt>
      <trkpt lat="48.75857" lon="1.77629">
        <ele>183</ele>
        <time>2015-06-25T15:31:12.000Z</time>
      </trkpt>
      <trkpt lat="48.7586" lon="1.77647">
        <ele>183</ele>
        <time>2015-06-25T15:31:19.000Z</time>
      </trkpt>
      <trkpt lat="48.75865" lon="1.77658">
        <ele>183</ele>
        <time>2015-06-25T15:31:23.000Z</time>
      </trkpt>
      <trkpt lat="48.75869" lon="1.77677">
        <ele>183</ele>
        <time>2015-06-25T15:31:30.000Z</time>
      </trkpt>
      <trkpt lat="48.75866" lon="1.77689">
        <ele>183</ele>
        <time>2015-06-25T15:31:37.000Z</time>
      </trkpt>
      <trkpt lat="48.75866" lon="1.7769">
        <ele>183</ele>
        <time>2015-06-25T15:31:38.000Z</time>
      </trkpt>
      <trkpt lat="48.75871" lon="1.77694">
        <ele>183</ele>
        <time>2015-06-25T15:31:47.000Z</time>
      </trkpt>
      <trkpt lat="48.7587" lon="1.77698">
        <ele>183</ele>
        <time>2015-06-25T15:31:52.000Z</time>
      </trkpt>
      <trkpt lat="48.75875" lon="1.7771">
        <ele>183</ele>
        <time>2015-06-25T15:31:57.000Z</time>
      </trkpt>
      <trkpt lat="48.75876" lon="1.77726">
        <ele>183</ele>
        <time>2015-06-25T15:32:04.000Z</time>
      </trkpt>
      <trkpt lat="48.75876" lon="1.77733">
        <ele>183</ele>
        <time>2015-06-25T15:32:08.000Z</time>
      </trkpt>
      <trkpt lat="48.75876" lon="1.77741">
        <ele>183</ele>
        <time>2015-06-25T15:32:14.000Z</time>
      </trkpt>
      <trkpt lat="48.75875" lon="1.77756">
        <ele>183</ele>
        <time>2015-06-25T15:32:20.000Z</time>
      </trkpt>
      <trkpt lat="48.75876" lon="1.77758">
        <ele>183</ele>
        <time>2015-06-25T15:32:21.000Z</time>
      </trkpt>
      <trkpt lat="48.75878" lon="1.77768">
        <ele>183</ele>
        <time>2015-06-25T15:32:26.000Z</time>
      </trkpt>
      <trkpt lat="48.75877" lon="1.7778">
        <ele>183</ele>
        <time>2015-06-25T15:32:32.000Z</time>
      </trkpt>
      <trkpt lat="48.75883" lon="1.77794">
        <ele>183</ele>
        <time>2015-06-25T15:32:38.000Z</time>
      </trkpt>
      <trkpt lat="48.75881" lon="1.77804">
        <ele>183</ele>
        <time>2015-06-25T15:32:43.000Z</time>
      </trkpt>
      <trkpt lat="48.75881" lon="1.77811">
        <ele>183</ele>
        <time>2015-06-25T15:32:46.000Z</time>
      </trkpt>
      <trkpt lat="48.75882" lon="1.77823">
        <ele>183</ele>
        <time>2015-06-25T15:32:51.000Z</time>
      </trkpt>
      <trkpt lat="48.75882" lon="1.77839">
        <ele>183</ele>
        <time>2015-06-25T15:32:59.000Z</time>
      </trkpt>
      <trkpt lat="48.75879" lon="1.77847">
        <ele>183</ele>
        <time>2015-06-25T15:33:03.000Z</time>
      </trkpt>
      <trkpt lat="48.75883" lon="1.77868">
        <ele>183</ele>
        <time>2015-06-25T15:33:11.000Z</time>
      </trkpt>
      <trkpt lat="48.75883" lon="1.77871">
        <ele>183</ele>
        <time>2015-06-25T15:33:12.000Z</time>
      </trkpt>
      <trkpt lat="48.75884" lon="1.77879">
        <ele>183</ele>
        <time>2015-06-25T15:33:16.000Z</time>
      </trkpt>
      <trkpt lat="48.75882" lon="1.77891">
        <ele>183</ele>
        <time>2015-06-25T15:33:23.000Z</time>
      </trkpt>
      <trkpt lat="48.75881" lon="1.7789">
        <ele>183</ele>
        <time>2015-06-25T15:33:24.000Z</time>
      </trkpt>
      <trkpt lat="48.7588" lon="1.77891">
        <ele>183</ele>
        <time>2015-06-25T15:33:26.000Z</time>
      </trkpt>
      <trkpt lat="48.75882" lon="1.77894">
        <ele>183</ele>
        <time>2015-06-25T15:33:28.000Z</time>
      </trkpt>
      <trkpt lat="48.75882" lon="1.77909">
        <ele>183</ele>
        <time>2015-06-25T15:33:34.000Z</time>
      </trkpt>
      <trkpt lat="48.75883" lon="1.77914">
        <ele>183</ele>
        <time>2015-06-25T15:33:36.000Z</time>
      </trkpt>
      <trkpt lat="48.75882" lon="1.77929">
        <ele>183</ele>
        <time>2015-06-25T15:33:43.000Z</time>
      </trkpt>
      <trkpt lat="48.75879" lon="1.77943">
        <ele>183</ele>
        <time>2015-06-25T15:33:48.000Z</time>
      </trkpt>
      <trkpt lat="48.75879" lon="1.77966">
        <ele>183</ele>
        <time>2015-06-25T15:33:56.000Z</time>
      </trkpt>
      <trkpt lat="48.75882" lon="1.77982">
        <ele>183</ele>
        <time>2015-06-25T15:34:01.000Z</time>
      </trkpt>
      <trkpt lat="48.75882" lon="1.77995">
        <ele>183</ele>
        <time>2015-06-25T15:34:07.000Z</time>
      </trkpt>
      <trkpt lat="48.75881" lon="1.78005">
        <ele>183</ele>
        <time>2015-06-25T15:34:12.000Z</time>
      </trkpt>
      <trkpt lat="48.75886" lon="1.7803">
        <ele>183</ele>
        <time>2015-06-25T15:34:20.000Z</time>
      </trkpt>
      <trkpt lat="48.7589" lon="1.7805">
        <ele>183</ele>
        <time>2015-06-25T15:34:26.000Z</time>
      </trkpt>
      <trkpt lat="48.75893" lon="1.78069">
        <ele>183</ele>
        <time>2015-06-25T15:34:34.000Z</time>
      </trkpt>
      <trkpt lat="48.75892" lon="1.78082">
        <ele>183</ele>
        <time>2015-06-25T15:34:40.000Z</time>
      </trkpt>
      <trkpt lat="48.75893" lon="1.78084">
        <ele>183</ele>
        <time>2015-06-25T15:34:41.000Z</time>
      </trkpt>
      <trkpt lat="48.75894" lon="1.78099">
        <ele>183</ele>
        <time>2015-06-25T15:34:47.000Z</time>
      </trkpt>
      <trkpt lat="48.75891" lon="1.78114">
        <ele>183</ele>
        <time>2015-06-25T15:34:53.000Z</time>
      </trkpt>
      <trkpt lat="48.75889" lon="1.78129">
        <ele>183</ele>
        <time>2015-06-25T15:34:59.000Z</time>
      </trkpt>
      <trkpt lat="48.75889" lon="1.78135">
        <ele>183</ele>
        <time>2015-06-25T15:35:02.000Z</time>
      </trkpt>
      <trkpt lat="48.75891" lon="1.7816">
        <ele>183</ele>
        <time>2015-06-25T15:35:13.000Z</time>
      </trkpt>
      <trkpt lat="48.75894" lon="1.78181">
        <ele>183</ele>
        <time>2015-06-25T15:35:18.000Z</time>
      </trkpt>
      <trkpt lat="48.75893" lon="1.78197">
        <ele>183</ele>
        <time>2015-06-25T15:35:24.000Z</time>
      </trkpt>
      <trkpt lat="48.75894" lon="1.78206">
        <ele>183</ele>
        <time>2015-06-25T15:35:28.000Z</time>
      </trkpt>
      <trkpt lat="48.75896" lon="1.78219">
        <ele>183</ele>
        <time>2015-06-25T15:35:33.000Z</time>
      </trkpt>
      <trkpt lat="48.75898" lon="1.78239">
        <ele>183</ele>
        <time>2015-06-25T15:35:39.000Z</time>
      </trkpt>
      <trkpt lat="48.75896" lon="1.78253">
        <ele>183</ele>
        <time>2015-06-25T15:35:46.000Z</time>
      </trkpt>
      <trkpt lat="48.75897" lon="1.78273">
        <ele>183</ele>
        <time>2015-06-25T15:35:54.000Z</time>
      </trkpt>
      <trkpt lat="48.75897" lon="1.78287">
        <ele>183</ele>
        <time>2015-06-25T15:36:00.000Z</time>
      </trkpt>
      <trkpt lat="48.75901" lon="1.78308">
        <ele>183</ele>
        <time>2015-06-25T15:36:07.000Z</time>
      </trkpt>
      <trkpt lat="48.75905" lon="1.78326">
        <ele>183</ele>
        <time>2015-06-25T15:36:13.000Z</time>
      </trkpt>
      <trkpt lat="48.75903" lon="1.78338">
        <ele>183</ele>
        <time>2015-06-25T15:36:19.000Z</time>
      </trkpt>
      <trkpt lat="48.75905" lon="1.78358">
        <ele>183</ele>
        <time>2015-06-25T15:36:27.000Z</time>
      </trkpt>
      <trkpt lat="48.75903" lon="1.78378">
        <ele>183</ele>
        <time>2015-06-25T15:36:36.000Z</time>
      </trkpt>
      <trkpt lat="48.75898" lon="1.78393">
        <ele>183</ele>
        <time>2015-06-25T15:36:44.000Z</time>
      </trkpt>
      <trkpt lat="48.75897" lon="1.78406">
        <ele>183</ele>
        <time>2015-06-25T15:36:50.000Z</time>
      </trkpt>
      <trkpt lat="48.75897" lon="1.78411">
        <ele>183</ele>
        <time>2015-06-25T15:36:52.000Z</time>
      </trkpt>
      <trkpt lat="48.75897" lon="1.78422">
        <ele>182.9</ele>
        <time>2015-06-25T15:36:57.000Z</time>
      </trkpt>
      <trkpt lat="48.75896" lon="1.78428">
        <ele>182.9</ele>
        <time>2015-06-25T15:37:00.000Z</time>
      </trkpt>
      <trkpt lat="48.75896" lon="1.78442">
        <ele>182.8</ele>
        <time>2015-06-25T15:37:06.000Z</time>
      </trkpt>
      <trkpt lat="48.75893" lon="1.78463">
        <ele>182.9</ele>
        <time>2015-06-25T15:37:15.000Z</time>
      </trkpt>
      <trkpt lat="48.75893" lon="1.78468">
        <ele>182.9</ele>
        <time>2015-06-25T15:37:17.000Z</time>
      </trkpt>
      <trkpt lat="48.75895" lon="1.78485">
        <ele>182.4</ele>
        <time>2015-06-25T15:37:25.000Z</time>
      </trkpt>
      <trkpt lat="48.75898" lon="1.78503">
        <ele>182</ele>
        <time>2015-06-25T15:37:32.000Z</time>
      </trkpt>
      <trkpt lat="48.75904" lon="1.78519">
        <ele>182</ele>
        <time>2015-06-25T15:37:38.000Z</time>
      </trkpt>
      <trkpt lat="48.75909" lon="1.78532">
        <ele>182</ele>
        <time>2015-06-25T15:37:44.000Z</time>
      </trkpt>
      <trkpt lat="48.75909" lon="1.78544">
        <ele>182</ele>
        <time>2015-06-25T15:37:50.000Z</time>
      </trkpt>
      <trkpt lat="48.75909" lon="1.78547">
        <ele>182</ele>
        <time>2015-06-25T15:37:51.000Z</time>
      </trkpt>
      <trkpt lat="48.75906" lon="1.78566">
        <ele>182</ele>
        <time>2015-06-25T15:38:00.000Z</time>
      </trkpt>
      <trkpt lat="48.75906" lon="1.78573">
        <ele>182</ele>
        <time>2015-06-25T15:38:03.000Z</time>
      </trkpt>
      <trkpt lat="48.75906" lon="1.78585">
        <ele>182</ele>
        <time>2015-06-25T15:38:09.000Z</time>
      </trkpt>
      <trkpt lat="48.75906" lon="1.78602">
        <ele>182</ele>
        <time>2015-06-25T15:38:16.000Z</time>
      </trkpt>
      <trkpt lat="48.75907" lon="1.78617">
        <ele>182</ele>
        <time>2015-06-25T15:38:22.000Z</time>
      </trkpt>
      <trkpt lat="48.75907" lon="1.78626">
        <ele>182</ele>
        <time>2015-06-25T15:38:26.000Z</time>
      </trkpt>
      <trkpt lat="48.75908" lon="1.7863">
        <ele>182</ele>
        <time>2015-06-25T15:38:35.000Z</time>
      </trkpt>
      <trkpt lat="48.75908" lon="1.78633">
        <ele>182</ele>
        <time>2015-06-25T15:38:46.000Z</time>
      </trkpt>
      <trkpt lat="48.75907" lon="1.78634">
        <ele>182</ele>
        <time>2015-06-25T15:38:47.000Z</time>
      </trkpt>
      <trkpt lat="48.759" lon="1.78634">
        <ele>182</ele>
        <time>2015-06-25T15:39:21.000Z</time>
      </trkpt>
      <trkpt lat="48.75892" lon="1.78628">
        <ele>182</ele>
        <time>2015-06-25T15:39:26.000Z</time>
      </trkpt>
      <trkpt lat="48.75883" lon="1.78619">
        <ele>182.2</ele>
        <time>2015-06-25T15:39:31.000Z</time>
      </trkpt>
      <trkpt lat="48.75867" lon="1.786">
        <ele>182.5</ele>
        <time>2015-06-25T15:39:37.000Z</time>
      </trkpt>
      <trkpt lat="48.75858" lon="1.78592">
        <ele>182.4</ele>
        <time>2015-06-25T15:39:42.000Z</time>
      </trkpt>
      <trkpt lat="48.75852" lon="1.78588">
        <ele>182.4</ele>
        <time>2015-06-25T15:39:46.000Z</time>
      </trkpt>
      <trkpt lat="48.75849" lon="1.78583">
        <ele>182.4</ele>
        <time>2015-06-25T15:39:51.000Z</time>
      </trkpt>
      <trkpt lat="48.7584" lon="1.78577">
        <ele>182.8</ele>
        <time>2015-06-25T15:39:59.000Z</time>
      </trkpt>
      <trkpt lat="48.75838" lon="1.78577">
        <ele>182.8</ele>
        <time>2015-06-25T15:40:00.000Z</time>
      </trkpt>
      <trkpt lat="48.7583" lon="1.7857">
        <ele>183</ele>
        <time>2015-06-25T15:40:07.000Z</time>
      </trkpt>
      <trkpt lat="48.75823" lon="1.78561">
        <ele>183</ele>
        <time>2015-06-25T15:40:14.000Z</time>
      </trkpt>
      <trkpt lat="48.75815" lon="1.78554">
        <ele>183</ele>
        <time>2015-06-25T15:40:21.000Z</time>
      </trkpt>
      <trkpt lat="48.75814" lon="1.7855">
        <ele>183</ele>
        <time>2015-06-25T15:40:24.000Z</time>
      </trkpt>
      <trkpt lat="48.75812" lon="1.78548">
        <ele>183</ele>
        <time>2015-06-25T15:40:26.000Z</time>
      </trkpt>
      <trkpt lat="48.75809" lon="1.78545">
        <ele>183</ele>
        <time>2015-06-25T15:40:28.000Z</time>
      </trkpt>
      <trkpt lat="48.75802" lon="1.78537">
        <ele>183</ele>
        <time>2015-06-25T15:40:34.000Z</time>
      </trkpt>
      <trkpt lat="48.75801" lon="1.78535">
        <ele>183</ele>
        <time>2015-06-25T15:40:35.000Z</time>
      </trkpt>
      <trkpt lat="48.75787" lon="1.78529">
        <ele>183</ele>
        <time>2015-06-25T15:40:43.000Z</time>
      </trkpt>
      <trkpt lat="48.75773" lon="1.78521">
        <ele>183</ele>
        <time>2015-06-25T15:40:52.000Z</time>
      </trkpt>
      <trkpt lat="48.75764" lon="1.78515">
        <ele>183</ele>
        <time>2015-06-25T15:40:59.000Z</time>
      </trkpt>
      <trkpt lat="48.7576" lon="1.78506">
        <ele>183</ele>
        <time>2015-06-25T15:41:04.000Z</time>
      </trkpt>
      <trkpt lat="48.75752" lon="1.78503">
        <ele>183</ele>
        <time>2015-06-25T15:41:10.000Z</time>
      </trkpt>
      <trkpt lat="48.75742" lon="1.78493">
        <ele>183</ele>
        <time>2015-06-25T15:41:17.000Z</time>
      </trkpt>
      <trkpt lat="48.75732" lon="1.78492">
        <ele>183</ele>
        <time>2015-06-25T15:41:23.000Z</time>
      </trkpt>
      <trkpt lat="48.75723" lon="1.78487">
        <ele>183</ele>
        <time>2015-06-25T15:41:29.000Z</time>
      </trkpt>
      <trkpt lat="48.75715" lon="1.78475">
        <ele>183</ele>
        <time>2015-06-25T15:41:37.000Z</time>
      </trkpt>
      <trkpt lat="48.75713" lon="1.78464">
        <ele>183</ele>
        <time>2015-06-25T15:41:41.000Z</time>
      </trkpt>
      <trkpt lat="48.75711" lon="1.7846">
        <ele>183</ele>
        <time>2015-06-25T15:41:43.000Z</time>
      </trkpt>
      <trkpt lat="48.75701" lon="1.78455">
        <ele>183</ele>
        <time>2015-06-25T15:41:50.000Z</time>
      </trkpt>
      <trkpt lat="48.75693" lon="1.7845">
        <ele>183</ele>
        <time>2015-06-25T15:41:56.000Z</time>
      </trkpt>
      <trkpt lat="48.75687" lon="1.78444">
        <ele>183</ele>
        <time>2015-06-25T15:42:01.000Z</time>
      </trkpt>
      <trkpt lat="48.75684" lon="1.78441">
        <ele>183</ele>
        <time>2015-06-25T15:42:04.000Z</time>
      </trkpt>
      <trkpt lat="48.75673" lon="1.78434">
        <ele>183</ele>
        <time>2015-06-25T15:42:13.000Z</time>
      </trkpt>
      <trkpt lat="48.75671" lon="1.78432">
        <ele>183</ele>
        <time>2015-06-25T15:42:14.000Z</time>
      </trkpt>
      <trkpt lat="48.75666" lon="1.78427">
        <ele>183</ele>
        <time>2015-06-25T15:42:19.000Z</time>
      </trkpt>
      <trkpt lat="48.75659" lon="1.78419">
        <ele>183</ele>
        <time>2015-06-25T15:42:25.000Z</time>
      </trkpt>
      <trkpt lat="48.75654" lon="1.78412">
        <ele>183</ele>
        <time>2015-06-25T15:42:30.000Z</time>
      </trkpt>
      <trkpt lat="48.75647" lon="1.78402">
        <ele>183</ele>
        <time>2015-06-25T15:42:37.000Z</time>
      </trkpt>
      <trkpt lat="48.75644" lon="1.78399">
        <ele>183</ele>
        <time>2015-06-25T15:42:40.000Z</time>
      </trkpt>
      <trkpt lat="48.75635" lon="1.78391">
        <ele>183</ele>
        <time>2015-06-25T15:42:47.000Z</time>
      </trkpt>
      <trkpt lat="48.75634" lon="1.7839">
        <ele>183</ele>
        <time>2015-06-25T15:42:48.000Z</time>
      </trkpt>
      <trkpt lat="48.75621" lon="1.78383">
        <ele>183</ele>
        <time>2015-06-25T15:42:56.000Z</time>
      </trkpt>
      <trkpt lat="48.75615" lon="1.7838">
        <ele>183</ele>
        <time>2015-06-25T15:43:02.000Z</time>
      </trkpt>
      <trkpt lat="48.75605" lon="1.78375">
        <ele>183</ele>
        <time>2015-06-25T15:43:08.000Z</time>
      </trkpt>
      <trkpt lat="48.756" lon="1.7837">
        <ele>183</ele>
        <time>2015-06-25T15:43:13.000Z</time>
      </trkpt>
      <trkpt lat="48.75594" lon="1.78363">
        <ele>183</ele>
        <time>2015-06-25T15:43:18.000Z</time>
      </trkpt>
      <trkpt lat="48.75584" lon="1.78353">
        <ele>183</ele>
        <time>2015-06-25T15:43:23.000Z</time>
      </trkpt>
      <trkpt lat="48.75567" lon="1.78335">
        <ele>183</ele>
        <time>2015-06-25T15:43:30.000Z</time>
      </trkpt>
      <trkpt lat="48.75556" lon="1.78323">
        <ele>183</ele>
        <time>2015-06-25T15:43:36.000Z</time>
      </trkpt>
      <trkpt lat="48.75551" lon="1.78319">
        <ele>183</ele>
        <time>2015-06-25T15:43:40.000Z</time>
      </trkpt>
      <trkpt lat="48.75545" lon="1.78314">
        <ele>183</ele>
        <time>2015-06-25T15:43:45.000Z</time>
      </trkpt>
      <trkpt lat="48.75536" lon="1.78309">
        <ele>183</ele>
        <time>2015-06-25T15:43:53.000Z</time>
      </trkpt>
      <trkpt lat="48.75532" lon="1.78302">
        <ele>183</ele>
        <time>2015-06-25T15:43:58.000Z</time>
      </trkpt>
      <trkpt lat="48.75523" lon="1.78294">
        <ele>183</ele>
        <time>2015-06-25T15:44:05.000Z</time>
      </trkpt>
      <trkpt lat="48.75519" lon="1.7829">
        <ele>183</ele>
        <time>2015-06-25T15:44:09.000Z</time>
      </trkpt>
      <trkpt lat="48.75512" lon="1.78282">
        <ele>183</ele>
        <time>2015-06-25T15:44:16.000Z</time>
      </trkpt>
      <trkpt lat="48.75502" lon="1.78272">
        <ele>183</ele>
        <time>2015-06-25T15:44:24.000Z</time>
      </trkpt>
      <trkpt lat="48.755" lon="1.78272">
        <ele>183</ele>
        <time>2015-06-25T15:44:25.000Z</time>
      </trkpt>
      <trkpt lat="48.7549" lon="1.78278">
        <ele>183</ele>
        <time>2015-06-25T15:44:32.000Z</time>
      </trkpt>
      <trkpt lat="48.75485" lon="1.78286">
        <ele>183</ele>
        <time>2015-06-25T15:44:38.000Z</time>
      </trkpt>
      <trkpt lat="48.75481" lon="1.78298">
        <ele>183</ele>
        <time>2015-06-25T15:44:43.000Z</time>
      </trkpt>
      <trkpt lat="48.75479" lon="1.78308">
        <ele>183</ele>
        <time>2015-06-25T15:44:47.000Z</time>
      </trkpt>
      <trkpt lat="48.7547" lon="1.78325">
        <ele>183</ele>
        <time>2015-06-25T15:44:55.000Z</time>
      </trkpt>
      <trkpt lat="48.75468" lon="1.78334">
        <ele>183</ele>
        <time>2015-06-25T15:44:58.000Z</time>
      </trkpt>
      <trkpt lat="48.75463" lon="1.78343">
        <ele>183</ele>
        <time>2015-06-25T15:45:03.000Z</time>
      </trkpt>
      <trkpt lat="48.75462" lon="1.78345">
        <ele>183</ele>
        <time>2015-06-25T15:45:04.000Z</time>
      </trkpt>
      <trkpt lat="48.75462" lon="1.7836">
        <ele>183</ele>
        <time>2015-06-25T15:45:08.000Z</time>
      </trkpt>
      <trkpt lat="48.75454" lon="1.78402">
        <ele>183</ele>
        <time>2015-06-25T15:45:16.000Z</time>
      </trkpt>
      <trkpt lat="48.75446" lon="1.7843">
        <ele>183</ele>
        <time>2015-06-25T15:45:22.000Z</time>
      </trkpt>
      <trkpt lat="48.75439" lon="1.78452">
        <ele>183</ele>
        <time>2015-06-25T15:45:27.000Z</time>
      </trkpt>
      <trkpt lat="48.75426" lon="1.78475">
        <ele>183</ele>
        <time>2015-06-25T15:45:32.000Z</time>
      </trkpt>
      <trkpt lat="48.75416" lon="1.78507">
        <ele>183</ele>
        <time>2015-06-25T15:45:39.000Z</time>
      </trkpt>
      <trkpt lat="48.75409" lon="1.78531">
        <ele>183</ele>
        <time>2015-06-25T15:45:44.000Z</time>
      </trkpt>
      <trkpt lat="48.75392" lon="1.78567">
        <ele>183</ele>
        <time>2015-06-25T15:45:51.000Z</time>
      </trkpt>
      <trkpt lat="48.75389" lon="1.78572">
        <ele>183</ele>
        <time>2015-06-25T15:45:52.000Z</time>
      </trkpt>
      <trkpt lat="48.75386" lon="1.78583">
        <ele>183</ele>
        <time>2015-06-25T15:45:54.000Z</time>
      </trkpt>
      <trkpt lat="48.75372" lon="1.78616">
        <ele>183</ele>
        <time>2015-06-25T15:46:01.000Z</time>
      </trkpt>
      <trkpt lat="48.75359" lon="1.78646">
        <ele>183</ele>
        <time>2015-06-25T15:46:07.000Z</time>
      </trkpt>
      <trkpt lat="48.75353" lon="1.78674">
        <ele>183</ele>
        <time>2015-06-25T15:46:12.000Z</time>
      </trkpt>
      <trkpt lat="48.75344" lon="1.78708">
        <ele>183</ele>
        <time>2015-06-25T15:46:18.000Z</time>
      </trkpt>
      <trkpt lat="48.75339" lon="1.78736">
        <ele>183</ele>
        <time>2015-06-25T15:46:23.000Z</time>
      </trkpt>
      <trkpt lat="48.75338" lon="1.78743">
        <ele>183</ele>
        <time>2015-06-25T15:46:24.000Z</time>
      </trkpt>
      <trkpt lat="48.7532" lon="1.78783">
        <ele>183</ele>
        <time>2015-06-25T15:46:31.000Z</time>
      </trkpt>
      <trkpt lat="48.7531" lon="1.78803">
        <ele>183</ele>
        <time>2015-06-25T15:46:35.000Z</time>
      </trkpt>
      <trkpt lat="48.75294" lon="1.78836">
        <ele>183</ele>
        <time>2015-06-25T15:46:41.000Z</time>
      </trkpt>
      <trkpt lat="48.75282" lon="1.78866">
        <ele>183</ele>
        <time>2015-06-25T15:46:46.000Z</time>
      </trkpt>
      <trkpt lat="48.75278" lon="1.78871">
        <ele>183</ele>
        <time>2015-06-25T15:46:47.000Z</time>
      </trkpt>
      <trkpt lat="48.75268" lon="1.78896">
        <ele>183</ele>
        <time>2015-06-25T15:46:51.000Z</time>
      </trkpt>
      <trkpt lat="48.75259" lon="1.78917">
        <ele>183</ele>
        <time>2015-06-25T15:46:54.000Z</time>
      </trkpt>
      <trkpt lat="48.75254" lon="1.78936">
        <ele>183</ele>
        <time>2015-06-25T15:46:57.000Z</time>
      </trkpt>
      <trkpt lat="48.75244" lon="1.78974">
        <ele>183</ele>
        <time>2015-06-25T15:47:04.000Z</time>
      </trkpt>
      <trkpt lat="48.75242" lon="1.7898">
        <ele>183</ele>
        <time>2015-06-25T15:47:05.000Z</time>
      </trkpt>
      <trkpt lat="48.75235" lon="1.78996">
        <ele>183</ele>
        <time>2015-06-25T15:47:08.000Z</time>
      </trkpt>
      <trkpt lat="48.75227" lon="1.79018">
        <ele>183</ele>
        <time>2015-06-25T15:47:12.000Z</time>
      </trkpt>
      <trkpt lat="48.75217" lon="1.79044">
        <ele>183</ele>
        <time>2015-06-25T15:47:17.000Z</time>
      </trkpt>
      <trkpt lat="48.75208" lon="1.79068">
        <ele>183</ele>
        <time>2015-06-25T15:47:23.000Z</time>
      </trkpt>
      <trkpt lat="48.75197" lon="1.79089">
        <ele>183</ele>
        <time>2015-06-25T15:47:29.000Z</time>
      </trkpt>
      <trkpt lat="48.75186" lon="1.79101">
        <ele>183</ele>
        <time>2015-06-25T15:47:34.000Z</time>
      </trkpt>
      <trkpt lat="48.75179" lon="1.79111">
        <ele>183</ele>
        <time>2015-06-25T15:47:41.000Z</time>
      </trkpt>
      <trkpt lat="48.75171" lon="1.79122">
        <ele>183</ele>
        <time>2015-06-25T15:47:48.000Z</time>
      </trkpt>
      <trkpt lat="48.75163" lon="1.7913">
        <ele>183</ele>
        <time>2015-06-25T15:47:56.000Z</time>
      </trkpt>
      <trkpt lat="48.75163" lon="1.7913">
        <ele>183</ele>
        <time>2015-06-25T15:47:58.000Z</time>
      </trkpt>
      <trkpt lat="48.75161" lon="1.79139">
        <ele>183</ele>
        <time>2015-06-25T15:48:05.000Z</time>
      </trkpt>
      <trkpt lat="48.75159" lon="1.79152">
        <ele>183</ele>
        <time>2015-06-25T15:48:10.000Z</time>
      </trkpt>
      <trkpt lat="48.75158" lon="1.79156">
        <ele>183</ele>
        <time>2015-06-25T15:48:12.000Z</time>
      </trkpt>
      <trkpt lat="48.75154" lon="1.79173">
        <ele>183</ele>
        <time>2015-06-25T15:48:20.000Z</time>
      </trkpt>
      <trkpt lat="48.75152" lon="1.79192">
        <ele>183</ele>
        <time>2015-06-25T15:48:29.000Z</time>
      </trkpt>
      <trkpt lat="48.75152" lon="1.79195">
        <ele>183</ele>
        <time>2015-06-25T15:48:30.000Z</time>
      </trkpt>
      <trkpt lat="48.75147" lon="1.79213">
        <ele>183</ele>
        <time>2015-06-25T15:48:36.000Z</time>
      </trkpt>
      <trkpt lat="48.75146" lon="1.79218">
        <ele>183</ele>
        <time>2015-06-25T15:48:38.000Z</time>
      </trkpt>
      <trkpt lat="48.75141" lon="1.79228">
        <ele>183</ele>
        <time>2015-06-25T15:48:45.000Z</time>
      </trkpt>
      <trkpt lat="48.75141" lon="1.79227">
        <ele>183</ele>
        <time>2015-06-25T15:48:47.000Z</time>
      </trkpt>
      <trkpt lat="48.75138" lon="1.79234">
        <ele>183</ele>
        <time>2015-06-25T15:48:53.000Z</time>
      </trkpt>
      <trkpt lat="48.75137" lon="1.79235">
        <ele>183</ele>
        <time>2015-06-25T15:48:54.000Z</time>
      </trkpt>
      <trkpt lat="48.7513" lon="1.79251">
        <ele>183</ele>
        <time>2015-06-25T15:48:59.000Z</time>
      </trkpt>
      <trkpt lat="48.75119" lon="1.79272">
        <ele>183</ele>
        <time>2015-06-25T15:49:03.000Z</time>
      </trkpt>
      <trkpt lat="48.75106" lon="1.79302">
        <ele>183</ele>
        <time>2015-06-25T15:49:09.000Z</time>
      </trkpt>
      <trkpt lat="48.75104" lon="1.79307">
        <ele>183</ele>
        <time>2015-06-25T15:49:10.000Z</time>
      </trkpt>
      <trkpt lat="48.75096" lon="1.7933">
        <ele>183</ele>
        <time>2015-06-25T15:49:14.000Z</time>
      </trkpt>
      <trkpt lat="48.75086" lon="1.79357">
        <ele>183</ele>
        <time>2015-06-25T15:49:19.000Z</time>
      </trkpt>
      <trkpt lat="48.75079" lon="1.79373">
        <ele>183</ele>
        <time>2015-06-25T15:49:22.000Z</time>
      </trkpt>
      <trkpt lat="48.75071" lon="1.7939">
        <ele>183</ele>
        <time>2015-06-25T15:49:25.000Z</time>
      </trkpt>
      <trkpt lat="48.75063" lon="1.79405">
        <ele>183</ele>
        <time>2015-06-25T15:49:28.000Z</time>
      </trkpt>
      <trkpt lat="48.75056" lon="1.79421">
        <ele>183</ele>
        <time>2015-06-25T15:49:31.000Z</time>
      </trkpt>
      <trkpt lat="48.75043" lon="1.79453">
        <ele>183</ele>
        <time>2015-06-25T15:49:37.000Z</time>
      </trkpt>
      <trkpt lat="48.75039" lon="1.79462">
        <ele>183</ele>
        <time>2015-06-25T15:49:39.000Z</time>
      </trkpt>
      <trkpt lat="48.75025" lon="1.7949">
        <ele>183</ele>
        <time>2015-06-25T15:49:44.000Z</time>
      </trkpt>
      <trkpt lat="48.75008" lon="1.79524">
        <ele>183</ele>
        <time>2015-06-25T15:49:50.000Z</time>
      </trkpt>
      <trkpt lat="48.75006" lon="1.7953">
        <ele>183</ele>
        <time>2015-06-25T15:49:51.000Z</time>
      </trkpt>
      <trkpt lat="48.74993" lon="1.79558">
        <ele>183</ele>
        <time>2015-06-25T15:49:56.000Z</time>
      </trkpt>
      <trkpt lat="48.74984" lon="1.7958">
        <ele>183</ele>
        <time>2015-06-25T15:50:00.000Z</time>
      </trkpt>
      <trkpt lat="48.74972" lon="1.79605">
        <ele>183</ele>
        <time>2015-06-25T15:50:05.000Z</time>
      </trkpt>
      <trkpt lat="48.74965" lon="1.79622">
        <ele>183</ele>
        <time>2015-06-25T15:50:08.000Z</time>
      </trkpt>
      <trkpt lat="48.74952" lon="1.79649">
        <ele>183</ele>
        <time>2015-06-25T15:50:13.000Z</time>
      </trkpt>
      <trkpt lat="48.7495" lon="1.79654">
        <ele>183</ele>
        <time>2015-06-25T15:50:14.000Z</time>
      </trkpt>
      <trkpt lat="48.74943" lon="1.7967">
        <ele>183</ele>
        <time>2015-06-25T15:50:17.000Z</time>
      </trkpt>
      <trkpt lat="48.7493" lon="1.79702">
        <ele>183</ele>
        <time>2015-06-25T15:50:23.000Z</time>
      </trkpt>
      <trkpt lat="48.74923" lon="1.79717">
        <ele>183</ele>
        <time>2015-06-25T15:50:26.000Z</time>
      </trkpt>
      <trkpt lat="48.74918" lon="1.79727">
        <ele>183</ele>
        <time>2015-06-25T15:50:28.000Z</time>
      </trkpt>
      <trkpt lat="48.74911" lon="1.79746">
        <ele>183</ele>
        <time>2015-06-25T15:50:32.000Z</time>
      </trkpt>
      <trkpt lat="48.74897" lon="1.79774">
        <ele>183</ele>
        <time>2015-06-25T15:50:38.000Z</time>
      </trkpt>
      <trkpt lat="48.74885" lon="1.79803">
        <ele>183</ele>
        <time>2015-06-25T15:50:44.000Z</time>
      </trkpt>
      <trkpt lat="48.74871" lon="1.79835">
        <ele>183</ele>
        <time>2015-06-25T15:50:50.000Z</time>
      </trkpt>
      <trkpt lat="48.74858" lon="1.79864">
        <ele>183</ele>
        <time>2015-06-25T15:50:56.000Z</time>
      </trkpt>
      <trkpt lat="48.74848" lon="1.79886">
        <ele>183</ele>
        <time>2015-06-25T15:51:01.000Z</time>
      </trkpt>
      <trkpt lat="48.74837" lon="1.79912">
        <ele>183</ele>
        <time>2015-06-25T15:51:07.000Z</time>
      </trkpt>
      <trkpt lat="48.74829" lon="1.7993">
        <ele>183.2</ele>
        <time>2015-06-25T15:51:12.000Z</time>
      </trkpt>
      <trkpt lat="48.7482" lon="1.79948">
        <ele>183.5</ele>
        <time>2015-06-25T15:51:17.000Z</time>
      </trkpt>
      <trkpt lat="48.74808" lon="1.79976">
        <ele>183.9</ele>
        <time>2015-06-25T15:51:23.000Z</time>
      </trkpt>
      <trkpt lat="48.74797" lon="1.80001">
        <ele>184</ele>
        <time>2015-06-25T15:51:28.000Z</time>
      </trkpt>
      <trkpt lat="48.74789" lon="1.80017">
        <ele>184</ele>
        <time>2015-06-25T15:51:31.000Z</time>
      </trkpt>
      <trkpt lat="48.74774" lon="1.80051">
        <ele>184</ele>
        <time>2015-06-25T15:51:38.000Z</time>
      </trkpt>
      <trkpt lat="48.74757" lon="1.8009">
        <ele>184</ele>
        <time>2015-06-25T15:51:46.000Z</time>
      </trkpt>
      <trkpt lat="48.74742" lon="1.80124">
        <ele>184</ele>
        <time>2015-06-25T15:51:53.000Z</time>
      </trkpt>
      <trkpt lat="48.74732" lon="1.80146">
        <ele>184</ele>
        <time>2015-06-25T15:51:58.000Z</time>
      </trkpt>
      <trkpt lat="48.74723" lon="1.80167">
        <ele>184</ele>
        <time>2015-06-25T15:52:03.000Z</time>
      </trkpt>
      <trkpt lat="48.74711" lon="1.80194">
        <ele>184</ele>
        <time>2015-06-25T15:52:08.000Z</time>
      </trkpt>
      <trkpt lat="48.747" lon="1.8022">
        <ele>184</ele>
        <time>2015-06-25T15:52:14.000Z</time>
      </trkpt>
      <trkpt lat="48.74685" lon="1.80256">
        <ele>184</ele>
        <time>2015-06-25T15:52:21.000Z</time>
      </trkpt>
      <trkpt lat="48.74677" lon="1.80275">
        <ele>184</ele>
        <time>2015-06-25T15:52:25.000Z</time>
      </trkpt>
      <trkpt lat="48.74668" lon="1.80298">
        <ele>184</ele>
        <time>2015-06-25T15:52:30.000Z</time>
      </trkpt>
      <trkpt lat="48.74665" lon="1.80303">
        <ele>184</ele>
        <time>2015-06-25T15:52:31.000Z</time>
      </trkpt>
      <trkpt lat="48.74649" lon="1.80339">
        <ele>184</ele>
        <time>2015-06-25T15:52:38.000Z</time>
      </trkpt>
      <trkpt lat="48.74633" lon="1.80373">
        <ele>184</ele>
        <time>2015-06-25T15:52:44.000Z</time>
      </trkpt>
      <trkpt lat="48.7463" lon="1.80382">
        <ele>184</ele>
        <time>2015-06-25T15:52:46.000Z</time>
      </trkpt>
      <trkpt lat="48.74614" lon="1.80416">
        <ele>184</ele>
        <time>2015-06-25T15:52:53.000Z</time>
      </trkpt>
      <trkpt lat="48.74604" lon="1.80439">
        <ele>184</ele>
        <time>2015-06-25T15:52:58.000Z</time>
      </trkpt>
      <trkpt lat="48.74593" lon="1.80465">
        <ele>184</ele>
        <time>2015-06-25T15:53:03.000Z</time>
      </trkpt>
      <trkpt lat="48.74585" lon="1.80482">
        <ele>184</ele>
        <time>2015-06-25T15:53:06.000Z</time>
      </trkpt>
      <trkpt lat="48.74578" lon="1.80499">
        <ele>184</ele>
        <time>2015-06-25T15:53:10.000Z</time>
      </trkpt>
      <trkpt lat="48.74573" lon="1.80512">
        <ele>184</ele>
        <time>2015-06-25T15:53:14.000Z</time>
      </trkpt>
      <trkpt lat="48.74567" lon="1.80521">
        <ele>184</ele>
        <time>2015-06-25T15:53:19.000Z</time>
      </trkpt>
      <trkpt lat="48.74565" lon="1.80527">
        <ele>184</ele>
        <time>2015-06-25T15:53:22.000Z</time>
      </trkpt>
      <trkpt lat="48.74556" lon="1.80545">
        <ele>184</ele>
        <time>2015-06-25T15:53:32.000Z</time>
      </trkpt>
      <trkpt lat="48.74555" lon="1.80548">
        <ele>184</ele>
        <time>2015-06-25T15:53:34.000Z</time>
      </trkpt>
      <trkpt lat="48.74547" lon="1.80568">
        <ele>184</ele>
        <time>2015-06-25T15:53:43.000Z</time>
      </trkpt>
      <trkpt lat="48.74542" lon="1.80577">
        <ele>184</ele>
        <time>2015-06-25T15:53:48.000Z</time>
      </trkpt>
      <trkpt lat="48.74534" lon="1.80596">
        <ele>184</ele>
        <time>2015-06-25T15:53:57.000Z</time>
      </trkpt>
      <trkpt lat="48.74528" lon="1.80609">
        <ele>184</ele>
        <time>2015-06-25T15:54:04.000Z</time>
      </trkpt>
      <trkpt lat="48.74522" lon="1.80624">
        <ele>184</ele>
        <time>2015-06-25T15:54:12.000Z</time>
      </trkpt>
      <trkpt lat="48.74515" lon="1.80637">
        <ele>184</ele>
        <time>2015-06-25T15:54:19.000Z</time>
      </trkpt>
      <trkpt lat="48.74505" lon="1.80647">
        <ele>184</ele>
        <time>2015-06-25T15:54:27.000Z</time>
      </trkpt>
      <trkpt lat="48.74495" lon="1.80648">
        <ele>184</ele>
        <time>2015-06-25T15:54:33.000Z</time>
      </trkpt>
      <trkpt lat="48.74485" lon="1.80656">
        <ele>184</ele>
        <time>2015-06-25T15:54:41.000Z</time>
      </trkpt>
      <trkpt lat="48.74479" lon="1.80671">
        <ele>184</ele>
        <time>2015-06-25T15:54:48.000Z</time>
      </trkpt>
      <trkpt lat="48.74474" lon="1.80681">
        <ele>184</ele>
        <time>2015-06-25T15:54:53.000Z</time>
      </trkpt>
      <trkpt lat="48.74472" lon="1.80685">
        <ele>184</ele>
        <time>2015-06-25T15:54:55.000Z</time>
      </trkpt>
      <trkpt lat="48.74461" lon="1.8069">
        <ele>184</ele>
        <time>2015-06-25T15:55:02.000Z</time>
      </trkpt>
      <trkpt lat="48.74459" lon="1.80689">
        <ele>184</ele>
        <time>2015-06-25T15:55:04.000Z</time>
      </trkpt>
      <trkpt lat="48.74449" lon="1.80692">
        <ele>184</ele>
        <time>2015-06-25T15:55:12.000Z</time>
      </trkpt>
      <trkpt lat="48.7444" lon="1.80693">
        <ele>184</ele>
        <time>2015-06-25T15:55:18.000Z</time>
      </trkpt>
      <trkpt lat="48.74433" lon="1.80694">
        <ele>184</ele>
        <time>2015-06-25T15:55:23.000Z</time>
      </trkpt>
      <trkpt lat="48.74418" lon="1.80696">
        <ele>184</ele>
        <time>2015-06-25T15:55:31.000Z</time>
      </trkpt>
      <trkpt lat="48.74414" lon="1.80697">
        <ele>184</ele>
        <time>2015-06-25T15:55:34.000Z</time>
      </trkpt>
      <trkpt lat="48.74411" lon="1.80696">
        <ele>184</ele>
        <time>2015-06-25T15:55:36.000Z</time>
      </trkpt>
      <trkpt lat="48.74403" lon="1.807">
        <ele>184</ele>
        <time>2015-06-25T15:55:41.000Z</time>
      </trkpt>
      <trkpt lat="48.74395" lon="1.80703">
        <ele>184</ele>
        <time>2015-06-25T15:55:47.000Z</time>
      </trkpt>
      <trkpt lat="48.7439" lon="1.80703">
        <ele>184</ele>
        <time>2015-06-25T15:55:49.000Z</time>
      </trkpt>
      <trkpt lat="48.74377" lon="1.80703">
        <ele>184</ele>
        <time>2015-06-25T15:55:56.000Z</time>
      </trkpt>
      <trkpt lat="48.74362" lon="1.807">
        <ele>184</ele>
        <time>2015-06-25T15:56:03.000Z</time>
      </trkpt>
      <trkpt lat="48.74354" lon="1.80705">
        <ele>184</ele>
        <time>2015-06-25T15:56:07.000Z</time>
      </trkpt>
      <trkpt lat="48.74345" lon="1.80706">
        <ele>184</ele>
        <time>2015-06-25T15:56:13.000Z</time>
      </trkpt>
      <trkpt lat="48.74345" lon="1.80706">
        <ele>184</ele>
        <time>2015-06-25T15:56:14.000Z</time>
      </trkpt>
      <trkpt lat="48.74336" lon="1.8071">
        <ele>184</ele>
        <time>2015-06-25T15:56:20.000Z</time>
      </trkpt>
      <trkpt lat="48.74331" lon="1.80711">
        <ele>184</ele>
        <time>2015-06-25T15:56:24.000Z</time>
      </trkpt>
      <trkpt lat="48.74323" lon="1.80716">
        <ele>184</ele>
        <time>2015-06-25T15:56:29.000Z</time>
      </trkpt>
      <trkpt lat="48.74313" lon="1.80718">
        <ele>184</ele>
        <time>2015-06-25T15:56:34.000Z</time>
      </trkpt>
      <trkpt lat="48.74311" lon="1.80719">
        <ele>184</ele>
        <time>2015-06-25T15:56:35.000Z</time>
      </trkpt>
      <trkpt lat="48.74299" lon="1.8072">
        <ele>184</ele>
        <time>2015-06-25T15:56:42.000Z</time>
      </trkpt>
      <trkpt lat="48.74286" lon="1.80722">
        <ele>184</ele>
        <time>2015-06-25T15:56:49.000Z</time>
      </trkpt>
      <trkpt lat="48.74283" lon="1.80722">
        <ele>184</ele>
        <time>2015-06-25T15:56:51.000Z</time>
      </trkpt>
      <trkpt lat="48.74278" lon="1.80723">
        <ele>184</ele>
        <time>2015-06-25T15:56:54.000Z</time>
      </trkpt>
      <trkpt lat="48.74269" lon="1.8073">
        <ele>184</ele>
        <time>2015-06-25T15:57:00.000Z</time>
      </trkpt>
      <trkpt lat="48.7426" lon="1.80734">
        <ele>184</ele>
        <time>2015-06-25T15:57:05.000Z</time>
      </trkpt>
      <trkpt lat="48.74249" lon="1.80737">
        <ele>184</ele>
        <time>2015-06-25T15:57:10.000Z</time>
      </trkpt>
      <trkpt lat="48.74243" lon="1.80739">
        <ele>184</ele>
        <time>2015-06-25T15:57:16.000Z</time>
      </trkpt>
      <trkpt lat="48.74242" lon="1.80739">
        <ele>184</ele>
        <time>2015-06-25T15:57:17.000Z</time>
      </trkpt>
      <trkpt lat="48.74232" lon="1.80738">
        <ele>184</ele>
        <time>2015-06-25T15:57:22.000Z</time>
      </trkpt>
      <trkpt lat="48.74227" lon="1.80737">
        <ele>184</ele>
        <time>2015-06-25T15:57:25.000Z</time>
      </trkpt>
      <trkpt lat="48.74218" lon="1.8074">
        <ele>184</ele>
        <time>2015-06-25T15:57:30.000Z</time>
      </trkpt>
      <trkpt lat="48.74214" lon="1.80739">
        <ele>184</ele>
        <time>2015-06-25T15:57:32.000Z</time>
      </trkpt>
      <trkpt lat="48.74203" lon="1.80738">
        <ele>184</ele>
        <time>2015-06-25T15:57:39.000Z</time>
      </trkpt>
      <trkpt lat="48.74199" lon="1.80739">
        <ele>184</ele>
        <time>2015-06-25T15:57:42.000Z</time>
      </trkpt>
      <trkpt lat="48.74187" lon="1.80741">
        <ele>184.3</ele>
        <time>2015-06-25T15:57:50.000Z</time>
      </trkpt>
      <trkpt lat="48.74173" lon="1.80745">
        <ele>184.8</ele>
        <time>2015-06-25T15:57:55.000Z</time>
      </trkpt>
      <trkpt lat="48.74157" lon="1.80746">
        <ele>185</ele>
        <time>2015-06-25T15:58:02.000Z</time>
      </trkpt>
      <trkpt lat="48.74142" lon="1.80746">
        <ele>185</ele>
        <time>2015-06-25T15:58:07.000Z</time>
      </trkpt>
      <trkpt lat="48.74128" lon="1.80748">
        <ele>185</ele>
        <time>2015-06-25T15:58:11.000Z</time>
      </trkpt>
      <trkpt lat="48.74113" lon="1.80749">
        <ele>185</ele>
        <time>2015-06-25T15:58:17.000Z</time>
      </trkpt>
      <trkpt lat="48.74103" lon="1.80752">
        <ele>185</ele>
        <time>2015-06-25T15:58:20.000Z</time>
      </trkpt>
      <trkpt lat="48.74085" lon="1.80757">
        <ele>185</ele>
        <time>2015-06-25T15:58:26.000Z</time>
      </trkpt>
      <trkpt lat="48.74071" lon="1.80762">
        <ele>185</ele>
        <time>2015-06-25T15:58:30.000Z</time>
      </trkpt>
      <trkpt lat="48.74053" lon="1.8077">
        <ele>185</ele>
        <time>2015-06-25T15:58:36.000Z</time>
      </trkpt>
      <trkpt lat="48.7404" lon="1.80774">
        <ele>185</ele>
        <time>2015-06-25T15:58:41.000Z</time>
      </trkpt>
      <trkpt lat="48.74021" lon="1.80778">
        <ele>185</ele>
        <time>2015-06-25T15:58:47.000Z</time>
      </trkpt>
      <trkpt lat="48.74007" lon="1.8078">
        <ele>185</ele>
        <time>2015-06-25T15:58:52.000Z</time>
      </trkpt>
      <trkpt lat="48.73992" lon="1.80784">
        <ele>185</ele>
        <time>2015-06-25T15:58:57.000Z</time>
      </trkpt>
      <trkpt lat="48.7398" lon="1.80782">
        <ele>185</ele>
        <time>2015-06-25T15:59:02.000Z</time>
      </trkpt>
      <trkpt lat="48.73969" lon="1.80783">
        <ele>185</ele>
        <time>2015-06-25T15:59:09.000Z</time>
      </trkpt>
      <trkpt lat="48.7396" lon="1.80786">
        <ele>185</ele>
        <time>2015-06-25T15:59:14.000Z</time>
      </trkpt>
      <trkpt lat="48.73952" lon="1.80786">
        <ele>185</ele>
        <time>2015-06-25T15:59:19.000Z</time>
      </trkpt>
      <trkpt lat="48.73944" lon="1.80788">
        <ele>185</ele>
        <time>2015-06-25T15:59:23.000Z</time>
      </trkpt>
      <trkpt lat="48.73938" lon="1.80791">
        <ele>185</ele>
        <time>2015-06-25T15:59:26.000Z</time>
      </trkpt>
      <trkpt lat="48.73927" lon="1.80795">
        <ele>185</ele>
        <time>2015-06-25T15:59:33.000Z</time>
      </trkpt>
      <trkpt lat="48.73921" lon="1.80797">
        <ele>185</ele>
        <time>2015-06-25T15:59:38.000Z</time>
      </trkpt>
      <trkpt lat="48.7391" lon="1.80796">
        <ele>185</ele>
        <time>2015-06-25T15:59:44.000Z</time>
      </trkpt>
      <trkpt lat="48.73905" lon="1.80797">
        <ele>185</ele>
        <time>2015-06-25T15:59:47.000Z</time>
      </trkpt>
      <trkpt lat="48.73892" lon="1.808">
        <ele>185</ele>
        <time>2015-06-25T15:59:54.000Z</time>
      </trkpt>
      <trkpt lat="48.73885" lon="1.80802">
        <ele>185</ele>
        <time>2015-06-25T15:59:57.000Z</time>
      </trkpt>
      <trkpt lat="48.73876" lon="1.80802">
        <ele>185</ele>
        <time>2015-06-25T16:00:02.000Z</time>
      </trkpt>
      <trkpt lat="48.73866" lon="1.80803">
        <ele>185</ele>
        <time>2015-06-25T16:00:07.000Z</time>
      </trkpt>
      <trkpt lat="48.73855" lon="1.80807">
        <ele>185</ele>
        <time>2015-06-25T16:00:13.000Z</time>
      </trkpt>
      <trkpt lat="48.73852" lon="1.80809">
        <ele>185</ele>
        <time>2015-06-25T16:00:15.000Z</time>
      </trkpt>
      <trkpt lat="48.73841" lon="1.8081">
        <ele>185</ele>
        <time>2015-06-25T16:00:22.000Z</time>
      </trkpt>
      <trkpt lat="48.73838" lon="1.80811">
        <ele>185</ele>
        <time>2015-06-25T16:00:24.000Z</time>
      </trkpt>
      <trkpt lat="48.73827" lon="1.80811">
        <ele>185</ele>
        <time>2015-06-25T16:00:32.000Z</time>
      </trkpt>
      <trkpt lat="48.73815" lon="1.80814">
        <ele>185</ele>
        <time>2015-06-25T16:00:38.000Z</time>
      </trkpt>
      <trkpt lat="48.73806" lon="1.80813">
        <ele>185</ele>
        <time>2015-06-25T16:00:44.000Z</time>
      </trkpt>
      <trkpt lat="48.73793" lon="1.80816">
        <ele>185</ele>
        <time>2015-06-25T16:00:51.000Z</time>
      </trkpt>
      <trkpt lat="48.73786" lon="1.80819">
        <ele>185</ele>
        <time>2015-06-25T16:00:57.000Z</time>
      </trkpt>
      <trkpt lat="48.73783" lon="1.80823">
        <ele>185</ele>
        <time>2015-06-25T16:01:04.000Z</time>
      </trkpt>
      <trkpt lat="48.73778" lon="1.8082">
        <ele>185</ele>
        <time>2015-06-25T16:01:12.000Z</time>
      </trkpt>
      <trkpt lat="48.73773" lon="1.80818">
        <ele>185</ele>
        <time>2015-06-25T16:01:14.000Z</time>
      </trkpt>
      <trkpt lat="48.73767" lon="1.80819">
        <ele>185</ele>
        <time>2015-06-25T16:01:20.000Z</time>
      </trkpt>
      <trkpt lat="48.7376" lon="1.80822">
        <ele>185</ele>
        <time>2015-06-25T16:01:24.000Z</time>
      </trkpt>
      <trkpt lat="48.73756" lon="1.80823">
        <ele>185</ele>
        <time>2015-06-25T16:01:27.000Z</time>
      </trkpt>
      <trkpt lat="48.73744" lon="1.80827">
        <ele>185</ele>
        <time>2015-06-25T16:01:34.000Z</time>
      </trkpt>
      <trkpt lat="48.73743" lon="1.80828">
        <ele>185</ele>
        <time>2015-06-25T16:01:35.000Z</time>
      </trkpt>
      <trkpt lat="48.73739" lon="1.8083">
        <ele>185</ele>
        <time>2015-06-25T16:01:39.000Z</time>
      </trkpt>
      <trkpt lat="48.73724" lon="1.80835">
        <ele>185</ele>
        <time>2015-06-25T16:01:46.000Z</time>
      </trkpt>
      <trkpt lat="48.73715" lon="1.80834">
        <ele>185</ele>
        <time>2015-06-25T16:01:51.000Z</time>
      </trkpt>
      <trkpt lat="48.73712" lon="1.80834">
        <ele>185</ele>
        <time>2015-06-25T16:01:53.000Z</time>
      </trkpt>
      <trkpt lat="48.73709" lon="1.80835">
        <ele>185</ele>
        <time>2015-06-25T16:01:57.000Z</time>
      </trkpt>
      <trkpt lat="48.73705" lon="1.80835">
        <ele>185</ele>
        <time>2015-06-25T16:02:01.000Z</time>
      </trkpt>
      <trkpt lat="48.73694" lon="1.80835">
        <ele>185</ele>
        <time>2015-06-25T16:02:07.000Z</time>
      </trkpt>
      <trkpt lat="48.73684" lon="1.80838">
        <ele>185</ele>
        <time>2015-06-25T16:02:12.000Z</time>
      </trkpt>
      <trkpt lat="48.73675" lon="1.80842">
        <ele>185</ele>
        <time>2015-06-25T16:02:18.000Z</time>
      </trkpt>
      <trkpt lat="48.73668" lon="1.80843">
        <ele>185</ele>
        <time>2015-06-25T16:02:23.000Z</time>
      </trkpt>
      <trkpt lat="48.73665" lon="1.80844">
        <ele>185</ele>
        <time>2015-06-25T16:02:24.000Z</time>
      </trkpt>
      <trkpt lat="48.73654" lon="1.80845">
        <ele>184.5</ele>
        <time>2015-06-25T16:02:31.000Z</time>
      </trkpt>
      <trkpt lat="48.73651" lon="1.80846">
        <ele>184.4</ele>
        <time>2015-06-25T16:02:33.000Z</time>
      </trkpt>
      <trkpt lat="48.73648" lon="1.80847">
        <ele>184.3</ele>
        <time>2015-06-25T16:02:35.000Z</time>
      </trkpt>
      <trkpt lat="48.73633" lon="1.8085">
        <ele>184</ele>
        <time>2015-06-25T16:02:43.000Z</time>
      </trkpt>
      <trkpt lat="48.73622" lon="1.80849">
        <ele>184</ele>
        <time>2015-06-25T16:02:51.000Z</time>
      </trkpt>
      <trkpt lat="48.73609" lon="1.8085">
        <ele>184</ele>
        <time>2015-06-25T16:02:58.000Z</time>
      </trkpt>
      <trkpt lat="48.73593" lon="1.80848">
        <ele>184</ele>
        <time>2015-06-25T16:03:07.000Z</time>
      </trkpt>
      <trkpt lat="48.7358" lon="1.80844">
        <ele>184</ele>
        <time>2015-06-25T16:03:15.000Z</time>
      </trkpt>
      <trkpt lat="48.73567" lon="1.80834">
        <ele>184</ele>
        <time>2015-06-25T16:03:24.000Z</time>
      </trkpt>
      <trkpt lat="48.73556" lon="1.80824">
        <ele>184</ele>
        <time>2015-06-25T16:03:32.000Z</time>
      </trkpt>
      <trkpt lat="48.73547" lon="1.80816">
        <ele>184</ele>
        <time>2015-06-25T16:03:39.000Z</time>
      </trkpt>
      <trkpt lat="48.73537" lon="1.8081">
        <ele>184</ele>
        <time>2015-06-25T16:03:45.000Z</time>
      </trkpt>
      <trkpt lat="48.73527" lon="1.808">
        <ele>184</ele>
        <time>2015-06-25T16:03:52.000Z</time>
      </trkpt>
      <trkpt lat="48.73518" lon="1.80789">
        <ele>184</ele>
        <time>2015-06-25T16:03:59.000Z</time>
      </trkpt>
      <trkpt lat="48.73517" lon="1.80788">
        <ele>184</ele>
        <time>2015-06-25T16:04:00.000Z</time>
      </trkpt>
      <trkpt lat="48.73512" lon="1.80781">
        <ele>184</ele>
        <time>2015-06-25T16:04:04.000Z</time>
      </trkpt>
      <trkpt lat="48.73502" lon="1.80771">
        <ele>184</ele>
        <time>2015-06-25T16:04:13.000Z</time>
      </trkpt>
      <trkpt lat="48.73491" lon="1.80761">
        <ele>184</ele>
        <time>2015-06-25T16:04:19.000Z</time>
      </trkpt>
      <trkpt lat="48.73476" lon="1.80746">
        <ele>184</ele>
        <time>2015-06-25T16:04:24.000Z</time>
      </trkpt>
      <trkpt lat="48.73463" lon="1.80732">
        <ele>184</ele>
        <time>2015-06-25T16:04:29.000Z</time>
      </trkpt>
      <trkpt lat="48.73446" lon="1.80716">
        <ele>184</ele>
        <time>2015-06-25T16:04:35.000Z</time>
      </trkpt>
      <trkpt lat="48.73427" lon="1.80699">
        <ele>183.4</ele>
        <time>2015-06-25T16:04:40.000Z</time>
      </trkpt>
      <trkpt lat="48.73412" lon="1.80684">
        <ele>183.3</ele>
        <time>2015-06-25T16:04:45.000Z</time>
      </trkpt>
      <trkpt lat="48.73395" lon="1.80669">
        <ele>183.2</ele>
        <time>2015-06-25T16:04:51.000Z</time>
      </trkpt>
      <trkpt lat="48.73384" lon="1.80657">
        <ele>183</ele>
        <time>2015-06-25T16:04:56.000Z</time>
      </trkpt>
      <trkpt lat="48.73375" lon="1.80646">
        <ele>183</ele>
        <time>2015-06-25T16:05:01.000Z</time>
      </trkpt>
      <trkpt lat="48.73359" lon="1.80632">
        <ele>183</ele>
        <time>2015-06-25T16:05:06.000Z</time>
      </trkpt>
      <trkpt lat="48.73339" lon="1.80615">
        <ele>183</ele>
        <time>2015-06-25T16:05:12.000Z</time>
      </trkpt>
      <trkpt lat="48.7333" lon="1.80605">
        <ele>183</ele>
        <time>2015-06-25T16:05:16.000Z</time>
      </trkpt>
      <trkpt lat="48.73316" lon="1.80593">
        <ele>183</ele>
        <time>2015-06-25T16:05:21.000Z</time>
      </trkpt>
      <trkpt lat="48.73301" lon="1.80579">
        <ele>182.7</ele>
        <time>2015-06-25T16:05:26.000Z</time>
      </trkpt>
      <trkpt lat="48.73279" lon="1.80558">
        <ele>182</ele>
        <time>2015-06-25T16:05:33.000Z</time>
      </trkpt>
      <trkpt lat="48.73263" lon="1.80544">
        <ele>182</ele>
        <time>2015-06-25T16:05:38.000Z</time>
      </trkpt>
      <trkpt lat="48.73251" lon="1.80534">
        <ele>182</ele>
        <time>2015-06-25T16:05:43.000Z</time>
      </trkpt>
      <trkpt lat="48.73246" lon="1.80532">
        <ele>181.9</ele>
        <time>2015-06-25T16:05:46.000Z</time>
      </trkpt>
      <trkpt lat="48.73237" lon="1.80525">
        <ele>181.5</ele>
        <time>2015-06-25T16:05:51.000Z</time>
      </trkpt>
      <trkpt lat="48.73224" lon="1.80512">
        <ele>181.1</ele>
        <time>2015-06-25T16:05:57.000Z</time>
      </trkpt>
      <trkpt lat="48.73204" lon="1.80491">
        <ele>181</ele>
        <time>2015-06-25T16:06:03.000Z</time>
      </trkpt>
      <trkpt lat="48.73185" lon="1.80476">
        <ele>181</ele>
        <time>2015-06-25T16:06:08.000Z</time>
      </trkpt>
      <trkpt lat="48.73166" lon="1.80459">
        <ele>181</ele>
        <time>2015-06-25T16:06:13.000Z</time>
      </trkpt>
      <trkpt lat="48.73146" lon="1.80442">
        <ele>181</ele>
        <time>2015-06-25T16:06:18.000Z</time>
      </trkpt>
      <trkpt lat="48.73127" lon="1.80425">
        <ele>180.6</ele>
        <time>2015-06-25T16:06:23.000Z</time>
      </trkpt>
      <trkpt lat="48.73112" lon="1.80408">
        <ele>180</ele>
        <time>2015-06-25T16:06:28.000Z</time>
      </trkpt>
      <trkpt lat="48.73087" lon="1.80389">
        <ele>179.1</ele>
        <time>2015-06-25T16:06:35.000Z</time>
      </trkpt>
      <trkpt lat="48.73063" lon="1.80374">
        <ele>178.3</ele>
        <time>2015-06-25T16:06:42.000Z</time>
      </trkpt>
      <trkpt lat="48.73044" lon="1.8036">
        <ele>177.6</ele>
        <time>2015-06-25T16:06:48.000Z</time>
      </trkpt>
      <trkpt lat="48.73024" lon="1.80348">
        <ele>176.8</ele>
        <time>2015-06-25T16:06:54.000Z</time>
      </trkpt>
      <trkpt lat="48.73013" lon="1.80342">
        <ele>176.1</ele>
        <time>2015-06-25T16:06:59.000Z</time>
      </trkpt>
      <trkpt lat="48.73002" lon="1.80334">
        <ele>175.2</ele>
        <time>2015-06-25T16:07:03.000Z</time>
      </trkpt>
      <trkpt lat="48.72983" lon="1.80321">
        <ele>174.4</ele>
        <time>2015-06-25T16:07:09.000Z</time>
      </trkpt>
      <trkpt lat="48.72966" lon="1.80312">
        <ele>173.8</ele>
        <time>2015-06-25T16:07:14.000Z</time>
      </trkpt>
      <trkpt lat="48.72958" lon="1.80305">
        <ele>173.5</ele>
        <time>2015-06-25T16:07:18.000Z</time>
      </trkpt>
      <trkpt lat="48.72955" lon="1.80302">
        <ele>173.4</ele>
        <time>2015-06-25T16:07:20.000Z</time>
      </trkpt>
      <trkpt lat="48.72949" lon="1.80297">
        <ele>173.2</ele>
        <time>2015-06-25T16:07:25.000Z</time>
      </trkpt>
      <trkpt lat="48.72942" lon="1.80295">
        <ele>172.9</ele>
        <time>2015-06-25T16:07:30.000Z</time>
      </trkpt>
      <trkpt lat="48.72932" lon="1.80288">
        <ele>172.6</ele>
        <time>2015-06-25T16:07:36.000Z</time>
      </trkpt>
      <trkpt lat="48.7292" lon="1.80277">
        <ele>172.1</ele>
        <time>2015-06-25T16:07:46.000Z</time>
      </trkpt>
      <trkpt lat="48.7291" lon="1.80271">
        <ele>172</ele>
        <time>2015-06-25T16:07:52.000Z</time>
      </trkpt>
      <trkpt lat="48.72909" lon="1.8027">
        <ele>172</ele>
        <time>2015-06-25T16:07:53.000Z</time>
      </trkpt>
      <trkpt lat="48.72899" lon="1.80263">
        <ele>172</ele>
        <time>2015-06-25T16:07:59.000Z</time>
      </trkpt>
      <trkpt lat="48.72892" lon="1.8026">
        <ele>172</ele>
        <time>2015-06-25T16:08:04.000Z</time>
      </trkpt>
      <trkpt lat="48.72883" lon="1.80255">
        <ele>172</ele>
        <time>2015-06-25T16:08:11.000Z</time>
      </trkpt>
      <trkpt lat="48.72879" lon="1.80249">
        <ele>172</ele>
        <time>2015-06-25T16:08:15.000Z</time>
      </trkpt>
      <trkpt lat="48.72869" lon="1.80242">
        <ele>172</ele>
        <time>2015-06-25T16:08:21.000Z</time>
      </trkpt>
      <trkpt lat="48.72862" lon="1.80237">
        <ele>172</ele>
        <time>2015-06-25T16:08:26.000Z</time>
      </trkpt>
      <trkpt lat="48.72855" lon="1.80232">
        <ele>172</ele>
        <time>2015-06-25T16:08:30.000Z</time>
      </trkpt>
      <trkpt lat="48.72845" lon="1.80225">
        <ele>172</ele>
        <time>2015-06-25T16:08:37.000Z</time>
      </trkpt>
      <trkpt lat="48.72837" lon="1.80219">
        <ele>172</ele>
        <time>2015-06-25T16:08:43.000Z</time>
      </trkpt>
      <trkpt lat="48.72834" lon="1.80217">
        <ele>172</ele>
        <time>2015-06-25T16:08:46.000Z</time>
      </trkpt>
      <trkpt lat="48.72822" lon="1.80209">
        <ele>172</ele>
        <time>2015-06-25T16:08:55.000Z</time>
      </trkpt>
      <trkpt lat="48.72811" lon="1.80202">
        <ele>172</ele>
        <time>2015-06-25T16:09:04.000Z</time>
      </trkpt>
      <trkpt lat="48.72801" lon="1.80193">
        <ele>172</ele>
        <time>2015-06-25T16:09:09.000Z</time>
      </trkpt>
      <trkpt lat="48.72779" lon="1.80176">
        <ele>172</ele>
        <time>2015-06-25T16:09:16.000Z</time>
      </trkpt>
      <trkpt lat="48.72765" lon="1.80166">
        <ele>172</ele>
        <time>2015-06-25T16:09:21.000Z</time>
      </trkpt>
      <trkpt lat="48.72755" lon="1.80159">
        <ele>172</ele>
        <time>2015-06-25T16:09:26.000Z</time>
      </trkpt>
      <trkpt lat="48.72745" lon="1.80153">
        <ele>172</ele>
        <time>2015-06-25T16:09:33.000Z</time>
      </trkpt>
      <trkpt lat="48.72737" lon="1.80148">
        <ele>172</ele>
        <time>2015-06-25T16:09:39.000Z</time>
      </trkpt>
      <trkpt lat="48.7273" lon="1.80144">
        <ele>172</ele>
        <time>2015-06-25T16:09:44.000Z</time>
      </trkpt>
      <trkpt lat="48.72725" lon="1.8014">
        <ele>172</ele>
        <time>2015-06-25T16:09:48.000Z</time>
      </trkpt>
      <trkpt lat="48.72715" lon="1.80134">
        <ele>172</ele>
        <time>2015-06-25T16:09:55.000Z</time>
      </trkpt>
      <trkpt lat="48.72705" lon="1.80128">
        <ele>172.2</ele>
        <time>2015-06-25T16:10:02.000Z</time>
      </trkpt>
      <trkpt lat="48.72698" lon="1.80123">
        <ele>172.5</ele>
        <time>2015-06-25T16:10:07.000Z</time>
      </trkpt>
      <trkpt lat="48.72684" lon="1.80115">
        <ele>172.9</ele>
        <time>2015-06-25T16:10:14.000Z</time>
      </trkpt>
      <trkpt lat="48.72664" lon="1.80103">
        <ele>173.3</ele>
        <time>2015-06-25T16:10:20.000Z</time>
      </trkpt>
      <trkpt lat="48.72647" lon="1.80088">
        <ele>173.9</ele>
        <time>2015-06-25T16:10:26.000Z</time>
      </trkpt>
      <trkpt lat="48.72631" lon="1.80075">
        <ele>174.5</ele>
        <time>2015-06-25T16:10:31.000Z</time>
      </trkpt>
      <trkpt lat="48.72611" lon="1.80061">
        <ele>175</ele>
        <time>2015-06-25T16:10:37.000Z</time>
      </trkpt>
      <trkpt lat="48.72594" lon="1.80048">
        <ele>175.6</ele>
        <time>2015-06-25T16:10:42.000Z</time>
      </trkpt>
      <trkpt lat="48.72578" lon="1.80041">
        <ele>176.2</ele>
        <time>2015-06-25T16:10:47.000Z</time>
      </trkpt>
      <trkpt lat="48.7255" lon="1.8002">
        <ele>177.2</ele>
        <time>2015-06-25T16:10:55.000Z</time>
      </trkpt>
      <trkpt lat="48.72529" lon="1.80007">
        <ele>178</ele>
        <time>2015-06-25T16:11:01.000Z</time>
      </trkpt>
      <trkpt lat="48.7251" lon="1.79992">
        <ele>178</ele>
        <time>2015-06-25T16:11:06.000Z</time>
      </trkpt>
      <trkpt lat="48.725" lon="1.79985">
        <ele>178</ele>
        <time>2015-06-25T16:11:09.000Z</time>
      </trkpt>
      <trkpt lat="48.72488" lon="1.79978">
        <ele>178</ele>
        <time>2015-06-25T16:11:12.000Z</time>
      </trkpt>
      <trkpt lat="48.72467" lon="1.79963">
        <ele>178</ele>
        <time>2015-06-25T16:11:18.000Z</time>
      </trkpt>
      <trkpt lat="48.72454" lon="1.79951">
        <ele>178</ele>
        <time>2015-06-25T16:11:22.000Z</time>
      </trkpt>
      <trkpt lat="48.72431" lon="1.79936">
        <ele>178</ele>
        <time>2015-06-25T16:11:28.000Z</time>
      </trkpt>
      <trkpt lat="48.72422" lon="1.79931">
        <ele>178</ele>
        <time>2015-06-25T16:11:30.000Z</time>
      </trkpt>
      <trkpt lat="48.72398" lon="1.79919">
        <ele>178</ele>
        <time>2015-06-25T16:11:36.000Z</time>
      </trkpt>
      <trkpt lat="48.72395" lon="1.79916">
        <ele>178</ele>
        <time>2015-06-25T16:11:37.000Z</time>
      </trkpt>
      <trkpt lat="48.72385" lon="1.79907">
        <ele>178</ele>
        <time>2015-06-25T16:11:40.000Z</time>
      </trkpt>
      <trkpt lat="48.72364" lon="1.79893">
        <ele>178</ele>
        <time>2015-06-25T16:11:45.000Z</time>
      </trkpt>
      <trkpt lat="48.72353" lon="1.79882">
        <ele>178</ele>
        <time>2015-06-25T16:11:48.000Z</time>
      </trkpt>
      <trkpt lat="48.72335" lon="1.79873">
        <ele>178</ele>
        <time>2015-06-25T16:11:53.000Z</time>
      </trkpt>
      <trkpt lat="48.72324" lon="1.79865">
        <ele>178</ele>
        <time>2015-06-25T16:11:56.000Z</time>
      </trkpt>
      <trkpt lat="48.72299" lon="1.79845">
        <ele>178</ele>
        <time>2015-06-25T16:12:03.000Z</time>
      </trkpt>
      <trkpt lat="48.7228" lon="1.79832">
        <ele>178</ele>
        <time>2015-06-25T16:12:08.000Z</time>
      </trkpt>
      <trkpt lat="48.72271" lon="1.79826">
        <ele>178</ele>
        <time>2015-06-25T16:12:10.000Z</time>
      </trkpt>
      <trkpt lat="48.72238" lon="1.79805">
        <ele>178</ele>
        <time>2015-06-25T16:12:18.000Z</time>
      </trkpt>
      <trkpt lat="48.72215" lon="1.7979">
        <ele>178</ele>
        <time>2015-06-25T16:12:24.000Z</time>
      </trkpt>
      <trkpt lat="48.72201" lon="1.79779">
        <ele>178</ele>
        <time>2015-06-25T16:12:28.000Z</time>
      </trkpt>
      <trkpt lat="48.72178" lon="1.79763">
        <ele>178</ele>
        <time>2015-06-25T16:12:34.000Z</time>
      </trkpt>
      <trkpt lat="48.72174" lon="1.7976">
        <ele>178</ele>
        <time>2015-06-25T16:12:35.000Z</time>
      </trkpt>
      <trkpt lat="48.72162" lon="1.79754">
        <ele>178</ele>
        <time>2015-06-25T16:12:38.000Z</time>
      </trkpt>
      <trkpt lat="48.72145" lon="1.79742">
        <ele>178</ele>
        <time>2015-06-25T16:12:42.000Z</time>
      </trkpt>
      <trkpt lat="48.72129" lon="1.79729">
        <ele>178</ele>
        <time>2015-06-25T16:12:46.000Z</time>
      </trkpt>
      <trkpt lat="48.72104" lon="1.79711">
        <ele>178.3</ele>
        <time>2015-06-25T16:12:53.000Z</time>
      </trkpt>
      <trkpt lat="48.72101" lon="1.79708">
        <ele>178.3</ele>
        <time>2015-06-25T16:12:54.000Z</time>
      </trkpt>
      <trkpt lat="48.72094" lon="1.79702">
        <ele>178.3</ele>
        <time>2015-06-25T16:12:56.000Z</time>
      </trkpt>
      <trkpt lat="48.72067" lon="1.79682">
        <ele>178</ele>
        <time>2015-06-25T16:13:03.000Z</time>
      </trkpt>
      <trkpt lat="48.72063" lon="1.7968">
        <ele>178</ele>
        <time>2015-06-25T16:13:04.000Z</time>
      </trkpt>
      <trkpt lat="48.72049" lon="1.79669">
        <ele>178</ele>
        <time>2015-06-25T16:13:08.000Z</time>
      </trkpt>
      <trkpt lat="48.72036" lon="1.79662">
        <ele>178</ele>
        <time>2015-06-25T16:13:14.000Z</time>
      </trkpt>
      <trkpt lat="48.72032" lon="1.7966">
        <ele>178</ele>
        <time>2015-06-25T16:13:17.000Z</time>
      </trkpt>
      <trkpt lat="48.72019" lon="1.79654">
        <ele>178</ele>
        <time>2015-06-25T16:13:24.000Z</time>
      </trkpt>
      <trkpt lat="48.72007" lon="1.79646">
        <ele>178</ele>
        <time>2015-06-25T16:13:32.000Z</time>
      </trkpt>
      <trkpt lat="48.72004" lon="1.79643">
        <ele>178</ele>
        <time>2015-06-25T16:13:34.000Z</time>
      </trkpt>
      <trkpt lat="48.71991" lon="1.79636">
        <ele>177.6</ele>
        <time>2015-06-25T16:13:42.000Z</time>
      </trkpt>
      <trkpt lat="48.7198" lon="1.79626">
        <ele>177.1</ele>
        <time>2015-06-25T16:13:49.000Z</time>
      </trkpt>
      <trkpt lat="48.71969" lon="1.79621">
        <ele>176.9</ele>
        <time>2015-06-25T16:13:55.000Z</time>
      </trkpt>
      <trkpt lat="48.71955" lon="1.79613">
        <ele>176.4</ele>
        <time>2015-06-25T16:14:03.000Z</time>
      </trkpt>
      <trkpt lat="48.71946" lon="1.7961">
        <ele>176</ele>
        <time>2015-06-25T16:14:09.000Z</time>
      </trkpt>
      <trkpt lat="48.71937" lon="1.796">
        <ele>175.9</ele>
        <time>2015-06-25T16:14:16.000Z</time>
      </trkpt>
      <trkpt lat="48.71926" lon="1.79593">
        <ele>175.6</ele>
        <time>2015-06-25T16:14:24.000Z</time>
      </trkpt>
      <trkpt lat="48.71917" lon="1.79588">
        <ele>175.2</ele>
        <time>2015-06-25T16:14:30.000Z</time>
      </trkpt>
      <trkpt lat="48.71907" lon="1.79581">
        <ele>174.6</ele>
        <time>2015-06-25T16:14:37.000Z</time>
      </trkpt>
      <trkpt lat="48.71899" lon="1.79577">
        <ele>174.1</ele>
        <time>2015-06-25T16:14:43.000Z</time>
      </trkpt>
      <trkpt lat="48.71892" lon="1.79573">
        <ele>173.8</ele>
        <time>2015-06-25T16:14:47.000Z</time>
      </trkpt>
      <trkpt lat="48.71883" lon="1.79559">
        <ele>172.9</ele>
        <time>2015-06-25T16:14:54.000Z</time>
      </trkpt>
      <trkpt lat="48.71872" lon="1.79554">
        <ele>172.4</ele>
        <time>2015-06-25T16:15:00.000Z</time>
      </trkpt>
      <trkpt lat="48.71862" lon="1.7955">
        <ele>172</ele>
        <time>2015-06-25T16:15:06.000Z</time>
      </trkpt>
      <trkpt lat="48.71849" lon="1.79543">
        <ele>171.4</ele>
        <time>2015-06-25T16:15:14.000Z</time>
      </trkpt>
      <trkpt lat="48.71845" lon="1.79541">
        <ele>171.1</ele>
        <time>2015-06-25T16:15:17.000Z</time>
      </trkpt>
      <trkpt lat="48.71839" lon="1.79538">
        <ele>170.7</ele>
        <time>2015-06-25T16:15:22.000Z</time>
      </trkpt>
      <trkpt lat="48.71836" lon="1.79535">
        <ele>170.4</ele>
        <time>2015-06-25T16:15:25.000Z</time>
      </trkpt>
      <trkpt lat="48.7183" lon="1.79532">
        <ele>169.9</ele>
        <time>2015-06-25T16:15:29.000Z</time>
      </trkpt>
      <trkpt lat="48.71823" lon="1.79527">
        <ele>169.2</ele>
        <time>2015-06-25T16:15:34.000Z</time>
      </trkpt>
      <trkpt lat="48.71814" lon="1.79518">
        <ele>168.5</ele>
        <time>2015-06-25T16:15:40.000Z</time>
      </trkpt>
      <trkpt lat="48.71803" lon="1.79508">
        <ele>167.9</ele>
        <time>2015-06-25T16:15:46.000Z</time>
      </trkpt>
      <trkpt lat="48.71788" lon="1.79499">
        <ele>167.4</ele>
        <time>2015-06-25T16:15:55.000Z</time>
      </trkpt>
      <trkpt lat="48.7178" lon="1.7949">
        <ele>167.4</ele>
        <time>2015-06-25T16:16:01.000Z</time>
      </trkpt>
      <trkpt lat="48.71779" lon="1.79489">
        <ele>167.4</ele>
        <time>2015-06-25T16:16:02.000Z</time>
      </trkpt>
      <trkpt lat="48.71765" lon="1.79482">
        <ele>167.8</ele>
        <time>2015-06-25T16:16:10.000Z</time>
      </trkpt>
      <trkpt lat="48.71758" lon="1.79478">
        <ele>167.9</ele>
        <time>2015-06-25T16:16:15.000Z</time>
      </trkpt>
      <trkpt lat="48.71751" lon="1.79472">
        <ele>168</ele>
        <time>2015-06-25T16:16:20.000Z</time>
      </trkpt>
      <trkpt lat="48.71748" lon="1.7947">
        <ele>168.2</ele>
        <time>2015-06-25T16:16:22.000Z</time>
      </trkpt>
      <trkpt lat="48.71741" lon="1.79462">
        <ele>168.9</ele>
        <time>2015-06-25T16:16:28.000Z</time>
      </trkpt>
      <trkpt lat="48.71731" lon="1.79455">
        <ele>169.6</ele>
        <time>2015-06-25T16:16:35.000Z</time>
      </trkpt>
      <trkpt lat="48.71723" lon="1.7945">
        <ele>170</ele>
        <time>2015-06-25T16:16:40.000Z</time>
      </trkpt>
      <trkpt lat="48.71714" lon="1.79443">
        <ele>170.3</ele>
        <time>2015-06-25T16:16:45.000Z</time>
      </trkpt>
      <trkpt lat="48.71703" lon="1.79438">
        <ele>170.7</ele>
        <time>2015-06-25T16:16:53.000Z</time>
      </trkpt>
      <trkpt lat="48.71697" lon="1.79432">
        <ele>170.9</ele>
        <time>2015-06-25T16:16:58.000Z</time>
      </trkpt>
      <trkpt lat="48.71685" lon="1.79421">
        <ele>171</ele>
        <time>2015-06-25T16:17:06.000Z</time>
      </trkpt>
      <trkpt lat="48.71674" lon="1.79413">
        <ele>171.1</ele>
        <time>2015-06-25T16:17:14.000Z</time>
      </trkpt>
      <trkpt lat="48.71665" lon="1.79409">
        <ele>171.3</ele>
        <time>2015-06-25T16:17:19.000Z</time>
      </trkpt>
      <trkpt lat="48.71656" lon="1.79402">
        <ele>171.7</ele>
        <time>2015-06-25T16:17:25.000Z</time>
      </trkpt>
      <trkpt lat="48.7165" lon="1.79397">
        <ele>171.9</ele>
        <time>2015-06-25T16:17:29.000Z</time>
      </trkpt>
      <trkpt lat="48.71637" lon="1.7939">
        <ele>172.1</ele>
        <time>2015-06-25T16:17:38.000Z</time>
      </trkpt>
      <trkpt lat="48.71624" lon="1.79381">
        <ele>172.6</ele>
        <time>2015-06-25T16:17:45.000Z</time>
      </trkpt>
      <trkpt lat="48.71611" lon="1.79372">
        <ele>173</ele>
        <time>2015-06-25T16:17:51.000Z</time>
      </trkpt>
      <trkpt lat="48.71602" lon="1.79366">
        <ele>173</ele>
        <time>2015-06-25T16:17:58.000Z</time>
      </trkpt>
      <trkpt lat="48.71591" lon="1.79358">
        <ele>173.1</ele>
        <time>2015-06-25T16:18:05.000Z</time>
      </trkpt>
      <trkpt lat="48.71582" lon="1.79352">
        <ele>173.4</ele>
        <time>2015-06-25T16:18:11.000Z</time>
      </trkpt>
      <trkpt lat="48.71579" lon="1.7935">
        <ele>173.5</ele>
        <time>2015-06-25T16:18:13.000Z</time>
      </trkpt>
      <trkpt lat="48.71571" lon="1.79345">
        <ele>174</ele>
        <time>2015-06-25T16:18:18.000Z</time>
      </trkpt>
      <trkpt lat="48.71559" lon="1.79337">
        <ele>174.7</ele>
        <time>2015-06-25T16:18:26.000Z</time>
      </trkpt>
      <trkpt lat="48.71548" lon="1.79327">
        <ele>175</ele>
        <time>2015-06-25T16:18:34.000Z</time>
      </trkpt>
      <trkpt lat="48.71539" lon="1.79319">
        <ele>175</ele>
        <time>2015-06-25T16:18:40.000Z</time>
      </trkpt>
      <trkpt lat="48.71532" lon="1.79303">
        <ele>175.1</ele>
        <time>2015-06-25T16:18:45.000Z</time>
      </trkpt>
      <trkpt lat="48.71533" lon="1.79285">
        <ele>175.6</ele>
        <time>2015-06-25T16:18:49.000Z</time>
      </trkpt>
      <trkpt lat="48.71541" lon="1.79254">
        <ele>175.5</ele>
        <time>2015-06-25T16:18:54.000Z</time>
      </trkpt>
      <trkpt lat="48.7155" lon="1.79222">
        <ele>175.2</ele>
        <time>2015-06-25T16:18:59.000Z</time>
      </trkpt>
      <trkpt lat="48.7156" lon="1.79192">
        <ele>175</ele>
        <time>2015-06-25T16:19:04.000Z</time>
      </trkpt>
      <trkpt lat="48.71566" lon="1.79173">
        <ele>175</ele>
        <time>2015-06-25T16:19:07.000Z</time>
      </trkpt>
      <trkpt lat="48.71574" lon="1.79145">
        <ele>175</ele>
        <time>2015-06-25T16:19:11.000Z</time>
      </trkpt>
      <trkpt lat="48.71586" lon="1.79104">
        <ele>174.9</ele>
        <time>2015-06-25T16:19:17.000Z</time>
      </trkpt>
      <trkpt lat="48.71597" lon="1.79079">
        <ele>174.5</ele>
        <time>2015-06-25T16:19:21.000Z</time>
      </trkpt>
      <trkpt lat="48.71601" lon="1.79064">
        <ele>174.4</ele>
        <time>2015-06-25T16:19:23.000Z</time>
      </trkpt>
      <trkpt lat="48.71606" lon="1.79035">
        <ele>174.2</ele>
        <time>2015-06-25T16:19:27.000Z</time>
      </trkpt>
      <trkpt lat="48.71615" lon="1.79008">
        <ele>174</ele>
        <time>2015-06-25T16:19:31.000Z</time>
      </trkpt>
      <trkpt lat="48.71622" lon="1.78996">
        <ele>174</ele>
        <time>2015-06-25T16:19:33.000Z</time>
      </trkpt>
      <trkpt lat="48.7163" lon="1.78975">
        <ele>174</ele>
        <time>2015-06-25T16:19:36.000Z</time>
      </trkpt>
      <trkpt lat="48.71632" lon="1.78953">
        <ele>174.7</ele>
        <time>2015-06-25T16:19:39.000Z</time>
      </trkpt>
      <trkpt lat="48.71645" lon="1.78925">
        <ele>174.8</ele>
        <time>2015-06-25T16:19:43.000Z</time>
      </trkpt>
      <trkpt lat="48.71658" lon="1.7888">
        <ele>175</ele>
        <time>2015-06-25T16:19:50.000Z</time>
      </trkpt>
      <trkpt lat="48.71666" lon="1.78862">
        <ele>175</ele>
        <time>2015-06-25T16:19:53.000Z</time>
      </trkpt>
      <trkpt lat="48.71673" lon="1.7884">
        <ele>174.8</ele>
        <time>2015-06-25T16:19:57.000Z</time>
      </trkpt>
      <trkpt lat="48.71678" lon="1.78817">
        <ele>174.8</ele>
        <time>2015-06-25T16:20:02.000Z</time>
      </trkpt>
      <trkpt lat="48.71684" lon="1.78801">
        <ele>175</ele>
        <time>2015-06-25T16:20:07.000Z</time>
      </trkpt>
      <trkpt lat="48.71683" lon="1.78794">
        <ele>175</ele>
        <time>2015-06-25T16:20:10.000Z</time>
      </trkpt>
      <trkpt lat="48.71687" lon="1.78784">
        <ele>175</ele>
        <time>2015-06-25T16:20:15.000Z</time>
      </trkpt>
      <trkpt lat="48.71689" lon="1.78778">
        <ele>175</ele>
        <time>2015-06-25T16:20:17.000Z</time>
      </trkpt>
      <trkpt lat="48.71694" lon="1.7876">
        <ele>175</ele>
        <time>2015-06-25T16:20:25.000Z</time>
      </trkpt>
      <trkpt lat="48.71701" lon="1.7874">
        <ele>174.8</ele>
        <time>2015-06-25T16:20:33.000Z</time>
      </trkpt>
      <trkpt lat="48.71701" lon="1.78728">
        <ele>174.8</ele>
        <time>2015-06-25T16:20:37.000Z</time>
      </trkpt>
      <trkpt lat="48.71708" lon="1.78715">
        <ele>174.5</ele>
        <time>2015-06-25T16:20:44.000Z</time>
      </trkpt>
      <trkpt lat="48.7171" lon="1.78708">
        <ele>174.4</ele>
        <time>2015-06-25T16:20:47.000Z</time>
      </trkpt>
      <trkpt lat="48.71717" lon="1.78696">
        <ele>174.2</ele>
        <time>2015-06-25T16:20:53.000Z</time>
      </trkpt>
      <trkpt lat="48.71718" lon="1.78686">
        <ele>174.1</ele>
        <time>2015-06-25T16:20:57.000Z</time>
      </trkpt>
      <trkpt lat="48.71722" lon="1.78661">
        <ele>174.2</ele>
        <time>2015-06-25T16:21:06.000Z</time>
      </trkpt>
      <trkpt lat="48.71727" lon="1.78644">
        <ele>174.7</ele>
        <time>2015-06-25T16:21:13.000Z</time>
      </trkpt>
      <trkpt lat="48.71733" lon="1.78628">
        <ele>174.6</ele>
        <time>2015-06-25T16:21:20.000Z</time>
      </trkpt>
      <trkpt lat="48.71738" lon="1.78611">
        <ele>174.4</ele>
        <time>2015-06-25T16:21:27.000Z</time>
      </trkpt>
      <trkpt lat="48.71739" lon="1.78607">
        <ele>174.5</ele>
        <time>2015-06-25T16:21:29.000Z</time>
      </trkpt>
      <trkpt lat="48.71738" lon="1.78583">
        <ele>175</ele>
        <time>2015-06-25T16:21:38.000Z</time>
      </trkpt>
      <trkpt lat="48.71738" lon="1.78581">
        <ele>175</ele>
        <time>2015-06-25T16:21:39.000Z</time>
      </trkpt>
      <trkpt lat="48.71735" lon="1.78567">
        <ele>175</ele>
        <time>2015-06-25T16:21:46.000Z</time>
      </trkpt>
      <trkpt lat="48.71734" lon="1.7856">
        <ele>175</ele>
        <time>2015-06-25T16:21:49.000Z</time>
      </trkpt>
      <trkpt lat="48.71727" lon="1.78548">
        <ele>175</ele>
        <time>2015-06-25T16:21:56.000Z</time>
      </trkpt>
      <trkpt lat="48.71716" lon="1.78533">
        <ele>175.2</ele>
        <time>2015-06-25T16:22:01.000Z</time>
      </trkpt>
      <trkpt lat="48.717" lon="1.7852">
        <ele>175.8</ele>
        <time>2015-06-25T16:22:07.000Z</time>
      </trkpt>
      <trkpt lat="48.71687" lon="1.78511">
        <ele>176</ele>
        <time>2015-06-25T16:22:11.000Z</time>
      </trkpt>
      <trkpt lat="48.71672" lon="1.78492">
        <ele>176.2</ele>
        <time>2015-06-25T16:22:16.000Z</time>
      </trkpt>
      <trkpt lat="48.71662" lon="1.78464">
        <ele>177</ele>
        <time>2015-06-25T16:22:21.000Z</time>
      </trkpt>
      <trkpt lat="48.71657" lon="1.78437">
        <ele>177</ele>
        <time>2015-06-25T16:22:25.000Z</time>
      </trkpt>
      <trkpt lat="48.71656" lon="1.78425">
        <ele>177</ele>
        <time>2015-06-25T16:22:27.000Z</time>
      </trkpt>
      <trkpt lat="48.71649" lon="1.78381">
        <ele>176.8</ele>
        <time>2015-06-25T16:22:34.000Z</time>
      </trkpt>
      <trkpt lat="48.71635" lon="1.78355">
        <ele>176.1</ele>
        <time>2015-06-25T16:22:39.000Z</time>
      </trkpt>
      <trkpt lat="48.71627" lon="1.78349">
        <ele>176.3</ele>
        <time>2015-06-25T16:22:41.000Z</time>
      </trkpt>
      <trkpt lat="48.71613" lon="1.78345">
        <ele>176.4</ele>
        <time>2015-06-25T16:22:44.000Z</time>
      </trkpt>
      <trkpt lat="48.71586" lon="1.78333">
        <ele>176</ele>
        <time>2015-06-25T16:22:50.000Z</time>
      </trkpt>
      <trkpt lat="48.71549" lon="1.78311">
        <ele>176</ele>
        <time>2015-06-25T16:22:58.000Z</time>
      </trkpt>
      <trkpt lat="48.71545" lon="1.78309">
        <ele>176</ele>
        <time>2015-06-25T16:22:59.000Z</time>
      </trkpt>
      <trkpt lat="48.71528" lon="1.783">
        <ele>175.8</ele>
        <time>2015-06-25T16:23:03.000Z</time>
      </trkpt>
      <trkpt lat="48.71491" lon="1.78292">
        <ele>175</ele>
        <time>2015-06-25T16:23:11.000Z</time>
      </trkpt>
      <trkpt lat="48.71482" lon="1.78289">
        <ele>175</ele>
        <time>2015-06-25T16:23:14.000Z</time>
      </trkpt>
      <trkpt lat="48.71468" lon="1.78284">
        <ele>174.8</ele>
        <time>2015-06-25T16:23:22.000Z</time>
      </trkpt>
      <trkpt lat="48.71458" lon="1.7828">
        <ele>174.5</ele>
        <time>2015-06-25T16:23:28.000Z</time>
      </trkpt>
      <trkpt lat="48.71448" lon="1.78274">
        <ele>174.1</ele>
        <time>2015-06-25T16:23:34.000Z</time>
      </trkpt>
      <trkpt lat="48.7144" lon="1.78272">
        <ele>174</ele>
        <time>2015-06-25T16:23:39.000Z</time>
      </trkpt>
      <trkpt lat="48.71438" lon="1.78271">
        <ele>173.9</ele>
        <time>2015-06-25T16:23:40.000Z</time>
      </trkpt>
      <trkpt lat="48.71426" lon="1.7827">
        <ele>173.8</ele>
        <time>2015-06-25T16:23:46.000Z</time>
      </trkpt>
      <trkpt lat="48.71417" lon="1.78265">
        <ele>173.5</ele>
        <time>2015-06-25T16:23:53.000Z</time>
      </trkpt>
      <trkpt lat="48.71408" lon="1.7826">
        <ele>173.1</ele>
        <time>2015-06-25T16:23:59.000Z</time>
      </trkpt>
      <trkpt lat="48.71399" lon="1.78256">
        <ele>172.6</ele>
        <time>2015-06-25T16:24:04.000Z</time>
      </trkpt>
      <trkpt lat="48.71387" lon="1.78251">
        <ele>172</ele>
        <time>2015-06-25T16:24:10.000Z</time>
      </trkpt>
      <trkpt lat="48.71377" lon="1.78248">
        <ele>171.6</ele>
        <time>2015-06-25T16:24:15.000Z</time>
      </trkpt>
      <trkpt lat="48.71362" lon="1.78241">
        <ele>171</ele>
        <time>2015-06-25T16:24:20.000Z</time>
      </trkpt>
      <trkpt lat="48.71347" lon="1.78233">
        <ele>170.5</ele>
        <time>2015-06-25T16:24:24.000Z</time>
      </trkpt>
      <trkpt lat="48.7133" lon="1.78227">
        <ele>169.7</ele>
        <time>2015-06-25T16:24:29.000Z</time>
      </trkpt>
      <trkpt lat="48.71312" lon="1.7822">
        <ele>168.4</ele>
        <time>2015-06-25T16:24:34.000Z</time>
      </trkpt>
      <trkpt lat="48.713" lon="1.78218">
        <ele>167.8</ele>
        <time>2015-06-25T16:24:38.000Z</time>
      </trkpt>
      <trkpt lat="48.71293" lon="1.78212">
        <ele>167.4</ele>
        <time>2015-06-25T16:24:41.000Z</time>
      </trkpt>
      <trkpt lat="48.71277" lon="1.78193">
        <ele>166</ele>
        <time>2015-06-25T16:24:48.000Z</time>
      </trkpt>
      <trkpt lat="48.71264" lon="1.78177">
        <ele>165.5</ele>
        <time>2015-06-25T16:24:52.000Z</time>
      </trkpt>
      <trkpt lat="48.71249" lon="1.78159">
        <ele>165</ele>
        <time>2015-06-25T16:24:57.000Z</time>
      </trkpt>
      <trkpt lat="48.71233" lon="1.78141">
        <ele>165</ele>
        <time>2015-06-25T16:25:02.000Z</time>
      </trkpt>
      <trkpt lat="48.71214" lon="1.7812">
        <ele>164.2</ele>
        <time>2015-06-25T16:25:07.000Z</time>
      </trkpt>
      <trkpt lat="48.71208" lon="1.78113">
        <ele>164</ele>
        <time>2015-06-25T16:25:09.000Z</time>
      </trkpt>
      <trkpt lat="48.71182" lon="1.78079">
        <ele>164</ele>
        <time>2015-06-25T16:25:14.000Z</time>
      </trkpt>
      <trkpt lat="48.71159" lon="1.78049">
        <ele>164</ele>
        <time>2015-06-25T16:25:20.000Z</time>
      </trkpt>
      <trkpt lat="48.71154" lon="1.78042">
        <ele>164</ele>
        <time>2015-06-25T16:25:22.000Z</time>
      </trkpt>
      <trkpt lat="48.71148" lon="1.78027">
        <ele>164</ele>
        <time>2015-06-25T16:25:28.000Z</time>
      </trkpt>
      <trkpt lat="48.7114" lon="1.78009">
        <ele>164</ele>
        <time>2015-06-25T16:25:35.000Z</time>
      </trkpt>
      <trkpt lat="48.71138" lon="1.78007">
        <ele>163.9</ele>
        <time>2015-06-25T16:25:36.000Z</time>
      </trkpt>
      <trkpt lat="48.71135" lon="1.77988">
        <ele>163.5</ele>
        <time>2015-06-25T16:25:42.000Z</time>
      </trkpt>
      <trkpt lat="48.71135" lon="1.77982">
        <ele>163.5</ele>
        <time>2015-06-25T16:25:44.000Z</time>
      </trkpt>
      <trkpt lat="48.71136" lon="1.77977">
        <ele>163.5</ele>
        <time>2015-06-25T16:25:46.000Z</time>
      </trkpt>
      <trkpt lat="48.71137" lon="1.77961">
        <ele>163.7</ele>
        <time>2015-06-25T16:25:52.000Z</time>
      </trkpt>
      <trkpt lat="48.71142" lon="1.77952">
        <ele>164</ele>
        <time>2015-06-25T16:25:57.000Z</time>
      </trkpt>
      <trkpt lat="48.71142" lon="1.77949">
        <ele>164</ele>
        <time>2015-06-25T16:25:58.000Z</time>
      </trkpt>
      <trkpt lat="48.71138" lon="1.77939">
        <ele>163.8</ele>
        <time>2015-06-25T16:26:04.000Z</time>
      </trkpt>
      <trkpt lat="48.71135" lon="1.77928">
        <ele>163.3</ele>
        <time>2015-06-25T16:26:08.000Z</time>
      </trkpt>
      <trkpt lat="48.71135" lon="1.77925">
        <ele>163.3</ele>
        <time>2015-06-25T16:26:09.000Z</time>
      </trkpt>
      <trkpt lat="48.71133" lon="1.77909">
        <ele>162.9</ele>
        <time>2015-06-25T16:26:15.000Z</time>
      </trkpt>
      <trkpt lat="48.71128" lon="1.77895">
        <ele>162.5</ele>
        <time>2015-06-25T16:26:21.000Z</time>
      </trkpt>
      <trkpt lat="48.71124" lon="1.77884">
        <ele>162.6</ele>
        <time>2015-06-25T16:26:25.000Z</time>
      </trkpt>
      <trkpt lat="48.71121" lon="1.77877">
        <ele>162.6</ele>
        <time>2015-06-25T16:26:28.000Z</time>
      </trkpt>
      <trkpt lat="48.71118" lon="1.77863">
        <ele>163</ele>
        <time>2015-06-25T16:26:35.000Z</time>
      </trkpt>
      <trkpt lat="48.7111" lon="1.77844">
        <ele>162.3</ele>
        <time>2015-06-25T16:26:41.000Z</time>
      </trkpt>
      <trkpt lat="48.71108" lon="1.77825">
        <ele>161.6</ele>
        <time>2015-06-25T16:26:48.000Z</time>
      </trkpt>
      <trkpt lat="48.71109" lon="1.7782">
        <ele>161.5</ele>
        <time>2015-06-25T16:26:50.000Z</time>
      </trkpt>
      <trkpt lat="48.71108" lon="1.77812">
        <ele>161.1</ele>
        <time>2015-06-25T16:26:54.000Z</time>
      </trkpt>
      <trkpt lat="48.71106" lon="1.77795">
        <ele>160.5</ele>
        <time>2015-06-25T16:27:01.000Z</time>
      </trkpt>
      <trkpt lat="48.71103" lon="1.77782">
        <ele>160.1</ele>
        <time>2015-06-25T16:27:07.000Z</time>
      </trkpt>
      <trkpt lat="48.711" lon="1.77774">
        <ele>159.9</ele>
        <time>2015-06-25T16:27:11.000Z</time>
      </trkpt>
      <trkpt lat="48.71098" lon="1.7777">
        <ele>159.8</ele>
        <time>2015-06-25T16:27:14.000Z</time>
      </trkpt>
      <trkpt lat="48.71094" lon="1.77754">
        <ele>159.7</ele>
        <time>2015-06-25T16:27:19.000Z</time>
      </trkpt>
      <trkpt lat="48.71086" lon="1.7773">
        <ele>159.9</ele>
        <time>2015-06-25T16:27:25.000Z</time>
      </trkpt>
      <trkpt lat="48.71078" lon="1.7771">
        <ele>160.2</ele>
        <time>2015-06-25T16:27:29.000Z</time>
      </trkpt>
      <trkpt lat="48.71071" lon="1.77688">
        <ele>160.4</ele>
        <time>2015-06-25T16:27:33.000Z</time>
      </trkpt>
      <trkpt lat="48.71067" lon="1.77676">
        <ele>160.6</ele>
        <time>2015-06-25T16:27:35.000Z</time>
      </trkpt>
      <trkpt lat="48.71049" lon="1.77638">
        <ele>162</ele>
        <time>2015-06-25T16:27:41.000Z</time>
      </trkpt>
      <trkpt lat="48.71044" lon="1.77624">
        <ele>162</ele>
        <time>2015-06-25T16:27:43.000Z</time>
      </trkpt>
      <trkpt lat="48.71032" lon="1.77595">
        <ele>162.5</ele>
        <time>2015-06-25T16:27:47.000Z</time>
      </trkpt>
      <trkpt lat="48.71011" lon="1.77542">
        <ele>163.6</ele>
        <time>2015-06-25T16:27:55.000Z</time>
      </trkpt>
      <trkpt lat="48.70996" lon="1.77508">
        <ele>164.9</ele>
        <time>2015-06-25T16:28:01.000Z</time>
      </trkpt>
      <trkpt lat="48.70976" lon="1.7747">
        <ele>165.9</ele>
        <time>2015-06-25T16:28:07.000Z</time>
      </trkpt>
      <trkpt lat="48.70963" lon="1.77442">
        <ele>166.3</ele>
        <time>2015-06-25T16:28:11.000Z</time>
      </trkpt>
      <trkpt lat="48.70948" lon="1.77411">
        <ele>166.9</ele>
        <time>2015-06-25T16:28:16.000Z</time>
      </trkpt>
      <trkpt lat="48.70931" lon="1.77375">
        <ele>167.5</ele>
        <time>2015-06-25T16:28:22.000Z</time>
      </trkpt>
      <trkpt lat="48.70911" lon="1.77331">
        <ele>168.2</ele>
        <time>2015-06-25T16:28:29.000Z</time>
      </trkpt>
      <trkpt lat="48.70894" lon="1.77289">
        <ele>168.8</ele>
        <time>2015-06-25T16:28:37.000Z</time>
      </trkpt>
      <trkpt lat="48.70889" lon="1.77275">
        <ele>168.9</ele>
        <time>2015-06-25T16:28:42.000Z</time>
      </trkpt>
      <trkpt lat="48.70884" lon="1.77261">
        <ele>168.6</ele>
        <time>2015-06-25T16:28:48.000Z</time>
      </trkpt>
      <trkpt lat="48.70883" lon="1.77259">
        <ele>168.5</ele>
        <time>2015-06-25T16:28:49.000Z</time>
      </trkpt>
      <trkpt lat="48.70876" lon="1.77255">
        <ele>168.6</ele>
        <time>2015-06-25T16:28:54.000Z</time>
      </trkpt>
      <trkpt lat="48.70868" lon="1.77253">
        <ele>168.9</ele>
        <time>2015-06-25T16:28:59.000Z</time>
      </trkpt>
      <trkpt lat="48.7086" lon="1.77254">
        <ele>169.2</ele>
        <time>2015-06-25T16:29:02.000Z</time>
      </trkpt>
      <trkpt lat="48.70842" lon="1.77254">
        <ele>169.7</ele>
        <time>2015-06-25T16:29:09.000Z</time>
      </trkpt>
      <trkpt lat="48.70824" lon="1.77255">
        <ele>170.1</ele>
        <time>2015-06-25T16:29:15.000Z</time>
      </trkpt>
      <trkpt lat="48.70804" lon="1.77255">
        <ele>170.2</ele>
        <time>2015-06-25T16:29:21.000Z</time>
      </trkpt>
      <trkpt lat="48.70786" lon="1.77256">
        <ele>170.9</ele>
        <time>2015-06-25T16:29:26.000Z</time>
      </trkpt>
      <trkpt lat="48.70767" lon="1.77257">
        <ele>171.7</ele>
        <time>2015-06-25T16:29:31.000Z</time>
      </trkpt>
      <trkpt lat="48.7074" lon="1.7726">
        <ele>172.6</ele>
        <time>2015-06-25T16:29:38.000Z</time>
      </trkpt>
      <trkpt lat="48.70726" lon="1.77262">
        <ele>172.9</ele>
        <time>2015-06-25T16:29:42.000Z</time>
      </trkpt>
      <trkpt lat="48.70708" lon="1.77261">
        <ele>173.5</ele>
        <time>2015-06-25T16:29:47.000Z</time>
      </trkpt>
      <trkpt lat="48.70689" lon="1.7726">
        <ele>174.1</ele>
        <time>2015-06-25T16:29:52.000Z</time>
      </trkpt>
      <trkpt lat="48.70665" lon="1.77257">
        <ele>174.3</ele>
        <time>2015-06-25T16:29:59.000Z</time>
      </trkpt>
      <trkpt lat="48.70652" lon="1.77256">
        <ele>174.6</ele>
        <time>2015-06-25T16:30:04.000Z</time>
      </trkpt>
      <trkpt lat="48.70642" lon="1.77254">
        <ele>174.9</ele>
        <time>2015-06-25T16:30:09.000Z</time>
      </trkpt>
      <trkpt lat="48.70634" lon="1.77253">
        <ele>175</ele>
        <time>2015-06-25T16:30:14.000Z</time>
      </trkpt>
      <trkpt lat="48.70632" lon="1.77253">
        <ele>175</ele>
        <time>2015-06-25T16:30:15.000Z</time>
      </trkpt>
      <trkpt lat="48.70621" lon="1.77252">
        <ele>175</ele>
        <time>2015-06-25T16:30:23.000Z</time>
      </trkpt>
      <trkpt lat="48.70611" lon="1.77248">
        <ele>175</ele>
        <time>2015-06-25T16:30:30.000Z</time>
      </trkpt>
      <trkpt lat="48.70602" lon="1.7725">
        <ele>175.3</ele>
        <time>2015-06-25T16:30:35.000Z</time>
      </trkpt>
      <trkpt lat="48.70593" lon="1.77246">
        <ele>175.7</ele>
        <time>2015-06-25T16:30:40.000Z</time>
      </trkpt>
      <trkpt lat="48.7058" lon="1.77246">
        <ele>176</ele>
        <time>2015-06-25T16:30:48.000Z</time>
      </trkpt>
      <trkpt lat="48.70577" lon="1.77246">
        <ele>176</ele>
        <time>2015-06-25T16:30:50.000Z</time>
      </trkpt>
      <trkpt lat="48.70566" lon="1.77244">
        <ele>176</ele>
        <time>2015-06-25T16:30:56.000Z</time>
      </trkpt>
      <trkpt lat="48.70552" lon="1.77242">
        <ele>176</ele>
        <time>2015-06-25T16:31:04.000Z</time>
      </trkpt>
      <trkpt lat="48.70546" lon="1.77242">
        <ele>176</ele>
        <time>2015-06-25T16:31:07.000Z</time>
      </trkpt>
      <trkpt lat="48.70537" lon="1.77241">
        <ele>176</ele>
        <time>2015-06-25T16:31:13.000Z</time>
      </trkpt>
      <trkpt lat="48.70535" lon="1.77241">
        <ele>176</ele>
        <time>2015-06-25T16:31:14.000Z</time>
      </trkpt>
      <trkpt lat="48.70529" lon="1.77241">
        <ele>176</ele>
        <time>2015-06-25T16:31:18.000Z</time>
      </trkpt>
      <trkpt lat="48.7052" lon="1.7724">
        <ele>176.2</ele>
        <time>2015-06-25T16:31:24.000Z</time>
      </trkpt>
      <trkpt lat="48.70514" lon="1.77241">
        <ele>176.3</ele>
        <time>2015-06-25T16:31:29.000Z</time>
      </trkpt>
      <trkpt lat="48.70503" lon="1.77239">
        <ele>176.6</ele>
        <time>2015-06-25T16:31:36.000Z</time>
      </trkpt>
      <trkpt lat="48.70485" lon="1.77233">
        <ele>176.5</ele>
        <time>2015-06-25T16:31:45.000Z</time>
      </trkpt>
      <trkpt lat="48.70474" lon="1.77235">
        <ele>176.6</ele>
        <time>2015-06-25T16:31:51.000Z</time>
      </trkpt>
      <trkpt lat="48.70463" lon="1.77236">
        <ele>176.7</ele>
        <time>2015-06-25T16:31:57.000Z</time>
      </trkpt>
      <trkpt lat="48.70456" lon="1.77236">
        <ele>176.8</ele>
        <time>2015-06-25T16:32:02.000Z</time>
      </trkpt>
      <trkpt lat="48.70452" lon="1.77238">
        <ele>176.8</ele>
        <time>2015-06-25T16:32:04.000Z</time>
      </trkpt>
      <trkpt lat="48.70442" lon="1.77243">
        <ele>177</ele>
        <time>2015-06-25T16:32:10.000Z</time>
      </trkpt>
      <trkpt lat="48.70429" lon="1.77248">
        <ele>177</ele>
        <time>2015-06-25T16:32:18.000Z</time>
      </trkpt>
      <trkpt lat="48.70423" lon="1.77251">
        <ele>177</ele>
        <time>2015-06-25T16:32:21.000Z</time>
      </trkpt>
      <trkpt lat="48.70413" lon="1.77259">
        <ele>177</ele>
        <time>2015-06-25T16:32:27.000Z</time>
      </trkpt>
      <trkpt lat="48.70409" lon="1.77263">
        <ele>177</ele>
        <time>2015-06-25T16:32:30.000Z</time>
      </trkpt>
      <trkpt lat="48.70399" lon="1.77273">
        <ele>177</ele>
        <time>2015-06-25T16:32:37.000Z</time>
      </trkpt>
      <trkpt lat="48.70391" lon="1.77281">
        <ele>177</ele>
        <time>2015-06-25T16:32:42.000Z</time>
      </trkpt>
      <trkpt lat="48.70381" lon="1.7729">
        <ele>177</ele>
        <time>2015-06-25T16:32:50.000Z</time>
      </trkpt>
      <trkpt lat="48.70373" lon="1.77294">
        <ele>177</ele>
        <time>2015-06-25T16:32:55.000Z</time>
      </trkpt>
      <trkpt lat="48.70371" lon="1.77286">
        <ele>177</ele>
        <time>2015-06-25T16:32:59.000Z</time>
      </trkpt>
      <trkpt lat="48.70369" lon="1.7728">
        <ele>177</ele>
        <time>2015-06-25T16:33:01.000Z</time>
      </trkpt>
      <trkpt lat="48.70365" lon="1.77263">
        <ele>177</ele>
        <time>2015-06-25T16:33:07.000Z</time>
      </trkpt>
      <trkpt lat="48.70365" lon="1.7726">
        <ele>177</ele>
        <time>2015-06-25T16:33:08.000Z</time>
      </trkpt>
      <trkpt lat="48.70364" lon="1.77244">
        <ele>177</ele>
        <time>2015-06-25T16:33:15.000Z</time>
      </trkpt>
      <trkpt lat="48.70362" lon="1.77226">
        <ele>177</ele>
        <time>2015-06-25T16:33:22.000Z</time>
      </trkpt>
      <trkpt lat="48.70361" lon="1.77222">
        <ele>177</ele>
        <time>2015-06-25T16:33:24.000Z</time>
      </trkpt>
      <trkpt lat="48.70357" lon="1.77206">
        <ele>177</ele>
        <time>2015-06-25T16:33:29.000Z</time>
      </trkpt>
      <trkpt lat="48.70357" lon="1.77198">
        <ele>177</ele>
        <time>2015-06-25T16:33:32.000Z</time>
      </trkpt>
      <trkpt lat="48.70355" lon="1.77178">
        <ele>177</ele>
        <time>2015-06-25T16:33:39.000Z</time>
      </trkpt>
      <trkpt lat="48.70352" lon="1.77163">
        <ele>177</ele>
        <time>2015-06-25T16:33:45.000Z</time>
      </trkpt>
      <trkpt lat="48.70352" lon="1.77153">
        <ele>177</ele>
        <time>2015-06-25T16:33:49.000Z</time>
      </trkpt>
      <trkpt lat="48.70352" lon="1.77149">
        <ele>177</ele>
        <time>2015-06-25T16:33:51.000Z</time>
      </trkpt>
      <trkpt lat="48.70352" lon="1.77135">
        <ele>177</ele>
        <time>2015-06-25T16:33:58.000Z</time>
      </trkpt>
      <trkpt lat="48.70351" lon="1.7713">
        <ele>177</ele>
        <time>2015-06-25T16:34:00.000Z</time>
      </trkpt>
      <trkpt lat="48.70351" lon="1.77119">
        <ele>177</ele>
        <time>2015-06-25T16:34:05.000Z</time>
      </trkpt>
      <trkpt lat="48.70349" lon="1.77099">
        <ele>177</ele>
        <time>2015-06-25T16:34:13.000Z</time>
      </trkpt>
      <trkpt lat="48.70348" lon="1.77084">
        <ele>177</ele>
        <time>2015-06-25T16:34:19.000Z</time>
      </trkpt>
      <trkpt lat="48.70345" lon="1.77069">
        <ele>176.8</ele>
        <time>2015-06-25T16:34:25.000Z</time>
      </trkpt>
      <trkpt lat="48.70339" lon="1.77048">
        <ele>176.6</ele>
        <time>2015-06-25T16:34:32.000Z</time>
      </trkpt>
      <trkpt lat="48.70339" lon="1.77037">
        <ele>176.3</ele>
        <time>2015-06-25T16:34:37.000Z</time>
      </trkpt>
      <trkpt lat="48.70339" lon="1.77031">
        <ele>176.1</ele>
        <time>2015-06-25T16:34:39.000Z</time>
      </trkpt>
      <trkpt lat="48.7034" lon="1.77012">
        <ele>176.4</ele>
        <time>2015-06-25T16:34:47.000Z</time>
      </trkpt>
      <trkpt lat="48.70339" lon="1.77005">
        <ele>176.6</ele>
        <time>2015-06-25T16:34:50.000Z</time>
      </trkpt>
      <trkpt lat="48.70338" lon="1.76993">
        <ele>176.9</ele>
        <time>2015-06-25T16:34:55.000Z</time>
      </trkpt>
      <trkpt lat="48.70337" lon="1.76977">
        <ele>177</ele>
        <time>2015-06-25T16:35:02.000Z</time>
      </trkpt>
      <trkpt lat="48.70337" lon="1.76967">
        <ele>177</ele>
        <time>2015-06-25T16:35:09.000Z</time>
      </trkpt>
      <trkpt lat="48.70338" lon="1.76965">
        <ele>177</ele>
        <time>2015-06-25T16:35:13.000Z</time>
      </trkpt>
      <trkpt lat="48.70338" lon="1.76956">
        <ele>177</ele>
        <time>2015-06-25T16:35:24.000Z</time>
      </trkpt>
      <trkpt lat="48.70338" lon="1.76948">
        <ele>177</ele>
        <time>2015-06-25T16:35:27.000Z</time>
      </trkpt>
      <trkpt lat="48.70337" lon="1.7693">
        <ele>176.5</ele>
        <time>2015-06-25T16:35:32.000Z</time>
      </trkpt>
      <trkpt lat="48.70336" lon="1.76926">
        <ele>176.3</ele>
        <time>2015-06-25T16:35:33.000Z</time>
      </trkpt>
      <trkpt lat="48.70335" lon="1.76891">
        <ele>176</ele>
        <time>2015-06-25T16:35:41.000Z</time>
      </trkpt>
      <trkpt lat="48.70336" lon="1.76868">
        <ele>176</ele>
        <time>2015-06-25T16:35:46.000Z</time>
      </trkpt>
      <trkpt lat="48.70335" lon="1.76822">
        <ele>175</ele>
        <time>2015-06-25T16:35:55.000Z</time>
      </trkpt>
      <trkpt lat="48.70334" lon="1.76779">
        <ele>174.1</ele>
        <time>2015-06-25T16:36:03.000Z</time>
      </trkpt>
      <trkpt lat="48.70333" lon="1.76747">
        <ele>173.9</ele>
        <time>2015-06-25T16:36:09.000Z</time>
      </trkpt>
      <trkpt lat="48.7033" lon="1.76716">
        <ele>172.8</ele>
        <time>2015-06-25T16:36:15.000Z</time>
      </trkpt>
      <trkpt lat="48.70331" lon="1.76692">
        <ele>172</ele>
        <time>2015-06-25T16:36:20.000Z</time>
      </trkpt>
      <trkpt lat="48.70333" lon="1.76664">
        <ele>171.9</ele>
        <time>2015-06-25T16:36:26.000Z</time>
      </trkpt>
      <trkpt lat="48.70338" lon="1.76647">
        <ele>171.6</ele>
        <time>2015-06-25T16:36:30.000Z</time>
      </trkpt>
      <trkpt lat="48.70346" lon="1.76631">
        <ele>171.8</ele>
        <time>2015-06-25T16:36:35.000Z</time>
      </trkpt>
      <trkpt lat="48.70357" lon="1.76623">
        <ele>172.2</ele>
        <time>2015-06-25T16:36:39.000Z</time>
      </trkpt>
      <trkpt lat="48.70369" lon="1.76615">
        <ele>172.4</ele>
        <time>2015-06-25T16:36:44.000Z</time>
      </trkpt>
      <trkpt lat="48.70387" lon="1.76605">
        <ele>172.9</ele>
        <time>2015-06-25T16:36:51.000Z</time>
      </trkpt>
      <trkpt lat="48.70402" lon="1.76599">
        <ele>173.3</ele>
        <time>2015-06-25T16:36:56.000Z</time>
      </trkpt>
      <trkpt lat="48.70416" lon="1.76592">
        <ele>173.3</ele>
        <time>2015-06-25T16:37:00.000Z</time>
      </trkpt>
      <trkpt lat="48.70427" lon="1.7658">
        <ele>173.3</ele>
        <time>2015-06-25T16:37:05.000Z</time>
      </trkpt>
      <trkpt lat="48.7043" lon="1.76577">
        <ele>173.4</ele>
        <time>2015-06-25T16:37:06.000Z</time>
      </trkpt>
      <trkpt lat="48.70437" lon="1.76564">
        <ele>173.2</ele>
        <time>2015-06-25T16:37:11.000Z</time>
      </trkpt>
      <trkpt lat="48.7044" lon="1.76546">
        <ele>172.7</ele>
        <time>2015-06-25T16:37:18.000Z</time>
      </trkpt>
      <trkpt lat="48.70442" lon="1.76529">
        <ele>172</ele>
        <time>2015-06-25T16:37:25.000Z</time>
      </trkpt>
      <trkpt lat="48.70443" lon="1.76524">
        <ele>172</ele>
        <time>2015-06-25T16:37:27.000Z</time>
      </trkpt>
      <trkpt lat="48.70445" lon="1.7651">
        <ele>172</ele>
        <time>2015-06-25T16:37:32.000Z</time>
      </trkpt>
      <trkpt lat="48.7045" lon="1.765">
        <ele>172</ele>
        <time>2015-06-25T16:37:37.000Z</time>
      </trkpt>
      <trkpt lat="48.70451" lon="1.76495">
        <ele>171.8</ele>
        <time>2015-06-25T16:37:39.000Z</time>
      </trkpt>
      <trkpt lat="48.70452" lon="1.76485">
        <ele>171.5</ele>
        <time>2015-06-25T16:37:42.000Z</time>
      </trkpt>
      <trkpt lat="48.70454" lon="1.76463">
        <ele>170.7</ele>
        <time>2015-06-25T16:37:50.000Z</time>
      </trkpt>
      <trkpt lat="48.70455" lon="1.76456">
        <ele>170.4</ele>
        <time>2015-06-25T16:37:53.000Z</time>
      </trkpt>
      <trkpt lat="48.70457" lon="1.76444">
        <ele>170</ele>
        <time>2015-06-25T16:37:58.000Z</time>
      </trkpt>
      <trkpt lat="48.70462" lon="1.7643">
        <ele>169.8</ele>
        <time>2015-06-25T16:38:05.000Z</time>
      </trkpt>
      <trkpt lat="48.70462" lon="1.76427">
        <ele>169.8</ele>
        <time>2015-06-25T16:38:06.000Z</time>
      </trkpt>
      <trkpt lat="48.70458" lon="1.76411">
        <ele>169.3</ele>
        <time>2015-06-25T16:38:13.000Z</time>
      </trkpt>
      <trkpt lat="48.70454" lon="1.76396">
        <ele>168.6</ele>
        <time>2015-06-25T16:38:19.000Z</time>
      </trkpt>
      <trkpt lat="48.70453" lon="1.7639">
        <ele>168.4</ele>
        <time>2015-06-25T16:38:22.000Z</time>
      </trkpt>
      <trkpt lat="48.7045" lon="1.76371">
        <ele>168.2</ele>
        <time>2015-06-25T16:38:31.000Z</time>
      </trkpt>
      <trkpt lat="48.70448" lon="1.76354">
        <ele>168.1</ele>
        <time>2015-06-25T16:38:37.000Z</time>
      </trkpt>
      <trkpt lat="48.70447" lon="1.76352">
        <ele>168.1</ele>
        <time>2015-06-25T16:38:38.000Z</time>
      </trkpt>
      <trkpt lat="48.70445" lon="1.76335">
        <ele>168</ele>
        <time>2015-06-25T16:38:44.000Z</time>
      </trkpt>
      <trkpt lat="48.70443" lon="1.76323">
        <ele>168</ele>
        <time>2015-06-25T16:38:49.000Z</time>
      </trkpt>
      <trkpt lat="48.70445" lon="1.76311">
        <ele>168.1</ele>
        <time>2015-06-25T16:38:54.000Z</time>
      </trkpt>
      <trkpt lat="48.70445" lon="1.76298">
        <ele>168.3</ele>
        <time>2015-06-25T16:39:00.000Z</time>
      </trkpt>
      <trkpt lat="48.70444" lon="1.76284">
        <ele>168.8</ele>
        <time>2015-06-25T16:39:05.000Z</time>
      </trkpt>
      <trkpt lat="48.70446" lon="1.76276">
        <ele>169</ele>
        <time>2015-06-25T16:39:08.000Z</time>
      </trkpt>
      <trkpt lat="48.70452" lon="1.76267">
        <ele>169</ele>
        <time>2015-06-25T16:39:13.000Z</time>
      </trkpt>
      <trkpt lat="48.70454" lon="1.76251">
        <ele>168.7</ele>
        <time>2015-06-25T16:39:19.000Z</time>
      </trkpt>
      <trkpt lat="48.70458" lon="1.76242">
        <ele>168.7</ele>
        <time>2015-06-25T16:39:24.000Z</time>
      </trkpt>
      <trkpt lat="48.70458" lon="1.76239">
        <ele>168.6</ele>
        <time>2015-06-25T16:39:25.000Z</time>
      </trkpt>
      <trkpt lat="48.70459" lon="1.76226">
        <ele>168.2</ele>
        <time>2015-06-25T16:39:31.000Z</time>
      </trkpt>
      <trkpt lat="48.70459" lon="1.76217">
        <ele>168</ele>
        <time>2015-06-25T16:39:35.000Z</time>
      </trkpt>
      <trkpt lat="48.70459" lon="1.76211">
        <ele>167.9</ele>
        <time>2015-06-25T16:39:38.000Z</time>
      </trkpt>
      <trkpt lat="48.70458" lon="1.762">
        <ele>167.6</ele>
        <time>2015-06-25T16:39:43.000Z</time>
      </trkpt>
      <trkpt lat="48.70454" lon="1.76189">
        <ele>167.3</ele>
        <time>2015-06-25T16:39:48.000Z</time>
      </trkpt>
      <trkpt lat="48.70452" lon="1.76176">
        <ele>167.3</ele>
        <time>2015-06-25T16:39:53.000Z</time>
      </trkpt>
      <trkpt lat="48.70452" lon="1.76166">
        <ele>167.3</ele>
        <time>2015-06-25T16:39:57.000Z</time>
      </trkpt>
      <trkpt lat="48.70452" lon="1.7615">
        <ele>167.3</ele>
        <time>2015-06-25T16:40:03.000Z</time>
      </trkpt>
      <trkpt lat="48.70453" lon="1.76144">
        <ele>167.3</ele>
        <time>2015-06-25T16:40:05.000Z</time>
      </trkpt>
      <trkpt lat="48.70454" lon="1.76135">
        <ele>167.4</ele>
        <time>2015-06-25T16:40:10.000Z</time>
      </trkpt>
      <trkpt lat="48.70455" lon="1.76122">
        <ele>167.7</ele>
        <time>2015-06-25T16:40:15.000Z</time>
      </trkpt>
      <trkpt lat="48.70457" lon="1.76118">
        <ele>167.9</ele>
        <time>2015-06-25T16:40:17.000Z</time>
      </trkpt>
      <trkpt lat="48.70464" lon="1.76108">
        <ele>168</ele>
        <time>2015-06-25T16:40:23.000Z</time>
      </trkpt>
      <trkpt lat="48.7047" lon="1.76099">
        <ele>168</ele>
        <time>2015-06-25T16:40:29.000Z</time>
      </trkpt>
      <trkpt lat="48.7047" lon="1.76088">
        <ele>168</ele>
        <time>2015-06-25T16:40:34.000Z</time>
      </trkpt>
      <trkpt lat="48.70467" lon="1.76075">
        <ele>168.3</ele>
        <time>2015-06-25T16:40:38.000Z</time>
      </trkpt>
      <trkpt lat="48.7047" lon="1.76053">
        <ele>169</ele>
        <time>2015-06-25T16:40:47.000Z</time>
      </trkpt>
      <trkpt lat="48.70472" lon="1.76037">
        <ele>169</ele>
        <time>2015-06-25T16:40:53.000Z</time>
      </trkpt>
      <trkpt lat="48.70475" lon="1.76026">
        <ele>169</ele>
        <time>2015-06-25T16:40:58.000Z</time>
      </trkpt>
      <trkpt lat="48.70476" lon="1.7601">
        <ele>169.6</ele>
        <time>2015-06-25T16:41:06.000Z</time>
      </trkpt>
      <trkpt lat="48.70478" lon="1.75995">
        <ele>169.8</ele>
        <time>2015-06-25T16:41:12.000Z</time>
      </trkpt>
      <trkpt lat="48.70478" lon="1.7599">
        <ele>169.9</ele>
        <time>2015-06-25T16:41:14.000Z</time>
      </trkpt>
      <trkpt lat="48.70485" lon="1.75973">
        <ele>170</ele>
        <time>2015-06-25T16:41:23.000Z</time>
      </trkpt>
      <trkpt lat="48.70486" lon="1.75971">
        <ele>170</ele>
        <time>2015-06-25T16:41:24.000Z</time>
      </trkpt>
      <trkpt lat="48.70495" lon="1.75957">
        <ele>170.1</ele>
        <time>2015-06-25T16:41:32.000Z</time>
      </trkpt>
      <trkpt lat="48.70498" lon="1.75953">
        <ele>170</ele>
        <time>2015-06-25T16:41:35.000Z</time>
      </trkpt>
      <trkpt lat="48.70507" lon="1.75946">
        <ele>170</ele>
        <time>2015-06-25T16:41:41.000Z</time>
      </trkpt>
      <trkpt lat="48.70514" lon="1.75938">
        <ele>170.1</ele>
        <time>2015-06-25T16:41:47.000Z</time>
      </trkpt>
      <trkpt lat="48.7052" lon="1.75927">
        <ele>170.2</ele>
        <time>2015-06-25T16:41:53.000Z</time>
      </trkpt>
      <trkpt lat="48.70527" lon="1.75917">
        <ele>170</ele>
        <time>2015-06-25T16:41:59.000Z</time>
      </trkpt>
      <trkpt lat="48.70527" lon="1.75915">
        <ele>170.1</ele>
        <time>2015-06-25T16:42:00.000Z</time>
      </trkpt>
      <trkpt lat="48.70535" lon="1.75905">
        <ele>170.4</ele>
        <time>2015-06-25T16:42:06.000Z</time>
      </trkpt>
      <trkpt lat="48.70539" lon="1.75895">
        <ele>170.8</ele>
        <time>2015-06-25T16:42:11.000Z</time>
      </trkpt>
      <trkpt lat="48.70544" lon="1.75881">
        <ele>171</ele>
        <time>2015-06-25T16:42:17.000Z</time>
      </trkpt>
      <trkpt lat="48.7055" lon="1.75863">
        <ele>171</ele>
        <time>2015-06-25T16:42:24.000Z</time>
      </trkpt>
      <trkpt lat="48.70551" lon="1.75861">
        <ele>171</ele>
        <time>2015-06-25T16:42:25.000Z</time>
      </trkpt>
      <trkpt lat="48.70553" lon="1.75854">
        <ele>171</ele>
        <time>2015-06-25T16:42:28.000Z</time>
      </trkpt>
      <trkpt lat="48.70557" lon="1.75846">
        <ele>171</ele>
        <time>2015-06-25T16:42:33.000Z</time>
      </trkpt>
      <trkpt lat="48.70561" lon="1.75838">
        <ele>171</ele>
        <time>2015-06-25T16:42:38.000Z</time>
      </trkpt>
      <trkpt lat="48.70566" lon="1.75832">
        <ele>171</ele>
        <time>2015-06-25T16:42:44.000Z</time>
      </trkpt>
      <trkpt lat="48.70572" lon="1.75829">
        <ele>171.1</ele>
        <time>2015-06-25T16:42:51.000Z</time>
      </trkpt>
      <trkpt lat="48.7057" lon="1.7583">
        <ele>171.1</ele>
        <time>2015-06-25T16:42:58.000Z</time>
      </trkpt>
      <trkpt lat="48.70581" lon="1.75804">
        <ele>172</ele>
        <time>2015-06-25T16:43:41.000Z</time>
      </trkpt>
      <trkpt lat="48.70582" lon="1.75803">
        <ele>172</ele>
        <time>2015-06-25T16:43:42.000Z</time>
      </trkpt>
      <trkpt lat="48.70585" lon="1.75798">
        <ele>171.9</ele>
        <time>2015-06-25T16:43:44.000Z</time>
      </trkpt>
      <trkpt lat="48.70592" lon="1.75787">
        <ele>171.9</ele>
        <time>2015-06-25T16:43:51.000Z</time>
      </trkpt>
      <trkpt lat="48.70592" lon="1.75786">
        <ele>171.9</ele>
        <time>2015-06-25T16:43:52.000Z</time>
      </trkpt>
      <trkpt lat="48.70596" lon="1.75777">
        <ele>172</ele>
        <time>2015-06-25T16:43:57.000Z</time>
      </trkpt>
      <trkpt lat="48.70605" lon="1.75766">
        <ele>172</ele>
        <time>2015-06-25T16:44:05.000Z</time>
      </trkpt>
      <trkpt lat="48.70612" lon="1.75755">
        <ele>172</ele>
        <time>2015-06-25T16:44:13.000Z</time>
      </trkpt>
      <trkpt lat="48.7062" lon="1.7574">
        <ele>172</ele>
        <time>2015-06-25T16:44:22.000Z</time>
      </trkpt>
      <trkpt lat="48.70628" lon="1.75726">
        <ele>172</ele>
        <time>2015-06-25T16:44:31.000Z</time>
      </trkpt>
      <trkpt lat="48.70632" lon="1.7572">
        <ele>172</ele>
        <time>2015-06-25T16:44:35.000Z</time>
      </trkpt>
      <trkpt lat="48.70636" lon="1.7571">
        <ele>172</ele>
        <time>2015-06-25T16:44:42.000Z</time>
      </trkpt>
      <trkpt lat="48.70638" lon="1.75703">
        <ele>172</ele>
        <time>2015-06-25T16:44:45.000Z</time>
      </trkpt>
      <trkpt lat="48.7064" lon="1.75698">
        <ele>172</ele>
        <time>2015-06-25T16:44:48.000Z</time>
      </trkpt>
      <trkpt lat="48.70642" lon="1.75686">
        <ele>172.3</ele>
        <time>2015-06-25T16:44:54.000Z</time>
      </trkpt>
      <trkpt lat="48.70642" lon="1.75679">
        <ele>172.5</ele>
        <time>2015-06-25T16:44:58.000Z</time>
      </trkpt>
      <trkpt lat="48.70641" lon="1.75674">
        <ele>172.7</ele>
        <time>2015-06-25T16:45:01.000Z</time>
      </trkpt>
      <trkpt lat="48.70639" lon="1.75662">
        <ele>173</ele>
        <time>2015-06-25T16:45:07.000Z</time>
      </trkpt>
      <trkpt lat="48.70637" lon="1.75649">
        <ele>173</ele>
        <time>2015-06-25T16:45:13.000Z</time>
      </trkpt>
      <trkpt lat="48.70638" lon="1.75631">
        <ele>172.7</ele>
        <time>2015-06-25T16:45:21.000Z</time>
      </trkpt>
      <trkpt lat="48.7064" lon="1.75621">
        <ele>172.4</ele>
        <time>2015-06-25T16:45:27.000Z</time>
      </trkpt>
      <trkpt lat="48.70643" lon="1.75616">
        <ele>172.3</ele>
        <time>2015-06-25T16:45:30.000Z</time>
      </trkpt>
      <trkpt lat="48.70652" lon="1.75602">
        <ele>172.5</ele>
        <time>2015-06-25T16:45:40.000Z</time>
      </trkpt>
      <trkpt lat="48.70657" lon="1.75593">
        <ele>172.7</ele>
        <time>2015-06-25T16:45:46.000Z</time>
      </trkpt>
      <trkpt lat="48.70665" lon="1.75581">
        <ele>172.9</ele>
        <time>2015-06-25T16:45:54.000Z</time>
      </trkpt>
      <trkpt lat="48.70673" lon="1.7557">
        <ele>172.9</ele>
        <time>2015-06-25T16:46:02.000Z</time>
      </trkpt>
      <trkpt lat="48.70675" lon="1.75562">
        <ele>172.9</ele>
        <time>2015-06-25T16:46:07.000Z</time>
      </trkpt>
      <trkpt lat="48.70677" lon="1.75553">
        <ele>173</ele>
        <time>2015-06-25T16:46:12.000Z</time>
      </trkpt>
      <trkpt lat="48.70681" lon="1.75543">
        <ele>173</ele>
        <time>2015-06-25T16:46:18.000Z</time>
      </trkpt>
      <trkpt lat="48.70685" lon="1.75533">
        <ele>173</ele>
        <time>2015-06-25T16:46:24.000Z</time>
      </trkpt>
      <trkpt lat="48.70686" lon="1.7553">
        <ele>173</ele>
        <time>2015-06-25T16:46:26.000Z</time>
      </trkpt>
      <trkpt lat="48.70693" lon="1.75517">
        <ele>173</ele>
        <time>2015-06-25T16:46:33.000Z</time>
      </trkpt>
      <trkpt lat="48.70698" lon="1.75507">
        <ele>173</ele>
        <time>2015-06-25T16:46:39.000Z</time>
      </trkpt>
      <trkpt lat="48.70702" lon="1.75493">
        <ele>173</ele>
        <time>2015-06-25T16:46:46.000Z</time>
      </trkpt>
      <trkpt lat="48.70702" lon="1.75489">
        <ele>173</ele>
        <time>2015-06-25T16:46:50.000Z</time>
      </trkpt>
    </trkseg>
  </trk>
</gpx>